<?xml version="1.0" encoding="UTF-8" standalone="no" ?>
<gpx xmlns="http://www.topografix.com/GPX/1/1" xmlns:xsi="http://www.w3.org/2001/XMLSchema-instance" xsi:schemaLocation="http://www.topografix.com/GPX/1/1 http://www.topografix.com/GPX/1/1/gpx.xsd" version="1.1" creator="VisuGPX - https://www.visugpx.com">
  <metadata>
    <name>BRM200-TARN AGOUT</name>
    <desc><![CDATA[BRM200 L'Isle sur tarn]]></desc>
  </metadata>
  <trk>
    <name><![CDATA[10644150-TARN AGOUT]]></name>
    <extensions>
      <line xmlns="http://www.topografix.com/GPX/gpx_style/0/2">
        <color>0000FF</color>
        <width>4</width>
      </line>
    </extensions>
    <trkseg>
      <trkpt lat="43.85289" lon="1.81074">
        <ele>132</ele>
        <time>2022-02-07T14:59:47Z</time>
        <extensions>
          <visugpx:TrkExtension xmlns:visugpx="https://www.visugpx.com/editgpx/">
            <visugpx:node>6</visugpx:node>
            </visugpx:TrkExtension>
        </extensions>
      </trkpt>
      <trkpt lat="43.85297" lon="1.8108">
        <ele>131</ele>
        <time>2022-02-07T14:59:49Z</time>
      </trkpt>
      <trkpt lat="43.85297" lon="1.81091">
        <ele>131</ele>
        <time>2022-02-07T14:59:50Z</time>
      </trkpt>
      <trkpt lat="43.85301" lon="1.81098">
        <ele>131</ele>
        <time>2022-02-07T14:59:51Z</time>
      </trkpt>
      <trkpt lat="43.85276" lon="1.81172">
        <ele>128</ele>
        <time>2022-02-07T15:00:02Z</time>
      </trkpt>
      <trkpt lat="43.85156" lon="1.81153">
        <ele>125</ele>
        <time>2022-02-07T15:00:23Z</time>
      </trkpt>
      <trkpt lat="43.85095" lon="1.8115">
        <ele>124</ele>
        <time>2022-02-07T15:00:34Z</time>
      </trkpt>
      <trkpt lat="43.85097" lon="1.81193">
        <ele>122</ele>
        <time>2022-02-07T15:00:40Z</time>
      </trkpt>
      <trkpt lat="43.85107" lon="1.81358">
        <ele>118</ele>
        <time>2022-02-07T15:01:01Z</time>
      </trkpt>
      <trkpt lat="43.85109" lon="1.81384">
        <ele>120</ele>
        <time>2022-02-07T15:01:04Z</time>
      </trkpt>
      <trkpt lat="43.85131" lon="1.81383">
        <ele>120</ele>
        <time>2022-02-07T15:01:08Z</time>
      </trkpt>
      <trkpt lat="43.8521" lon="1.81392">
        <ele>121</ele>
        <time>2022-02-07T15:01:22Z</time>
      </trkpt>
      <trkpt lat="43.85266" lon="1.81409">
        <ele>123</ele>
        <time>2022-02-07T15:01:32Z</time>
      </trkpt>
      <trkpt lat="43.85405" lon="1.81465">
        <ele>124</ele>
        <time>2022-02-07T15:01:58Z</time>
      </trkpt>
      <trkpt lat="43.85476" lon="1.81501">
        <ele>124</ele>
        <time>2022-02-07T15:02:12Z</time>
      </trkpt>
      <trkpt lat="43.85542" lon="1.81566">
        <ele>125</ele>
        <time>2022-02-07T15:02:26Z</time>
      </trkpt>
      <trkpt lat="43.85688" lon="1.81717">
        <ele>127</ele>
        <time>2022-02-07T15:02:58Z</time>
      </trkpt>
      <trkpt lat="43.85865" lon="1.81911">
        <ele>127</ele>
        <time>2022-02-07T15:03:39Z</time>
      </trkpt>
      <trkpt lat="43.86131" lon="1.82248">
        <ele>125</ele>
        <time>2022-02-07T15:04:43Z</time>
      </trkpt>
      <trkpt lat="43.86181" lon="1.82336">
        <ele>125</ele>
        <time>2022-02-07T15:04:57Z</time>
      </trkpt>
      <trkpt lat="43.86209" lon="1.82403">
        <ele>124</ele>
        <time>2022-02-07T15:05:07Z</time>
      </trkpt>
      <trkpt lat="43.86227" lon="1.8246">
        <ele>124</ele>
        <time>2022-02-07T15:05:15Z</time>
      </trkpt>
      <trkpt lat="43.86238" lon="1.82503">
        <ele>126</ele>
        <time>2022-02-07T15:05:21Z</time>
      </trkpt>
      <trkpt lat="43.86243" lon="1.82563">
        <ele>126</ele>
        <time>2022-02-07T15:05:29Z</time>
      </trkpt>
      <trkpt lat="43.86247" lon="1.82645">
        <ele>127</ele>
        <time>2022-02-07T15:05:39Z</time>
      </trkpt>
      <trkpt lat="43.86246" lon="1.82717">
        <ele>127</ele>
        <time>2022-02-07T15:05:48Z</time>
      </trkpt>
      <trkpt lat="43.86238" lon="1.83009">
        <ele>126</ele>
        <time>2022-02-07T15:06:26Z</time>
      </trkpt>
      <trkpt lat="43.86286" lon="1.83242">
        <ele>126</ele>
        <time>2022-02-07T15:06:57Z</time>
      </trkpt>
      <trkpt lat="43.86303" lon="1.83319">
        <ele>126</ele>
        <time>2022-02-07T15:07:07Z</time>
      </trkpt>
      <trkpt lat="43.8634" lon="1.83456">
        <ele>126</ele>
        <time>2022-02-07T15:07:26Z</time>
      </trkpt>
      <trkpt lat="43.86398" lon="1.83574">
        <ele>128</ele>
        <time>2022-02-07T15:07:44Z</time>
      </trkpt>
      <trkpt lat="43.8647" lon="1.83725">
        <ele>128</ele>
        <time>2022-02-07T15:08:08Z</time>
      </trkpt>
      <trkpt lat="43.86503" lon="1.83848">
        <ele>129</ele>
        <time>2022-02-07T15:08:24Z</time>
      </trkpt>
      <trkpt lat="43.86536" lon="1.84132">
        <ele>132</ele>
        <time>2022-02-07T15:09:01Z</time>
      </trkpt>
      <trkpt lat="43.8658" lon="1.84363">
        <ele>135</ele>
        <time>2022-02-07T15:09:32Z</time>
      </trkpt>
      <trkpt lat="43.86585" lon="1.84415">
        <ele>134</ele>
        <time>2022-02-07T15:09:39Z</time>
      </trkpt>
      <trkpt lat="43.86564" lon="1.84516">
        <ele>134</ele>
        <time>2022-02-07T15:09:52Z</time>
      </trkpt>
      <trkpt lat="43.86515" lon="1.8463">
        <ele>134</ele>
        <time>2022-02-07T15:10:09Z</time>
      </trkpt>
      <trkpt lat="43.86434" lon="1.84787">
        <ele>132</ele>
        <time>2022-02-07T15:10:34Z</time>
      </trkpt>
      <trkpt lat="43.86391" lon="1.84848">
        <ele>131</ele>
        <time>2022-02-07T15:10:45Z</time>
      </trkpt>
      <trkpt lat="43.86336" lon="1.84969">
        <ele>130</ele>
        <time>2022-02-07T15:11:03Z</time>
      </trkpt>
      <trkpt lat="43.86277" lon="1.85092">
        <ele>132</ele>
        <time>2022-02-07T15:11:22Z</time>
      </trkpt>
      <trkpt lat="43.8624" lon="1.85181">
        <ele>136</ele>
        <time>2022-02-07T15:11:35Z</time>
      </trkpt>
      <trkpt lat="43.86233" lon="1.85216">
        <ele>138</ele>
        <time>2022-02-07T15:11:40Z</time>
      </trkpt>
      <trkpt lat="43.86233" lon="1.85321">
        <ele>141</ele>
        <time>2022-02-07T15:11:53Z</time>
      </trkpt>
      <trkpt lat="43.86236" lon="1.85351">
        <ele>141</ele>
        <time>2022-02-07T15:11:57Z</time>
      </trkpt>
      <trkpt lat="43.86299" lon="1.8563">
        <ele>139</ele>
        <time>2022-02-07T15:12:35Z</time>
      </trkpt>
      <trkpt lat="43.86319" lon="1.85696">
        <ele>138</ele>
        <time>2022-02-07T15:12:44Z</time>
      </trkpt>
      <trkpt lat="43.86346" lon="1.85769">
        <ele>137</ele>
        <time>2022-02-07T15:12:55Z</time>
      </trkpt>
      <trkpt lat="43.86371" lon="1.8582">
        <ele>136</ele>
        <time>2022-02-07T15:13:02Z</time>
      </trkpt>
      <trkpt lat="43.86408" lon="1.85884">
        <ele>134</ele>
        <time>2022-02-07T15:13:13Z</time>
      </trkpt>
      <trkpt lat="43.86417" lon="1.85909">
        <ele>134</ele>
        <time>2022-02-07T15:13:17Z</time>
      </trkpt>
      <trkpt lat="43.86422" lon="1.85952">
        <ele>133</ele>
        <time>2022-02-07T15:13:22Z</time>
      </trkpt>
      <trkpt lat="43.86429" lon="1.86041">
        <ele>134</ele>
        <time>2022-02-07T15:13:34Z</time>
      </trkpt>
      <trkpt lat="43.86429" lon="1.86231">
        <ele>139</ele>
        <time>2022-02-07T15:13:58Z</time>
      </trkpt>
      <trkpt lat="43.86423" lon="1.86318">
        <ele>138</ele>
        <time>2022-02-07T15:14:09Z</time>
      </trkpt>
      <trkpt lat="43.86429" lon="1.86443">
        <ele>141</ele>
        <time>2022-02-07T15:14:25Z</time>
      </trkpt>
      <trkpt lat="43.86422" lon="1.86488">
        <ele>142</ele>
        <time>2022-02-07T15:14:31Z</time>
      </trkpt>
      <trkpt lat="43.86411" lon="1.8654">
        <ele>146</ele>
        <time>2022-02-07T15:14:38Z</time>
      </trkpt>
      <trkpt lat="43.86385" lon="1.86645">
        <ele>148</ele>
        <time>2022-02-07T15:14:52Z</time>
      </trkpt>
      <trkpt lat="43.86378" lon="1.8669">
        <ele>148</ele>
        <time>2022-02-07T15:14:58Z</time>
      </trkpt>
      <trkpt lat="43.86378" lon="1.8672">
        <ele>148</ele>
        <time>2022-02-07T15:15:02Z</time>
      </trkpt>
      <trkpt lat="43.86386" lon="1.86792">
        <ele>148</ele>
        <time>2022-02-07T15:15:12Z</time>
      </trkpt>
      <trkpt lat="43.864" lon="1.86859">
        <ele>148</ele>
        <time>2022-02-07T15:15:20Z</time>
      </trkpt>
      <trkpt lat="43.86461" lon="1.87033">
        <ele>147</ele>
        <time>2022-02-07T15:15:45Z</time>
      </trkpt>
      <trkpt lat="43.86485" lon="1.87112">
        <ele>148</ele>
        <time>2022-02-07T15:15:56Z</time>
      </trkpt>
      <trkpt lat="43.86492" lon="1.87149">
        <ele>149</ele>
        <time>2022-02-07T15:16:01Z</time>
      </trkpt>
      <trkpt lat="43.86497" lon="1.87205">
        <ele>149</ele>
        <time>2022-02-07T15:16:08Z</time>
      </trkpt>
      <trkpt lat="43.86496" lon="1.87237">
        <ele>148</ele>
        <time>2022-02-07T15:16:13Z</time>
      </trkpt>
      <trkpt lat="43.86492" lon="1.87269">
        <ele>148</ele>
        <time>2022-02-07T15:16:17Z</time>
      </trkpt>
      <trkpt lat="43.86481" lon="1.87297">
        <ele>149</ele>
        <time>2022-02-07T15:16:21Z</time>
      </trkpt>
      <trkpt lat="43.86442" lon="1.87358">
        <ele>151</ele>
        <time>2022-02-07T15:16:31Z</time>
      </trkpt>
      <trkpt lat="43.86426" lon="1.8739">
        <ele>152</ele>
        <time>2022-02-07T15:16:36Z</time>
      </trkpt>
      <trkpt lat="43.86423" lon="1.87433">
        <ele>152</ele>
        <time>2022-02-07T15:16:42Z</time>
      </trkpt>
      <trkpt lat="43.8646" lon="1.87741">
        <ele>152</ele>
        <time>2022-02-07T15:17:22Z</time>
      </trkpt>
      <trkpt lat="43.86468" lon="1.87838">
        <ele>155</ele>
        <time>2022-02-07T15:17:34Z</time>
      </trkpt>
      <trkpt lat="43.86462" lon="1.87995">
        <ele>152</ele>
        <time>2022-02-07T15:17:55Z</time>
      </trkpt>
      <trkpt lat="43.86465" lon="1.88037">
        <ele>153</ele>
        <time>2022-02-07T15:18:00Z</time>
      </trkpt>
      <trkpt lat="43.86478" lon="1.88104">
        <ele>154</ele>
        <time>2022-02-07T15:18:09Z</time>
      </trkpt>
      <trkpt lat="43.86485" lon="1.8811">
        <ele>153</ele>
        <extensions>
          <visugpx:TrkExtension xmlns:visugpx="https://www.visugpx.com/editgpx/">
            <visugpx:node>7</visugpx:node>
            </visugpx:TrkExtension>
        </extensions>
      </trkpt>
      <trkpt lat="43.86481" lon="1.88112">
        <ele>153</ele>
      </trkpt>
      <trkpt lat="43.86519" lon="1.8823">
        <ele>151.6</ele>
        <extensions>
          <visugpx:TrkExtension xmlns:visugpx="https://www.visugpx.com/editgpx/">
            <visugpx:node>10</visugpx:node>
            </visugpx:TrkExtension>
        </extensions>
      </trkpt>
      <trkpt lat="43.86524" lon="1.88244">
        <ele>151.3</ele>
      </trkpt>
      <trkpt lat="43.86545" lon="1.88316">
        <ele>151.1</ele>
      </trkpt>
      <trkpt lat="43.86579" lon="1.88475">
        <ele>150.2</ele>
      </trkpt>
      <trkpt lat="43.8658" lon="1.8849">
        <ele>150.1</ele>
      </trkpt>
      <trkpt lat="43.86578" lon="1.88498">
        <ele>150.2</ele>
      </trkpt>
      <trkpt lat="43.86574" lon="1.88498">
        <ele>150.3</ele>
      </trkpt>
      <trkpt lat="43.86571" lon="1.885">
        <ele>150.4</ele>
      </trkpt>
      <trkpt lat="43.86569" lon="1.88504">
        <ele>150.5</ele>
      </trkpt>
      <trkpt lat="43.86568" lon="1.88508">
        <ele>150.6</ele>
      </trkpt>
      <trkpt lat="43.86568" lon="1.88513">
        <ele>150.6</ele>
      </trkpt>
      <trkpt lat="43.86572" lon="1.88522">
        <ele>150.4</ele>
      </trkpt>
      <trkpt lat="43.8658" lon="1.88523">
        <ele>150.1</ele>
      </trkpt>
      <trkpt lat="43.86583" lon="1.88521">
        <ele>150</ele>
      </trkpt>
      <trkpt lat="43.86592" lon="1.88532">
        <ele>149.7</ele>
      </trkpt>
      <trkpt lat="43.86618" lon="1.88558">
        <ele>149</ele>
      </trkpt>
      <trkpt lat="43.8665" lon="1.88577">
        <ele>149.1</ele>
      </trkpt>
      <trkpt lat="43.86668" lon="1.88586">
        <ele>149.2</ele>
      </trkpt>
      <trkpt lat="43.8667" lon="1.88587">
        <ele>149.3</ele>
      </trkpt>
      <trkpt lat="43.86672" lon="1.88588">
        <ele>149.5</ele>
      </trkpt>
      <trkpt lat="43.8668" lon="1.88592">
        <ele>150</ele>
      </trkpt>
      <trkpt lat="43.86685" lon="1.88594">
        <ele>150.2</ele>
      </trkpt>
      <trkpt lat="43.86687" lon="1.88595">
        <ele>150.3</ele>
      </trkpt>
      <trkpt lat="43.86708" lon="1.88607">
        <ele>150.1</ele>
      </trkpt>
      <trkpt lat="43.86715" lon="1.88611">
        <ele>150</ele>
      </trkpt>
      <trkpt lat="43.86735" lon="1.88622">
        <ele>150</ele>
      </trkpt>
      <trkpt lat="43.8676" lon="1.88637">
        <ele>150</ele>
      </trkpt>
      <trkpt lat="43.86782" lon="1.88649">
        <ele>150</ele>
      </trkpt>
      <trkpt lat="43.86805" lon="1.88662">
        <ele>150</ele>
      </trkpt>
      <trkpt lat="43.86806" lon="1.88658">
        <ele>150</ele>
        <extensions>
          <visugpx:TrkExtension xmlns:visugpx="https://www.visugpx.com/editgpx/">
            <visugpx:node>8</visugpx:node>
            </visugpx:TrkExtension>
        </extensions>
      </trkpt>
      <trkpt lat="43.86874" lon="1.887">
        <ele>150</ele>
        <time>2022-02-07T15:21:17Z</time>
      </trkpt>
      <trkpt lat="43.86932" lon="1.88724">
        <ele>147</ele>
        <time>2022-02-07T15:21:27Z</time>
      </trkpt>
      <trkpt lat="43.86959" lon="1.88728">
        <ele>144</ele>
        <time>2022-02-07T15:21:32Z</time>
      </trkpt>
      <trkpt lat="43.87073" lon="1.88738">
        <ele>131</ele>
        <time>2022-02-07T15:21:53Z</time>
      </trkpt>
      <trkpt lat="43.87126" lon="1.88754">
        <ele>129</ele>
        <time>2022-02-07T15:22:02Z</time>
      </trkpt>
      <trkpt lat="43.87143" lon="1.88759">
        <ele>128</ele>
        <time>2022-02-07T15:22:05Z</time>
      </trkpt>
      <trkpt lat="43.87215" lon="1.88788">
        <ele>128</ele>
        <time>2022-02-07T15:22:19Z</time>
      </trkpt>
      <trkpt lat="43.8727" lon="1.88814">
        <ele>128</ele>
        <time>2022-02-07T15:22:29Z</time>
      </trkpt>
      <trkpt lat="43.87497" lon="1.88943">
        <ele>131</ele>
        <time>2022-02-07T15:23:13Z</time>
      </trkpt>
      <trkpt lat="43.87643" lon="1.89004">
        <ele>132</ele>
        <time>2022-02-07T15:23:40Z</time>
      </trkpt>
      <trkpt lat="43.87678" lon="1.89012">
        <ele>132</ele>
        <time>2022-02-07T15:23:46Z</time>
      </trkpt>
      <trkpt lat="43.87744" lon="1.89017">
        <ele>132</ele>
        <time>2022-02-07T15:23:58Z</time>
      </trkpt>
      <trkpt lat="43.87782" lon="1.89022">
        <ele>132</ele>
        <time>2022-02-07T15:24:05Z</time>
      </trkpt>
      <trkpt lat="43.8781" lon="1.8903">
        <ele>132</ele>
        <time>2022-02-07T15:24:10Z</time>
      </trkpt>
      <trkpt lat="43.87855" lon="1.89053">
        <ele>132</ele>
        <time>2022-02-07T15:24:18Z</time>
      </trkpt>
      <trkpt lat="43.87926" lon="1.89103">
        <ele>133</ele>
        <time>2022-02-07T15:24:32Z</time>
      </trkpt>
      <trkpt lat="43.87937" lon="1.89112">
        <ele>134</ele>
        <time>2022-02-07T15:24:35Z</time>
      </trkpt>
      <trkpt lat="43.88056" lon="1.89443">
        <ele>135</ele>
        <time>2022-02-07T15:25:22Z</time>
      </trkpt>
      <trkpt lat="43.88085" lon="1.89506">
        <ele>135</ele>
        <time>2022-02-07T15:25:32Z</time>
      </trkpt>
      <trkpt lat="43.88168" lon="1.89648">
        <ele>134</ele>
        <time>2022-02-07T15:25:55Z</time>
      </trkpt>
      <trkpt lat="43.88234" lon="1.89767">
        <ele>136</ele>
        <time>2022-02-07T15:26:14Z</time>
      </trkpt>
      <trkpt lat="43.88256" lon="1.89819">
        <ele>135</ele>
        <time>2022-02-07T15:26:22Z</time>
      </trkpt>
      <trkpt lat="43.88261" lon="1.89839">
        <ele>135</ele>
        <time>2022-02-07T15:26:25Z</time>
      </trkpt>
      <trkpt lat="43.88262" lon="1.89861">
        <ele>135</ele>
        <time>2022-02-07T15:26:28Z</time>
      </trkpt>
      <trkpt lat="43.88258" lon="1.89871">
        <ele>135</ele>
        <time>2022-02-07T15:26:29Z</time>
      </trkpt>
      <trkpt lat="43.88258" lon="1.89883">
        <ele>136</ele>
        <time>2022-02-07T15:26:31Z</time>
      </trkpt>
      <trkpt lat="43.88263" lon="1.89893">
        <ele>136</ele>
        <time>2022-02-07T15:26:32Z</time>
      </trkpt>
      <trkpt lat="43.88271" lon="1.89899">
        <ele>136</ele>
        <time>2022-02-07T15:26:34Z</time>
      </trkpt>
      <trkpt lat="43.8828" lon="1.89898">
        <ele>136</ele>
        <time>2022-02-07T15:26:35Z</time>
      </trkpt>
      <trkpt lat="43.88292" lon="1.89907">
        <ele>136</ele>
        <time>2022-02-07T15:26:38Z</time>
      </trkpt>
      <trkpt lat="43.88305" lon="1.8993">
        <ele>136</ele>
        <time>2022-02-07T15:26:42Z</time>
      </trkpt>
      <trkpt lat="43.88406" lon="1.90162">
        <ele>137</ele>
        <time>2022-02-07T15:27:16Z</time>
      </trkpt>
      <trkpt lat="43.88538" lon="1.90389">
        <ele>138</ele>
        <time>2022-02-07T15:27:54Z</time>
      </trkpt>
      <trkpt lat="43.88568" lon="1.90433">
        <ele>138</ele>
        <time>2022-02-07T15:28:02Z</time>
      </trkpt>
      <trkpt lat="43.88591" lon="1.90469">
        <ele>137</ele>
        <time>2022-02-07T15:28:08Z</time>
      </trkpt>
      <trkpt lat="43.88688" lon="1.90572">
        <ele>137</ele>
        <time>2022-02-07T15:28:29Z</time>
      </trkpt>
      <trkpt lat="43.8872" lon="1.90623">
        <ele>137</ele>
        <time>2022-02-07T15:28:38Z</time>
      </trkpt>
      <trkpt lat="43.8876" lon="1.90713">
        <ele>136</ele>
        <time>2022-02-07T15:28:52Z</time>
      </trkpt>
      <trkpt lat="43.88759" lon="1.9072">
        <ele>136</ele>
        <time>2022-02-07T15:28:53Z</time>
      </trkpt>
      <trkpt lat="43.88763" lon="1.90723">
        <ele>136</ele>
        <time>2022-02-07T15:28:53Z</time>
      </trkpt>
      <trkpt lat="43.88766" lon="1.90722">
        <ele>136</ele>
        <time>2022-02-07T15:28:54Z</time>
      </trkpt>
      <trkpt lat="43.88769" lon="1.90718">
        <ele>135</ele>
        <time>2022-02-07T15:28:55Z</time>
      </trkpt>
      <trkpt lat="43.88768" lon="1.90714">
        <ele>135</ele>
        <time>2022-02-07T15:28:55Z</time>
      </trkpt>
      <trkpt lat="43.88787" lon="1.90708">
        <ele>135</ele>
        <time>2022-02-07T15:28:59Z</time>
      </trkpt>
      <trkpt lat="43.88844" lon="1.90664">
        <ele>131</ele>
        <time>2022-02-07T15:29:10Z</time>
      </trkpt>
      <trkpt lat="43.88897" lon="1.90629">
        <ele>126</ele>
        <time>2022-02-07T15:29:21Z</time>
      </trkpt>
      <trkpt lat="43.88906" lon="1.9065">
        <ele>126</ele>
        <time>2022-02-07T15:29:24Z</time>
      </trkpt>
      <trkpt lat="43.88905" lon="1.90798">
        <ele>133</ele>
        <time>2022-02-07T15:29:43Z</time>
      </trkpt>
      <trkpt lat="43.88907" lon="1.90835">
        <ele>136</ele>
        <time>2022-02-07T15:29:48Z</time>
      </trkpt>
      <trkpt lat="43.88905" lon="1.9084">
        <ele>136</ele>
        <time>2022-02-07T15:29:48Z</time>
      </trkpt>
      <trkpt lat="43.88879" lon="1.90853">
        <ele>135</ele>
        <time>2022-02-07T15:29:53Z</time>
      </trkpt>
      <trkpt lat="43.88876" lon="1.90861">
        <ele>135</ele>
        <time>2022-02-07T15:29:54Z</time>
      </trkpt>
      <trkpt lat="43.88878" lon="1.90872">
        <ele>136</ele>
        <time>2022-02-07T15:29:56Z</time>
      </trkpt>
      <trkpt lat="43.88919" lon="1.90965">
        <ele>137</ele>
        <time>2022-02-07T15:30:10Z</time>
      </trkpt>
      <trkpt lat="43.88973" lon="1.91113">
        <ele>136</ele>
        <time>2022-02-07T15:30:31Z</time>
      </trkpt>
      <trkpt lat="43.89106" lon="1.91328">
        <ele>136</ele>
        <time>2022-02-07T15:31:08Z</time>
      </trkpt>
      <trkpt lat="43.89127" lon="1.91373">
        <ele>137</ele>
        <time>2022-02-07T15:31:14Z</time>
      </trkpt>
      <trkpt lat="43.89141" lon="1.91405">
        <ele>137</ele>
        <time>2022-02-07T15:31:19Z</time>
      </trkpt>
      <trkpt lat="43.89181" lon="1.91515">
        <ele>137</ele>
        <time>2022-02-07T15:31:35Z</time>
      </trkpt>
      <trkpt lat="43.89217" lon="1.91601">
        <ele>135</ele>
        <time>2022-02-07T15:31:48Z</time>
      </trkpt>
      <trkpt lat="43.89257" lon="1.9169">
        <ele>134</ele>
        <time>2022-02-07T15:32:01Z</time>
      </trkpt>
      <trkpt lat="43.89345" lon="1.9183">
        <ele>137</ele>
        <time>2022-02-07T15:32:25Z</time>
      </trkpt>
      <trkpt lat="43.89447" lon="1.91999">
        <ele>137</ele>
        <time>2022-02-07T15:32:53Z</time>
      </trkpt>
      <trkpt lat="43.89539" lon="1.92102">
        <ele>137</ele>
        <time>2022-02-07T15:33:14Z</time>
      </trkpt>
      <trkpt lat="43.89568" lon="1.92156">
        <ele>137</ele>
        <time>2022-02-07T15:33:23Z</time>
      </trkpt>
      <trkpt lat="43.89576" lon="1.92186">
        <ele>136</ele>
        <time>2022-02-07T15:33:27Z</time>
      </trkpt>
      <trkpt lat="43.89566" lon="1.92222">
        <ele>137</ele>
        <time>2022-02-07T15:33:32Z</time>
      </trkpt>
      <trkpt lat="43.89534" lon="1.92261">
        <ele>140</ele>
        <time>2022-02-07T15:33:40Z</time>
      </trkpt>
      <trkpt lat="43.89509" lon="1.92304">
        <ele>144</ele>
        <time>2022-02-07T15:33:47Z</time>
      </trkpt>
      <trkpt lat="43.89477" lon="1.92432">
        <ele>150</ele>
        <time>2022-02-07T15:34:04Z</time>
      </trkpt>
      <trkpt lat="43.89475" lon="1.9248">
        <ele>150</ele>
        <time>2022-02-07T15:34:10Z</time>
      </trkpt>
      <trkpt lat="43.89488" lon="1.92542">
        <ele>151</ele>
        <time>2022-02-07T15:34:18Z</time>
      </trkpt>
      <trkpt lat="43.89443" lon="1.92797">
        <ele>150</ele>
        <time>2022-02-07T15:34:52Z</time>
      </trkpt>
      <trkpt lat="43.89429" lon="1.92947">
        <ele>150</ele>
        <time>2022-02-07T15:35:12Z</time>
      </trkpt>
      <trkpt lat="43.89438" lon="1.93003">
        <ele>150</ele>
        <time>2022-02-07T15:35:19Z</time>
      </trkpt>
      <trkpt lat="43.89534" lon="1.93276">
        <ele>152</ele>
        <time>2022-02-07T15:35:58Z</time>
      </trkpt>
      <trkpt lat="43.89556" lon="1.93422">
        <ele>153</ele>
        <time>2022-02-07T15:36:17Z</time>
      </trkpt>
      <trkpt lat="43.89563" lon="1.93509">
        <ele>152</ele>
        <time>2022-02-07T15:36:28Z</time>
      </trkpt>
      <trkpt lat="43.89602" lon="1.93862">
        <ele>152</ele>
        <time>2022-02-07T15:37:14Z</time>
      </trkpt>
      <trkpt lat="43.89604" lon="1.94331">
        <ele>153</ele>
        <time>2022-02-07T15:38:14Z</time>
      </trkpt>
      <trkpt lat="43.89586" lon="1.94503">
        <ele>153</ele>
        <time>2022-02-07T15:38:36Z</time>
      </trkpt>
      <trkpt lat="43.89565" lon="1.94647">
        <ele>153</ele>
        <time>2022-02-07T15:38:55Z</time>
      </trkpt>
      <trkpt lat="43.89551" lon="1.94769">
        <ele>152</ele>
        <time>2022-02-07T15:39:11Z</time>
      </trkpt>
      <trkpt lat="43.89531" lon="1.95201">
        <ele>153</ele>
        <time>2022-02-07T15:40:07Z</time>
      </trkpt>
      <trkpt lat="43.89514" lon="1.95297">
        <ele>153</ele>
        <time>2022-02-07T15:40:19Z</time>
      </trkpt>
      <trkpt lat="43.89506" lon="1.95379">
        <ele>153</ele>
        <time>2022-02-07T15:40:30Z</time>
      </trkpt>
      <trkpt lat="43.89524" lon="1.9554">
        <ele>153</ele>
        <time>2022-02-07T15:40:51Z</time>
      </trkpt>
      <trkpt lat="43.89525" lon="1.95574">
        <ele>153</ele>
        <time>2022-02-07T15:40:55Z</time>
      </trkpt>
      <trkpt lat="43.89519" lon="1.95609">
        <ele>153</ele>
        <time>2022-02-07T15:41:00Z</time>
      </trkpt>
      <trkpt lat="43.89489" lon="1.95695">
        <ele>153</ele>
        <time>2022-02-07T15:41:12Z</time>
      </trkpt>
      <trkpt lat="43.89478" lon="1.95746">
        <ele>152</ele>
        <time>2022-02-07T15:41:19Z</time>
      </trkpt>
      <trkpt lat="43.89485" lon="1.95788">
        <ele>152</ele>
        <time>2022-02-07T15:41:24Z</time>
      </trkpt>
      <trkpt lat="43.89535" lon="1.95901">
        <ele>155</ele>
        <time>2022-02-07T15:41:41Z</time>
      </trkpt>
      <trkpt lat="43.89543" lon="1.95919">
        <ele>157</ele>
        <time>2022-02-07T15:41:44Z</time>
      </trkpt>
      <trkpt lat="43.89551" lon="1.95938">
        <ele>158</ele>
        <time>2022-02-07T15:41:47Z</time>
      </trkpt>
      <trkpt lat="43.89558" lon="1.95964">
        <ele>158</ele>
        <time>2022-02-07T15:41:50Z</time>
      </trkpt>
      <trkpt lat="43.89557" lon="1.95986">
        <ele>159</ele>
        <time>2022-02-07T15:41:53Z</time>
      </trkpt>
      <trkpt lat="43.89513" lon="1.96237">
        <ele>154</ele>
        <time>2022-02-07T15:42:26Z</time>
      </trkpt>
      <trkpt lat="43.89509" lon="1.96314">
        <ele>155</ele>
        <time>2022-02-07T15:42:36Z</time>
      </trkpt>
      <trkpt lat="43.89553" lon="1.96552">
        <ele>155</ele>
        <time>2022-02-07T15:43:08Z</time>
      </trkpt>
      <trkpt lat="43.89562" lon="1.96724">
        <ele>154</ele>
        <time>2022-02-07T15:43:30Z</time>
      </trkpt>
      <trkpt lat="43.89563" lon="1.96802">
        <ele>154</ele>
        <time>2022-02-07T15:43:40Z</time>
      </trkpt>
      <trkpt lat="43.89538" lon="1.97029">
        <ele>154</ele>
        <time>2022-02-07T15:44:09Z</time>
      </trkpt>
      <trkpt lat="43.89514" lon="1.97164">
        <ele>154</ele>
        <time>2022-02-07T15:44:27Z</time>
      </trkpt>
      <trkpt lat="43.89507" lon="1.97238">
        <ele>155</ele>
        <time>2022-02-07T15:44:37Z</time>
      </trkpt>
      <trkpt lat="43.89506" lon="1.97362">
        <ele>155</ele>
        <time>2022-02-07T15:44:53Z</time>
      </trkpt>
      <trkpt lat="43.89504" lon="1.97456">
        <ele>156</ele>
        <time>2022-02-07T15:45:05Z</time>
      </trkpt>
      <trkpt lat="43.89492" lon="1.97527">
        <ele>156</ele>
        <time>2022-02-07T15:45:14Z</time>
      </trkpt>
      <trkpt lat="43.89402" lon="1.97952">
        <ele>156</ele>
        <time>2022-02-07T15:46:11Z</time>
      </trkpt>
      <trkpt lat="43.89382" lon="1.98037">
        <ele>156</ele>
        <time>2022-02-07T15:46:22Z</time>
      </trkpt>
      <trkpt lat="43.89325" lon="1.98218">
        <ele>157</ele>
        <time>2022-02-07T15:46:48Z</time>
      </trkpt>
      <trkpt lat="43.89312" lon="1.98267">
        <ele>157</ele>
        <time>2022-02-07T15:46:54Z</time>
      </trkpt>
      <trkpt lat="43.89295" lon="1.98365">
        <ele>156</ele>
        <time>2022-02-07T15:47:07Z</time>
      </trkpt>
      <trkpt lat="43.89288" lon="1.98448">
        <ele>157</ele>
        <time>2022-02-07T15:47:18Z</time>
      </trkpt>
      <trkpt lat="43.89271" lon="1.98719">
        <ele>157</ele>
        <time>2022-02-07T15:47:53Z</time>
      </trkpt>
      <trkpt lat="43.89333" lon="1.98749">
        <ele>157</ele>
        <time>2022-02-07T15:48:05Z</time>
      </trkpt>
      <trkpt lat="43.894" lon="1.988">
        <ele>157</ele>
        <time>2022-02-07T15:48:18Z</time>
      </trkpt>
      <trkpt lat="43.89476" lon="1.98878">
        <ele>158</ele>
        <time>2022-02-07T15:48:35Z</time>
      </trkpt>
      <trkpt lat="43.89591" lon="1.99021">
        <ele>157</ele>
        <time>2022-02-07T15:49:02Z</time>
      </trkpt>
      <trkpt lat="43.89595" lon="1.9902">
        <ele>157</ele>
        <time>2022-02-07T15:49:03Z</time>
      </trkpt>
      <trkpt lat="43.89599" lon="1.99009">
        <ele>156</ele>
        <time>2022-02-07T15:49:05Z</time>
      </trkpt>
      <trkpt lat="43.89619" lon="1.99012">
        <ele>156</ele>
        <time>2022-02-07T15:49:08Z</time>
      </trkpt>
      <trkpt lat="43.89643" lon="1.99032">
        <ele>154</ele>
        <time>2022-02-07T15:49:13Z</time>
      </trkpt>
      <trkpt lat="43.89681" lon="1.99129">
        <ele>155</ele>
        <time>2022-02-07T15:49:27Z</time>
      </trkpt>
      <trkpt lat="43.89717" lon="1.99109">
        <ele>156</ele>
        <time>2022-02-07T15:49:34Z</time>
      </trkpt>
      <trkpt lat="43.89738" lon="1.9909">
        <ele>156</ele>
        <time>2022-02-07T15:49:39Z</time>
      </trkpt>
      <trkpt lat="43.89791" lon="1.99029">
        <ele>156</ele>
        <time>2022-02-07T15:49:51Z</time>
      </trkpt>
      <trkpt lat="43.89817" lon="1.99014">
        <ele>157</ele>
        <time>2022-02-07T15:49:56Z</time>
      </trkpt>
      <trkpt lat="43.89827" lon="1.99014">
        <ele>157</ele>
        <time>2022-02-07T15:49:58Z</time>
      </trkpt>
      <trkpt lat="43.89837" lon="1.99017">
        <ele>157</ele>
        <time>2022-02-07T15:50:00Z</time>
      </trkpt>
      <trkpt lat="43.89848" lon="1.99031">
        <ele>157</ele>
        <time>2022-02-07T15:50:02Z</time>
      </trkpt>
      <trkpt lat="43.89853" lon="1.99044">
        <ele>157</ele>
        <time>2022-02-07T15:50:04Z</time>
      </trkpt>
      <trkpt lat="43.89861" lon="1.99043">
        <ele>157</ele>
        <time>2022-02-07T15:50:06Z</time>
      </trkpt>
      <trkpt lat="43.89874" lon="1.99047">
        <ele>156</ele>
        <time>2022-02-07T15:50:08Z</time>
      </trkpt>
      <trkpt lat="43.8993" lon="1.9909">
        <ele>155</ele>
        <time>2022-02-07T15:50:19Z</time>
      </trkpt>
      <trkpt lat="43.89986" lon="1.9914">
        <ele>155</ele>
        <time>2022-02-07T15:50:31Z</time>
      </trkpt>
      <trkpt lat="43.90015" lon="1.99172">
        <ele>154</ele>
        <time>2022-02-07T15:50:38Z</time>
      </trkpt>
      <trkpt lat="43.90034" lon="1.99197">
        <ele>152</ele>
        <time>2022-02-07T15:50:42Z</time>
      </trkpt>
      <trkpt lat="43.90044" lon="1.99212">
        <ele>152</ele>
        <time>2022-02-07T15:50:45Z</time>
      </trkpt>
      <trkpt lat="43.9006" lon="1.99272">
        <ele>153</ele>
        <time>2022-02-07T15:50:53Z</time>
      </trkpt>
      <trkpt lat="43.90071" lon="1.99304">
        <ele>154</ele>
        <time>2022-02-07T15:50:58Z</time>
      </trkpt>
      <trkpt lat="43.90085" lon="1.99337">
        <ele>156</ele>
        <time>2022-02-07T15:51:03Z</time>
      </trkpt>
      <trkpt lat="43.901" lon="1.99361">
        <ele>156</ele>
        <time>2022-02-07T15:51:07Z</time>
      </trkpt>
      <trkpt lat="43.90122" lon="1.99382">
        <ele>156</ele>
        <time>2022-02-07T15:51:12Z</time>
      </trkpt>
      <trkpt lat="43.90148" lon="1.99393">
        <ele>157</ele>
        <time>2022-02-07T15:51:16Z</time>
      </trkpt>
      <trkpt lat="43.90169" lon="1.99399">
        <ele>156</ele>
        <time>2022-02-07T15:51:20Z</time>
      </trkpt>
      <trkpt lat="43.90182" lon="1.99406">
        <ele>155</ele>
        <time>2022-02-07T15:51:23Z</time>
      </trkpt>
      <trkpt lat="43.90191" lon="1.9942">
        <ele>155</ele>
        <time>2022-02-07T15:51:25Z</time>
      </trkpt>
      <trkpt lat="43.90207" lon="1.99455">
        <ele>154</ele>
        <time>2022-02-07T15:51:30Z</time>
      </trkpt>
      <trkpt lat="43.90241" lon="1.99568">
        <ele>153</ele>
        <time>2022-02-07T15:51:46Z</time>
      </trkpt>
      <trkpt lat="43.90252" lon="1.99623">
        <ele>153</ele>
        <time>2022-02-07T15:51:53Z</time>
      </trkpt>
      <trkpt lat="43.90269" lon="1.99699">
        <ele>153</ele>
        <time>2022-02-07T15:52:04Z</time>
      </trkpt>
      <trkpt lat="43.90279" lon="1.99728">
        <ele>153</ele>
        <time>2022-02-07T15:52:08Z</time>
      </trkpt>
      <trkpt lat="43.90292" lon="1.9976">
        <ele>152</ele>
        <time>2022-02-07T15:52:12Z</time>
      </trkpt>
      <trkpt lat="43.90318" lon="1.99811">
        <ele>148</ele>
        <time>2022-02-07T15:52:20Z</time>
      </trkpt>
      <trkpt lat="43.90355" lon="1.99862">
        <ele>146</ele>
        <time>2022-02-07T15:52:30Z</time>
      </trkpt>
      <trkpt lat="43.90372" lon="1.99888">
        <ele>146</ele>
        <time>2022-02-07T15:52:34Z</time>
      </trkpt>
      <trkpt lat="43.90375" lon="1.99912">
        <ele>146</ele>
        <time>2022-02-07T15:52:37Z</time>
      </trkpt>
      <trkpt lat="43.90367" lon="2.00004">
        <ele>150</ele>
        <time>2022-02-07T15:52:49Z</time>
      </trkpt>
      <trkpt lat="43.90382" lon="2.00037">
        <ele>152</ele>
        <time>2022-02-07T15:52:54Z</time>
      </trkpt>
      <trkpt lat="43.90468" lon="2.00203">
        <ele>155</ele>
        <time>2022-02-07T15:53:20Z</time>
      </trkpt>
      <trkpt lat="43.90478" lon="2.00231">
        <ele>156</ele>
        <time>2022-02-07T15:53:24Z</time>
      </trkpt>
      <trkpt lat="43.90482" lon="2.00265">
        <ele>155</ele>
        <time>2022-02-07T15:53:29Z</time>
      </trkpt>
      <trkpt lat="43.9047" lon="2.00339">
        <ele>153</ele>
        <time>2022-02-07T15:53:39Z</time>
      </trkpt>
      <trkpt lat="43.90465" lon="2.00383">
        <ele>154</ele>
        <time>2022-02-07T15:53:44Z</time>
      </trkpt>
      <trkpt lat="43.90455" lon="2.00519">
        <ele>158</ele>
        <time>2022-02-07T15:54:02Z</time>
      </trkpt>
      <trkpt lat="43.90451" lon="2.0055">
        <ele>159</ele>
        <time>2022-02-07T15:54:06Z</time>
      </trkpt>
      <trkpt lat="43.90444" lon="2.00575">
        <ele>159</ele>
        <time>2022-02-07T15:54:09Z</time>
      </trkpt>
      <trkpt lat="43.90418" lon="2.00643">
        <ele>159</ele>
        <time>2022-02-07T15:54:19Z</time>
      </trkpt>
      <trkpt lat="43.90406" lon="2.00687">
        <ele>159</ele>
        <time>2022-02-07T15:54:25Z</time>
      </trkpt>
      <trkpt lat="43.90392" lon="2.00752">
        <ele>160</ele>
        <time>2022-02-07T15:54:34Z</time>
      </trkpt>
      <trkpt lat="43.9036" lon="2.00935">
        <ele>160</ele>
        <time>2022-02-07T15:54:58Z</time>
      </trkpt>
      <trkpt lat="43.90324" lon="2.01241">
        <ele>159</ele>
        <time>2022-02-07T15:55:38Z</time>
      </trkpt>
      <trkpt lat="43.90317" lon="2.01268">
        <ele>159</ele>
        <time>2022-02-07T15:55:42Z</time>
      </trkpt>
      <trkpt lat="43.90305" lon="2.01295">
        <ele>159</ele>
        <time>2022-02-07T15:55:46Z</time>
      </trkpt>
      <trkpt lat="43.90289" lon="2.01314">
        <ele>159</ele>
        <time>2022-02-07T15:55:49Z</time>
      </trkpt>
      <trkpt lat="43.90295" lon="2.01337">
        <ele>159</ele>
        <time>2022-02-07T15:55:52Z</time>
      </trkpt>
      <trkpt lat="43.90307" lon="2.01389">
        <ele>159</ele>
        <time>2022-02-07T15:55:59Z</time>
      </trkpt>
      <trkpt lat="43.90323" lon="2.01499">
        <ele>158</ele>
        <time>2022-02-07T15:56:14Z</time>
      </trkpt>
      <trkpt lat="43.90346" lon="2.01601">
        <ele>159</ele>
        <time>2022-02-07T15:56:28Z</time>
      </trkpt>
      <trkpt lat="43.90389" lon="2.017">
        <ele>158</ele>
        <time>2022-02-07T15:56:42Z</time>
      </trkpt>
      <trkpt lat="43.90439" lon="2.01672">
        <ele>156</ele>
        <time>2022-02-07T15:56:52Z</time>
      </trkpt>
      <trkpt lat="43.90459" lon="2.01671">
        <ele>154</ele>
        <time>2022-02-07T15:56:56Z</time>
      </trkpt>
      <trkpt lat="43.90473" lon="2.01672">
        <ele>153</ele>
        <time>2022-02-07T15:56:58Z</time>
      </trkpt>
      <trkpt lat="43.90507" lon="2.01696">
        <ele>152</ele>
        <time>2022-02-07T15:57:05Z</time>
      </trkpt>
      <trkpt lat="43.9054" lon="2.01723">
        <ele>152</ele>
        <time>2022-02-07T15:57:12Z</time>
      </trkpt>
      <trkpt lat="43.906" lon="2.01747">
        <ele>149</ele>
        <time>2022-02-07T15:57:23Z</time>
      </trkpt>
      <trkpt lat="43.90633" lon="2.01751">
        <ele>148</ele>
        <time>2022-02-07T15:57:29Z</time>
      </trkpt>
      <trkpt lat="43.90697" lon="2.01743">
        <ele>148</ele>
        <time>2022-02-07T15:57:40Z</time>
      </trkpt>
      <trkpt lat="43.90731" lon="2.01751">
        <ele>149</ele>
        <time>2022-02-07T15:57:46Z</time>
      </trkpt>
      <trkpt lat="43.90794" lon="2.01754">
        <ele>148</ele>
        <time>2022-02-07T15:57:57Z</time>
      </trkpt>
      <trkpt lat="43.90835" lon="2.01753">
        <ele>147</ele>
        <time>2022-02-07T15:58:05Z</time>
      </trkpt>
      <trkpt lat="43.90838" lon="2.01788">
        <ele>148</ele>
        <time>2022-02-07T15:58:09Z</time>
      </trkpt>
      <trkpt lat="43.90838" lon="2.01859">
        <ele>149</ele>
        <time>2022-02-07T15:58:18Z</time>
      </trkpt>
      <trkpt lat="43.9084" lon="2.01882">
        <ele>149</ele>
        <time>2022-02-07T15:58:21Z</time>
      </trkpt>
      <trkpt lat="43.90845" lon="2.01899">
        <ele>149</ele>
        <time>2022-02-07T15:58:24Z</time>
      </trkpt>
      <trkpt lat="43.90881" lon="2.01955">
        <ele>149</ele>
        <time>2022-02-07T15:58:33Z</time>
      </trkpt>
      <trkpt lat="43.9098" lon="2.02098">
        <ele>148</ele>
        <time>2022-02-07T15:58:59Z</time>
      </trkpt>
      <trkpt lat="43.91003" lon="2.02139">
        <ele>148</ele>
        <time>2022-02-07T15:59:05Z</time>
      </trkpt>
      <trkpt lat="43.91106" lon="2.02302">
        <ele>150</ele>
        <time>2022-02-07T15:59:33Z</time>
      </trkpt>
      <trkpt lat="43.91143" lon="2.02367">
        <ele>150</ele>
        <time>2022-02-07T15:59:44Z</time>
      </trkpt>
      <trkpt lat="43.9117" lon="2.02428">
        <ele>150</ele>
        <time>2022-02-07T15:59:53Z</time>
      </trkpt>
      <trkpt lat="43.91209" lon="2.02523">
        <ele>149</ele>
        <time>2022-02-07T16:00:07Z</time>
      </trkpt>
      <trkpt lat="43.91227" lon="2.02547">
        <ele>149</ele>
        <time>2022-02-07T16:00:11Z</time>
      </trkpt>
      <trkpt lat="43.91262" lon="2.02569">
        <ele>149</ele>
        <time>2022-02-07T16:00:18Z</time>
      </trkpt>
      <trkpt lat="43.91317" lon="2.02575">
        <ele>149</ele>
        <time>2022-02-07T16:00:28Z</time>
      </trkpt>
      <trkpt lat="43.91342" lon="2.02574">
        <ele>149</ele>
        <time>2022-02-07T16:00:32Z</time>
      </trkpt>
      <trkpt lat="43.91399" lon="2.0256">
        <ele>150</ele>
        <time>2022-02-07T16:00:43Z</time>
      </trkpt>
      <trkpt lat="43.9141" lon="2.02563">
        <ele>150</ele>
        <time>2022-02-07T16:00:45Z</time>
      </trkpt>
      <trkpt lat="43.91417" lon="2.0257">
        <ele>151</ele>
        <time>2022-02-07T16:00:46Z</time>
      </trkpt>
      <trkpt lat="43.91462" lon="2.02658">
        <ele>151</ele>
        <time>2022-02-07T16:01:00Z</time>
      </trkpt>
      <trkpt lat="43.91463" lon="2.02673">
        <ele>151</ele>
        <time>2022-02-07T16:01:02Z</time>
      </trkpt>
      <trkpt lat="43.91463" lon="2.02709">
        <ele>151</ele>
        <time>2022-02-07T16:01:07Z</time>
      </trkpt>
      <trkpt lat="43.9147" lon="2.02804">
        <ele>151</ele>
        <time>2022-02-07T16:01:19Z</time>
      </trkpt>
      <trkpt lat="43.91474" lon="2.02832">
        <ele>151</ele>
        <time>2022-02-07T16:01:23Z</time>
      </trkpt>
      <trkpt lat="43.91468" lon="2.02945">
        <ele>150</ele>
        <time>2022-02-07T16:01:37Z</time>
      </trkpt>
      <trkpt lat="43.91533" lon="2.02949">
        <ele>150</ele>
        <time>2022-02-07T16:01:49Z</time>
      </trkpt>
      <trkpt lat="43.91614" lon="2.02959">
        <ele>151</ele>
        <time>2022-02-07T16:02:03Z</time>
      </trkpt>
      <trkpt lat="43.91629" lon="2.02958">
        <ele>148</ele>
        <extensions>
          <visugpx:TrkExtension xmlns:visugpx="https://www.visugpx.com/editgpx/">
            <visugpx:node>11</visugpx:node>
            </visugpx:TrkExtension>
        </extensions>
      </trkpt>
      <trkpt lat="43.91629" lon="2.0296">
        <ele>148</ele>
      </trkpt>
      <trkpt lat="43.91696" lon="2.02964">
        <ele>148</ele>
      </trkpt>
      <trkpt lat="43.91701" lon="2.02964">
        <ele>148</ele>
      </trkpt>
      <trkpt lat="43.91715" lon="2.02966">
        <ele>148</ele>
      </trkpt>
      <trkpt lat="43.91739" lon="2.02967">
        <ele>148</ele>
      </trkpt>
      <trkpt lat="43.91754" lon="2.02968">
        <ele>148.1</ele>
      </trkpt>
      <trkpt lat="43.91778" lon="2.02969">
        <ele>148.9</ele>
      </trkpt>
      <trkpt lat="43.91782" lon="2.02976">
        <ele>149</ele>
      </trkpt>
      <trkpt lat="43.91785" lon="2.02983">
        <ele>149</ele>
      </trkpt>
      <trkpt lat="43.91809" lon="2.03027">
        <ele>148.1</ele>
        <extensions>
          <visugpx:TrkExtension xmlns:visugpx="https://www.visugpx.com/editgpx/">
            <visugpx:node>17</visugpx:node>
            </visugpx:TrkExtension>
        </extensions>
      </trkpt>
      <trkpt lat="43.91819" lon="2.03045">
        <ele>148.8</ele>
      </trkpt>
      <trkpt lat="43.91838" lon="2.0309">
        <ele>149</ele>
      </trkpt>
      <trkpt lat="43.91847" lon="2.03114">
        <ele>148.9</ele>
      </trkpt>
      <trkpt lat="43.91849" lon="2.03144">
        <ele>148.6</ele>
      </trkpt>
      <trkpt lat="43.91849" lon="2.03171">
        <ele>149</ele>
      </trkpt>
      <trkpt lat="43.91849" lon="2.03187">
        <ele>149</ele>
      </trkpt>
      <trkpt lat="43.91849" lon="2.03192">
        <ele>149</ele>
      </trkpt>
      <trkpt lat="43.91848" lon="2.03192">
        <ele>149</ele>
        <extensions>
          <visugpx:TrkExtension xmlns:visugpx="https://www.visugpx.com/editgpx/">
            <visugpx:node>12</visugpx:node>
            </visugpx:TrkExtension>
        </extensions>
      </trkpt>
      <trkpt lat="43.91838" lon="2.03385">
        <ele>150</ele>
        <time>2022-02-07T16:03:42Z</time>
      </trkpt>
      <trkpt lat="43.91842" lon="2.03407">
        <ele>149</ele>
        <time>2022-02-07T16:03:45Z</time>
      </trkpt>
      <trkpt lat="43.91853" lon="2.03432">
        <ele>148</ele>
        <time>2022-02-07T16:03:49Z</time>
      </trkpt>
      <trkpt lat="43.91912" lon="2.03544">
        <ele>148</ele>
        <time>2022-02-07T16:04:07Z</time>
      </trkpt>
      <trkpt lat="43.91932" lon="2.03599">
        <ele>148</ele>
        <time>2022-02-07T16:04:15Z</time>
      </trkpt>
      <trkpt lat="43.9194" lon="2.03643">
        <ele>148</ele>
        <time>2022-02-07T16:04:20Z</time>
      </trkpt>
      <trkpt lat="43.91943" lon="2.03694">
        <ele>149</ele>
        <time>2022-02-07T16:04:27Z</time>
      </trkpt>
      <trkpt lat="43.9194" lon="2.03752">
        <ele>150</ele>
        <time>2022-02-07T16:04:34Z</time>
      </trkpt>
      <trkpt lat="43.91914" lon="2.03886">
        <ele>149</ele>
        <time>2022-02-07T16:04:52Z</time>
      </trkpt>
      <trkpt lat="43.91905" lon="2.03981">
        <ele>150</ele>
        <time>2022-02-07T16:05:05Z</time>
      </trkpt>
      <trkpt lat="43.91893" lon="2.0406">
        <ele>151</ele>
        <time>2022-02-07T16:05:15Z</time>
      </trkpt>
      <trkpt lat="43.91895" lon="2.04084">
        <ele>151</ele>
        <time>2022-02-07T16:05:18Z</time>
      </trkpt>
      <trkpt lat="43.91908" lon="2.04094">
        <ele>150</ele>
        <time>2022-02-07T16:05:21Z</time>
      </trkpt>
      <trkpt lat="43.91958" lon="2.04108">
        <ele>147</ele>
        <time>2022-02-07T16:05:30Z</time>
      </trkpt>
      <trkpt lat="43.91981" lon="2.04126">
        <ele>145</ele>
        <time>2022-02-07T16:05:34Z</time>
      </trkpt>
      <trkpt lat="43.91988" lon="2.04145">
        <ele>145</ele>
        <time>2022-02-07T16:05:37Z</time>
      </trkpt>
      <trkpt lat="43.91988" lon="2.04179">
        <ele>146</ele>
        <time>2022-02-07T16:05:41Z</time>
      </trkpt>
      <trkpt lat="43.91997" lon="2.04234">
        <ele>148</ele>
        <time>2022-02-07T16:05:49Z</time>
      </trkpt>
      <trkpt lat="43.92027" lon="2.04335">
        <ele>149</ele>
        <time>2022-02-07T16:06:03Z</time>
      </trkpt>
      <trkpt lat="43.92061" lon="2.04428">
        <ele>148</ele>
        <time>2022-02-07T16:06:16Z</time>
      </trkpt>
      <trkpt lat="43.9211" lon="2.04587">
        <ele>150</ele>
        <time>2022-02-07T16:06:38Z</time>
      </trkpt>
      <trkpt lat="43.92197" lon="2.04816">
        <ele>150</ele>
        <time>2022-02-07T16:07:11Z</time>
      </trkpt>
      <trkpt lat="43.92215" lon="2.04867">
        <ele>150</ele>
        <time>2022-02-07T16:07:19Z</time>
      </trkpt>
      <trkpt lat="43.92226" lon="2.04922">
        <ele>150</ele>
        <time>2022-02-07T16:07:26Z</time>
      </trkpt>
      <trkpt lat="43.92231" lon="2.05006">
        <ele>150</ele>
        <time>2022-02-07T16:07:37Z</time>
      </trkpt>
      <trkpt lat="43.92242" lon="2.05128">
        <ele>150</ele>
        <time>2022-02-07T16:07:53Z</time>
      </trkpt>
      <trkpt lat="43.92247" lon="2.05163">
        <ele>150</ele>
        <time>2022-02-07T16:07:57Z</time>
      </trkpt>
      <trkpt lat="43.92311" lon="2.05439">
        <ele>150</ele>
        <time>2022-02-07T16:08:34Z</time>
      </trkpt>
      <trkpt lat="43.92323" lon="2.05508">
        <ele>149</ele>
        <time>2022-02-07T16:08:43Z</time>
      </trkpt>
      <trkpt lat="43.92387" lon="2.06116">
        <ele>154</ele>
        <time>2022-02-07T16:10:02Z</time>
      </trkpt>
      <trkpt lat="43.92391" lon="2.06179">
        <ele>154</ele>
        <time>2022-02-07T16:10:10Z</time>
      </trkpt>
      <trkpt lat="43.92379" lon="2.06317">
        <ele>152</ele>
        <time>2022-02-07T16:10:28Z</time>
      </trkpt>
      <trkpt lat="43.92372" lon="2.06642">
        <ele>154</ele>
        <time>2022-02-07T16:11:10Z</time>
      </trkpt>
      <trkpt lat="43.92446" lon="2.0723">
        <ele>154</ele>
        <time>2022-02-07T16:12:26Z</time>
      </trkpt>
      <trkpt lat="43.92455" lon="2.07293">
        <ele>155</ele>
        <time>2022-02-07T16:12:34Z</time>
      </trkpt>
      <trkpt lat="43.92477" lon="2.07599">
        <ele>156</ele>
        <time>2022-02-07T16:13:14Z</time>
      </trkpt>
      <trkpt lat="43.92489" lon="2.07751">
        <ele>155</ele>
        <time>2022-02-07T16:13:33Z</time>
      </trkpt>
      <trkpt lat="43.92494" lon="2.07826">
        <ele>157</ele>
        <time>2022-02-07T16:13:43Z</time>
      </trkpt>
      <trkpt lat="43.92496" lon="2.07854">
        <ele>157</ele>
        <time>2022-02-07T16:13:47Z</time>
      </trkpt>
      <trkpt lat="43.92527" lon="2.08054">
        <ele>156</ele>
        <time>2022-02-07T16:14:13Z</time>
      </trkpt>
      <trkpt lat="43.92529" lon="2.08111">
        <ele>156</ele>
        <time>2022-02-07T16:14:20Z</time>
      </trkpt>
      <trkpt lat="43.92526" lon="2.0816">
        <ele>156</ele>
        <time>2022-02-07T16:14:27Z</time>
      </trkpt>
      <trkpt lat="43.9251" lon="2.08237">
        <ele>156</ele>
        <time>2022-02-07T16:14:37Z</time>
      </trkpt>
      <trkpt lat="43.92505" lon="2.08289">
        <ele>156</ele>
        <time>2022-02-07T16:14:44Z</time>
      </trkpt>
      <trkpt lat="43.9251" lon="2.0844">
        <ele>156</ele>
        <time>2022-02-07T16:15:03Z</time>
      </trkpt>
      <trkpt lat="43.92511" lon="2.08577">
        <ele>156</ele>
        <time>2022-02-07T16:15:20Z</time>
      </trkpt>
      <trkpt lat="43.92497" lon="2.08722">
        <ele>157</ele>
        <time>2022-02-07T16:15:39Z</time>
      </trkpt>
      <trkpt lat="43.9251" lon="2.09151">
        <ele>155</ele>
        <time>2022-02-07T16:16:34Z</time>
      </trkpt>
      <trkpt lat="43.92571" lon="2.0966">
        <ele>156</ele>
        <time>2022-02-07T16:17:40Z</time>
      </trkpt>
      <trkpt lat="43.92577" lon="2.09724">
        <ele>156</ele>
        <time>2022-02-07T16:17:49Z</time>
      </trkpt>
      <trkpt lat="43.92582" lon="2.09798">
        <ele>156</ele>
        <time>2022-02-07T16:17:58Z</time>
      </trkpt>
      <trkpt lat="43.92586" lon="2.09912">
        <ele>158</ele>
        <time>2022-02-07T16:18:13Z</time>
      </trkpt>
      <trkpt lat="43.92585" lon="2.09988">
        <ele>159</ele>
        <time>2022-02-07T16:18:23Z</time>
      </trkpt>
      <trkpt lat="43.92576" lon="2.10212">
        <ele>158</ele>
        <time>2022-02-07T16:18:51Z</time>
      </trkpt>
      <trkpt lat="43.92576" lon="2.10273">
        <ele>158</ele>
        <time>2022-02-07T16:18:59Z</time>
      </trkpt>
      <trkpt lat="43.92577" lon="2.1034">
        <ele>159</ele>
        <time>2022-02-07T16:19:08Z</time>
      </trkpt>
      <trkpt lat="43.92592" lon="2.10648">
        <ele>160</ele>
        <time>2022-02-07T16:19:47Z</time>
      </trkpt>
      <trkpt lat="43.92606" lon="2.10867">
        <ele>161</ele>
        <time>2022-02-07T16:20:15Z</time>
      </trkpt>
      <trkpt lat="43.92618" lon="2.11143">
        <ele>163</ele>
        <time>2022-02-07T16:20:51Z</time>
      </trkpt>
      <trkpt lat="43.92618" lon="2.11172">
        <ele>163</ele>
        <time>2022-02-07T16:20:55Z</time>
      </trkpt>
      <trkpt lat="43.92614" lon="2.11215">
        <ele>164</ele>
        <time>2022-02-07T16:21:00Z</time>
      </trkpt>
      <trkpt lat="43.92593" lon="2.1133">
        <ele>165</ele>
        <time>2022-02-07T16:21:15Z</time>
      </trkpt>
      <trkpt lat="43.92587" lon="2.11362">
        <ele>165</ele>
        <time>2022-02-07T16:21:20Z</time>
      </trkpt>
      <trkpt lat="43.92563" lon="2.11497">
        <ele>168</ele>
        <time>2022-02-07T16:21:37Z</time>
      </trkpt>
      <trkpt lat="43.92558" lon="2.11543">
        <ele>169</ele>
        <time>2022-02-07T16:21:43Z</time>
      </trkpt>
      <trkpt lat="43.92576" lon="2.11717">
        <ele>170</ele>
        <time>2022-02-07T16:22:06Z</time>
      </trkpt>
      <trkpt lat="43.92579" lon="2.11756">
        <ele>171</ele>
        <time>2022-02-07T16:22:11Z</time>
      </trkpt>
      <trkpt lat="43.9258" lon="2.11801">
        <ele>171</ele>
        <time>2022-02-07T16:22:17Z</time>
      </trkpt>
      <trkpt lat="43.92581" lon="2.11986">
        <ele>172</ele>
        <time>2022-02-07T16:22:40Z</time>
      </trkpt>
      <trkpt lat="43.92584" lon="2.12052">
        <ele>171</ele>
        <time>2022-02-07T16:22:49Z</time>
      </trkpt>
      <trkpt lat="43.92609" lon="2.12299">
        <ele>169</ele>
        <time>2022-02-07T16:23:21Z</time>
      </trkpt>
      <trkpt lat="43.92612" lon="2.12351">
        <ele>170</ele>
        <time>2022-02-07T16:23:28Z</time>
      </trkpt>
      <trkpt lat="43.92614" lon="2.12364">
        <ele>170</ele>
        <time>2022-02-07T16:23:29Z</time>
      </trkpt>
      <trkpt lat="43.92619" lon="2.12373">
        <ele>170</ele>
        <time>2022-02-07T16:23:31Z</time>
      </trkpt>
      <trkpt lat="43.92619" lon="2.12383">
        <ele>170</ele>
        <time>2022-02-07T16:23:32Z</time>
      </trkpt>
      <trkpt lat="43.92615" lon="2.12407">
        <ele>171</ele>
        <time>2022-02-07T16:23:35Z</time>
      </trkpt>
      <trkpt lat="43.92613" lon="2.12682">
        <ele>172</ele>
        <time>2022-02-07T16:24:10Z</time>
      </trkpt>
      <trkpt lat="43.92619" lon="2.12934">
        <ele>173</ele>
        <time>2022-02-07T16:24:43Z</time>
      </trkpt>
      <trkpt lat="43.92618" lon="2.1305">
        <ele>173</ele>
        <time>2022-02-07T16:24:58Z</time>
      </trkpt>
      <trkpt lat="43.92612" lon="2.13053">
        <ele>174</ele>
        <time>2022-02-07T16:24:59Z</time>
      </trkpt>
      <trkpt lat="43.92605" lon="2.13067">
        <ele>174</ele>
        <time>2022-02-07T16:25:01Z</time>
      </trkpt>
      <trkpt lat="43.92594" lon="2.13088">
        <ele>174</ele>
        <time>2022-02-07T16:25:04Z</time>
      </trkpt>
      <trkpt lat="43.92584" lon="2.13101">
        <ele>174</ele>
        <time>2022-02-07T16:25:07Z</time>
      </trkpt>
      <trkpt lat="43.92511" lon="2.13237">
        <ele>173</ele>
        <time>2022-02-07T16:25:28Z</time>
      </trkpt>
      <trkpt lat="43.9248" lon="2.13312">
        <ele>174</ele>
        <time>2022-02-07T16:25:39Z</time>
      </trkpt>
      <trkpt lat="43.92477" lon="2.13329">
        <ele>174</ele>
        <time>2022-02-07T16:25:42Z</time>
      </trkpt>
      <trkpt lat="43.92456" lon="2.13399">
        <ele>174</ele>
        <time>2022-02-07T16:25:51Z</time>
      </trkpt>
      <trkpt lat="43.92447" lon="2.13445">
        <ele>174</ele>
        <time>2022-02-07T16:25:57Z</time>
      </trkpt>
      <trkpt lat="43.92445" lon="2.13489">
        <ele>174</ele>
        <time>2022-02-07T16:26:03Z</time>
      </trkpt>
      <trkpt lat="43.92437" lon="2.13549">
        <ele>174</ele>
        <time>2022-02-07T16:26:11Z</time>
      </trkpt>
      <trkpt lat="43.92404" lon="2.13734">
        <ele>173</ele>
        <time>2022-02-07T16:26:35Z</time>
      </trkpt>
      <trkpt lat="43.92403" lon="2.13756">
        <ele>173</ele>
        <time>2022-02-07T16:26:38Z</time>
      </trkpt>
      <trkpt lat="43.92406" lon="2.13772">
        <ele>174</ele>
        <time>2022-02-07T16:26:40Z</time>
      </trkpt>
      <trkpt lat="43.92437" lon="2.13819">
        <ele>175</ele>
        <time>2022-02-07T16:26:49Z</time>
      </trkpt>
      <trkpt lat="43.92446" lon="2.13829">
        <ele>175</ele>
        <time>2022-02-07T16:26:51Z</time>
      </trkpt>
      <trkpt lat="43.92498" lon="2.1386">
        <ele>176</ele>
        <time>2022-02-07T16:27:01Z</time>
      </trkpt>
      <trkpt lat="43.92514" lon="2.13881">
        <ele>175</ele>
        <time>2022-02-07T16:27:05Z</time>
      </trkpt>
      <trkpt lat="43.92528" lon="2.13904">
        <ele>175</ele>
        <time>2022-02-07T16:27:08Z</time>
      </trkpt>
      <trkpt lat="43.92536" lon="2.13909">
        <ele>174</ele>
        <time>2022-02-07T16:27:10Z</time>
      </trkpt>
      <trkpt lat="43.92535" lon="2.13916">
        <ele>174</ele>
        <time>2022-02-07T16:27:11Z</time>
      </trkpt>
      <trkpt lat="43.92538" lon="2.13922">
        <ele>174</ele>
        <time>2022-02-07T16:27:12Z</time>
      </trkpt>
      <trkpt lat="43.92543" lon="2.13925">
        <ele>174</ele>
        <time>2022-02-07T16:27:13Z</time>
      </trkpt>
      <trkpt lat="43.92543" lon="2.13942">
        <ele>174</ele>
        <time>2022-02-07T16:27:15Z</time>
      </trkpt>
      <trkpt lat="43.92518" lon="2.14016">
        <ele>174</ele>
        <time>2022-02-07T16:27:25Z</time>
      </trkpt>
      <trkpt lat="43.9251" lon="2.14047">
        <ele>175</ele>
        <time>2022-02-07T16:27:30Z</time>
      </trkpt>
      <trkpt lat="43.92508" lon="2.14068">
        <ele>175</ele>
        <time>2022-02-07T16:27:32Z</time>
      </trkpt>
      <trkpt lat="43.92501" lon="2.14077">
        <ele>175</ele>
        <time>2022-02-07T16:27:34Z</time>
      </trkpt>
      <trkpt lat="43.92501" lon="2.14081">
        <ele>175</ele>
        <time>2022-02-07T16:27:35Z</time>
      </trkpt>
      <trkpt lat="43.92501" lon="2.1409">
        <ele>175</ele>
        <time>2022-02-07T16:27:36Z</time>
      </trkpt>
      <trkpt lat="43.92503" lon="2.14094">
        <ele>175</ele>
        <time>2022-02-07T16:27:36Z</time>
      </trkpt>
      <trkpt lat="43.92509" lon="2.14099">
        <ele>175</ele>
        <time>2022-02-07T16:27:38Z</time>
      </trkpt>
      <trkpt lat="43.92497" lon="2.14168">
        <ele>174</ele>
        <time>2022-02-07T16:27:47Z</time>
      </trkpt>
      <trkpt lat="43.92478" lon="2.14432">
        <ele>174</ele>
        <time>2022-02-07T16:28:21Z</time>
      </trkpt>
      <trkpt lat="43.92478" lon="2.14451">
        <ele>174</ele>
        <time>2022-02-07T16:28:23Z</time>
      </trkpt>
      <trkpt lat="43.92471" lon="2.14454">
        <ele>174</ele>
        <time>2022-02-07T16:28:24Z</time>
      </trkpt>
      <trkpt lat="43.92464" lon="2.1447">
        <ele>174</ele>
        <time>2022-02-07T16:28:27Z</time>
      </trkpt>
      <trkpt lat="43.92537" lon="2.14553">
        <ele>175</ele>
        <time>2022-02-07T16:28:44Z</time>
      </trkpt>
      <trkpt lat="43.92541" lon="2.14723">
        <ele>177</ele>
        <time>2022-02-07T16:29:05Z</time>
      </trkpt>
      <trkpt lat="43.92541" lon="2.14733">
        <ele>177</ele>
        <time>2022-02-07T16:29:07Z</time>
      </trkpt>
      <trkpt lat="43.92537" lon="2.14742">
        <ele>177</ele>
        <time>2022-02-07T16:29:08Z</time>
      </trkpt>
      <trkpt lat="43.92521" lon="2.1483">
        <ele>175</ele>
        <time>2022-02-07T16:29:20Z</time>
      </trkpt>
      <trkpt lat="43.92524" lon="2.14838">
        <ele>175</ele>
        <time>2022-02-07T16:29:21Z</time>
      </trkpt>
      <trkpt lat="43.92523" lon="2.14861">
        <ele>176</ele>
        <time>2022-02-07T16:29:24Z</time>
      </trkpt>
      <trkpt lat="43.92565" lon="2.14849">
        <ele>176</ele>
        <time>2022-02-07T16:29:31Z</time>
      </trkpt>
      <trkpt lat="43.92638" lon="2.14836">
        <ele>177</ele>
        <time>2022-02-07T16:29:45Z</time>
      </trkpt>
      <trkpt lat="43.92734" lon="2.14813">
        <ele>181</ele>
        <time>2022-02-07T16:30:02Z</time>
      </trkpt>
      <trkpt lat="43.92875" lon="2.15054">
        <ele>178</ele>
        <time>2022-02-07T16:30:42Z</time>
      </trkpt>
      <trkpt lat="43.92788" lon="2.15332">
        <ele>178</ele>
        <time>2022-02-07T16:31:20Z</time>
      </trkpt>
      <trkpt lat="43.92759" lon="2.15434">
        <ele>179</ele>
        <time>2022-02-07T16:31:35Z</time>
      </trkpt>
      <trkpt lat="43.93023" lon="2.15695">
        <ele>178</ele>
        <time>2022-02-07T16:32:32Z</time>
      </trkpt>
      <trkpt lat="43.93033" lon="2.15697">
        <ele>178</ele>
        <time>2022-02-07T16:32:34Z</time>
      </trkpt>
      <trkpt lat="43.93068" lon="2.16217">
        <ele>176</ele>
        <time>2022-02-07T16:33:41Z</time>
      </trkpt>
      <trkpt lat="43.93064" lon="2.16215">
        <ele>176</ele>
        <time>2022-02-07T16:33:42Z</time>
      </trkpt>
      <trkpt lat="43.93057" lon="2.16216">
        <ele>177</ele>
        <time>2022-02-07T16:33:43Z</time>
      </trkpt>
      <trkpt lat="43.93051" lon="2.16223">
        <ele>177</ele>
        <time>2022-02-07T16:33:44Z</time>
      </trkpt>
      <trkpt lat="43.93049" lon="2.16234">
        <ele>176</ele>
        <time>2022-02-07T16:33:46Z</time>
      </trkpt>
      <trkpt lat="43.93051" lon="2.16242">
        <ele>176</ele>
        <time>2022-02-07T16:33:47Z</time>
      </trkpt>
      <trkpt lat="43.93056" lon="2.16248">
        <ele>176</ele>
        <time>2022-02-07T16:33:48Z</time>
      </trkpt>
      <trkpt lat="43.93063" lon="2.1625">
        <ele>176</ele>
        <time>2022-02-07T16:33:49Z</time>
      </trkpt>
      <trkpt lat="43.93071" lon="2.16261">
        <ele>175</ele>
        <time>2022-02-07T16:33:51Z</time>
      </trkpt>
      <trkpt lat="43.93101" lon="2.16341">
        <ele>174</ele>
        <time>2022-02-07T16:34:03Z</time>
      </trkpt>
      <trkpt lat="43.93165" lon="2.16546">
        <ele>171</ele>
        <time>2022-02-07T16:34:32Z</time>
      </trkpt>
      <trkpt lat="43.93174" lon="2.16578">
        <ele>171</ele>
        <time>2022-02-07T16:34:36Z</time>
      </trkpt>
      <trkpt lat="43.93191" lon="2.16666">
        <ele>173</ele>
        <time>2022-02-07T16:34:48Z</time>
      </trkpt>
      <trkpt lat="43.93198" lon="2.16729">
        <ele>172</ele>
        <time>2022-02-07T16:34:56Z</time>
      </trkpt>
      <trkpt lat="43.93196" lon="2.16837">
        <ele>173</ele>
        <time>2022-02-07T16:35:10Z</time>
      </trkpt>
      <trkpt lat="43.93192" lon="2.16847">
        <ele>173</ele>
        <time>2022-02-07T16:35:11Z</time>
      </trkpt>
      <trkpt lat="43.93191" lon="2.16854">
        <ele>173</ele>
        <time>2022-02-07T16:35:12Z</time>
      </trkpt>
      <trkpt lat="43.93193" lon="2.16868">
        <ele>174</ele>
        <time>2022-02-07T16:35:14Z</time>
      </trkpt>
      <trkpt lat="43.93196" lon="2.16874">
        <ele>174</ele>
        <time>2022-02-07T16:35:15Z</time>
      </trkpt>
      <trkpt lat="43.93204" lon="2.1688">
        <ele>174</ele>
        <time>2022-02-07T16:35:16Z</time>
      </trkpt>
      <trkpt lat="43.93209" lon="2.16881">
        <ele>175</ele>
        <time>2022-02-07T16:35:17Z</time>
      </trkpt>
      <trkpt lat="43.93218" lon="2.16878">
        <ele>175</ele>
        <time>2022-02-07T16:35:19Z</time>
      </trkpt>
      <trkpt lat="43.93228" lon="2.16881">
        <ele>176</ele>
        <time>2022-02-07T16:35:21Z</time>
      </trkpt>
      <trkpt lat="43.93239" lon="2.16892">
        <ele>176</ele>
        <time>2022-02-07T16:35:23Z</time>
      </trkpt>
      <trkpt lat="43.93263" lon="2.16938">
        <ele>177</ele>
        <time>2022-02-07T16:35:30Z</time>
      </trkpt>
      <trkpt lat="43.93282" lon="2.16978">
        <ele>178</ele>
        <time>2022-02-07T16:35:37Z</time>
      </trkpt>
      <trkpt lat="43.93282" lon="2.1699">
        <ele>178</ele>
        <time>2022-02-07T16:35:38Z</time>
      </trkpt>
      <trkpt lat="43.93302" lon="2.1704">
        <ele>178</ele>
        <time>2022-02-07T16:35:45Z</time>
      </trkpt>
      <trkpt lat="43.93344" lon="2.17159">
        <ele>177</ele>
        <time>2022-02-07T16:36:02Z</time>
      </trkpt>
      <trkpt lat="43.93355" lon="2.17205">
        <ele>177</ele>
        <time>2022-02-07T16:36:09Z</time>
      </trkpt>
      <trkpt lat="43.93367" lon="2.17225">
        <ele>177</ele>
        <time>2022-02-07T16:36:12Z</time>
      </trkpt>
      <trkpt lat="43.93372" lon="2.17258">
        <ele>177</ele>
        <time>2022-02-07T16:36:16Z</time>
      </trkpt>
      <trkpt lat="43.93382" lon="2.17307">
        <ele>176</ele>
        <time>2022-02-07T16:36:23Z</time>
      </trkpt>
      <trkpt lat="43.93396" lon="2.17362">
        <ele>176</ele>
        <time>2022-02-07T16:36:30Z</time>
      </trkpt>
      <trkpt lat="43.93397" lon="2.17375">
        <ele>176</ele>
        <time>2022-02-07T16:36:32Z</time>
      </trkpt>
      <trkpt lat="43.93394" lon="2.17383">
        <ele>177</ele>
        <time>2022-02-07T16:36:33Z</time>
      </trkpt>
      <trkpt lat="43.93389" lon="2.1739">
        <ele>177</ele>
        <time>2022-02-07T16:36:34Z</time>
      </trkpt>
      <trkpt lat="43.93386" lon="2.17392">
        <ele>177</ele>
        <time>2022-02-07T16:36:35Z</time>
      </trkpt>
      <trkpt lat="43.93387" lon="2.17417">
        <ele>178</ele>
        <time>2022-02-07T16:36:38Z</time>
      </trkpt>
      <trkpt lat="43.93395" lon="2.1742">
        <ele>178</ele>
        <time>2022-02-07T16:36:40Z</time>
      </trkpt>
      <trkpt lat="43.93411" lon="2.17433">
        <ele>178</ele>
        <time>2022-02-07T16:36:43Z</time>
      </trkpt>
      <trkpt lat="43.93415" lon="2.17431">
        <ele>177</ele>
        <time>2022-02-07T16:36:44Z</time>
      </trkpt>
      <trkpt lat="43.93456" lon="2.17585">
        <ele>178</ele>
        <time>2022-02-07T16:37:05Z</time>
      </trkpt>
      <trkpt lat="43.93462" lon="2.17604">
        <ele>178</ele>
        <time>2022-02-07T16:37:07Z</time>
      </trkpt>
      <trkpt lat="43.93513" lon="2.17743">
        <ele>179</ele>
        <time>2022-02-07T16:37:27Z</time>
      </trkpt>
      <trkpt lat="43.93539" lon="2.17795">
        <ele>180</ele>
        <time>2022-02-07T16:37:35Z</time>
      </trkpt>
      <trkpt lat="43.93546" lon="2.17807">
        <ele>181</ele>
        <time>2022-02-07T16:37:37Z</time>
      </trkpt>
      <trkpt lat="43.93545" lon="2.17819">
        <ele>181</ele>
        <time>2022-02-07T16:37:39Z</time>
      </trkpt>
      <trkpt lat="43.93548" lon="2.17829">
        <ele>181</ele>
        <time>2022-02-07T16:37:40Z</time>
      </trkpt>
      <trkpt lat="43.93556" lon="2.17836">
        <ele>181</ele>
        <time>2022-02-07T16:37:42Z</time>
      </trkpt>
      <trkpt lat="43.93557" lon="2.17851">
        <ele>181</ele>
        <time>2022-02-07T16:37:44Z</time>
      </trkpt>
      <trkpt lat="43.93563" lon="2.17876">
        <ele>180</ele>
        <time>2022-02-07T16:37:47Z</time>
      </trkpt>
      <trkpt lat="43.93573" lon="2.17907">
        <ele>180</ele>
        <time>2022-02-07T16:37:52Z</time>
      </trkpt>
      <trkpt lat="43.93592" lon="2.17952">
        <ele>180</ele>
        <time>2022-02-07T16:37:58Z</time>
      </trkpt>
      <trkpt lat="43.9361" lon="2.17986">
        <ele>180</ele>
        <time>2022-02-07T16:38:04Z</time>
      </trkpt>
      <trkpt lat="43.93712" lon="2.18147">
        <ele>179</ele>
        <time>2022-02-07T16:38:31Z</time>
      </trkpt>
      <trkpt lat="43.9373" lon="2.18167">
        <ele>178</ele>
        <time>2022-02-07T16:38:35Z</time>
      </trkpt>
      <trkpt lat="43.93738" lon="2.18183">
        <ele>178</ele>
        <time>2022-02-07T16:38:38Z</time>
      </trkpt>
      <trkpt lat="43.93738" lon="2.18191">
        <ele>178</ele>
        <time>2022-02-07T16:38:39Z</time>
      </trkpt>
      <trkpt lat="43.93741" lon="2.182">
        <ele>179</ele>
        <time>2022-02-07T16:38:40Z</time>
      </trkpt>
      <trkpt lat="43.93745" lon="2.18208">
        <ele>179</ele>
        <time>2022-02-07T16:38:41Z</time>
      </trkpt>
      <trkpt lat="43.93751" lon="2.18214">
        <ele>179</ele>
        <time>2022-02-07T16:38:43Z</time>
      </trkpt>
      <trkpt lat="43.93759" lon="2.18216">
        <ele>179</ele>
        <time>2022-02-07T16:38:44Z</time>
      </trkpt>
      <trkpt lat="43.93777" lon="2.18251">
        <ele>179</ele>
        <time>2022-02-07T16:38:50Z</time>
      </trkpt>
      <trkpt lat="43.93819" lon="2.18358">
        <ele>180</ele>
        <time>2022-02-07T16:39:05Z</time>
      </trkpt>
      <trkpt lat="43.93868" lon="2.18497">
        <ele>181</ele>
        <time>2022-02-07T16:39:25Z</time>
      </trkpt>
      <trkpt lat="43.93973" lon="2.18724">
        <ele>181</ele>
        <time>2022-02-07T16:40:00Z</time>
      </trkpt>
      <trkpt lat="43.93968" lon="2.18737">
        <ele>181</ele>
        <time>2022-02-07T16:40:02Z</time>
      </trkpt>
      <trkpt lat="43.93968" lon="2.18744">
        <ele>181</ele>
        <time>2022-02-07T16:40:03Z</time>
      </trkpt>
      <trkpt lat="43.93972" lon="2.18757">
        <ele>181</ele>
        <time>2022-02-07T16:40:04Z</time>
      </trkpt>
      <trkpt lat="43.93981" lon="2.18764">
        <ele>181</ele>
        <time>2022-02-07T16:40:06Z</time>
      </trkpt>
      <trkpt lat="43.93986" lon="2.18764">
        <ele>181</ele>
        <time>2022-02-07T16:40:07Z</time>
      </trkpt>
      <trkpt lat="43.93994" lon="2.1876">
        <ele>182</ele>
        <time>2022-02-07T16:40:09Z</time>
      </trkpt>
      <trkpt lat="43.94" lon="2.18781">
        <ele>182</ele>
        <time>2022-02-07T16:40:11Z</time>
      </trkpt>
      <trkpt lat="43.94036" lon="2.18857">
        <ele>180</ele>
        <time>2022-02-07T16:40:23Z</time>
      </trkpt>
      <trkpt lat="43.94061" lon="2.18888">
        <ele>179</ele>
        <time>2022-02-07T16:40:29Z</time>
      </trkpt>
      <trkpt lat="43.94134" lon="2.18962">
        <ele>176</ele>
        <time>2022-02-07T16:40:45Z</time>
      </trkpt>
      <trkpt lat="43.94163" lon="2.19004">
        <ele>175</ele>
        <time>2022-02-07T16:40:53Z</time>
      </trkpt>
      <trkpt lat="43.94195" lon="2.19083">
        <ele>172</ele>
        <time>2022-02-07T16:41:04Z</time>
      </trkpt>
      <trkpt lat="43.94258" lon="2.19321">
        <ele>173</ele>
        <time>2022-02-07T16:41:37Z</time>
      </trkpt>
      <trkpt lat="43.94274" lon="2.19376">
        <ele>173</ele>
        <time>2022-02-07T16:41:44Z</time>
      </trkpt>
      <trkpt lat="43.94293" lon="2.1943">
        <ele>172</ele>
        <time>2022-02-07T16:41:52Z</time>
      </trkpt>
      <trkpt lat="43.94303" lon="2.1945">
        <ele>172</ele>
        <time>2022-02-07T16:41:55Z</time>
      </trkpt>
      <trkpt lat="43.94317" lon="2.1948">
        <ele>172</ele>
        <time>2022-02-07T16:42:00Z</time>
      </trkpt>
      <trkpt lat="43.94359" lon="2.19563">
        <ele>173</ele>
        <time>2022-02-07T16:42:13Z</time>
      </trkpt>
      <trkpt lat="43.94389" lon="2.19627">
        <ele>173</ele>
        <time>2022-02-07T16:42:22Z</time>
      </trkpt>
      <trkpt lat="43.94416" lon="2.19714">
        <ele>172</ele>
        <time>2022-02-07T16:42:35Z</time>
      </trkpt>
      <trkpt lat="43.94422" lon="2.19729">
        <ele>172</ele>
        <time>2022-02-07T16:42:37Z</time>
      </trkpt>
      <trkpt lat="43.94441" lon="2.19785">
        <ele>172</ele>
        <time>2022-02-07T16:42:45Z</time>
      </trkpt>
      <trkpt lat="43.94447" lon="2.19817">
        <ele>173</ele>
        <time>2022-02-07T16:42:49Z</time>
      </trkpt>
      <trkpt lat="43.94446" lon="2.19829">
        <ele>173</ele>
        <time>2022-02-07T16:42:51Z</time>
      </trkpt>
      <trkpt lat="43.94451" lon="2.19844">
        <ele>173</ele>
        <time>2022-02-07T16:42:53Z</time>
      </trkpt>
      <trkpt lat="43.94457" lon="2.1985">
        <ele>173</ele>
        <time>2022-02-07T16:42:54Z</time>
      </trkpt>
      <trkpt lat="43.94466" lon="2.19879">
        <ele>173</ele>
        <time>2022-02-07T16:42:58Z</time>
      </trkpt>
      <trkpt lat="43.94478" lon="2.19951">
        <ele>175</ele>
        <time>2022-02-07T16:43:07Z</time>
      </trkpt>
      <trkpt lat="43.9448" lon="2.19996">
        <ele>175</ele>
        <time>2022-02-07T16:43:13Z</time>
      </trkpt>
      <trkpt lat="43.9448" lon="2.20078">
        <ele>176</ele>
        <time>2022-02-07T16:43:24Z</time>
      </trkpt>
      <trkpt lat="43.94483" lon="2.20118">
        <ele>176</ele>
        <time>2022-02-07T16:43:29Z</time>
      </trkpt>
      <trkpt lat="43.94492" lon="2.20163">
        <ele>176</ele>
        <time>2022-02-07T16:43:35Z</time>
      </trkpt>
      <trkpt lat="43.94502" lon="2.20204">
        <ele>177</ele>
        <time>2022-02-07T16:43:40Z</time>
      </trkpt>
      <trkpt lat="43.94519" lon="2.20253">
        <ele>177</ele>
        <time>2022-02-07T16:43:47Z</time>
      </trkpt>
      <trkpt lat="43.94531" lon="2.20281">
        <ele>178</ele>
        <time>2022-02-07T16:43:52Z</time>
      </trkpt>
      <trkpt lat="43.94545" lon="2.20307">
        <ele>178</ele>
        <time>2022-02-07T16:43:56Z</time>
      </trkpt>
      <trkpt lat="43.94587" lon="2.20374">
        <ele>177</ele>
        <time>2022-02-07T16:44:07Z</time>
      </trkpt>
      <trkpt lat="43.94641" lon="2.20473">
        <ele>178</ele>
        <time>2022-02-07T16:44:23Z</time>
      </trkpt>
      <trkpt lat="43.94729" lon="2.20654">
        <ele>182</ele>
        <time>2022-02-07T16:44:51Z</time>
      </trkpt>
      <trkpt lat="43.94764" lon="2.20729">
        <ele>182</ele>
        <time>2022-02-07T16:45:02Z</time>
      </trkpt>
      <trkpt lat="43.94834" lon="2.20912">
        <ele>185</ele>
        <time>2022-02-07T16:45:29Z</time>
      </trkpt>
      <trkpt lat="43.94853" lon="2.20983">
        <ele>186</ele>
        <time>2022-02-07T16:45:39Z</time>
      </trkpt>
      <trkpt lat="43.94873" lon="2.2107">
        <ele>188</ele>
        <time>2022-02-07T16:45:50Z</time>
      </trkpt>
      <trkpt lat="43.95058" lon="2.21094">
        <ele>182</ele>
        <time>2022-02-07T16:46:23Z</time>
      </trkpt>
      <trkpt lat="43.9506" lon="2.21106">
        <ele>182</ele>
        <time>2022-02-07T16:46:25Z</time>
      </trkpt>
      <trkpt lat="43.95067" lon="2.21111">
        <ele>182</ele>
        <time>2022-02-07T16:46:26Z</time>
      </trkpt>
      <trkpt lat="43.9507" lon="2.21111">
        <ele>182</ele>
        <time>2022-02-07T16:46:27Z</time>
      </trkpt>
      <trkpt lat="43.95077" lon="2.21106">
        <ele>181</ele>
        <time>2022-02-07T16:46:28Z</time>
      </trkpt>
      <trkpt lat="43.95084" lon="2.21116">
        <ele>181</ele>
        <time>2022-02-07T16:46:30Z</time>
      </trkpt>
      <trkpt lat="43.95111" lon="2.21169">
        <ele>181</ele>
        <time>2022-02-07T16:46:39Z</time>
      </trkpt>
      <trkpt lat="43.95166" lon="2.2128">
        <ele>181</ele>
        <time>2022-02-07T16:46:56Z</time>
      </trkpt>
      <trkpt lat="43.95171" lon="2.2131">
        <ele>181</ele>
        <time>2022-02-07T16:47:00Z</time>
      </trkpt>
      <trkpt lat="43.95173" lon="2.21334">
        <ele>181</ele>
        <time>2022-02-07T16:47:03Z</time>
      </trkpt>
      <trkpt lat="43.95184" lon="2.21522">
        <ele>180</ele>
        <time>2022-02-07T16:47:27Z</time>
      </trkpt>
      <trkpt lat="43.95192" lon="2.21624">
        <ele>180</ele>
        <time>2022-02-07T16:47:40Z</time>
      </trkpt>
      <trkpt lat="43.9521" lon="2.21709">
        <ele>180</ele>
        <time>2022-02-07T16:47:51Z</time>
      </trkpt>
      <trkpt lat="43.95219" lon="2.2178">
        <ele>180</ele>
        <time>2022-02-07T16:48:01Z</time>
      </trkpt>
      <trkpt lat="43.95222" lon="2.21835">
        <ele>181</ele>
        <time>2022-02-07T16:48:08Z</time>
      </trkpt>
      <trkpt lat="43.95218" lon="2.21896">
        <ele>183</ele>
        <time>2022-02-07T16:48:16Z</time>
      </trkpt>
      <trkpt lat="43.95213" lon="2.21947">
        <ele>185</ele>
        <time>2022-02-07T16:48:22Z</time>
      </trkpt>
      <trkpt lat="43.95204" lon="2.21996">
        <ele>188</ele>
        <time>2022-02-07T16:48:29Z</time>
      </trkpt>
      <trkpt lat="43.95189" lon="2.22067">
        <ele>188</ele>
        <time>2022-02-07T16:48:38Z</time>
      </trkpt>
      <trkpt lat="43.95166" lon="2.22114">
        <ele>187</ele>
        <time>2022-02-07T16:48:45Z</time>
      </trkpt>
      <trkpt lat="43.95098" lon="2.2223">
        <ele>185</ele>
        <time>2022-02-07T16:49:05Z</time>
      </trkpt>
      <trkpt lat="43.95074" lon="2.22285">
        <ele>185</ele>
        <time>2022-02-07T16:49:13Z</time>
      </trkpt>
      <trkpt lat="43.95058" lon="2.22349">
        <ele>188</ele>
        <time>2022-02-07T16:49:22Z</time>
      </trkpt>
      <trkpt lat="43.95026" lon="2.22509">
        <ele>187</ele>
        <time>2022-02-07T16:49:43Z</time>
      </trkpt>
      <trkpt lat="43.95017" lon="2.22572">
        <ele>185</ele>
        <time>2022-02-07T16:49:51Z</time>
      </trkpt>
      <trkpt lat="43.95015" lon="2.22596">
        <ele>185</ele>
        <time>2022-02-07T16:49:54Z</time>
      </trkpt>
      <trkpt lat="43.95015" lon="2.2266">
        <ele>185</ele>
        <time>2022-02-07T16:50:02Z</time>
      </trkpt>
      <trkpt lat="43.95017" lon="2.22763">
        <ele>184</ele>
        <time>2022-02-07T16:50:16Z</time>
      </trkpt>
      <trkpt lat="43.95027" lon="2.22991">
        <ele>185</ele>
        <time>2022-02-07T16:50:45Z</time>
      </trkpt>
      <trkpt lat="43.95024" lon="2.23064">
        <ele>182</ele>
        <time>2022-02-07T16:50:54Z</time>
      </trkpt>
      <trkpt lat="43.95016" lon="2.23136">
        <ele>182</ele>
        <time>2022-02-07T16:51:03Z</time>
      </trkpt>
      <trkpt lat="43.95" lon="2.23209">
        <ele>183</ele>
        <time>2022-02-07T16:51:13Z</time>
      </trkpt>
      <trkpt lat="43.94972" lon="2.23293">
        <ele>185</ele>
        <time>2022-02-07T16:51:25Z</time>
      </trkpt>
      <trkpt lat="43.94943" lon="2.23353">
        <ele>184</ele>
        <time>2022-02-07T16:51:34Z</time>
      </trkpt>
      <trkpt lat="43.94896" lon="2.23432">
        <ele>184</ele>
        <time>2022-02-07T16:51:47Z</time>
      </trkpt>
      <trkpt lat="43.94839" lon="2.23485">
        <ele>186</ele>
        <time>2022-02-07T16:52:00Z</time>
      </trkpt>
      <trkpt lat="43.94779" lon="2.23527">
        <ele>185</ele>
        <time>2022-02-07T16:52:12Z</time>
      </trkpt>
      <trkpt lat="43.94677" lon="2.23554">
        <ele>189</ele>
        <time>2022-02-07T16:52:30Z</time>
      </trkpt>
      <trkpt lat="43.94454" lon="2.23624">
        <ele>194</ele>
        <time>2022-02-07T16:53:11Z</time>
      </trkpt>
      <trkpt lat="43.94406" lon="2.23645">
        <ele>191</ele>
        <time>2022-02-07T16:53:20Z</time>
      </trkpt>
      <trkpt lat="43.94351" lon="2.2368">
        <ele>187</ele>
        <time>2022-02-07T16:53:31Z</time>
      </trkpt>
      <trkpt lat="43.94283" lon="2.23731">
        <ele>184</ele>
        <time>2022-02-07T16:53:44Z</time>
      </trkpt>
      <trkpt lat="43.93982" lon="2.24009">
        <ele>181</ele>
        <time>2022-02-07T16:54:49Z</time>
      </trkpt>
      <trkpt lat="43.93973" lon="2.24016">
        <ele>182</ele>
        <time>2022-02-07T16:54:50Z</time>
      </trkpt>
      <trkpt lat="43.93951" lon="2.24042">
        <ele>183</ele>
        <time>2022-02-07T16:54:56Z</time>
      </trkpt>
      <trkpt lat="43.93927" lon="2.24059">
        <ele>183</ele>
        <time>2022-02-07T16:55:00Z</time>
      </trkpt>
      <trkpt lat="43.93916" lon="2.24072">
        <ele>183</ele>
        <time>2022-02-07T16:55:03Z</time>
      </trkpt>
      <trkpt lat="43.93863" lon="2.24119">
        <ele>183</ele>
        <time>2022-02-07T16:55:14Z</time>
      </trkpt>
      <trkpt lat="43.93811" lon="2.24171">
        <ele>183</ele>
        <time>2022-02-07T16:55:26Z</time>
      </trkpt>
      <trkpt lat="43.93734" lon="2.24268">
        <ele>182</ele>
        <time>2022-02-07T16:55:44Z</time>
      </trkpt>
      <trkpt lat="43.93693" lon="2.24328">
        <ele>183</ele>
        <time>2022-02-07T16:55:55Z</time>
      </trkpt>
      <trkpt lat="43.9367" lon="2.24366">
        <ele>184</ele>
        <time>2022-02-07T16:56:01Z</time>
      </trkpt>
      <trkpt lat="43.93534" lon="2.24623">
        <ele>191</ele>
        <time>2022-02-07T16:56:42Z</time>
      </trkpt>
      <trkpt lat="43.93427" lon="2.24831">
        <ele>194</ele>
        <time>2022-02-07T16:57:15Z</time>
      </trkpt>
      <trkpt lat="43.93398" lon="2.2488">
        <ele>194</ele>
        <time>2022-02-07T16:57:23Z</time>
      </trkpt>
      <trkpt lat="43.93368" lon="2.24918">
        <ele>197</ele>
        <time>2022-02-07T16:57:30Z</time>
      </trkpt>
      <trkpt lat="43.9328" lon="2.25014">
        <ele>201</ele>
        <time>2022-02-07T16:57:50Z</time>
      </trkpt>
      <trkpt lat="43.93236" lon="2.25076">
        <ele>196</ele>
        <time>2022-02-07T16:58:01Z</time>
      </trkpt>
      <trkpt lat="43.93204" lon="2.25137">
        <ele>195</ele>
        <time>2022-02-07T16:58:11Z</time>
      </trkpt>
      <trkpt lat="43.93166" lon="2.25215">
        <ele>192</ele>
        <time>2022-02-07T16:58:23Z</time>
      </trkpt>
      <trkpt lat="43.93092" lon="2.25377">
        <ele>200</ele>
        <time>2022-02-07T16:58:47Z</time>
      </trkpt>
      <trkpt lat="43.9306" lon="2.25464">
        <ele>205</ele>
        <time>2022-02-07T16:59:00Z</time>
      </trkpt>
      <trkpt lat="43.93042" lon="2.25529">
        <ele>208</ele>
        <time>2022-02-07T16:59:09Z</time>
      </trkpt>
      <trkpt lat="43.93024" lon="2.25636">
        <ele>206</ele>
        <time>2022-02-07T16:59:23Z</time>
      </trkpt>
      <trkpt lat="43.93018" lon="2.25711">
        <ele>201</ele>
        <time>2022-02-07T16:59:33Z</time>
      </trkpt>
      <trkpt lat="43.93017" lon="2.25776">
        <ele>198</ele>
        <time>2022-02-07T16:59:41Z</time>
      </trkpt>
      <trkpt lat="43.93025" lon="2.25839">
        <ele>193</ele>
        <time>2022-02-07T16:59:49Z</time>
      </trkpt>
      <trkpt lat="43.93071" lon="2.26078">
        <ele>199</ele>
        <time>2022-02-07T17:00:21Z</time>
      </trkpt>
      <trkpt lat="43.93107" lon="2.26212">
        <ele>195</ele>
        <time>2022-02-07T17:00:39Z</time>
      </trkpt>
      <trkpt lat="43.93144" lon="2.26308">
        <ele>192</ele>
        <time>2022-02-07T17:00:53Z</time>
      </trkpt>
      <trkpt lat="43.93175" lon="2.26404">
        <ele>193</ele>
        <time>2022-02-07T17:01:06Z</time>
      </trkpt>
      <trkpt lat="43.932" lon="2.26541">
        <ele>199</ele>
        <time>2022-02-07T17:01:25Z</time>
      </trkpt>
      <trkpt lat="43.93214" lon="2.26624">
        <ele>198</ele>
        <time>2022-02-07T17:01:36Z</time>
      </trkpt>
      <trkpt lat="43.93251" lon="2.26813">
        <ele>198</ele>
        <time>2022-02-07T17:02:01Z</time>
      </trkpt>
      <trkpt lat="43.93281" lon="2.26923">
        <ele>203</ele>
        <time>2022-02-07T17:02:16Z</time>
      </trkpt>
      <trkpt lat="43.9331" lon="2.26991">
        <ele>202</ele>
        <time>2022-02-07T17:02:26Z</time>
      </trkpt>
      <trkpt lat="43.93346" lon="2.27055">
        <ele>199</ele>
        <time>2022-02-07T17:02:36Z</time>
      </trkpt>
      <trkpt lat="43.93369" lon="2.27103">
        <ele>201</ele>
        <time>2022-02-07T17:02:44Z</time>
      </trkpt>
      <trkpt lat="43.93388" lon="2.27153">
        <ele>208</ele>
        <time>2022-02-07T17:02:51Z</time>
      </trkpt>
      <trkpt lat="43.93392" lon="2.27204">
        <ele>222</ele>
        <time>2022-02-07T17:02:57Z</time>
      </trkpt>
      <trkpt lat="43.9324" lon="2.28092">
        <ele>288</ele>
        <time>2022-02-07T17:04:54Z</time>
      </trkpt>
      <trkpt lat="43.9321" lon="2.28204">
        <ele>245</ele>
        <time>2022-02-07T17:05:10Z</time>
      </trkpt>
      <trkpt lat="43.93171" lon="2.28274">
        <ele>213</ele>
        <time>2022-02-07T17:05:21Z</time>
      </trkpt>
      <trkpt lat="43.93148" lon="2.28308">
        <ele>207</ele>
        <time>2022-02-07T17:05:27Z</time>
      </trkpt>
      <trkpt lat="43.93105" lon="2.28355">
        <ele>204</ele>
        <time>2022-02-07T17:05:37Z</time>
      </trkpt>
      <trkpt lat="43.93065" lon="2.28393">
        <ele>204</ele>
        <time>2022-02-07T17:05:45Z</time>
      </trkpt>
      <trkpt lat="43.93014" lon="2.28469">
        <ele>204</ele>
        <time>2022-02-07T17:05:59Z</time>
      </trkpt>
      <trkpt lat="43.92998" lon="2.28525">
        <ele>201</ele>
        <time>2022-02-07T17:06:06Z</time>
      </trkpt>
      <trkpt lat="43.9298" lon="2.28567">
        <ele>201</ele>
        <time>2022-02-07T17:06:13Z</time>
      </trkpt>
      <trkpt lat="43.92976" lon="2.28581">
        <ele>200</ele>
        <time>2022-02-07T17:06:15Z</time>
      </trkpt>
      <trkpt lat="43.9296" lon="2.2867">
        <ele>202</ele>
        <time>2022-02-07T17:06:26Z</time>
      </trkpt>
      <trkpt lat="43.92963" lon="2.28726">
        <ele>201</ele>
        <time>2022-02-07T17:06:34Z</time>
      </trkpt>
      <trkpt lat="43.92977" lon="2.28822">
        <ele>201</ele>
        <time>2022-02-07T17:06:46Z</time>
      </trkpt>
      <trkpt lat="43.93002" lon="2.28887">
        <ele>202</ele>
        <time>2022-02-07T17:06:56Z</time>
      </trkpt>
      <trkpt lat="43.93036" lon="2.28945">
        <ele>205</ele>
        <time>2022-02-07T17:07:05Z</time>
      </trkpt>
      <trkpt lat="43.93078" lon="2.28997">
        <ele>201</ele>
        <time>2022-02-07T17:07:15Z</time>
      </trkpt>
      <trkpt lat="43.93139" lon="2.29041">
        <ele>199</ele>
        <time>2022-02-07T17:07:27Z</time>
      </trkpt>
      <trkpt lat="43.9322" lon="2.29083">
        <ele>197</ele>
        <time>2022-02-07T17:07:43Z</time>
      </trkpt>
      <trkpt lat="43.9329" lon="2.29125">
        <ele>198</ele>
        <time>2022-02-07T17:07:56Z</time>
      </trkpt>
      <trkpt lat="43.93334" lon="2.29182">
        <ele>201</ele>
        <time>2022-02-07T17:08:07Z</time>
      </trkpt>
      <trkpt lat="43.93373" lon="2.29255">
        <ele>206</ele>
        <time>2022-02-07T17:08:19Z</time>
      </trkpt>
      <trkpt lat="43.93394" lon="2.29327">
        <ele>221</ele>
        <time>2022-02-07T17:08:29Z</time>
      </trkpt>
      <trkpt lat="43.93398" lon="2.29453">
        <ele>261</ele>
        <time>2022-02-07T17:08:45Z</time>
      </trkpt>
      <trkpt lat="43.93391" lon="2.29579">
        <ele>290</ele>
        <time>2022-02-07T17:09:01Z</time>
      </trkpt>
      <trkpt lat="43.93369" lon="2.29707">
        <ele>263</ele>
        <time>2022-02-07T17:09:18Z</time>
      </trkpt>
      <trkpt lat="43.93323" lon="2.29829">
        <ele>216</ele>
        <time>2022-02-07T17:09:35Z</time>
      </trkpt>
      <trkpt lat="43.9328" lon="2.29882">
        <ele>221</ele>
        <time>2022-02-07T17:09:46Z</time>
      </trkpt>
      <trkpt lat="43.93255" lon="2.29929">
        <ele>220</ele>
        <time>2022-02-07T17:09:53Z</time>
      </trkpt>
      <trkpt lat="43.93227" lon="2.29995">
        <ele>225</ele>
        <time>2022-02-07T17:10:03Z</time>
      </trkpt>
      <trkpt lat="43.93173" lon="2.30216">
        <ele>212</ele>
        <time>2022-02-07T17:10:33Z</time>
      </trkpt>
      <trkpt lat="43.9315" lon="2.30372">
        <ele>203</ele>
        <time>2022-02-07T17:10:53Z</time>
      </trkpt>
      <trkpt lat="43.93148" lon="2.30424">
        <ele>200</ele>
        <time>2022-02-07T17:11:00Z</time>
      </trkpt>
      <trkpt lat="43.93153" lon="2.3051">
        <ele>196</ele>
        <time>2022-02-07T17:11:11Z</time>
      </trkpt>
      <trkpt lat="43.93155" lon="2.30541">
        <ele>195</ele>
        <time>2022-02-07T17:11:15Z</time>
      </trkpt>
      <trkpt lat="43.932" lon="2.31117">
        <ele>193</ele>
        <time>2022-02-07T17:12:29Z</time>
      </trkpt>
      <trkpt lat="43.93207" lon="2.31193">
        <ele>192</ele>
        <time>2022-02-07T17:12:39Z</time>
      </trkpt>
      <trkpt lat="43.93224" lon="2.31304">
        <ele>193</ele>
        <time>2022-02-07T17:12:54Z</time>
      </trkpt>
      <trkpt lat="43.93228" lon="2.31336">
        <ele>192</ele>
        <time>2022-02-07T17:12:58Z</time>
      </trkpt>
      <trkpt lat="43.93242" lon="2.31424">
        <ele>192</ele>
        <time>2022-02-07T17:13:09Z</time>
      </trkpt>
      <trkpt lat="43.93251" lon="2.31507">
        <ele>196</ele>
        <time>2022-02-07T17:13:20Z</time>
      </trkpt>
      <trkpt lat="43.93261" lon="2.31631">
        <ele>196</ele>
        <time>2022-02-07T17:13:36Z</time>
      </trkpt>
      <trkpt lat="43.93263" lon="2.31775">
        <ele>199</ele>
        <time>2022-02-07T17:13:55Z</time>
      </trkpt>
      <trkpt lat="43.9327" lon="2.31958">
        <ele>202</ele>
        <time>2022-02-07T17:14:18Z</time>
      </trkpt>
      <trkpt lat="43.93272" lon="2.32118">
        <ele>204</ele>
        <time>2022-02-07T17:14:39Z</time>
      </trkpt>
      <trkpt lat="43.93265" lon="2.32243">
        <ele>208</ele>
        <time>2022-02-07T17:14:55Z</time>
      </trkpt>
      <trkpt lat="43.93227" lon="2.32419">
        <ele>207</ele>
        <time>2022-02-07T17:15:18Z</time>
      </trkpt>
      <trkpt lat="43.93203" lon="2.32555">
        <ele>208</ele>
        <time>2022-02-07T17:15:36Z</time>
      </trkpt>
      <trkpt lat="43.93196" lon="2.32625">
        <ele>206</ele>
        <time>2022-02-07T17:15:45Z</time>
      </trkpt>
      <trkpt lat="43.93193" lon="2.32695">
        <ele>202</ele>
        <time>2022-02-07T17:15:54Z</time>
      </trkpt>
      <trkpt lat="43.93193" lon="2.32764">
        <ele>199</ele>
        <time>2022-02-07T17:16:03Z</time>
      </trkpt>
      <trkpt lat="43.93198" lon="2.32942">
        <ele>197</ele>
        <time>2022-02-07T17:16:26Z</time>
      </trkpt>
      <trkpt lat="43.93206" lon="2.33146">
        <ele>194</ele>
        <time>2022-02-07T17:16:52Z</time>
      </trkpt>
      <trkpt lat="43.93213" lon="2.33436">
        <ele>206</ele>
        <time>2022-02-07T17:17:29Z</time>
      </trkpt>
      <trkpt lat="43.93225" lon="2.33558">
        <ele>208</ele>
        <time>2022-02-07T17:17:45Z</time>
      </trkpt>
      <trkpt lat="43.93226" lon="2.33589">
        <ele>209</ele>
        <time>2022-02-07T17:17:49Z</time>
      </trkpt>
      <trkpt lat="43.93224" lon="2.33624">
        <ele>210</ele>
        <time>2022-02-07T17:17:53Z</time>
      </trkpt>
      <trkpt lat="43.93207" lon="2.33727">
        <ele>213</ele>
        <time>2022-02-07T17:18:07Z</time>
      </trkpt>
      <trkpt lat="43.93197" lon="2.33767">
        <ele>213</ele>
        <time>2022-02-07T17:18:12Z</time>
      </trkpt>
      <trkpt lat="43.93169" lon="2.33851">
        <ele>211</ele>
        <time>2022-02-07T17:18:24Z</time>
      </trkpt>
      <trkpt lat="43.93152" lon="2.33913">
        <ele>211</ele>
        <time>2022-02-07T17:18:33Z</time>
      </trkpt>
      <trkpt lat="43.93131" lon="2.34019">
        <ele>208</ele>
        <time>2022-02-07T17:18:47Z</time>
      </trkpt>
      <trkpt lat="43.93129" lon="2.34056">
        <ele>210</ele>
        <time>2022-02-07T17:18:52Z</time>
      </trkpt>
      <trkpt lat="43.93129" lon="2.34154">
        <ele>212</ele>
        <time>2022-02-07T17:19:04Z</time>
      </trkpt>
      <trkpt lat="43.93124" lon="2.34267">
        <ele>214</ele>
        <time>2022-02-07T17:19:19Z</time>
      </trkpt>
      <trkpt lat="43.93126" lon="2.34319">
        <ele>212</ele>
        <time>2022-02-07T17:19:25Z</time>
      </trkpt>
      <trkpt lat="43.93134" lon="2.3439">
        <ele>212</ele>
        <time>2022-02-07T17:19:35Z</time>
      </trkpt>
      <trkpt lat="43.93148" lon="2.3447">
        <ele>213</ele>
        <time>2022-02-07T17:19:45Z</time>
      </trkpt>
      <trkpt lat="43.93214" lon="2.34723">
        <ele>210</ele>
        <time>2022-02-07T17:20:20Z</time>
      </trkpt>
      <trkpt lat="43.93223" lon="2.3475">
        <ele>209</ele>
        <time>2022-02-07T17:20:23Z</time>
      </trkpt>
      <trkpt lat="43.93238" lon="2.34782">
        <ele>207</ele>
        <time>2022-02-07T17:20:28Z</time>
      </trkpt>
      <trkpt lat="43.93254" lon="2.34812">
        <ele>206</ele>
        <time>2022-02-07T17:20:33Z</time>
      </trkpt>
      <trkpt lat="43.93293" lon="2.34864">
        <ele>206</ele>
        <time>2022-02-07T17:20:43Z</time>
      </trkpt>
      <trkpt lat="43.93592" lon="2.35236">
        <ele>207</ele>
        <time>2022-02-07T17:21:54Z</time>
      </trkpt>
      <trkpt lat="43.93723" lon="2.35417">
        <ele>208</ele>
        <time>2022-02-07T17:22:27Z</time>
      </trkpt>
      <trkpt lat="43.93882" lon="2.35642">
        <ele>207</ele>
        <time>2022-02-07T17:23:07Z</time>
      </trkpt>
      <trkpt lat="43.93894" lon="2.35665">
        <ele>207</ele>
        <time>2022-02-07T17:23:11Z</time>
      </trkpt>
      <trkpt lat="43.93914" lon="2.35708">
        <ele>205</ele>
        <time>2022-02-07T17:23:18Z</time>
      </trkpt>
      <trkpt lat="43.94295" lon="2.3682">
        <ele>202</ele>
        <time>2022-02-07T17:25:55Z</time>
      </trkpt>
      <trkpt lat="43.94303" lon="2.3685">
        <ele>202</ele>
        <time>2022-02-07T17:25:59Z</time>
      </trkpt>
      <trkpt lat="43.94311" lon="2.36892">
        <ele>202</ele>
        <time>2022-02-07T17:26:05Z</time>
      </trkpt>
      <trkpt lat="43.94334" lon="2.37063">
        <ele>210</ele>
        <time>2022-02-07T17:26:27Z</time>
      </trkpt>
      <trkpt lat="43.94337" lon="2.37116">
        <ele>215</ele>
        <time>2022-02-07T17:26:34Z</time>
      </trkpt>
      <trkpt lat="43.94339" lon="2.37207">
        <ele>222</ele>
        <time>2022-02-07T17:26:46Z</time>
      </trkpt>
      <trkpt lat="43.94341" lon="2.37266">
        <ele>226</ele>
        <time>2022-02-07T17:26:53Z</time>
      </trkpt>
      <trkpt lat="43.94357" lon="2.37428">
        <ele>227</ele>
        <time>2022-02-07T17:27:14Z</time>
      </trkpt>
      <trkpt lat="43.94363" lon="2.37477">
        <ele>228</ele>
        <time>2022-02-07T17:27:21Z</time>
      </trkpt>
      <trkpt lat="43.94369" lon="2.37514">
        <ele>228</ele>
        <time>2022-02-07T17:27:26Z</time>
      </trkpt>
      <trkpt lat="43.94393" lon="2.37599">
        <ele>222</ele>
        <time>2022-02-07T17:27:37Z</time>
      </trkpt>
      <trkpt lat="43.94412" lon="2.37637">
        <ele>214</ele>
        <time>2022-02-07T17:27:43Z</time>
      </trkpt>
      <trkpt lat="43.94421" lon="2.37659">
        <ele>212</ele>
        <time>2022-02-07T17:27:46Z</time>
      </trkpt>
      <trkpt lat="43.94433" lon="2.377">
        <ele>211</ele>
        <time>2022-02-07T17:27:52Z</time>
      </trkpt>
      <trkpt lat="43.94445" lon="2.37728">
        <ele>210</ele>
        <time>2022-02-07T17:27:56Z</time>
      </trkpt>
      <trkpt lat="43.94474" lon="2.37773">
        <ele>204</ele>
        <time>2022-02-07T17:28:04Z</time>
      </trkpt>
      <trkpt lat="43.94471" lon="2.37779">
        <ele>205</ele>
        <time>2022-02-07T17:28:05Z</time>
      </trkpt>
      <trkpt lat="43.94454" lon="2.37807">
        <ele>207</ele>
        <time>2022-02-07T17:28:10Z</time>
      </trkpt>
      <trkpt lat="43.94445" lon="2.37813">
        <ele>208</ele>
        <time>2022-02-07T17:28:11Z</time>
      </trkpt>
      <trkpt lat="43.94436" lon="2.37814">
        <ele>209</ele>
        <time>2022-02-07T17:28:13Z</time>
      </trkpt>
      <trkpt lat="43.94428" lon="2.37813">
        <ele>211</ele>
        <time>2022-02-07T17:28:14Z</time>
      </trkpt>
      <trkpt lat="43.94391" lon="2.37792">
        <ele>220</ele>
        <time>2022-02-07T17:28:22Z</time>
      </trkpt>
      <trkpt lat="43.94381" lon="2.37788">
        <ele>223</ele>
        <time>2022-02-07T17:28:23Z</time>
      </trkpt>
      <trkpt lat="43.94369" lon="2.37786">
        <ele>227</ele>
        <time>2022-02-07T17:28:26Z</time>
      </trkpt>
      <trkpt lat="43.9434" lon="2.37795">
        <ele>230</ele>
        <time>2022-02-07T17:28:31Z</time>
      </trkpt>
      <trkpt lat="43.943" lon="2.37814">
        <ele>237</ele>
        <time>2022-02-07T17:28:38Z</time>
      </trkpt>
      <trkpt lat="43.94284" lon="2.37825">
        <ele>239</ele>
        <time>2022-02-07T17:28:42Z</time>
      </trkpt>
      <trkpt lat="43.94284" lon="2.37833">
        <ele>235</ele>
        <time>2022-02-07T17:28:43Z</time>
      </trkpt>
      <trkpt lat="43.94258" lon="2.37863">
        <ele>236</ele>
        <time>2022-02-07T17:28:49Z</time>
      </trkpt>
      <trkpt lat="43.94234" lon="2.37905">
        <ele>230</ele>
        <time>2022-02-07T17:28:55Z</time>
      </trkpt>
      <trkpt lat="43.94213" lon="2.37946">
        <ele>229</ele>
        <time>2022-02-07T17:29:02Z</time>
      </trkpt>
      <trkpt lat="43.94185" lon="2.37993">
        <ele>228</ele>
        <time>2022-02-07T17:29:10Z</time>
      </trkpt>
      <trkpt lat="43.94177" lon="2.38012">
        <ele>227</ele>
        <time>2022-02-07T17:29:12Z</time>
      </trkpt>
      <trkpt lat="43.94148" lon="2.38106">
        <ele>222</ele>
        <time>2022-02-07T17:29:26Z</time>
      </trkpt>
      <trkpt lat="43.94119" lon="2.38218">
        <ele>218</ele>
        <time>2022-02-07T17:29:41Z</time>
      </trkpt>
      <trkpt lat="43.94112" lon="2.38284">
        <ele>213</ele>
        <time>2022-02-07T17:29:49Z</time>
      </trkpt>
      <trkpt lat="43.94111" lon="2.38322">
        <ele>210</ele>
        <time>2022-02-07T17:29:54Z</time>
      </trkpt>
      <trkpt lat="43.94114" lon="2.38358">
        <ele>208</ele>
        <time>2022-02-07T17:29:59Z</time>
      </trkpt>
      <trkpt lat="43.94114" lon="2.38357">
        <ele>204.4</ele>
        <extensions>
          <visugpx:TrkExtension xmlns:visugpx="https://www.visugpx.com/editgpx/">
            <visugpx:node>18</visugpx:node>
            </visugpx:TrkExtension>
        </extensions>
      </trkpt>
      <trkpt lat="43.94114" lon="2.38357">
        <ele>204.4</ele>
      </trkpt>
      <trkpt lat="43.94114" lon="2.38359">
        <ele>204.3</ele>
      </trkpt>
      <trkpt lat="43.94116" lon="2.38381">
        <ele>203.6</ele>
      </trkpt>
      <trkpt lat="43.9412" lon="2.38408">
        <ele>202.1</ele>
      </trkpt>
      <trkpt lat="43.94136" lon="2.3849">
        <ele>207.1</ele>
      </trkpt>
      <trkpt lat="43.9414" lon="2.38497">
        <ele>207.6</ele>
      </trkpt>
      <trkpt lat="43.94151" lon="2.38518">
        <ele>207.2</ele>
      </trkpt>
      <trkpt lat="43.94157" lon="2.38536">
        <ele>207.5</ele>
      </trkpt>
      <trkpt lat="43.94167" lon="2.38564">
        <ele>207.9</ele>
      </trkpt>
      <trkpt lat="43.94182" lon="2.38596">
        <ele>208.6</ele>
      </trkpt>
      <trkpt lat="43.94236" lon="2.38691">
        <ele>210.4</ele>
      </trkpt>
      <trkpt lat="43.94265" lon="2.3875">
        <ele>209.8</ele>
      </trkpt>
      <trkpt lat="43.94281" lon="2.38786">
        <ele>209.1</ele>
      </trkpt>
      <trkpt lat="43.94291" lon="2.3882">
        <ele>210.2</ele>
      </trkpt>
      <trkpt lat="43.9431" lon="2.38897">
        <ele>210</ele>
      </trkpt>
      <trkpt lat="43.94335" lon="2.38999">
        <ele>209.8</ele>
      </trkpt>
      <trkpt lat="43.94343" lon="2.39033">
        <ele>210.3</ele>
        <extensions>
          <visugpx:TrkExtension xmlns:visugpx="https://www.visugpx.com/editgpx/">
            <visugpx:node>21</visugpx:node>
            </visugpx:TrkExtension>
        </extensions>
      </trkpt>
      <trkpt lat="43.94362" lon="2.39113">
        <ele>210.9</ele>
      </trkpt>
      <trkpt lat="43.94379" lon="2.39184">
        <ele>210.3</ele>
      </trkpt>
      <trkpt lat="43.94392" lon="2.39257">
        <ele>210.9</ele>
      </trkpt>
      <trkpt lat="43.94394" lon="2.39282">
        <ele>211.2</ele>
      </trkpt>
      <trkpt lat="43.94395" lon="2.39319">
        <ele>211</ele>
      </trkpt>
      <trkpt lat="43.94393" lon="2.39355">
        <ele>211.3</ele>
      </trkpt>
      <trkpt lat="43.9439" lon="2.39383">
        <ele>212.6</ele>
      </trkpt>
      <trkpt lat="43.94388" lon="2.394">
        <ele>213.3</ele>
      </trkpt>
      <trkpt lat="43.94374" lon="2.39464">
        <ele>213.6</ele>
      </trkpt>
      <trkpt lat="43.94366" lon="2.39491">
        <ele>213.1</ele>
      </trkpt>
      <trkpt lat="43.94325" lon="2.39606">
        <ele>213.7</ele>
      </trkpt>
      <trkpt lat="43.94286" lon="2.39713">
        <ele>213.9</ele>
      </trkpt>
      <trkpt lat="43.9427" lon="2.39757">
        <ele>209.9</ele>
      </trkpt>
      <trkpt lat="43.9425" lon="2.3981">
        <ele>195</ele>
      </trkpt>
      <trkpt lat="43.9425" lon="2.3981">
        <ele>195</ele>
        <extensions>
          <visugpx:TrkExtension xmlns:visugpx="https://www.visugpx.com/editgpx/">
            <visugpx:node>19</visugpx:node>
            </visugpx:TrkExtension>
        </extensions>
      </trkpt>
      <trkpt lat="43.94204" lon="2.39937">
        <ele>208</ele>
        <time>2022-02-07T17:33:42Z</time>
      </trkpt>
      <trkpt lat="43.94181" lon="2.40008">
        <ele>218</ele>
        <time>2022-02-07T17:33:52Z</time>
      </trkpt>
      <trkpt lat="43.94172" lon="2.4004">
        <ele>227</ele>
        <time>2022-02-07T17:33:56Z</time>
      </trkpt>
      <trkpt lat="43.94165" lon="2.40129">
        <ele>239</ele>
        <time>2022-02-07T17:34:08Z</time>
      </trkpt>
      <trkpt lat="43.94165" lon="2.40173">
        <ele>238</ele>
        <time>2022-02-07T17:34:13Z</time>
      </trkpt>
      <trkpt lat="43.94167" lon="2.40222">
        <ele>229</ele>
        <time>2022-02-07T17:34:20Z</time>
      </trkpt>
      <trkpt lat="43.94178" lon="2.40279">
        <ele>223</ele>
        <time>2022-02-07T17:34:27Z</time>
      </trkpt>
      <trkpt lat="43.94196" lon="2.40334">
        <ele>220</ele>
        <time>2022-02-07T17:34:35Z</time>
      </trkpt>
      <trkpt lat="43.94229" lon="2.40397">
        <ele>219</ele>
        <time>2022-02-07T17:34:45Z</time>
      </trkpt>
      <trkpt lat="43.9426" lon="2.40441">
        <ele>219</ele>
        <time>2022-02-07T17:34:53Z</time>
      </trkpt>
      <trkpt lat="43.94298" lon="2.4048">
        <ele>222</ele>
        <time>2022-02-07T17:35:01Z</time>
      </trkpt>
      <trkpt lat="43.94396" lon="2.40567">
        <ele>225</ele>
        <time>2022-02-07T17:35:22Z</time>
      </trkpt>
      <trkpt lat="43.94426" lon="2.40584">
        <ele>226</ele>
        <time>2022-02-07T17:35:28Z</time>
      </trkpt>
      <trkpt lat="43.94568" lon="2.40622">
        <ele>230</ele>
        <time>2022-02-07T17:35:54Z</time>
      </trkpt>
      <trkpt lat="43.94769" lon="2.40672">
        <ele>215</ele>
        <time>2022-02-07T17:36:30Z</time>
      </trkpt>
      <trkpt lat="43.94834" lon="2.40691">
        <ele>216</ele>
        <time>2022-02-07T17:36:42Z</time>
      </trkpt>
      <trkpt lat="43.94877" lon="2.40707">
        <ele>224</ele>
        <time>2022-02-07T17:36:50Z</time>
      </trkpt>
      <trkpt lat="43.94923" lon="2.40735">
        <ele>226</ele>
        <time>2022-02-07T17:36:59Z</time>
      </trkpt>
      <trkpt lat="43.94965" lon="2.40768">
        <ele>230</ele>
        <time>2022-02-07T17:37:07Z</time>
      </trkpt>
      <trkpt lat="43.95017" lon="2.40819">
        <ele>232</ele>
        <time>2022-02-07T17:37:18Z</time>
      </trkpt>
      <trkpt lat="43.95049" lon="2.40855">
        <ele>233</ele>
        <time>2022-02-07T17:37:26Z</time>
      </trkpt>
      <trkpt lat="43.9511" lon="2.40936">
        <ele>228</ele>
        <time>2022-02-07T17:37:41Z</time>
      </trkpt>
      <trkpt lat="43.95147" lon="2.41004">
        <ele>226</ele>
        <time>2022-02-07T17:37:52Z</time>
      </trkpt>
      <trkpt lat="43.95179" lon="2.41074">
        <ele>221</ele>
        <time>2022-02-07T17:38:02Z</time>
      </trkpt>
      <trkpt lat="43.95206" lon="2.41145">
        <ele>219</ele>
        <time>2022-02-07T17:38:13Z</time>
      </trkpt>
      <trkpt lat="43.95227" lon="2.41211">
        <ele>224</ele>
        <time>2022-02-07T17:38:22Z</time>
      </trkpt>
      <trkpt lat="43.95262" lon="2.41376">
        <ele>228</ele>
        <time>2022-02-07T17:38:44Z</time>
      </trkpt>
      <trkpt lat="43.95273" lon="2.41442">
        <ele>229</ele>
        <time>2022-02-07T17:38:53Z</time>
      </trkpt>
      <trkpt lat="43.95275" lon="2.415">
        <ele>228</ele>
        <time>2022-02-07T17:39:00Z</time>
      </trkpt>
      <trkpt lat="43.95267" lon="2.41583">
        <ele>225</ele>
        <time>2022-02-07T17:39:11Z</time>
      </trkpt>
      <trkpt lat="43.95256" lon="2.41636">
        <ele>222</ele>
        <time>2022-02-07T17:39:18Z</time>
      </trkpt>
      <trkpt lat="43.95239" lon="2.41683">
        <ele>223</ele>
        <time>2022-02-07T17:39:25Z</time>
      </trkpt>
      <trkpt lat="43.95222" lon="2.41721">
        <ele>226</ele>
        <time>2022-02-07T17:39:30Z</time>
      </trkpt>
      <trkpt lat="43.95184" lon="2.41776">
        <ele>223</ele>
        <time>2022-02-07T17:39:40Z</time>
      </trkpt>
      <trkpt lat="43.95142" lon="2.41814">
        <ele>219</ele>
        <time>2022-02-07T17:39:49Z</time>
      </trkpt>
      <trkpt lat="43.95027" lon="2.41903">
        <ele>215</ele>
        <time>2022-02-07T17:40:12Z</time>
      </trkpt>
      <trkpt lat="43.9498" lon="2.41954">
        <ele>221</ele>
        <time>2022-02-07T17:40:23Z</time>
      </trkpt>
      <trkpt lat="43.94952" lon="2.41997">
        <ele>226</ele>
        <time>2022-02-07T17:40:30Z</time>
      </trkpt>
      <trkpt lat="43.94938" lon="2.42025">
        <ele>227</ele>
        <time>2022-02-07T17:40:35Z</time>
      </trkpt>
      <trkpt lat="43.94913" lon="2.42098">
        <ele>231</ele>
        <time>2022-02-07T17:40:45Z</time>
      </trkpt>
      <trkpt lat="43.94902" lon="2.42156">
        <ele>233</ele>
        <time>2022-02-07T17:40:53Z</time>
      </trkpt>
      <trkpt lat="43.94898" lon="2.42212">
        <ele>232</ele>
        <time>2022-02-07T17:41:00Z</time>
      </trkpt>
      <trkpt lat="43.94897" lon="2.42265">
        <ele>229</ele>
        <time>2022-02-07T17:41:07Z</time>
      </trkpt>
      <trkpt lat="43.94899" lon="2.42287">
        <ele>226</ele>
        <time>2022-02-07T17:41:10Z</time>
      </trkpt>
      <trkpt lat="43.94912" lon="2.42354">
        <ele>218</ele>
        <time>2022-02-07T17:41:19Z</time>
      </trkpt>
      <trkpt lat="43.94935" lon="2.42418">
        <ele>215</ele>
        <time>2022-02-07T17:41:28Z</time>
      </trkpt>
      <trkpt lat="43.94957" lon="2.42463">
        <ele>216</ele>
        <time>2022-02-07T17:41:35Z</time>
      </trkpt>
      <trkpt lat="43.94984" lon="2.42501">
        <ele>216</ele>
        <time>2022-02-07T17:41:42Z</time>
      </trkpt>
      <trkpt lat="43.9506" lon="2.42576">
        <ele>225</ele>
        <time>2022-02-07T17:41:58Z</time>
      </trkpt>
      <trkpt lat="43.95355" lon="2.42763">
        <ele>245</ele>
        <time>2022-02-07T17:42:56Z</time>
      </trkpt>
      <trkpt lat="43.95397" lon="2.42803">
        <ele>241</ele>
        <time>2022-02-07T17:43:05Z</time>
      </trkpt>
      <trkpt lat="43.9544" lon="2.42849">
        <ele>238</ele>
        <time>2022-02-07T17:43:15Z</time>
      </trkpt>
      <trkpt lat="43.9549" lon="2.42929">
        <ele>243</ele>
        <time>2022-02-07T17:43:28Z</time>
      </trkpt>
      <trkpt lat="43.95522" lon="2.43008">
        <ele>237</ele>
        <time>2022-02-07T17:43:40Z</time>
      </trkpt>
      <trkpt lat="43.9554" lon="2.43092">
        <ele>233</ele>
        <time>2022-02-07T17:43:51Z</time>
      </trkpt>
      <trkpt lat="43.95547" lon="2.43147">
        <ele>231</ele>
        <time>2022-02-07T17:43:58Z</time>
      </trkpt>
      <trkpt lat="43.95548" lon="2.43199">
        <ele>228</ele>
        <time>2022-02-07T17:44:05Z</time>
      </trkpt>
      <trkpt lat="43.95539" lon="2.43257">
        <ele>223</ele>
        <time>2022-02-07T17:44:12Z</time>
      </trkpt>
      <trkpt lat="43.95526" lon="2.4331">
        <ele>218</ele>
        <time>2022-02-07T17:44:20Z</time>
      </trkpt>
      <trkpt lat="43.95505" lon="2.43369">
        <ele>219</ele>
        <time>2022-02-07T17:44:28Z</time>
      </trkpt>
      <trkpt lat="43.95473" lon="2.43428">
        <ele>224</ele>
        <time>2022-02-07T17:44:37Z</time>
      </trkpt>
      <trkpt lat="43.95384" lon="2.43516">
        <ele>223</ele>
        <time>2022-02-07T17:44:57Z</time>
      </trkpt>
      <trkpt lat="43.95311" lon="2.43569">
        <ele>217</ele>
        <time>2022-02-07T17:45:12Z</time>
      </trkpt>
      <trkpt lat="43.95266" lon="2.43617">
        <ele>216</ele>
        <time>2022-02-07T17:45:22Z</time>
      </trkpt>
      <trkpt lat="43.95216" lon="2.43695">
        <ele>218</ele>
        <time>2022-02-07T17:45:35Z</time>
      </trkpt>
      <trkpt lat="43.95151" lon="2.43849">
        <ele>223</ele>
        <time>2022-02-07T17:45:58Z</time>
      </trkpt>
      <trkpt lat="43.95091" lon="2.44004">
        <ele>222</ele>
        <time>2022-02-07T17:46:20Z</time>
      </trkpt>
      <trkpt lat="43.95074" lon="2.44065">
        <ele>223</ele>
        <time>2022-02-07T17:46:29Z</time>
      </trkpt>
      <trkpt lat="43.95062" lon="2.44131">
        <ele>226</ele>
        <time>2022-02-07T17:46:38Z</time>
      </trkpt>
      <trkpt lat="43.95059" lon="2.44267">
        <ele>230</ele>
        <time>2022-02-07T17:46:55Z</time>
      </trkpt>
      <trkpt lat="43.9506" lon="2.44333">
        <ele>230</ele>
        <time>2022-02-07T17:47:03Z</time>
      </trkpt>
      <trkpt lat="43.95071" lon="2.44402">
        <ele>229</ele>
        <time>2022-02-07T17:47:12Z</time>
      </trkpt>
      <trkpt lat="43.95087" lon="2.44466">
        <ele>229</ele>
        <time>2022-02-07T17:47:21Z</time>
      </trkpt>
      <trkpt lat="43.95102" lon="2.44515">
        <ele>229</ele>
        <time>2022-02-07T17:47:28Z</time>
      </trkpt>
      <trkpt lat="43.95125" lon="2.44578">
        <ele>222</ele>
        <time>2022-02-07T17:47:37Z</time>
      </trkpt>
      <trkpt lat="43.95139" lon="2.44627">
        <ele>219</ele>
        <time>2022-02-07T17:47:44Z</time>
      </trkpt>
      <trkpt lat="43.95147" lon="2.44669">
        <ele>216</ele>
        <time>2022-02-07T17:47:49Z</time>
      </trkpt>
      <trkpt lat="43.9517" lon="2.44812">
        <ele>224</ele>
        <time>2022-02-07T17:48:08Z</time>
      </trkpt>
      <trkpt lat="43.95184" lon="2.44919">
        <ele>228</ele>
        <time>2022-02-07T17:48:22Z</time>
      </trkpt>
      <trkpt lat="43.95202" lon="2.45073">
        <ele>226</ele>
        <time>2022-02-07T17:48:42Z</time>
      </trkpt>
      <trkpt lat="43.95201" lon="2.4513">
        <ele>225</ele>
        <time>2022-02-07T17:48:49Z</time>
      </trkpt>
      <trkpt lat="43.95196" lon="2.45204">
        <ele>225</ele>
        <time>2022-02-07T17:48:59Z</time>
      </trkpt>
      <trkpt lat="43.95179" lon="2.45428">
        <ele>222</ele>
        <time>2022-02-07T17:49:28Z</time>
      </trkpt>
      <trkpt lat="43.95174" lon="2.4546">
        <ele>222</ele>
        <time>2022-02-07T17:49:32Z</time>
      </trkpt>
      <trkpt lat="43.95163" lon="2.45486">
        <ele>221</ele>
        <time>2022-02-07T17:49:36Z</time>
      </trkpt>
      <trkpt lat="43.95081" lon="2.45622">
        <ele>222</ele>
        <time>2022-02-07T17:49:58Z</time>
      </trkpt>
      <trkpt lat="43.95046" lon="2.45652">
        <ele>221</ele>
        <time>2022-02-07T17:50:06Z</time>
      </trkpt>
      <trkpt lat="43.94995" lon="2.45683">
        <ele>219</ele>
        <time>2022-02-07T17:50:16Z</time>
      </trkpt>
      <trkpt lat="43.94929" lon="2.45731">
        <ele>217</ele>
        <time>2022-02-07T17:50:29Z</time>
      </trkpt>
      <trkpt lat="43.94903" lon="2.45754">
        <ele>216</ele>
        <time>2022-02-07T17:50:34Z</time>
      </trkpt>
      <trkpt lat="43.9487" lon="2.45806">
        <ele>216</ele>
        <time>2022-02-07T17:50:43Z</time>
      </trkpt>
      <trkpt lat="43.94798" lon="2.45933">
        <ele>216</ele>
        <time>2022-02-07T17:51:04Z</time>
      </trkpt>
      <trkpt lat="43.94761" lon="2.46064">
        <ele>220</ele>
        <time>2022-02-07T17:51:22Z</time>
      </trkpt>
      <trkpt lat="43.94744" lon="2.46196">
        <ele>225</ele>
        <time>2022-02-07T17:51:39Z</time>
      </trkpt>
      <trkpt lat="43.94738" lon="2.46233">
        <ele>226</ele>
        <time>2022-02-07T17:51:44Z</time>
      </trkpt>
      <trkpt lat="43.94714" lon="2.46329">
        <ele>224</ele>
        <time>2022-02-07T17:51:57Z</time>
      </trkpt>
      <trkpt lat="43.94661" lon="2.46506">
        <ele>222</ele>
        <time>2022-02-07T17:52:22Z</time>
      </trkpt>
      <trkpt lat="43.94639" lon="2.46566">
        <ele>226</ele>
        <time>2022-02-07T17:52:30Z</time>
      </trkpt>
      <trkpt lat="43.94623" lon="2.46621">
        <ele>227</ele>
        <time>2022-02-07T17:52:38Z</time>
      </trkpt>
      <trkpt lat="43.94603" lon="2.46732">
        <ele>226</ele>
        <time>2022-02-07T17:52:53Z</time>
      </trkpt>
      <trkpt lat="43.94591" lon="2.46823">
        <ele>225</ele>
        <time>2022-02-07T17:53:04Z</time>
      </trkpt>
      <trkpt lat="43.94588" lon="2.46879">
        <ele>226</ele>
        <time>2022-02-07T17:53:12Z</time>
      </trkpt>
      <trkpt lat="43.9458" lon="2.47102">
        <ele>229</ele>
        <time>2022-02-07T17:53:40Z</time>
      </trkpt>
      <trkpt lat="43.94557" lon="2.47097">
        <ele>224</ele>
        <time>2022-02-07T17:53:44Z</time>
      </trkpt>
      <trkpt lat="43.94404" lon="2.47044">
        <ele>220</ele>
        <time>2022-02-07T17:54:12Z</time>
      </trkpt>
      <trkpt lat="43.94383" lon="2.47036">
        <ele>229</ele>
        <time>2022-02-07T17:54:16Z</time>
      </trkpt>
      <trkpt lat="43.94361" lon="2.47184">
        <ele>236</ele>
        <time>2022-02-07T17:54:36Z</time>
      </trkpt>
      <trkpt lat="43.94349" lon="2.47239">
        <ele>235</ele>
        <time>2022-02-07T17:54:43Z</time>
      </trkpt>
      <trkpt lat="43.94342" lon="2.47254">
        <ele>235</ele>
        <time>2022-02-07T17:54:45Z</time>
      </trkpt>
      <trkpt lat="43.94335" lon="2.47262">
        <ele>235</ele>
        <time>2022-02-07T17:54:47Z</time>
      </trkpt>
      <trkpt lat="43.943" lon="2.47293">
        <ele>242</ele>
        <time>2022-02-07T17:54:54Z</time>
      </trkpt>
      <trkpt lat="43.94292" lon="2.47302">
        <ele>244</ele>
        <time>2022-02-07T17:54:56Z</time>
      </trkpt>
      <trkpt lat="43.94244" lon="2.47375">
        <ele>242</ele>
        <time>2022-02-07T17:55:09Z</time>
      </trkpt>
      <trkpt lat="43.94194" lon="2.47442">
        <ele>244</ele>
        <time>2022-02-07T17:55:21Z</time>
      </trkpt>
      <trkpt lat="43.94183" lon="2.47459">
        <ele>243</ele>
        <time>2022-02-07T17:55:24Z</time>
      </trkpt>
      <trkpt lat="43.94159" lon="2.47509">
        <ele>239</ele>
        <time>2022-02-07T17:55:32Z</time>
      </trkpt>
      <trkpt lat="43.94143" lon="2.47552">
        <ele>240</ele>
        <time>2022-02-07T17:55:38Z</time>
      </trkpt>
      <trkpt lat="43.94132" lon="2.47592">
        <ele>240</ele>
        <time>2022-02-07T17:55:43Z</time>
      </trkpt>
      <trkpt lat="43.9411" lon="2.47695">
        <ele>241</ele>
        <time>2022-02-07T17:55:57Z</time>
      </trkpt>
      <trkpt lat="43.94047" lon="2.48043">
        <ele>234</ele>
        <time>2022-02-07T17:56:43Z</time>
      </trkpt>
      <trkpt lat="43.9404" lon="2.48091">
        <ele>230</ele>
        <time>2022-02-07T17:56:49Z</time>
      </trkpt>
      <trkpt lat="43.94034" lon="2.4818">
        <ele>223</ele>
        <time>2022-02-07T17:57:01Z</time>
      </trkpt>
      <trkpt lat="43.94029" lon="2.48203">
        <ele>225</ele>
        <time>2022-02-07T17:57:04Z</time>
      </trkpt>
      <trkpt lat="43.93996" lon="2.48341">
        <ele>236</ele>
        <time>2022-02-07T17:57:23Z</time>
      </trkpt>
      <trkpt lat="43.93954" lon="2.48451">
        <ele>246</ele>
        <time>2022-02-07T17:57:39Z</time>
      </trkpt>
      <trkpt lat="43.93942" lon="2.48474">
        <ele>248</ele>
        <time>2022-02-07T17:57:42Z</time>
      </trkpt>
      <trkpt lat="43.93896" lon="2.48536">
        <ele>262</ele>
        <time>2022-02-07T17:57:54Z</time>
      </trkpt>
      <trkpt lat="43.9389" lon="2.48549">
        <ele>263</ele>
        <time>2022-02-07T17:57:56Z</time>
      </trkpt>
      <trkpt lat="43.93889" lon="2.48559">
        <ele>263</ele>
        <time>2022-02-07T17:57:57Z</time>
      </trkpt>
      <trkpt lat="43.9389" lon="2.48571">
        <ele>261</ele>
        <time>2022-02-07T17:57:58Z</time>
      </trkpt>
      <trkpt lat="43.93893" lon="2.48587">
        <ele>259</ele>
        <time>2022-02-07T17:58:01Z</time>
      </trkpt>
      <trkpt lat="43.93906" lon="2.48618">
        <ele>253</ele>
        <time>2022-02-07T17:58:05Z</time>
      </trkpt>
      <trkpt lat="43.93909" lon="2.48628">
        <ele>252</ele>
        <time>2022-02-07T17:58:07Z</time>
      </trkpt>
      <trkpt lat="43.9391" lon="2.48641">
        <ele>251</ele>
        <time>2022-02-07T17:58:08Z</time>
      </trkpt>
      <trkpt lat="43.93908" lon="2.48651">
        <ele>252</ele>
        <time>2022-02-07T17:58:10Z</time>
      </trkpt>
      <trkpt lat="43.939" lon="2.48667">
        <ele>254</ele>
        <time>2022-02-07T17:58:12Z</time>
      </trkpt>
      <trkpt lat="43.93879" lon="2.48698">
        <ele>259</ele>
        <time>2022-02-07T17:58:17Z</time>
      </trkpt>
      <trkpt lat="43.93866" lon="2.48722">
        <ele>261</ele>
        <time>2022-02-07T17:58:21Z</time>
      </trkpt>
      <trkpt lat="43.93864" lon="2.48735">
        <ele>261</ele>
        <time>2022-02-07T17:58:23Z</time>
      </trkpt>
      <trkpt lat="43.93865" lon="2.48746">
        <ele>260</ele>
        <time>2022-02-07T17:58:24Z</time>
      </trkpt>
      <trkpt lat="43.93878" lon="2.48767">
        <ele>256</ele>
        <time>2022-02-07T17:58:28Z</time>
      </trkpt>
      <trkpt lat="43.93881" lon="2.48775">
        <ele>255</ele>
        <time>2022-02-07T17:58:29Z</time>
      </trkpt>
      <trkpt lat="43.9388" lon="2.48787">
        <ele>255</ele>
        <time>2022-02-07T17:58:31Z</time>
      </trkpt>
      <trkpt lat="43.93864" lon="2.48833">
        <ele>260</ele>
        <time>2022-02-07T17:58:37Z</time>
      </trkpt>
      <trkpt lat="43.9386" lon="2.48848">
        <ele>262</ele>
        <time>2022-02-07T17:58:39Z</time>
      </trkpt>
      <trkpt lat="43.93858" lon="2.48873">
        <ele>264</ele>
        <time>2022-02-07T17:58:43Z</time>
      </trkpt>
      <trkpt lat="43.93853" lon="2.48884">
        <ele>266</ele>
        <time>2022-02-07T17:58:44Z</time>
      </trkpt>
      <trkpt lat="43.93846" lon="2.48892">
        <ele>269</ele>
        <time>2022-02-07T17:58:46Z</time>
      </trkpt>
      <trkpt lat="43.93818" lon="2.48913">
        <ele>277</ele>
        <time>2022-02-07T17:58:51Z</time>
      </trkpt>
      <trkpt lat="43.93811" lon="2.48923">
        <ele>279</ele>
        <time>2022-02-07T17:58:53Z</time>
      </trkpt>
      <trkpt lat="43.93807" lon="2.48935">
        <ele>281</ele>
        <time>2022-02-07T17:58:55Z</time>
      </trkpt>
      <trkpt lat="43.93808" lon="2.48945">
        <ele>282</ele>
        <time>2022-02-07T17:58:56Z</time>
      </trkpt>
      <trkpt lat="43.93813" lon="2.48954">
        <ele>282</ele>
        <time>2022-02-07T17:58:58Z</time>
      </trkpt>
      <trkpt lat="43.93822" lon="2.4896">
        <ele>281</ele>
        <time>2022-02-07T17:58:59Z</time>
      </trkpt>
      <trkpt lat="43.93851" lon="2.48971">
        <ele>275</ele>
        <time>2022-02-07T17:59:05Z</time>
      </trkpt>
      <trkpt lat="43.93861" lon="2.48979">
        <ele>274</ele>
        <time>2022-02-07T17:59:07Z</time>
      </trkpt>
      <trkpt lat="43.9387" lon="2.48992">
        <ele>273</ele>
        <time>2022-02-07T17:59:09Z</time>
      </trkpt>
      <trkpt lat="43.93873" lon="2.49003">
        <ele>273</ele>
        <time>2022-02-07T17:59:11Z</time>
      </trkpt>
      <trkpt lat="43.93874" lon="2.49013">
        <ele>274</ele>
        <time>2022-02-07T17:59:12Z</time>
      </trkpt>
      <trkpt lat="43.93872" lon="2.49022">
        <ele>275</ele>
        <time>2022-02-07T17:59:13Z</time>
      </trkpt>
      <trkpt lat="43.93848" lon="2.4906">
        <ele>283</ele>
        <time>2022-02-07T17:59:20Z</time>
      </trkpt>
      <trkpt lat="43.93827" lon="2.49087">
        <ele>289</ele>
        <time>2022-02-07T17:59:25Z</time>
      </trkpt>
      <trkpt lat="43.938" lon="2.49113">
        <ele>296</ele>
        <time>2022-02-07T17:59:31Z</time>
      </trkpt>
      <trkpt lat="43.93793" lon="2.49123">
        <ele>298</ele>
        <time>2022-02-07T17:59:32Z</time>
      </trkpt>
      <trkpt lat="43.9379" lon="2.49132">
        <ele>299</ele>
        <time>2022-02-07T17:59:34Z</time>
      </trkpt>
      <trkpt lat="43.93791" lon="2.49142">
        <ele>300</ele>
        <time>2022-02-07T17:59:35Z</time>
      </trkpt>
      <trkpt lat="43.93793" lon="2.49151">
        <ele>300</ele>
        <time>2022-02-07T17:59:36Z</time>
      </trkpt>
      <trkpt lat="43.93798" lon="2.49159">
        <ele>299</ele>
        <time>2022-02-07T17:59:38Z</time>
      </trkpt>
      <trkpt lat="43.93804" lon="2.49164">
        <ele>298</ele>
        <time>2022-02-07T17:59:39Z</time>
      </trkpt>
      <trkpt lat="43.93833" lon="2.49171">
        <ele>291</ele>
        <time>2022-02-07T17:59:44Z</time>
      </trkpt>
      <trkpt lat="43.93843" lon="2.49184">
        <ele>291</ele>
        <time>2022-02-07T17:59:46Z</time>
      </trkpt>
      <trkpt lat="43.93846" lon="2.49196">
        <ele>291</ele>
        <time>2022-02-07T17:59:48Z</time>
      </trkpt>
      <trkpt lat="43.93848" lon="2.49225">
        <ele>294</ele>
        <time>2022-02-07T17:59:52Z</time>
      </trkpt>
      <trkpt lat="43.9385" lon="2.49267">
        <ele>298</ele>
        <time>2022-02-07T17:59:57Z</time>
      </trkpt>
      <trkpt lat="43.93847" lon="2.49307">
        <ele>304</ele>
        <time>2022-02-07T18:00:02Z</time>
      </trkpt>
      <trkpt lat="43.93848" lon="2.49321">
        <ele>306</ele>
        <time>2022-02-07T18:00:04Z</time>
      </trkpt>
      <trkpt lat="43.93851" lon="2.4933">
        <ele>306</ele>
        <time>2022-02-07T18:00:05Z</time>
      </trkpt>
      <trkpt lat="43.93881" lon="2.49354">
        <ele>299</ele>
        <time>2022-02-07T18:00:12Z</time>
      </trkpt>
      <trkpt lat="43.93898" lon="2.49375">
        <ele>298</ele>
        <time>2022-02-07T18:00:16Z</time>
      </trkpt>
      <trkpt lat="43.93913" lon="2.494">
        <ele>299</ele>
        <time>2022-02-07T18:00:20Z</time>
      </trkpt>
      <trkpt lat="43.93981" lon="2.49527">
        <ele>300</ele>
        <time>2022-02-07T18:00:40Z</time>
      </trkpt>
      <trkpt lat="43.93996" lon="2.49559">
        <ele>299</ele>
        <time>2022-02-07T18:00:45Z</time>
      </trkpt>
      <trkpt lat="43.94" lon="2.49573">
        <ele>299</ele>
        <time>2022-02-07T18:00:47Z</time>
      </trkpt>
      <trkpt lat="43.94001" lon="2.49604">
        <ele>300</ele>
        <time>2022-02-07T18:00:51Z</time>
      </trkpt>
      <trkpt lat="43.93995" lon="2.49666">
        <ele>303</ele>
        <time>2022-02-07T18:00:59Z</time>
      </trkpt>
      <trkpt lat="43.93983" lon="2.49704">
        <ele>310</ele>
        <time>2022-02-07T18:01:04Z</time>
      </trkpt>
      <trkpt lat="43.93984" lon="2.4972">
        <ele>312</ele>
        <time>2022-02-07T18:01:06Z</time>
      </trkpt>
      <trkpt lat="43.9399" lon="2.49736">
        <ele>313</ele>
        <time>2022-02-07T18:01:09Z</time>
      </trkpt>
      <trkpt lat="43.94003" lon="2.49757">
        <ele>312</ele>
        <time>2022-02-07T18:01:12Z</time>
      </trkpt>
      <trkpt lat="43.94019" lon="2.49777">
        <ele>312</ele>
        <time>2022-02-07T18:01:16Z</time>
      </trkpt>
      <trkpt lat="43.94056" lon="2.49806">
        <ele>308</ele>
        <time>2022-02-07T18:01:24Z</time>
      </trkpt>
      <trkpt lat="43.94104" lon="2.49863">
        <ele>309</ele>
        <time>2022-02-07T18:01:35Z</time>
      </trkpt>
      <trkpt lat="43.94116" lon="2.49873">
        <ele>308</ele>
        <time>2022-02-07T18:01:37Z</time>
      </trkpt>
      <trkpt lat="43.94125" lon="2.49875">
        <ele>307</ele>
        <time>2022-02-07T18:01:39Z</time>
      </trkpt>
      <trkpt lat="43.94134" lon="2.49873">
        <ele>304</ele>
        <time>2022-02-07T18:01:40Z</time>
      </trkpt>
      <trkpt lat="43.94152" lon="2.49865">
        <ele>297</ele>
        <time>2022-02-07T18:01:44Z</time>
      </trkpt>
      <trkpt lat="43.94169" lon="2.49859">
        <ele>292</ele>
        <time>2022-02-07T18:01:47Z</time>
      </trkpt>
      <trkpt lat="43.94188" lon="2.49858">
        <ele>287</ele>
        <time>2022-02-07T18:01:50Z</time>
      </trkpt>
      <trkpt lat="43.9421" lon="2.49862">
        <ele>283</ele>
        <time>2022-02-07T18:01:54Z</time>
      </trkpt>
      <trkpt lat="43.9423" lon="2.49872">
        <ele>280</ele>
        <time>2022-02-07T18:01:58Z</time>
      </trkpt>
      <trkpt lat="43.94239" lon="2.49878">
        <ele>280</ele>
        <time>2022-02-07T18:02:00Z</time>
      </trkpt>
      <trkpt lat="43.94248" lon="2.49888">
        <ele>280</ele>
        <time>2022-02-07T18:02:02Z</time>
      </trkpt>
      <trkpt lat="43.94251" lon="2.49896">
        <ele>281</ele>
        <time>2022-02-07T18:02:03Z</time>
      </trkpt>
      <trkpt lat="43.94253" lon="2.49909">
        <ele>283</ele>
        <time>2022-02-07T18:02:05Z</time>
      </trkpt>
      <trkpt lat="43.94253" lon="2.49957">
        <ele>289</ele>
        <time>2022-02-07T18:02:11Z</time>
      </trkpt>
      <trkpt lat="43.94268" lon="2.50047">
        <ele>293</ele>
        <time>2022-02-07T18:02:23Z</time>
      </trkpt>
      <trkpt lat="43.94282" lon="2.50111">
        <ele>291</ele>
        <time>2022-02-07T18:02:31Z</time>
      </trkpt>
      <trkpt lat="43.94286" lon="2.50145">
        <ele>291</ele>
        <time>2022-02-07T18:02:36Z</time>
      </trkpt>
      <trkpt lat="43.94286" lon="2.50179">
        <ele>292</ele>
        <time>2022-02-07T18:02:40Z</time>
      </trkpt>
      <trkpt lat="43.94288" lon="2.50205">
        <ele>292</ele>
        <time>2022-02-07T18:02:43Z</time>
      </trkpt>
      <trkpt lat="43.94317" lon="2.50296">
        <ele>287</ele>
        <time>2022-02-07T18:02:56Z</time>
      </trkpt>
      <trkpt lat="43.94328" lon="2.50319">
        <ele>287</ele>
        <time>2022-02-07T18:03:00Z</time>
      </trkpt>
      <trkpt lat="43.9436" lon="2.50361">
        <ele>283</ele>
        <time>2022-02-07T18:03:08Z</time>
      </trkpt>
      <trkpt lat="43.94378" lon="2.50394">
        <ele>284</ele>
        <time>2022-02-07T18:03:13Z</time>
      </trkpt>
      <trkpt lat="43.94396" lon="2.50434">
        <ele>285</ele>
        <time>2022-02-07T18:03:19Z</time>
      </trkpt>
      <trkpt lat="43.94412" lon="2.50459">
        <ele>284</ele>
        <time>2022-02-07T18:03:23Z</time>
      </trkpt>
      <trkpt lat="43.94412" lon="2.50486">
        <ele>286</ele>
        <time>2022-02-07T18:03:27Z</time>
      </trkpt>
      <trkpt lat="43.94406" lon="2.50504">
        <ele>288</ele>
        <time>2022-02-07T18:03:29Z</time>
      </trkpt>
      <trkpt lat="43.94396" lon="2.50513">
        <ele>289</ele>
        <time>2022-02-07T18:03:31Z</time>
      </trkpt>
      <trkpt lat="43.94387" lon="2.50519">
        <ele>289</ele>
        <time>2022-02-07T18:03:33Z</time>
      </trkpt>
      <trkpt lat="43.94343" lon="2.5053">
        <ele>291</ele>
        <time>2022-02-07T18:03:41Z</time>
      </trkpt>
      <trkpt lat="43.94297" lon="2.50536">
        <ele>295</ele>
        <time>2022-02-07T18:03:49Z</time>
      </trkpt>
      <trkpt lat="43.94286" lon="2.50541">
        <ele>295</ele>
        <time>2022-02-07T18:03:51Z</time>
      </trkpt>
      <trkpt lat="43.9427" lon="2.50555">
        <ele>294</ele>
        <time>2022-02-07T18:03:55Z</time>
      </trkpt>
      <trkpt lat="43.94252" lon="2.50574">
        <ele>292</ele>
        <time>2022-02-07T18:03:59Z</time>
      </trkpt>
      <trkpt lat="43.94239" lon="2.50584">
        <ele>291</ele>
        <time>2022-02-07T18:04:01Z</time>
      </trkpt>
      <trkpt lat="43.94208" lon="2.50601">
        <ele>293</ele>
        <time>2022-02-07T18:04:07Z</time>
      </trkpt>
      <trkpt lat="43.94189" lon="2.50602">
        <ele>296</ele>
        <time>2022-02-07T18:04:11Z</time>
      </trkpt>
      <trkpt lat="43.94164" lon="2.50595">
        <ele>301</ele>
        <time>2022-02-07T18:04:15Z</time>
      </trkpt>
      <trkpt lat="43.94155" lon="2.50596">
        <ele>304</ele>
        <time>2022-02-07T18:04:17Z</time>
      </trkpt>
      <trkpt lat="43.94148" lon="2.506">
        <ele>306</ele>
        <time>2022-02-07T18:04:18Z</time>
      </trkpt>
      <trkpt lat="43.94142" lon="2.50607">
        <ele>307</ele>
        <time>2022-02-07T18:04:20Z</time>
      </trkpt>
      <trkpt lat="43.94138" lon="2.50617">
        <ele>307</ele>
        <time>2022-02-07T18:04:21Z</time>
      </trkpt>
      <trkpt lat="43.94136" lon="2.50648">
        <ele>303</ele>
        <time>2022-02-07T18:04:25Z</time>
      </trkpt>
      <trkpt lat="43.9413" lon="2.50671">
        <ele>302</ele>
        <time>2022-02-07T18:04:28Z</time>
      </trkpt>
      <trkpt lat="43.94101" lon="2.50722">
        <ele>299</ele>
        <time>2022-02-07T18:04:36Z</time>
      </trkpt>
      <trkpt lat="43.94091" lon="2.50734">
        <ele>300</ele>
        <time>2022-02-07T18:04:39Z</time>
      </trkpt>
      <trkpt lat="43.94083" lon="2.50742">
        <ele>301</ele>
        <time>2022-02-07T18:04:41Z</time>
      </trkpt>
      <trkpt lat="43.94062" lon="2.50754">
        <ele>305</ele>
        <time>2022-02-07T18:04:45Z</time>
      </trkpt>
      <trkpt lat="43.94055" lon="2.50763">
        <ele>306</ele>
        <time>2022-02-07T18:04:46Z</time>
      </trkpt>
      <trkpt lat="43.94051" lon="2.50772">
        <ele>306</ele>
        <time>2022-02-07T18:04:48Z</time>
      </trkpt>
      <trkpt lat="43.94051" lon="2.50787">
        <ele>304</ele>
        <time>2022-02-07T18:04:50Z</time>
      </trkpt>
      <trkpt lat="43.94061" lon="2.50887">
        <ele>294</ele>
        <time>2022-02-07T18:05:03Z</time>
      </trkpt>
      <trkpt lat="43.9406" lon="2.50922">
        <ele>294</ele>
        <time>2022-02-07T18:05:07Z</time>
      </trkpt>
      <trkpt lat="43.94039" lon="2.50986">
        <ele>296</ele>
        <time>2022-02-07T18:05:16Z</time>
      </trkpt>
      <trkpt lat="43.94028" lon="2.51007">
        <ele>297</ele>
        <time>2022-02-07T18:05:19Z</time>
      </trkpt>
      <trkpt lat="43.94013" lon="2.51025">
        <ele>299</ele>
        <time>2022-02-07T18:05:23Z</time>
      </trkpt>
      <trkpt lat="43.93996" lon="2.51039">
        <ele>303</ele>
        <time>2022-02-07T18:05:26Z</time>
      </trkpt>
      <trkpt lat="43.9397" lon="2.51055">
        <ele>309</ele>
        <time>2022-02-07T18:05:31Z</time>
      </trkpt>
      <trkpt lat="43.93964" lon="2.51064">
        <ele>311</ele>
        <time>2022-02-07T18:05:33Z</time>
      </trkpt>
      <trkpt lat="43.93961" lon="2.51076">
        <ele>311</ele>
        <time>2022-02-07T18:05:35Z</time>
      </trkpt>
      <trkpt lat="43.93961" lon="2.51089">
        <ele>311</ele>
        <time>2022-02-07T18:05:36Z</time>
      </trkpt>
      <trkpt lat="43.93964" lon="2.51106">
        <ele>310</ele>
        <time>2022-02-07T18:05:39Z</time>
      </trkpt>
      <trkpt lat="43.93974" lon="2.51141">
        <ele>308</ele>
        <time>2022-02-07T18:05:43Z</time>
      </trkpt>
      <trkpt lat="43.93987" lon="2.5121">
        <ele>306</ele>
        <time>2022-02-07T18:05:53Z</time>
      </trkpt>
      <trkpt lat="43.94005" lon="2.51281">
        <ele>302</ele>
        <time>2022-02-07T18:06:02Z</time>
      </trkpt>
      <trkpt lat="43.94006" lon="2.51296">
        <ele>302</ele>
        <time>2022-02-07T18:06:04Z</time>
      </trkpt>
      <trkpt lat="43.94004" lon="2.51311">
        <ele>302</ele>
        <time>2022-02-07T18:06:06Z</time>
      </trkpt>
      <trkpt lat="43.94001" lon="2.51324">
        <ele>303</ele>
        <time>2022-02-07T18:06:08Z</time>
      </trkpt>
      <trkpt lat="43.93996" lon="2.51336">
        <ele>304</ele>
        <time>2022-02-07T18:06:10Z</time>
      </trkpt>
      <trkpt lat="43.93987" lon="2.51351">
        <ele>307</ele>
        <time>2022-02-07T18:06:12Z</time>
      </trkpt>
      <trkpt lat="43.93965" lon="2.51382">
        <ele>314</ele>
        <time>2022-02-07T18:06:18Z</time>
      </trkpt>
      <trkpt lat="43.93962" lon="2.51393">
        <ele>315</ele>
        <time>2022-02-07T18:06:19Z</time>
      </trkpt>
      <trkpt lat="43.93959" lon="2.51414">
        <ele>316</ele>
        <time>2022-02-07T18:06:22Z</time>
      </trkpt>
      <trkpt lat="43.9396" lon="2.51465">
        <ele>315</ele>
        <time>2022-02-07T18:06:28Z</time>
      </trkpt>
      <trkpt lat="43.93958" lon="2.51479">
        <ele>315</ele>
        <time>2022-02-07T18:06:30Z</time>
      </trkpt>
      <trkpt lat="43.93955" lon="2.51487">
        <ele>316</ele>
        <time>2022-02-07T18:06:31Z</time>
      </trkpt>
      <trkpt lat="43.93922" lon="2.51543">
        <ele>316</ele>
        <time>2022-02-07T18:06:41Z</time>
      </trkpt>
      <trkpt lat="43.93908" lon="2.51582">
        <ele>315</ele>
        <time>2022-02-07T18:06:46Z</time>
      </trkpt>
      <trkpt lat="43.939" lon="2.51597">
        <ele>315</ele>
        <time>2022-02-07T18:06:49Z</time>
      </trkpt>
      <trkpt lat="43.9389" lon="2.5161">
        <ele>316</ele>
        <time>2022-02-07T18:06:51Z</time>
      </trkpt>
      <trkpt lat="43.93867" lon="2.51631">
        <ele>319</ele>
        <time>2022-02-07T18:06:56Z</time>
      </trkpt>
      <trkpt lat="43.93862" lon="2.51638">
        <ele>319</ele>
        <time>2022-02-07T18:06:57Z</time>
      </trkpt>
      <trkpt lat="43.93829" lon="2.51698">
        <ele>316</ele>
        <time>2022-02-07T18:07:07Z</time>
      </trkpt>
      <trkpt lat="43.93818" lon="2.51711">
        <ele>317</ele>
        <time>2022-02-07T18:07:10Z</time>
      </trkpt>
      <trkpt lat="43.93773" lon="2.51758">
        <ele>323</ele>
        <time>2022-02-07T18:07:20Z</time>
      </trkpt>
      <trkpt lat="43.93761" lon="2.51776">
        <ele>324</ele>
        <time>2022-02-07T18:07:23Z</time>
      </trkpt>
      <trkpt lat="43.93733" lon="2.51853">
        <ele>324</ele>
        <time>2022-02-07T18:07:34Z</time>
      </trkpt>
      <trkpt lat="43.93729" lon="2.51869">
        <ele>324</ele>
        <time>2022-02-07T18:07:36Z</time>
      </trkpt>
      <trkpt lat="43.93728" lon="2.51886">
        <ele>324</ele>
        <time>2022-02-07T18:07:38Z</time>
      </trkpt>
      <trkpt lat="43.9373" lon="2.51901">
        <ele>322</ele>
        <time>2022-02-07T18:07:40Z</time>
      </trkpt>
      <trkpt lat="43.93741" lon="2.51936">
        <ele>317</ele>
        <time>2022-02-07T18:07:45Z</time>
      </trkpt>
      <trkpt lat="43.93743" lon="2.51948">
        <ele>316</ele>
        <time>2022-02-07T18:07:46Z</time>
      </trkpt>
      <trkpt lat="43.93742" lon="2.51975">
        <ele>316</ele>
        <time>2022-02-07T18:07:50Z</time>
      </trkpt>
      <trkpt lat="43.93737" lon="2.52">
        <ele>317</ele>
        <time>2022-02-07T18:07:53Z</time>
      </trkpt>
      <trkpt lat="43.93733" lon="2.5201">
        <ele>317</ele>
        <time>2022-02-07T18:07:55Z</time>
      </trkpt>
      <trkpt lat="43.93726" lon="2.52017">
        <ele>319</ele>
        <time>2022-02-07T18:07:56Z</time>
      </trkpt>
      <trkpt lat="43.93717" lon="2.5202">
        <ele>321</ele>
        <time>2022-02-07T18:07:58Z</time>
      </trkpt>
      <trkpt lat="43.93683" lon="2.52022">
        <ele>331</ele>
        <time>2022-02-07T18:08:04Z</time>
      </trkpt>
      <trkpt lat="43.93678" lon="2.52024">
        <ele>332</ele>
        <time>2022-02-07T18:08:05Z</time>
      </trkpt>
      <trkpt lat="43.93671" lon="2.5203">
        <ele>334</ele>
        <time>2022-02-07T18:08:06Z</time>
      </trkpt>
      <trkpt lat="43.93666" lon="2.52042">
        <ele>334</ele>
        <time>2022-02-07T18:08:08Z</time>
      </trkpt>
      <trkpt lat="43.93663" lon="2.52058">
        <ele>332</ele>
        <time>2022-02-07T18:08:10Z</time>
      </trkpt>
      <trkpt lat="43.93663" lon="2.52074">
        <ele>330</ele>
        <time>2022-02-07T18:08:12Z</time>
      </trkpt>
      <trkpt lat="43.93667" lon="2.52094">
        <ele>328</ele>
        <time>2022-02-07T18:08:15Z</time>
      </trkpt>
      <trkpt lat="43.93684" lon="2.52142">
        <ele>322</ele>
        <time>2022-02-07T18:08:22Z</time>
      </trkpt>
      <trkpt lat="43.93686" lon="2.52153">
        <ele>321</ele>
        <time>2022-02-07T18:08:23Z</time>
      </trkpt>
      <trkpt lat="43.93684" lon="2.52167">
        <ele>321</ele>
        <time>2022-02-07T18:08:25Z</time>
      </trkpt>
      <trkpt lat="43.9368" lon="2.52177">
        <ele>322</ele>
        <time>2022-02-07T18:08:27Z</time>
      </trkpt>
      <trkpt lat="43.93673" lon="2.52187">
        <ele>323</ele>
        <time>2022-02-07T18:08:28Z</time>
      </trkpt>
      <trkpt lat="43.93646" lon="2.52207">
        <ele>329</ele>
        <time>2022-02-07T18:08:34Z</time>
      </trkpt>
      <trkpt lat="43.93639" lon="2.52216">
        <ele>330</ele>
        <time>2022-02-07T18:08:36Z</time>
      </trkpt>
      <trkpt lat="43.93632" lon="2.52229">
        <ele>331</ele>
        <time>2022-02-07T18:08:38Z</time>
      </trkpt>
      <trkpt lat="43.9363" lon="2.52246">
        <ele>330</ele>
        <time>2022-02-07T18:08:40Z</time>
      </trkpt>
      <trkpt lat="43.93631" lon="2.52263">
        <ele>330</ele>
        <time>2022-02-07T18:08:42Z</time>
      </trkpt>
      <trkpt lat="43.93635" lon="2.52278">
        <ele>329</ele>
        <time>2022-02-07T18:08:44Z</time>
      </trkpt>
      <trkpt lat="43.93642" lon="2.52289">
        <ele>327</ele>
        <time>2022-02-07T18:08:46Z</time>
      </trkpt>
      <trkpt lat="43.93666" lon="2.52306">
        <ele>323</ele>
        <time>2022-02-07T18:08:51Z</time>
      </trkpt>
      <trkpt lat="43.93672" lon="2.52316">
        <ele>321</ele>
        <time>2022-02-07T18:08:52Z</time>
      </trkpt>
      <trkpt lat="43.93673" lon="2.52328">
        <ele>321</ele>
        <time>2022-02-07T18:08:54Z</time>
      </trkpt>
      <trkpt lat="43.93671" lon="2.52348">
        <ele>320</ele>
        <time>2022-02-07T18:08:57Z</time>
      </trkpt>
      <trkpt lat="43.93643" lon="2.52448">
        <ele>318</ele>
        <time>2022-02-07T18:09:10Z</time>
      </trkpt>
      <trkpt lat="43.93636" lon="2.52463">
        <ele>319</ele>
        <time>2022-02-07T18:09:13Z</time>
      </trkpt>
      <trkpt lat="43.93627" lon="2.52477">
        <ele>320</ele>
        <time>2022-02-07T18:09:15Z</time>
      </trkpt>
      <trkpt lat="43.93591" lon="2.52522">
        <ele>326</ele>
        <time>2022-02-07T18:09:24Z</time>
      </trkpt>
      <trkpt lat="43.93568" lon="2.52544">
        <ele>327</ele>
        <time>2022-02-07T18:09:29Z</time>
      </trkpt>
      <trkpt lat="43.93527" lon="2.52578">
        <ele>331</ele>
        <time>2022-02-07T18:09:37Z</time>
      </trkpt>
      <trkpt lat="43.93501" lon="2.52604">
        <ele>334</ele>
        <time>2022-02-07T18:09:43Z</time>
      </trkpt>
      <trkpt lat="43.9349" lon="2.5262">
        <ele>334</ele>
        <time>2022-02-07T18:09:46Z</time>
      </trkpt>
      <trkpt lat="43.93483" lon="2.52636">
        <ele>333</ele>
        <time>2022-02-07T18:09:48Z</time>
      </trkpt>
      <trkpt lat="43.93475" lon="2.52684">
        <ele>331</ele>
        <time>2022-02-07T18:09:54Z</time>
      </trkpt>
      <trkpt lat="43.93472" lon="2.52755">
        <ele>329</ele>
        <time>2022-02-07T18:10:03Z</time>
      </trkpt>
      <trkpt lat="43.9347" lon="2.52769">
        <ele>328</ele>
        <time>2022-02-07T18:10:05Z</time>
      </trkpt>
      <trkpt lat="43.93467" lon="2.5278">
        <ele>328</ele>
        <time>2022-02-07T18:10:07Z</time>
      </trkpt>
      <trkpt lat="43.93436" lon="2.52819">
        <ele>334</ele>
        <time>2022-02-07T18:10:14Z</time>
      </trkpt>
      <trkpt lat="43.93423" lon="2.52843">
        <ele>336</ele>
        <time>2022-02-07T18:10:18Z</time>
      </trkpt>
      <trkpt lat="43.93416" lon="2.52876">
        <ele>337</ele>
        <time>2022-02-07T18:10:22Z</time>
      </trkpt>
      <trkpt lat="43.93416" lon="2.52905">
        <ele>336</ele>
        <time>2022-02-07T18:10:26Z</time>
      </trkpt>
      <trkpt lat="43.93418" lon="2.5296">
        <ele>332</ele>
        <time>2022-02-07T18:10:33Z</time>
      </trkpt>
      <trkpt lat="43.93417" lon="2.52978">
        <ele>332</ele>
        <time>2022-02-07T18:10:36Z</time>
      </trkpt>
      <trkpt lat="43.93413" lon="2.5299">
        <ele>332</ele>
        <time>2022-02-07T18:10:37Z</time>
      </trkpt>
      <trkpt lat="43.93406" lon="2.53001">
        <ele>334</ele>
        <time>2022-02-07T18:10:39Z</time>
      </trkpt>
      <trkpt lat="43.93377" lon="2.53032">
        <ele>337</ele>
        <time>2022-02-07T18:10:46Z</time>
      </trkpt>
      <trkpt lat="43.93367" lon="2.53044">
        <ele>338</ele>
        <time>2022-02-07T18:10:48Z</time>
      </trkpt>
      <trkpt lat="43.93358" lon="2.53059">
        <ele>339</ele>
        <time>2022-02-07T18:10:50Z</time>
      </trkpt>
      <trkpt lat="43.93334" lon="2.53136">
        <ele>335</ele>
        <time>2022-02-07T18:11:01Z</time>
      </trkpt>
      <trkpt lat="43.93327" lon="2.53151">
        <ele>333</ele>
        <time>2022-02-07T18:11:04Z</time>
      </trkpt>
      <trkpt lat="43.93318" lon="2.53159">
        <ele>333</ele>
        <time>2022-02-07T18:11:05Z</time>
      </trkpt>
      <trkpt lat="43.9331" lon="2.53163">
        <ele>333</ele>
        <time>2022-02-07T18:11:07Z</time>
      </trkpt>
      <trkpt lat="43.93261" lon="2.53175">
        <ele>336</ele>
        <time>2022-02-07T18:11:16Z</time>
      </trkpt>
      <trkpt lat="43.93244" lon="2.53185">
        <ele>337</ele>
        <time>2022-02-07T18:11:19Z</time>
      </trkpt>
      <trkpt lat="43.93198" lon="2.5322">
        <ele>345</ele>
        <time>2022-02-07T18:11:28Z</time>
      </trkpt>
      <trkpt lat="43.93184" lon="2.53235">
        <ele>346</ele>
        <time>2022-02-07T18:11:32Z</time>
      </trkpt>
      <trkpt lat="43.9317" lon="2.53258">
        <ele>346</ele>
        <time>2022-02-07T18:11:35Z</time>
      </trkpt>
      <trkpt lat="43.9316" lon="2.53283">
        <ele>342</ele>
        <time>2022-02-07T18:11:39Z</time>
      </trkpt>
      <trkpt lat="43.93152" lon="2.53316">
        <ele>336</ele>
        <time>2022-02-07T18:11:44Z</time>
      </trkpt>
      <trkpt lat="43.93147" lon="2.53328">
        <ele>335</ele>
        <time>2022-02-07T18:11:45Z</time>
      </trkpt>
      <trkpt lat="43.93126" lon="2.53349">
        <ele>332</ele>
        <time>2022-02-07T18:11:50Z</time>
      </trkpt>
      <trkpt lat="43.93094" lon="2.5337">
        <ele>329</ele>
        <time>2022-02-07T18:11:56Z</time>
      </trkpt>
      <trkpt lat="43.9308" lon="2.53372">
        <ele>328</ele>
        <time>2022-02-07T18:11:59Z</time>
      </trkpt>
      <trkpt lat="43.93066" lon="2.53365">
        <ele>325</ele>
        <time>2022-02-07T18:12:01Z</time>
      </trkpt>
      <trkpt lat="43.93038" lon="2.53331">
        <ele>327</ele>
        <time>2022-02-07T18:12:08Z</time>
      </trkpt>
      <trkpt lat="43.93001" lon="2.53268">
        <ele>333</ele>
        <time>2022-02-07T18:12:18Z</time>
      </trkpt>
      <trkpt lat="43.92968" lon="2.53207">
        <ele>346</ele>
        <time>2022-02-07T18:12:28Z</time>
      </trkpt>
      <trkpt lat="43.92927" lon="2.53172">
        <ele>351</ele>
        <time>2022-02-07T18:12:37Z</time>
      </trkpt>
      <trkpt lat="43.92913" lon="2.53169">
        <ele>350</ele>
        <time>2022-02-07T18:12:39Z</time>
      </trkpt>
      <trkpt lat="43.92885" lon="2.53186">
        <ele>346</ele>
        <time>2022-02-07T18:12:45Z</time>
      </trkpt>
      <trkpt lat="43.92854" lon="2.53198">
        <ele>344</ele>
        <time>2022-02-07T18:12:50Z</time>
      </trkpt>
      <trkpt lat="43.92822" lon="2.53217">
        <ele>336</ele>
        <time>2022-02-07T18:12:57Z</time>
      </trkpt>
      <trkpt lat="43.92814" lon="2.53231">
        <ele>330</ele>
        <time>2022-02-07T18:12:59Z</time>
      </trkpt>
      <trkpt lat="43.92803" lon="2.5324">
        <ele>327</ele>
        <time>2022-02-07T18:13:01Z</time>
      </trkpt>
      <trkpt lat="43.92787" lon="2.53246">
        <ele>326</ele>
        <time>2022-02-07T18:13:04Z</time>
      </trkpt>
      <trkpt lat="43.9277" lon="2.53244">
        <ele>328</ele>
        <time>2022-02-07T18:13:07Z</time>
      </trkpt>
      <trkpt lat="43.92759" lon="2.53242">
        <ele>330</ele>
        <time>2022-02-07T18:13:09Z</time>
      </trkpt>
      <trkpt lat="43.92743" lon="2.53224">
        <ele>335</ele>
        <time>2022-02-07T18:13:13Z</time>
      </trkpt>
      <trkpt lat="43.92724" lon="2.53219">
        <ele>335</ele>
        <time>2022-02-07T18:13:16Z</time>
      </trkpt>
      <trkpt lat="43.92709" lon="2.53223">
        <ele>333</ele>
        <time>2022-02-07T18:13:19Z</time>
      </trkpt>
      <trkpt lat="43.92698" lon="2.53233">
        <ele>330</ele>
        <time>2022-02-07T18:13:21Z</time>
      </trkpt>
      <trkpt lat="43.92686" lon="2.53237">
        <ele>328</ele>
        <time>2022-02-07T18:13:23Z</time>
      </trkpt>
      <trkpt lat="43.92667" lon="2.53232">
        <ele>328</ele>
        <time>2022-02-07T18:13:27Z</time>
      </trkpt>
      <trkpt lat="43.92594" lon="2.53173">
        <ele>334</ele>
        <time>2022-02-07T18:13:42Z</time>
      </trkpt>
      <trkpt lat="43.92571" lon="2.53171">
        <ele>335</ele>
        <time>2022-02-07T18:13:46Z</time>
      </trkpt>
      <trkpt lat="43.92544" lon="2.53181">
        <ele>334</ele>
        <time>2022-02-07T18:13:51Z</time>
      </trkpt>
      <trkpt lat="43.92528" lon="2.53206">
        <ele>330</ele>
        <time>2022-02-07T18:13:55Z</time>
      </trkpt>
      <trkpt lat="43.92512" lon="2.53243">
        <ele>324</ele>
        <time>2022-02-07T18:14:01Z</time>
      </trkpt>
      <trkpt lat="43.92496" lon="2.53261">
        <ele>323</ele>
        <time>2022-02-07T18:14:05Z</time>
      </trkpt>
      <trkpt lat="43.92472" lon="2.53263">
        <ele>328</ele>
        <time>2022-02-07T18:14:09Z</time>
      </trkpt>
      <trkpt lat="43.92464" lon="2.53271">
        <ele>328</ele>
        <time>2022-02-07T18:14:11Z</time>
      </trkpt>
      <trkpt lat="43.92459" lon="2.53282">
        <ele>327</ele>
        <time>2022-02-07T18:14:12Z</time>
      </trkpt>
      <trkpt lat="43.92451" lon="2.53369">
        <ele>317</ele>
        <time>2022-02-07T18:14:23Z</time>
      </trkpt>
      <trkpt lat="43.92446" lon="2.5339">
        <ele>315</ele>
        <time>2022-02-07T18:14:26Z</time>
      </trkpt>
      <trkpt lat="43.92432" lon="2.53397">
        <ele>316</ele>
        <time>2022-02-07T18:14:29Z</time>
      </trkpt>
      <trkpt lat="43.92394" lon="2.53395">
        <ele>322</ele>
        <time>2022-02-07T18:14:36Z</time>
      </trkpt>
      <trkpt lat="43.92384" lon="2.53399">
        <ele>323</ele>
        <time>2022-02-07T18:14:38Z</time>
      </trkpt>
      <trkpt lat="43.92358" lon="2.53437">
        <ele>319</ele>
        <time>2022-02-07T18:14:44Z</time>
      </trkpt>
      <trkpt lat="43.92347" lon="2.53447">
        <ele>319</ele>
        <time>2022-02-07T18:14:47Z</time>
      </trkpt>
      <trkpt lat="43.92313" lon="2.53443">
        <ele>325</ele>
        <time>2022-02-07T18:14:53Z</time>
      </trkpt>
      <trkpt lat="43.92295" lon="2.53434">
        <ele>329</ele>
        <time>2022-02-07T18:14:56Z</time>
      </trkpt>
      <trkpt lat="43.92287" lon="2.53439">
        <ele>330</ele>
        <time>2022-02-07T18:14:58Z</time>
      </trkpt>
      <trkpt lat="43.92281" lon="2.53446">
        <ele>330</ele>
        <time>2022-02-07T18:14:59Z</time>
      </trkpt>
      <trkpt lat="43.92283" lon="2.53459">
        <ele>328</ele>
        <time>2022-02-07T18:15:01Z</time>
      </trkpt>
      <trkpt lat="43.92291" lon="2.53482">
        <ele>324</ele>
        <time>2022-02-07T18:15:04Z</time>
      </trkpt>
      <trkpt lat="43.92299" lon="2.53487">
        <ele>322</ele>
        <time>2022-02-07T18:15:06Z</time>
      </trkpt>
      <trkpt lat="43.92306" lon="2.53498">
        <ele>318</ele>
        <time>2022-02-07T18:15:07Z</time>
      </trkpt>
      <trkpt lat="43.92308" lon="2.5355">
        <ele>317</ele>
        <time>2022-02-07T18:15:14Z</time>
      </trkpt>
      <trkpt lat="43.92314" lon="2.5362">
        <ele>313</ele>
        <time>2022-02-07T18:15:23Z</time>
      </trkpt>
      <trkpt lat="43.92312" lon="2.53645">
        <ele>313</ele>
        <time>2022-02-07T18:15:26Z</time>
      </trkpt>
      <trkpt lat="43.9229" lon="2.53731">
        <ele>316</ele>
        <time>2022-02-07T18:15:38Z</time>
      </trkpt>
      <trkpt lat="43.92291" lon="2.53772">
        <ele>314</ele>
        <time>2022-02-07T18:15:43Z</time>
      </trkpt>
      <trkpt lat="43.92308" lon="2.53818">
        <ele>307</ele>
        <time>2022-02-07T18:15:50Z</time>
      </trkpt>
      <trkpt lat="43.9237" lon="2.5395">
        <ele>297</ele>
        <time>2022-02-07T18:16:10Z</time>
      </trkpt>
      <trkpt lat="43.92391" lon="2.54003">
        <ele>295</ele>
        <time>2022-02-07T18:16:18Z</time>
      </trkpt>
      <trkpt lat="43.92408" lon="2.54103">
        <ele>295</ele>
        <time>2022-02-07T18:16:31Z</time>
      </trkpt>
      <trkpt lat="43.92419" lon="2.54155">
        <ele>294</ele>
        <time>2022-02-07T18:16:38Z</time>
      </trkpt>
      <trkpt lat="43.92432" lon="2.54185">
        <ele>294</ele>
        <time>2022-02-07T18:16:43Z</time>
      </trkpt>
      <trkpt lat="43.92468" lon="2.54215">
        <ele>290</ele>
        <time>2022-02-07T18:16:50Z</time>
      </trkpt>
      <trkpt lat="43.92604" lon="2.54275">
        <ele>268</ele>
        <time>2022-02-07T18:17:15Z</time>
      </trkpt>
      <trkpt lat="43.92614" lon="2.54284">
        <ele>268</ele>
        <time>2022-02-07T18:17:17Z</time>
      </trkpt>
      <trkpt lat="43.92617" lon="2.5429">
        <ele>268</ele>
        <time>2022-02-07T18:17:18Z</time>
      </trkpt>
      <trkpt lat="43.92619" lon="2.54299">
        <ele>268</ele>
        <time>2022-02-07T18:17:20Z</time>
      </trkpt>
      <trkpt lat="43.92617" lon="2.5431">
        <ele>268</ele>
        <time>2022-02-07T18:17:21Z</time>
      </trkpt>
      <trkpt lat="43.92605" lon="2.54324">
        <ele>269</ele>
        <time>2022-02-07T18:17:24Z</time>
      </trkpt>
      <trkpt lat="43.92596" lon="2.54328">
        <ele>269</ele>
        <time>2022-02-07T18:17:26Z</time>
      </trkpt>
      <trkpt lat="43.9257" lon="2.54332">
        <ele>271</ele>
        <time>2022-02-07T18:17:30Z</time>
      </trkpt>
      <trkpt lat="43.9249" lon="2.54357">
        <ele>275</ele>
        <time>2022-02-07T18:17:45Z</time>
      </trkpt>
      <trkpt lat="43.92453" lon="2.54362">
        <ele>282</ele>
        <time>2022-02-07T18:17:51Z</time>
      </trkpt>
      <trkpt lat="43.92438" lon="2.5437">
        <ele>283</ele>
        <time>2022-02-07T18:17:54Z</time>
      </trkpt>
      <trkpt lat="43.92429" lon="2.54379">
        <ele>281</ele>
        <time>2022-02-07T18:17:56Z</time>
      </trkpt>
      <trkpt lat="43.92424" lon="2.5439">
        <ele>277</ele>
        <time>2022-02-07T18:17:58Z</time>
      </trkpt>
      <trkpt lat="43.92366" lon="2.54448">
        <ele>281</ele>
        <time>2022-02-07T18:18:11Z</time>
      </trkpt>
      <trkpt lat="43.92355" lon="2.54472">
        <ele>279</ele>
        <time>2022-02-07T18:18:14Z</time>
      </trkpt>
      <trkpt lat="43.9235" lon="2.54497">
        <ele>276</ele>
        <time>2022-02-07T18:18:18Z</time>
      </trkpt>
      <trkpt lat="43.92345" lon="2.54537">
        <ele>273</ele>
        <time>2022-02-07T18:18:23Z</time>
      </trkpt>
      <trkpt lat="43.92335" lon="2.54567">
        <ele>272</ele>
        <time>2022-02-07T18:18:27Z</time>
      </trkpt>
      <trkpt lat="43.92323" lon="2.54654">
        <ele>268</ele>
        <time>2022-02-07T18:18:38Z</time>
      </trkpt>
      <trkpt lat="43.92316" lon="2.54691">
        <ele>268</ele>
        <time>2022-02-07T18:18:43Z</time>
      </trkpt>
      <trkpt lat="43.92305" lon="2.54725">
        <ele>267</ele>
        <time>2022-02-07T18:18:48Z</time>
      </trkpt>
      <trkpt lat="43.92249" lon="2.54869">
        <ele>254</ele>
        <time>2022-02-07T18:19:09Z</time>
      </trkpt>
      <trkpt lat="43.92207" lon="2.54966">
        <ele>252</ele>
        <time>2022-02-07T18:19:24Z</time>
      </trkpt>
      <trkpt lat="43.9214" lon="2.55108">
        <ele>250</ele>
        <time>2022-02-07T18:19:45Z</time>
      </trkpt>
      <trkpt lat="43.92128" lon="2.55142">
        <ele>251</ele>
        <time>2022-02-07T18:19:50Z</time>
      </trkpt>
      <trkpt lat="43.92108" lon="2.55246">
        <ele>254</ele>
        <time>2022-02-07T18:20:04Z</time>
      </trkpt>
      <trkpt lat="43.92095" lon="2.55296">
        <ele>256</ele>
        <time>2022-02-07T18:20:11Z</time>
      </trkpt>
      <trkpt lat="43.92071" lon="2.55368">
        <ele>259</ele>
        <time>2022-02-07T18:20:21Z</time>
      </trkpt>
      <trkpt lat="43.92038" lon="2.55433">
        <ele>265</ele>
        <time>2022-02-07T18:20:31Z</time>
      </trkpt>
      <trkpt lat="43.92013" lon="2.55467">
        <ele>266</ele>
        <time>2022-02-07T18:20:37Z</time>
      </trkpt>
      <trkpt lat="43.91988" lon="2.55497">
        <ele>266</ele>
        <time>2022-02-07T18:20:43Z</time>
      </trkpt>
      <trkpt lat="43.91951" lon="2.55518">
        <ele>267</ele>
        <time>2022-02-07T18:20:50Z</time>
      </trkpt>
      <trkpt lat="43.91906" lon="2.55532">
        <ele>268</ele>
        <time>2022-02-07T18:20:59Z</time>
      </trkpt>
      <trkpt lat="43.91854" lon="2.55529">
        <ele>268</ele>
        <time>2022-02-07T18:21:08Z</time>
      </trkpt>
      <trkpt lat="43.91815" lon="2.55524">
        <ele>267</ele>
        <time>2022-02-07T18:21:15Z</time>
      </trkpt>
      <trkpt lat="43.91737" lon="2.55525">
        <ele>261</ele>
        <time>2022-02-07T18:21:29Z</time>
      </trkpt>
      <trkpt lat="43.91715" lon="2.55516">
        <ele>261</ele>
        <time>2022-02-07T18:21:33Z</time>
      </trkpt>
      <trkpt lat="43.9165" lon="2.55475">
        <ele>269</ele>
        <time>2022-02-07T18:21:45Z</time>
      </trkpt>
      <trkpt lat="43.91538" lon="2.55438">
        <ele>273</ele>
        <time>2022-02-07T18:22:06Z</time>
      </trkpt>
      <trkpt lat="43.91466" lon="2.55421">
        <ele>267</ele>
        <time>2022-02-07T18:22:19Z</time>
      </trkpt>
      <trkpt lat="43.91301" lon="2.5536">
        <ele>272</ele>
        <time>2022-02-07T18:22:49Z</time>
      </trkpt>
      <trkpt lat="43.91217" lon="2.55347">
        <ele>271</ele>
        <time>2022-02-07T18:23:04Z</time>
      </trkpt>
      <trkpt lat="43.91153" lon="2.55327">
        <ele>272</ele>
        <time>2022-02-07T18:23:16Z</time>
      </trkpt>
      <trkpt lat="43.90999" lon="2.55268">
        <ele>277</ele>
        <time>2022-02-07T18:23:44Z</time>
      </trkpt>
      <trkpt lat="43.90815" lon="2.55227">
        <ele>271</ele>
        <time>2022-02-07T18:24:18Z</time>
      </trkpt>
      <trkpt lat="43.90761" lon="2.55202">
        <ele>270</ele>
        <time>2022-02-07T18:24:28Z</time>
      </trkpt>
      <trkpt lat="43.90744" lon="2.55202">
        <ele>268</ele>
        <time>2022-02-07T18:24:31Z</time>
      </trkpt>
      <trkpt lat="43.90711" lon="2.55224">
        <ele>265</ele>
        <time>2022-02-07T18:24:37Z</time>
      </trkpt>
      <trkpt lat="43.90659" lon="2.5527">
        <ele>265</ele>
        <time>2022-02-07T18:24:48Z</time>
      </trkpt>
      <trkpt lat="43.90567" lon="2.55335">
        <ele>269</ele>
        <time>2022-02-07T18:25:07Z</time>
      </trkpt>
      <trkpt lat="43.90506" lon="2.55375">
        <ele>273</ele>
        <time>2022-02-07T18:25:19Z</time>
      </trkpt>
      <trkpt lat="43.90434" lon="2.55413">
        <ele>275</ele>
        <time>2022-02-07T18:25:32Z</time>
      </trkpt>
      <trkpt lat="43.90373" lon="2.5547">
        <ele>275</ele>
        <time>2022-02-07T18:25:45Z</time>
      </trkpt>
      <trkpt lat="43.90268" lon="2.55547">
        <ele>284</ele>
        <time>2022-02-07T18:26:07Z</time>
      </trkpt>
      <trkpt lat="43.90242" lon="2.55582">
        <ele>284</ele>
        <time>2022-02-07T18:26:13Z</time>
      </trkpt>
      <trkpt lat="43.90213" lon="2.55631">
        <ele>286</ele>
        <time>2022-02-07T18:26:21Z</time>
      </trkpt>
      <trkpt lat="43.902" lon="2.55666">
        <ele>284</ele>
        <time>2022-02-07T18:26:26Z</time>
      </trkpt>
      <trkpt lat="43.90195" lon="2.557">
        <ele>284</ele>
        <time>2022-02-07T18:26:31Z</time>
      </trkpt>
      <trkpt lat="43.90204" lon="2.55946">
        <ele>282</ele>
        <time>2022-02-07T18:27:02Z</time>
      </trkpt>
      <trkpt lat="43.90208" lon="2.5598">
        <ele>281</ele>
        <time>2022-02-07T18:27:07Z</time>
      </trkpt>
      <trkpt lat="43.90228" lon="2.56073">
        <ele>281</ele>
        <time>2022-02-07T18:27:19Z</time>
      </trkpt>
      <trkpt lat="43.90231" lon="2.56112">
        <ele>281</ele>
        <time>2022-02-07T18:27:24Z</time>
      </trkpt>
      <trkpt lat="43.9022" lon="2.56319">
        <ele>286</ele>
        <time>2022-02-07T18:27:51Z</time>
      </trkpt>
      <trkpt lat="43.90222" lon="2.56363">
        <ele>288</ele>
        <time>2022-02-07T18:27:56Z</time>
      </trkpt>
      <trkpt lat="43.90239" lon="2.56439">
        <ele>288</ele>
        <time>2022-02-07T18:28:07Z</time>
      </trkpt>
      <trkpt lat="43.90243" lon="2.5647">
        <ele>290</ele>
        <time>2022-02-07T18:28:11Z</time>
      </trkpt>
      <trkpt lat="43.90243" lon="2.56528">
        <ele>293</ele>
        <time>2022-02-07T18:28:18Z</time>
      </trkpt>
      <trkpt lat="43.90237" lon="2.56583">
        <ele>296</ele>
        <time>2022-02-07T18:28:25Z</time>
      </trkpt>
      <trkpt lat="43.90219" lon="2.56647">
        <ele>299</ele>
        <time>2022-02-07T18:28:34Z</time>
      </trkpt>
      <trkpt lat="43.90169" lon="2.56796">
        <ele>302</ele>
        <time>2022-02-07T18:28:55Z</time>
      </trkpt>
      <trkpt lat="43.90159" lon="2.56834">
        <ele>303</ele>
        <time>2022-02-07T18:29:00Z</time>
      </trkpt>
      <trkpt lat="43.90157" lon="2.56872">
        <ele>302</ele>
        <time>2022-02-07T18:29:05Z</time>
      </trkpt>
      <trkpt lat="43.90156" lon="2.56921">
        <ele>300</ele>
        <time>2022-02-07T18:29:11Z</time>
      </trkpt>
      <trkpt lat="43.90163" lon="2.56969">
        <ele>295</ele>
        <time>2022-02-07T18:29:18Z</time>
      </trkpt>
      <trkpt lat="43.90177" lon="2.57027">
        <ele>293</ele>
        <time>2022-02-07T18:29:25Z</time>
      </trkpt>
      <trkpt lat="43.90226" lon="2.57143">
        <ele>299</ele>
        <time>2022-02-07T18:29:43Z</time>
      </trkpt>
      <trkpt lat="43.90236" lon="2.57185">
        <ele>301</ele>
        <time>2022-02-07T18:29:48Z</time>
      </trkpt>
      <trkpt lat="43.90242" lon="2.57255">
        <ele>303</ele>
        <time>2022-02-07T18:29:57Z</time>
      </trkpt>
      <trkpt lat="43.90251" lon="2.57393">
        <ele>301</ele>
        <time>2022-02-07T18:30:15Z</time>
      </trkpt>
      <trkpt lat="43.9025" lon="2.57466">
        <ele>300</ele>
        <time>2022-02-07T18:30:25Z</time>
      </trkpt>
      <trkpt lat="43.90234" lon="2.57527">
        <ele>305</ele>
        <time>2022-02-07T18:30:33Z</time>
      </trkpt>
      <trkpt lat="43.90213" lon="2.57564">
        <ele>311</ele>
        <time>2022-02-07T18:30:39Z</time>
      </trkpt>
      <trkpt lat="43.90193" lon="2.57593">
        <ele>315</ele>
        <time>2022-02-07T18:30:44Z</time>
      </trkpt>
      <trkpt lat="43.90172" lon="2.57606">
        <ele>321</ele>
        <time>2022-02-07T18:30:48Z</time>
      </trkpt>
      <trkpt lat="43.90157" lon="2.57626">
        <ele>323</ele>
        <time>2022-02-07T18:30:52Z</time>
      </trkpt>
      <trkpt lat="43.90142" lon="2.57666">
        <ele>322</ele>
        <time>2022-02-07T18:30:58Z</time>
      </trkpt>
      <trkpt lat="43.90136" lon="2.57705">
        <ele>318</ele>
        <time>2022-02-07T18:31:03Z</time>
      </trkpt>
      <trkpt lat="43.90132" lon="2.57761">
        <ele>312</ele>
        <time>2022-02-07T18:31:10Z</time>
      </trkpt>
      <trkpt lat="43.90105" lon="2.57867">
        <ele>317</ele>
        <time>2022-02-07T18:31:24Z</time>
      </trkpt>
      <trkpt lat="43.90098" lon="2.5791">
        <ele>319</ele>
        <time>2022-02-07T18:31:30Z</time>
      </trkpt>
      <trkpt lat="43.90097" lon="2.57943">
        <ele>318</ele>
        <time>2022-02-07T18:31:34Z</time>
      </trkpt>
      <trkpt lat="43.90104" lon="2.5798">
        <ele>314</ele>
        <time>2022-02-07T18:31:39Z</time>
      </trkpt>
      <trkpt lat="43.90115" lon="2.58018">
        <ele>307</ele>
        <time>2022-02-07T18:31:44Z</time>
      </trkpt>
      <trkpt lat="43.90117" lon="2.58042">
        <ele>304</ele>
        <time>2022-02-07T18:31:48Z</time>
      </trkpt>
      <trkpt lat="43.90115" lon="2.58061">
        <ele>303</ele>
        <time>2022-02-07T18:31:50Z</time>
      </trkpt>
      <trkpt lat="43.90101" lon="2.58089">
        <ele>303</ele>
        <time>2022-02-07T18:31:54Z</time>
      </trkpt>
      <trkpt lat="43.90081" lon="2.58112">
        <ele>303</ele>
        <time>2022-02-07T18:31:59Z</time>
      </trkpt>
      <trkpt lat="43.90064" lon="2.58128">
        <ele>301</ele>
        <time>2022-02-07T18:32:03Z</time>
      </trkpt>
      <trkpt lat="43.90046" lon="2.58135">
        <ele>301</ele>
        <time>2022-02-07T18:32:06Z</time>
      </trkpt>
      <trkpt lat="43.90015" lon="2.58136">
        <ele>303</ele>
        <time>2022-02-07T18:32:11Z</time>
      </trkpt>
      <trkpt lat="43.89967" lon="2.58127">
        <ele>301</ele>
        <time>2022-02-07T18:32:20Z</time>
      </trkpt>
      <trkpt lat="43.89946" lon="2.58119">
        <ele>298</ele>
        <time>2022-02-07T18:32:24Z</time>
      </trkpt>
      <trkpt lat="43.8993" lon="2.58104">
        <ele>297</ele>
        <time>2022-02-07T18:32:27Z</time>
      </trkpt>
      <trkpt lat="43.8992" lon="2.58077">
        <ele>298</ele>
        <time>2022-02-07T18:32:31Z</time>
      </trkpt>
      <trkpt lat="43.89916" lon="2.5805">
        <ele>300</ele>
        <time>2022-02-07T18:32:35Z</time>
      </trkpt>
      <trkpt lat="43.89916" lon="2.5802">
        <ele>304</ele>
        <time>2022-02-07T18:32:39Z</time>
      </trkpt>
      <trkpt lat="43.8991" lon="2.57982">
        <ele>307</ele>
        <time>2022-02-07T18:32:44Z</time>
      </trkpt>
      <trkpt lat="43.899" lon="2.57955">
        <ele>307</ele>
        <time>2022-02-07T18:32:48Z</time>
      </trkpt>
      <trkpt lat="43.8987" lon="2.57901">
        <ele>298</ele>
        <time>2022-02-07T18:32:56Z</time>
      </trkpt>
      <trkpt lat="43.89865" lon="2.57883">
        <ele>297</ele>
        <time>2022-02-07T18:32:59Z</time>
      </trkpt>
      <trkpt lat="43.89861" lon="2.57838">
        <ele>300</ele>
        <time>2022-02-07T18:33:05Z</time>
      </trkpt>
      <trkpt lat="43.89857" lon="2.5781">
        <ele>300</ele>
        <time>2022-02-07T18:33:08Z</time>
      </trkpt>
      <trkpt lat="43.89826" lon="2.57726">
        <ele>292</ele>
        <time>2022-02-07T18:33:20Z</time>
      </trkpt>
      <trkpt lat="43.8982" lon="2.57717">
        <ele>292</ele>
        <time>2022-02-07T18:33:22Z</time>
      </trkpt>
      <trkpt lat="43.89813" lon="2.57711">
        <ele>292</ele>
        <time>2022-02-07T18:33:23Z</time>
      </trkpt>
      <trkpt lat="43.89804" lon="2.5771">
        <ele>292</ele>
        <time>2022-02-07T18:33:25Z</time>
      </trkpt>
      <trkpt lat="43.89791" lon="2.57712">
        <ele>290</ele>
        <time>2022-02-07T18:33:27Z</time>
      </trkpt>
      <trkpt lat="43.89766" lon="2.57726">
        <ele>287</ele>
        <time>2022-02-07T18:33:32Z</time>
      </trkpt>
      <trkpt lat="43.89752" lon="2.57724">
        <ele>286</ele>
        <time>2022-02-07T18:33:35Z</time>
      </trkpt>
      <trkpt lat="43.89726" lon="2.57713">
        <ele>289</ele>
        <time>2022-02-07T18:33:39Z</time>
      </trkpt>
      <trkpt lat="43.89716" lon="2.57712">
        <ele>290</ele>
        <time>2022-02-07T18:33:41Z</time>
      </trkpt>
      <trkpt lat="43.89707" lon="2.57714">
        <ele>291</ele>
        <time>2022-02-07T18:33:43Z</time>
      </trkpt>
      <trkpt lat="43.89701" lon="2.57717">
        <ele>291</ele>
        <time>2022-02-07T18:33:44Z</time>
      </trkpt>
      <trkpt lat="43.89693" lon="2.57726">
        <ele>291</ele>
        <time>2022-02-07T18:33:46Z</time>
      </trkpt>
      <trkpt lat="43.89672" lon="2.57764">
        <ele>288</ele>
        <time>2022-02-07T18:33:52Z</time>
      </trkpt>
      <trkpt lat="43.89658" lon="2.5778">
        <ele>287</ele>
        <time>2022-02-07T18:33:55Z</time>
      </trkpt>
      <trkpt lat="43.89647" lon="2.57788">
        <ele>287</ele>
        <time>2022-02-07T18:33:57Z</time>
      </trkpt>
      <trkpt lat="43.89634" lon="2.57792">
        <ele>289</ele>
        <time>2022-02-07T18:34:00Z</time>
      </trkpt>
      <trkpt lat="43.89532" lon="2.57803">
        <ele>305</ele>
        <time>2022-02-07T18:34:18Z</time>
      </trkpt>
      <trkpt lat="43.89504" lon="2.57814">
        <ele>306</ele>
        <time>2022-02-07T18:34:23Z</time>
      </trkpt>
      <trkpt lat="43.89468" lon="2.5785">
        <ele>302</ele>
        <time>2022-02-07T18:34:31Z</time>
      </trkpt>
      <trkpt lat="43.89459" lon="2.57863">
        <ele>302</ele>
        <time>2022-02-07T18:34:33Z</time>
      </trkpt>
      <trkpt lat="43.89437" lon="2.57918">
        <ele>302</ele>
        <time>2022-02-07T18:34:41Z</time>
      </trkpt>
      <trkpt lat="43.89425" lon="2.57954">
        <ele>302</ele>
        <time>2022-02-07T18:34:47Z</time>
      </trkpt>
      <trkpt lat="43.89418" lon="2.57983">
        <ele>301</ele>
        <time>2022-02-07T18:34:50Z</time>
      </trkpt>
      <trkpt lat="43.8941" lon="2.58003">
        <ele>301</ele>
        <time>2022-02-07T18:34:53Z</time>
      </trkpt>
      <trkpt lat="43.8938" lon="2.58069">
        <ele>303</ele>
        <time>2022-02-07T18:35:03Z</time>
      </trkpt>
      <trkpt lat="43.89372" lon="2.58097">
        <ele>304</ele>
        <time>2022-02-07T18:35:07Z</time>
      </trkpt>
      <trkpt lat="43.89369" lon="2.5812">
        <ele>304</ele>
        <time>2022-02-07T18:35:10Z</time>
      </trkpt>
      <trkpt lat="43.8937" lon="2.58152">
        <ele>303</ele>
        <time>2022-02-07T18:35:14Z</time>
      </trkpt>
      <trkpt lat="43.89376" lon="2.58204">
        <ele>302</ele>
        <time>2022-02-07T18:35:21Z</time>
      </trkpt>
      <trkpt lat="43.89376" lon="2.58247">
        <ele>305</ele>
        <time>2022-02-07T18:35:27Z</time>
      </trkpt>
      <trkpt lat="43.89372" lon="2.58333">
        <ele>308</ele>
        <time>2022-02-07T18:35:38Z</time>
      </trkpt>
      <trkpt lat="43.89356" lon="2.58441">
        <ele>313</ele>
        <time>2022-02-07T18:35:52Z</time>
      </trkpt>
      <trkpt lat="43.89346" lon="2.58484">
        <ele>317</ele>
        <time>2022-02-07T18:35:58Z</time>
      </trkpt>
      <trkpt lat="43.89347" lon="2.5852">
        <ele>320</ele>
        <time>2022-02-07T18:36:02Z</time>
      </trkpt>
      <trkpt lat="43.89362" lon="2.58615">
        <ele>321</ele>
        <time>2022-02-07T18:36:15Z</time>
      </trkpt>
      <trkpt lat="43.89365" lon="2.58642">
        <ele>321</ele>
        <time>2022-02-07T18:36:18Z</time>
      </trkpt>
      <trkpt lat="43.89366" lon="2.58734">
        <ele>324</ele>
        <time>2022-02-07T18:36:30Z</time>
      </trkpt>
      <trkpt lat="43.89379" lon="2.58847">
        <ele>329</ele>
        <time>2022-02-07T18:36:45Z</time>
      </trkpt>
      <trkpt lat="43.89386" lon="2.58892">
        <ele>332</ele>
        <time>2022-02-07T18:36:51Z</time>
      </trkpt>
      <trkpt lat="43.894" lon="2.58944">
        <ele>332</ele>
        <time>2022-02-07T18:36:58Z</time>
      </trkpt>
      <trkpt lat="43.89412" lon="2.58975">
        <ele>332</ele>
        <time>2022-02-07T18:37:02Z</time>
      </trkpt>
      <trkpt lat="43.89442" lon="2.59037">
        <ele>328</ele>
        <time>2022-02-07T18:37:12Z</time>
      </trkpt>
      <trkpt lat="43.89446" lon="2.59059">
        <ele>328</ele>
        <time>2022-02-07T18:37:15Z</time>
      </trkpt>
      <trkpt lat="43.89444" lon="2.59077">
        <ele>331</ele>
        <time>2022-02-07T18:37:17Z</time>
      </trkpt>
      <trkpt lat="43.89436" lon="2.59095">
        <ele>331</ele>
        <time>2022-02-07T18:37:20Z</time>
      </trkpt>
      <trkpt lat="43.89418" lon="2.59112">
        <ele>332</ele>
        <time>2022-02-07T18:37:24Z</time>
      </trkpt>
      <trkpt lat="43.89309" lon="2.5917">
        <ele>348</ele>
        <time>2022-02-07T18:37:44Z</time>
      </trkpt>
      <trkpt lat="43.89287" lon="2.5919">
        <ele>349</ele>
        <time>2022-02-07T18:37:49Z</time>
      </trkpt>
      <trkpt lat="43.89261" lon="2.5922">
        <ele>348</ele>
        <time>2022-02-07T18:37:55Z</time>
      </trkpt>
      <trkpt lat="43.8923" lon="2.59271">
        <ele>349</ele>
        <time>2022-02-07T18:38:04Z</time>
      </trkpt>
      <trkpt lat="43.89185" lon="2.59369">
        <ele>353</ele>
        <time>2022-02-07T18:38:19Z</time>
      </trkpt>
      <trkpt lat="43.89172" lon="2.59405">
        <ele>354</ele>
        <time>2022-02-07T18:38:24Z</time>
      </trkpt>
      <trkpt lat="43.89171" lon="2.59425">
        <ele>354</ele>
        <time>2022-02-07T18:38:26Z</time>
      </trkpt>
      <trkpt lat="43.89171" lon="2.59449">
        <ele>356</ele>
        <time>2022-02-07T18:38:29Z</time>
      </trkpt>
      <trkpt lat="43.89184" lon="2.5954">
        <ele>355</ele>
        <time>2022-02-07T18:38:41Z</time>
      </trkpt>
      <trkpt lat="43.89184" lon="2.59559">
        <ele>356</ele>
        <time>2022-02-07T18:38:44Z</time>
      </trkpt>
      <trkpt lat="43.89177" lon="2.59625">
        <ele>356</ele>
        <time>2022-02-07T18:38:52Z</time>
      </trkpt>
      <trkpt lat="43.89176" lon="2.59653">
        <ele>355</ele>
        <time>2022-02-07T18:38:56Z</time>
      </trkpt>
      <trkpt lat="43.89186" lon="2.59718">
        <ele>350</ele>
        <time>2022-02-07T18:39:04Z</time>
      </trkpt>
      <trkpt lat="43.89187" lon="2.59739">
        <ele>350</ele>
        <time>2022-02-07T18:39:07Z</time>
      </trkpt>
      <trkpt lat="43.89184" lon="2.59746">
        <ele>351</ele>
        <time>2022-02-07T18:39:08Z</time>
      </trkpt>
      <trkpt lat="43.89175" lon="2.59752">
        <ele>352</ele>
        <time>2022-02-07T18:39:10Z</time>
      </trkpt>
      <trkpt lat="43.89164" lon="2.59746">
        <ele>354</ele>
        <time>2022-02-07T18:39:12Z</time>
      </trkpt>
      <trkpt lat="43.89154" lon="2.59731">
        <ele>356</ele>
        <time>2022-02-07T18:39:15Z</time>
      </trkpt>
      <trkpt lat="43.89149" lon="2.59733">
        <ele>357</ele>
        <time>2022-02-07T18:39:15Z</time>
      </trkpt>
      <trkpt lat="43.89137" lon="2.59741">
        <ele>358</ele>
        <time>2022-02-07T18:39:18Z</time>
      </trkpt>
      <trkpt lat="43.89124" lon="2.59752">
        <ele>358</ele>
        <time>2022-02-07T18:39:21Z</time>
      </trkpt>
      <trkpt lat="43.89108" lon="2.59758">
        <ele>357</ele>
        <time>2022-02-07T18:39:24Z</time>
      </trkpt>
      <trkpt lat="43.89059" lon="2.59761">
        <ele>361</ele>
        <time>2022-02-07T18:39:32Z</time>
      </trkpt>
      <trkpt lat="43.89044" lon="2.59765">
        <ele>362</ele>
        <time>2022-02-07T18:39:35Z</time>
      </trkpt>
      <trkpt lat="43.89005" lon="2.59783">
        <ele>358</ele>
        <time>2022-02-07T18:39:42Z</time>
      </trkpt>
      <trkpt lat="43.88976" lon="2.59804">
        <ele>355</ele>
        <time>2022-02-07T18:39:48Z</time>
      </trkpt>
      <trkpt lat="43.88941" lon="2.59836">
        <ele>350</ele>
        <time>2022-02-07T18:39:56Z</time>
      </trkpt>
      <trkpt lat="43.88883" lon="2.59892">
        <ele>345</ele>
        <time>2022-02-07T18:40:08Z</time>
      </trkpt>
      <trkpt lat="43.88864" lon="2.59916">
        <ele>343</ele>
        <time>2022-02-07T18:40:13Z</time>
      </trkpt>
      <trkpt lat="43.88846" lon="2.59953">
        <ele>339</ele>
        <time>2022-02-07T18:40:18Z</time>
      </trkpt>
      <trkpt lat="43.8881" lon="2.60069">
        <ele>318</ele>
        <time>2022-02-07T18:40:35Z</time>
      </trkpt>
      <trkpt lat="43.88744" lon="2.60275">
        <ele>312</ele>
        <time>2022-02-07T18:41:04Z</time>
      </trkpt>
      <trkpt lat="43.88732" lon="2.60306">
        <ele>320</ele>
        <time>2022-02-07T18:41:08Z</time>
      </trkpt>
      <trkpt lat="43.88722" lon="2.60322">
        <ele>324</ele>
        <time>2022-02-07T18:41:11Z</time>
      </trkpt>
      <trkpt lat="43.88711" lon="2.60335">
        <ele>328</ele>
        <time>2022-02-07T18:41:13Z</time>
      </trkpt>
      <trkpt lat="43.88695" lon="2.60346">
        <ele>332</ele>
        <time>2022-02-07T18:41:16Z</time>
      </trkpt>
      <trkpt lat="43.8868" lon="2.60351">
        <ele>334</ele>
        <time>2022-02-07T18:41:19Z</time>
      </trkpt>
      <trkpt lat="43.88666" lon="2.60351">
        <ele>334</ele>
        <time>2022-02-07T18:41:22Z</time>
      </trkpt>
      <trkpt lat="43.88579" lon="2.60339">
        <ele>336</ele>
        <time>2022-02-07T18:41:37Z</time>
      </trkpt>
      <trkpt lat="43.88576" lon="2.60329">
        <ele>334</ele>
        <time>2022-02-07T18:41:39Z</time>
      </trkpt>
      <trkpt lat="43.88572" lon="2.60326">
        <ele>333</ele>
        <time>2022-02-07T18:41:39Z</time>
      </trkpt>
      <trkpt lat="43.88543" lon="2.60326">
        <ele>334</ele>
        <time>2022-02-07T18:41:45Z</time>
      </trkpt>
      <trkpt lat="43.88513" lon="2.60322">
        <ele>334</ele>
        <time>2022-02-07T18:41:50Z</time>
      </trkpt>
      <trkpt lat="43.88483" lon="2.60307">
        <ele>330</ele>
        <time>2022-02-07T18:41:56Z</time>
      </trkpt>
      <trkpt lat="43.88453" lon="2.60287">
        <ele>324</ele>
        <time>2022-02-07T18:42:02Z</time>
      </trkpt>
      <trkpt lat="43.88439" lon="2.6028">
        <ele>322</ele>
        <time>2022-02-07T18:42:04Z</time>
      </trkpt>
      <trkpt lat="43.88398" lon="2.60275">
        <ele>323</ele>
        <time>2022-02-07T18:42:12Z</time>
      </trkpt>
      <trkpt lat="43.88337" lon="2.60247">
        <ele>328</ele>
        <time>2022-02-07T18:42:23Z</time>
      </trkpt>
      <trkpt lat="43.88316" lon="2.60228">
        <ele>327</ele>
        <time>2022-02-07T18:42:27Z</time>
      </trkpt>
      <trkpt lat="43.88283" lon="2.60181">
        <ele>321</ele>
        <time>2022-02-07T18:42:36Z</time>
      </trkpt>
      <trkpt lat="43.88261" lon="2.6016">
        <ele>322</ele>
        <time>2022-02-07T18:42:41Z</time>
      </trkpt>
      <trkpt lat="43.88217" lon="2.60129">
        <ele>318</ele>
        <time>2022-02-07T18:42:49Z</time>
      </trkpt>
      <trkpt lat="43.88205" lon="2.60123">
        <ele>317</ele>
        <time>2022-02-07T18:42:52Z</time>
      </trkpt>
      <trkpt lat="43.88185" lon="2.6012">
        <ele>315</ele>
        <time>2022-02-07T18:42:55Z</time>
      </trkpt>
      <trkpt lat="43.88174" lon="2.60122">
        <ele>315</ele>
        <time>2022-02-07T18:42:57Z</time>
      </trkpt>
      <trkpt lat="43.88141" lon="2.60142">
        <ele>314</ele>
        <time>2022-02-07T18:43:04Z</time>
      </trkpt>
      <trkpt lat="43.88116" lon="2.60162">
        <ele>311</ele>
        <time>2022-02-07T18:43:09Z</time>
      </trkpt>
      <trkpt lat="43.88103" lon="2.60168">
        <ele>309</ele>
        <time>2022-02-07T18:43:11Z</time>
      </trkpt>
      <trkpt lat="43.88093" lon="2.60167">
        <ele>307</ele>
        <time>2022-02-07T18:43:13Z</time>
      </trkpt>
      <trkpt lat="43.88087" lon="2.60162">
        <ele>306</ele>
        <time>2022-02-07T18:43:14Z</time>
      </trkpt>
      <trkpt lat="43.88067" lon="2.60123">
        <ele>311</ele>
        <time>2022-02-07T18:43:20Z</time>
      </trkpt>
      <trkpt lat="43.8806" lon="2.60119">
        <ele>312</ele>
        <time>2022-02-07T18:43:22Z</time>
      </trkpt>
      <trkpt lat="43.87998" lon="2.6012">
        <ele>312</ele>
        <time>2022-02-07T18:43:33Z</time>
      </trkpt>
      <trkpt lat="43.87975" lon="2.60105">
        <ele>314</ele>
        <time>2022-02-07T18:43:37Z</time>
      </trkpt>
      <trkpt lat="43.87921" lon="2.60033">
        <ele>322</ele>
        <time>2022-02-07T18:43:51Z</time>
      </trkpt>
      <trkpt lat="43.87899" lon="2.60005">
        <ele>324</ele>
        <time>2022-02-07T18:43:56Z</time>
      </trkpt>
      <trkpt lat="43.87892" lon="2.60002">
        <ele>324</ele>
        <time>2022-02-07T18:43:57Z</time>
      </trkpt>
      <trkpt lat="43.87888" lon="2.60003">
        <ele>323</ele>
        <time>2022-02-07T18:43:58Z</time>
      </trkpt>
      <trkpt lat="43.87877" lon="2.60021">
        <ele>322</ele>
        <time>2022-02-07T18:44:01Z</time>
      </trkpt>
      <trkpt lat="43.87874" lon="2.60032">
        <ele>322</ele>
        <time>2022-02-07T18:44:02Z</time>
      </trkpt>
      <trkpt lat="43.87877" lon="2.60043">
        <ele>321</ele>
        <time>2022-02-07T18:44:04Z</time>
      </trkpt>
      <trkpt lat="43.87918" lon="2.601">
        <ele>313</ele>
        <time>2022-02-07T18:44:14Z</time>
      </trkpt>
      <trkpt lat="43.87924" lon="2.60117">
        <ele>314</ele>
        <time>2022-02-07T18:44:17Z</time>
      </trkpt>
      <trkpt lat="43.87926" lon="2.60136">
        <ele>314</ele>
        <time>2022-02-07T18:44:19Z</time>
      </trkpt>
      <trkpt lat="43.8792" lon="2.60156">
        <ele>315</ele>
        <time>2022-02-07T18:44:22Z</time>
      </trkpt>
      <trkpt lat="43.87902" lon="2.60186">
        <ele>319</ele>
        <time>2022-02-07T18:44:27Z</time>
      </trkpt>
      <trkpt lat="43.87845" lon="2.60266">
        <ele>332</ele>
        <time>2022-02-07T18:44:41Z</time>
      </trkpt>
      <trkpt lat="43.87825" lon="2.60287">
        <ele>334</ele>
        <time>2022-02-07T18:44:46Z</time>
      </trkpt>
      <trkpt lat="43.87812" lon="2.60308">
        <ele>334</ele>
        <time>2022-02-07T18:44:49Z</time>
      </trkpt>
      <trkpt lat="43.87797" lon="2.60352">
        <ele>333</ele>
        <time>2022-02-07T18:44:56Z</time>
      </trkpt>
      <trkpt lat="43.87773" lon="2.60444">
        <ele>335</ele>
        <time>2022-02-07T18:45:08Z</time>
      </trkpt>
      <trkpt lat="43.87728" lon="2.60584">
        <ele>340</ele>
        <time>2022-02-07T18:45:28Z</time>
      </trkpt>
      <trkpt lat="43.87688" lon="2.60687">
        <ele>346</ele>
        <time>2022-02-07T18:45:43Z</time>
      </trkpt>
      <trkpt lat="43.87673" lon="2.60736">
        <ele>352</ele>
        <time>2022-02-07T18:45:50Z</time>
      </trkpt>
      <trkpt lat="43.87663" lon="2.60783">
        <ele>357</ele>
        <time>2022-02-07T18:45:56Z</time>
      </trkpt>
      <trkpt lat="43.87652" lon="2.60808">
        <ele>361</ele>
        <time>2022-02-07T18:46:00Z</time>
      </trkpt>
      <trkpt lat="43.87624" lon="2.60864">
        <ele>369</ele>
        <time>2022-02-07T18:46:09Z</time>
      </trkpt>
      <trkpt lat="43.876" lon="2.60915">
        <ele>374</ele>
        <time>2022-02-07T18:46:16Z</time>
      </trkpt>
      <trkpt lat="43.8756" lon="2.60973">
        <ele>380</ele>
        <time>2022-02-07T18:46:27Z</time>
      </trkpt>
      <trkpt lat="43.87475" lon="2.61113">
        <ele>384</ele>
        <time>2022-02-07T18:46:50Z</time>
      </trkpt>
      <trkpt lat="43.87447" lon="2.61147">
        <ele>385</ele>
        <time>2022-02-07T18:46:57Z</time>
      </trkpt>
      <trkpt lat="43.8738" lon="2.61207">
        <ele>393</ele>
        <time>2022-02-07T18:47:11Z</time>
      </trkpt>
      <trkpt lat="43.87337" lon="2.61251">
        <ele>398</ele>
        <time>2022-02-07T18:47:20Z</time>
      </trkpt>
      <trkpt lat="43.87292" lon="2.6132">
        <ele>399</ele>
        <time>2022-02-07T18:47:32Z</time>
      </trkpt>
      <trkpt lat="43.8727" lon="2.6136">
        <ele>400</ele>
        <time>2022-02-07T18:47:39Z</time>
      </trkpt>
      <trkpt lat="43.8723" lon="2.61448">
        <ele>391</ele>
        <time>2022-02-07T18:47:52Z</time>
      </trkpt>
      <trkpt lat="43.87221" lon="2.61453">
        <ele>391</ele>
        <time>2022-02-07T18:47:54Z</time>
      </trkpt>
      <trkpt lat="43.87211" lon="2.6145">
        <ele>392</ele>
        <time>2022-02-07T18:47:56Z</time>
      </trkpt>
      <trkpt lat="43.87145" lon="2.61397">
        <ele>413</ele>
        <time>2022-02-07T18:48:09Z</time>
      </trkpt>
      <trkpt lat="43.87101" lon="2.61376">
        <ele>418</ele>
        <time>2022-02-07T18:48:18Z</time>
      </trkpt>
      <trkpt lat="43.87059" lon="2.61349">
        <ele>428</ele>
        <time>2022-02-07T18:48:26Z</time>
      </trkpt>
      <trkpt lat="43.8702" lon="2.61342">
        <ele>427</ele>
        <time>2022-02-07T18:48:33Z</time>
      </trkpt>
      <trkpt lat="43.86982" lon="2.6135">
        <ele>425</ele>
        <time>2022-02-07T18:48:40Z</time>
      </trkpt>
      <trkpt lat="43.86941" lon="2.61366">
        <ele>425</ele>
        <time>2022-02-07T18:48:47Z</time>
      </trkpt>
      <trkpt lat="43.86898" lon="2.61392">
        <ele>427</ele>
        <time>2022-02-07T18:48:56Z</time>
      </trkpt>
      <trkpt lat="43.86856" lon="2.61429">
        <ele>430</ele>
        <time>2022-02-07T18:49:04Z</time>
      </trkpt>
      <trkpt lat="43.8681" lon="2.61488">
        <ele>427</ele>
        <time>2022-02-07T18:49:16Z</time>
      </trkpt>
      <trkpt lat="43.86796" lon="2.615">
        <ele>428</ele>
        <time>2022-02-07T18:49:18Z</time>
      </trkpt>
      <trkpt lat="43.86734" lon="2.61527">
        <ele>438</ele>
        <time>2022-02-07T18:49:30Z</time>
      </trkpt>
      <trkpt lat="43.86716" lon="2.61542">
        <ele>440</ele>
        <time>2022-02-07T18:49:34Z</time>
      </trkpt>
      <trkpt lat="43.86701" lon="2.61565">
        <ele>440</ele>
        <time>2022-02-07T18:49:38Z</time>
      </trkpt>
      <trkpt lat="43.86674" lon="2.61636">
        <ele>439</ele>
        <time>2022-02-07T18:49:48Z</time>
      </trkpt>
      <trkpt lat="43.86653" lon="2.6173">
        <ele>436</ele>
        <time>2022-02-07T18:50:01Z</time>
      </trkpt>
      <trkpt lat="43.86643" lon="2.61755">
        <ele>436</ele>
        <time>2022-02-07T18:50:04Z</time>
      </trkpt>
      <trkpt lat="43.86631" lon="2.61771">
        <ele>436</ele>
        <time>2022-02-07T18:50:07Z</time>
      </trkpt>
      <trkpt lat="43.86617" lon="2.61784">
        <ele>436</ele>
        <time>2022-02-07T18:50:10Z</time>
      </trkpt>
      <trkpt lat="43.86536" lon="2.6182">
        <ele>442</ele>
        <time>2022-02-07T18:50:25Z</time>
      </trkpt>
      <trkpt lat="43.86511" lon="2.61825">
        <ele>444</ele>
        <time>2022-02-07T18:50:30Z</time>
      </trkpt>
      <trkpt lat="43.86494" lon="2.61821">
        <ele>445</ele>
        <time>2022-02-07T18:50:33Z</time>
      </trkpt>
      <trkpt lat="43.86472" lon="2.61807">
        <ele>443</ele>
        <time>2022-02-07T18:50:37Z</time>
      </trkpt>
      <trkpt lat="43.86456" lon="2.61786">
        <ele>444</ele>
        <time>2022-02-07T18:50:41Z</time>
      </trkpt>
      <trkpt lat="43.8644" lon="2.61761">
        <ele>445</ele>
        <time>2022-02-07T18:50:45Z</time>
      </trkpt>
      <trkpt lat="43.86422" lon="2.61722">
        <ele>450</ele>
        <time>2022-02-07T18:50:51Z</time>
      </trkpt>
      <trkpt lat="43.86407" lon="2.61692">
        <ele>454</ele>
        <time>2022-02-07T18:50:56Z</time>
      </trkpt>
      <trkpt lat="43.86389" lon="2.61675">
        <ele>456</ele>
        <time>2022-02-07T18:51:00Z</time>
      </trkpt>
      <trkpt lat="43.86372" lon="2.61664">
        <ele>457</ele>
        <time>2022-02-07T18:51:03Z</time>
      </trkpt>
      <trkpt lat="43.86348" lon="2.61655">
        <ele>457</ele>
        <time>2022-02-07T18:51:08Z</time>
      </trkpt>
      <trkpt lat="43.86327" lon="2.61658">
        <ele>456</ele>
        <time>2022-02-07T18:51:12Z</time>
      </trkpt>
      <trkpt lat="43.86269" lon="2.61686">
        <ele>453</ele>
        <time>2022-02-07T18:51:22Z</time>
      </trkpt>
      <trkpt lat="43.86258" lon="2.61688">
        <ele>453</ele>
        <time>2022-02-07T18:51:24Z</time>
      </trkpt>
      <trkpt lat="43.86245" lon="2.61686">
        <ele>454</ele>
        <time>2022-02-07T18:51:27Z</time>
      </trkpt>
      <trkpt lat="43.86229" lon="2.61678">
        <ele>454</ele>
        <time>2022-02-07T18:51:30Z</time>
      </trkpt>
      <trkpt lat="43.86216" lon="2.61665">
        <ele>455</ele>
        <time>2022-02-07T18:51:33Z</time>
      </trkpt>
      <trkpt lat="43.86166" lon="2.61601">
        <ele>459</ele>
        <time>2022-02-07T18:51:45Z</time>
      </trkpt>
      <trkpt lat="43.86121" lon="2.61558">
        <ele>466</ele>
        <time>2022-02-07T18:51:54Z</time>
      </trkpt>
      <trkpt lat="43.86109" lon="2.61555">
        <ele>466</ele>
        <time>2022-02-07T18:51:57Z</time>
      </trkpt>
      <trkpt lat="43.86095" lon="2.61557">
        <ele>465</ele>
        <time>2022-02-07T18:51:59Z</time>
      </trkpt>
      <trkpt lat="43.86037" lon="2.61587">
        <ele>464</ele>
        <time>2022-02-07T18:52:10Z</time>
      </trkpt>
      <trkpt lat="43.86013" lon="2.61612">
        <ele>462</ele>
        <time>2022-02-07T18:52:15Z</time>
      </trkpt>
      <trkpt lat="43.85951" lon="2.61698">
        <ele>453</ele>
        <time>2022-02-07T18:52:31Z</time>
      </trkpt>
      <trkpt lat="43.85941" lon="2.61708">
        <ele>453</ele>
        <time>2022-02-07T18:52:33Z</time>
      </trkpt>
      <trkpt lat="43.85926" lon="2.61715">
        <ele>455</ele>
        <time>2022-02-07T18:52:36Z</time>
      </trkpt>
      <trkpt lat="43.8591" lon="2.6172">
        <ele>456</ele>
        <time>2022-02-07T18:52:39Z</time>
      </trkpt>
      <trkpt lat="43.85883" lon="2.6172">
        <ele>456</ele>
        <time>2022-02-07T18:52:44Z</time>
      </trkpt>
      <trkpt lat="43.85864" lon="2.61715">
        <ele>456</ele>
        <time>2022-02-07T18:52:47Z</time>
      </trkpt>
      <trkpt lat="43.8585" lon="2.61706">
        <ele>456</ele>
        <time>2022-02-07T18:52:50Z</time>
      </trkpt>
      <trkpt lat="43.85836" lon="2.61691">
        <ele>457</ele>
        <time>2022-02-07T18:52:53Z</time>
      </trkpt>
      <trkpt lat="43.85826" lon="2.61673">
        <ele>458</ele>
        <time>2022-02-07T18:52:56Z</time>
      </trkpt>
      <trkpt lat="43.85819" lon="2.61649">
        <ele>458</ele>
        <time>2022-02-07T18:52:59Z</time>
      </trkpt>
      <trkpt lat="43.85815" lon="2.61621">
        <ele>459</ele>
        <time>2022-02-07T18:53:03Z</time>
      </trkpt>
      <trkpt lat="43.85793" lon="2.61347">
        <ele>463</ele>
        <time>2022-02-07T18:53:38Z</time>
      </trkpt>
      <trkpt lat="43.85786" lon="2.61306">
        <ele>463</ele>
        <time>2022-02-07T18:53:44Z</time>
      </trkpt>
      <trkpt lat="43.85788" lon="2.61211">
        <ele>465</ele>
        <time>2022-02-07T18:53:56Z</time>
      </trkpt>
      <trkpt lat="43.85792" lon="2.61133">
        <ele>470</ele>
        <time>2022-02-07T18:54:06Z</time>
      </trkpt>
      <trkpt lat="43.85792" lon="2.61114">
        <ele>472</ele>
        <time>2022-02-07T18:54:08Z</time>
      </trkpt>
      <trkpt lat="43.85788" lon="2.61099">
        <ele>473</ele>
        <time>2022-02-07T18:54:11Z</time>
      </trkpt>
      <trkpt lat="43.85779" lon="2.61086">
        <ele>474</ele>
        <time>2022-02-07T18:54:13Z</time>
      </trkpt>
      <trkpt lat="43.85756" lon="2.61068">
        <ele>475</ele>
        <time>2022-02-07T18:54:18Z</time>
      </trkpt>
      <trkpt lat="43.85727" lon="2.61051">
        <ele>477</ele>
        <time>2022-02-07T18:54:23Z</time>
      </trkpt>
      <trkpt lat="43.85656" lon="2.61005">
        <ele>481</ele>
        <time>2022-02-07T18:54:37Z</time>
      </trkpt>
      <trkpt lat="43.85625" lon="2.61">
        <ele>482</ele>
        <time>2022-02-07T18:54:43Z</time>
      </trkpt>
      <trkpt lat="43.85525" lon="2.61011">
        <ele>477</ele>
        <time>2022-02-07T18:55:00Z</time>
      </trkpt>
      <trkpt lat="43.85511" lon="2.61008">
        <ele>477</ele>
        <time>2022-02-07T18:55:03Z</time>
      </trkpt>
      <trkpt lat="43.85496" lon="2.61003">
        <ele>478</ele>
        <time>2022-02-07T18:55:06Z</time>
      </trkpt>
      <trkpt lat="43.85413" lon="2.60953">
        <ele>480</ele>
        <time>2022-02-07T18:55:22Z</time>
      </trkpt>
      <trkpt lat="43.85386" lon="2.60945">
        <ele>479</ele>
        <time>2022-02-07T18:55:27Z</time>
      </trkpt>
      <trkpt lat="43.85355" lon="2.60946">
        <ele>478</ele>
        <time>2022-02-07T18:55:32Z</time>
      </trkpt>
      <trkpt lat="43.85324" lon="2.60957">
        <ele>477</ele>
        <time>2022-02-07T18:55:38Z</time>
      </trkpt>
      <trkpt lat="43.85295" lon="2.60974">
        <ele>475</ele>
        <time>2022-02-07T18:55:44Z</time>
      </trkpt>
      <trkpt lat="43.85141" lon="2.61095">
        <ele>482</ele>
        <time>2022-02-07T18:56:15Z</time>
      </trkpt>
      <trkpt lat="43.85052" lon="2.61201">
        <ele>487</ele>
        <time>2022-02-07T18:56:36Z</time>
      </trkpt>
      <trkpt lat="43.85017" lon="2.61248">
        <ele>493</ele>
        <time>2022-02-07T18:56:45Z</time>
      </trkpt>
      <trkpt lat="43.84986" lon="2.61304">
        <ele>496</ele>
        <time>2022-02-07T18:56:54Z</time>
      </trkpt>
      <trkpt lat="43.84927" lon="2.61425">
        <ele>502</ele>
        <time>2022-02-07T18:57:12Z</time>
      </trkpt>
      <trkpt lat="43.84912" lon="2.61449">
        <ele>502</ele>
        <time>2022-02-07T18:57:16Z</time>
      </trkpt>
      <trkpt lat="43.84894" lon="2.61467">
        <ele>503</ele>
        <time>2022-02-07T18:57:20Z</time>
      </trkpt>
      <trkpt lat="43.84877" lon="2.61479">
        <ele>504</ele>
        <time>2022-02-07T18:57:24Z</time>
      </trkpt>
      <trkpt lat="43.84859" lon="2.61487">
        <ele>506</ele>
        <time>2022-02-07T18:57:27Z</time>
      </trkpt>
      <trkpt lat="43.84834" lon="2.61503">
        <ele>509</ele>
        <time>2022-02-07T18:57:32Z</time>
      </trkpt>
      <trkpt lat="43.84824" lon="2.61514">
        <ele>509</ele>
        <time>2022-02-07T18:57:34Z</time>
      </trkpt>
      <trkpt lat="43.84815" lon="2.6153">
        <ele>509</ele>
        <time>2022-02-07T18:57:37Z</time>
      </trkpt>
      <trkpt lat="43.84799" lon="2.61575">
        <ele>512</ele>
        <time>2022-02-07T18:57:43Z</time>
      </trkpt>
      <trkpt lat="43.84766" lon="2.61684">
        <ele>520</ele>
        <time>2022-02-07T18:57:59Z</time>
      </trkpt>
      <trkpt lat="43.84753" lon="2.6172">
        <ele>522</ele>
        <time>2022-02-07T18:58:04Z</time>
      </trkpt>
      <trkpt lat="43.84739" lon="2.61752">
        <ele>523</ele>
        <time>2022-02-07T18:58:09Z</time>
      </trkpt>
      <trkpt lat="43.84727" lon="2.61773">
        <ele>523</ele>
        <time>2022-02-07T18:58:12Z</time>
      </trkpt>
      <trkpt lat="43.84713" lon="2.6179">
        <ele>523</ele>
        <time>2022-02-07T18:58:15Z</time>
      </trkpt>
      <trkpt lat="43.847" lon="2.61799">
        <ele>523</ele>
        <time>2022-02-07T18:58:18Z</time>
      </trkpt>
      <trkpt lat="43.84652" lon="2.61801">
        <ele>525</ele>
        <time>2022-02-07T18:58:26Z</time>
      </trkpt>
      <trkpt lat="43.84581" lon="2.61797">
        <ele>528</ele>
        <time>2022-02-07T18:58:39Z</time>
      </trkpt>
      <trkpt lat="43.84549" lon="2.61791">
        <ele>530</ele>
        <time>2022-02-07T18:58:45Z</time>
      </trkpt>
      <trkpt lat="43.84493" lon="2.61774">
        <ele>535</ele>
        <time>2022-02-07T18:58:55Z</time>
      </trkpt>
      <trkpt lat="43.8447" lon="2.61769">
        <ele>538</ele>
        <time>2022-02-07T18:58:59Z</time>
      </trkpt>
      <trkpt lat="43.84437" lon="2.61775">
        <ele>540</ele>
        <time>2022-02-07T18:59:05Z</time>
      </trkpt>
      <trkpt lat="43.84399" lon="2.61784">
        <ele>542</ele>
        <time>2022-02-07T18:59:12Z</time>
      </trkpt>
      <trkpt lat="43.84372" lon="2.61788">
        <ele>543</ele>
        <time>2022-02-07T18:59:17Z</time>
      </trkpt>
      <trkpt lat="43.84286" lon="2.61792">
        <ele>551</ele>
        <time>2022-02-07T18:59:32Z</time>
      </trkpt>
      <trkpt lat="43.84253" lon="2.61802">
        <ele>553</ele>
        <time>2022-02-07T18:59:38Z</time>
      </trkpt>
      <trkpt lat="43.84192" lon="2.61836">
        <ele>553</ele>
        <time>2022-02-07T18:59:50Z</time>
      </trkpt>
      <trkpt lat="43.8417" lon="2.61839">
        <ele>554</ele>
        <time>2022-02-07T18:59:54Z</time>
      </trkpt>
      <trkpt lat="43.84155" lon="2.61835">
        <ele>553</ele>
        <time>2022-02-07T18:59:56Z</time>
      </trkpt>
      <trkpt lat="43.8414" lon="2.61823">
        <ele>553</ele>
        <time>2022-02-07T19:00:00Z</time>
      </trkpt>
      <trkpt lat="43.84128" lon="2.61804">
        <ele>554</ele>
        <time>2022-02-07T19:00:03Z</time>
      </trkpt>
      <trkpt lat="43.84108" lon="2.61723">
        <ele>568</ele>
        <time>2022-02-07T19:00:14Z</time>
      </trkpt>
      <trkpt lat="43.84099" lon="2.617">
        <ele>571</ele>
        <time>2022-02-07T19:00:17Z</time>
      </trkpt>
      <trkpt lat="43.84086" lon="2.6168">
        <ele>574</ele>
        <time>2022-02-07T19:00:21Z</time>
      </trkpt>
      <trkpt lat="43.84069" lon="2.61662">
        <ele>576</ele>
        <time>2022-02-07T19:00:24Z</time>
      </trkpt>
      <trkpt lat="43.83873" lon="2.61522">
        <ele>581</ele>
        <time>2022-02-07T19:01:04Z</time>
      </trkpt>
      <trkpt lat="43.83846" lon="2.61512">
        <ele>581</ele>
        <time>2022-02-07T19:01:09Z</time>
      </trkpt>
      <trkpt lat="43.83812" lon="2.61515">
        <ele>581</ele>
        <time>2022-02-07T19:01:15Z</time>
      </trkpt>
      <trkpt lat="43.83753" lon="2.6153">
        <ele>582</ele>
        <time>2022-02-07T19:01:25Z</time>
      </trkpt>
      <trkpt lat="43.83691" lon="2.61538">
        <ele>589</ele>
        <time>2022-02-07T19:01:36Z</time>
      </trkpt>
      <trkpt lat="43.83674" lon="2.61546">
        <ele>590</ele>
        <time>2022-02-07T19:01:40Z</time>
      </trkpt>
      <trkpt lat="43.83659" lon="2.61559">
        <ele>590</ele>
        <time>2022-02-07T19:01:43Z</time>
      </trkpt>
      <trkpt lat="43.83633" lon="2.61593">
        <ele>592</ele>
        <time>2022-02-07T19:01:49Z</time>
      </trkpt>
      <trkpt lat="43.83589" lon="2.61676">
        <ele>593</ele>
        <time>2022-02-07T19:02:02Z</time>
      </trkpt>
      <trkpt lat="43.83553" lon="2.61754">
        <ele>596</ele>
        <time>2022-02-07T19:02:14Z</time>
      </trkpt>
      <trkpt lat="43.83529" lon="2.61837">
        <ele>599</ele>
        <time>2022-02-07T19:02:26Z</time>
      </trkpt>
      <trkpt lat="43.83512" lon="2.61911">
        <ele>599</ele>
        <time>2022-02-07T19:02:36Z</time>
      </trkpt>
      <trkpt lat="43.83501" lon="2.61934">
        <ele>600</ele>
        <time>2022-02-07T19:02:39Z</time>
      </trkpt>
      <trkpt lat="43.83488" lon="2.61954">
        <ele>600</ele>
        <time>2022-02-07T19:02:43Z</time>
      </trkpt>
      <trkpt lat="43.83469" lon="2.61973">
        <ele>601</ele>
        <time>2022-02-07T19:02:47Z</time>
      </trkpt>
      <trkpt lat="43.83448" lon="2.61988">
        <ele>602</ele>
        <time>2022-02-07T19:02:51Z</time>
      </trkpt>
      <trkpt lat="43.83426" lon="2.61994">
        <ele>604</ele>
        <time>2022-02-07T19:02:55Z</time>
      </trkpt>
      <trkpt lat="43.83413" lon="2.61992">
        <ele>604</ele>
        <time>2022-02-07T19:02:57Z</time>
      </trkpt>
      <trkpt lat="43.83398" lon="2.61982">
        <ele>604</ele>
        <time>2022-02-07T19:03:00Z</time>
      </trkpt>
      <trkpt lat="43.83386" lon="2.61969">
        <ele>604</ele>
        <time>2022-02-07T19:03:03Z</time>
      </trkpt>
      <trkpt lat="43.83376" lon="2.61951">
        <ele>604</ele>
        <time>2022-02-07T19:03:06Z</time>
      </trkpt>
      <trkpt lat="43.83369" lon="2.61933">
        <ele>605</ele>
        <time>2022-02-07T19:03:09Z</time>
      </trkpt>
      <trkpt lat="43.83365" lon="2.61905">
        <ele>608</ele>
        <time>2022-02-07T19:03:12Z</time>
      </trkpt>
      <trkpt lat="43.83366" lon="2.61836">
        <ele>614</ele>
        <time>2022-02-07T19:03:21Z</time>
      </trkpt>
      <trkpt lat="43.83365" lon="2.61813">
        <ele>617</ele>
        <time>2022-02-07T19:03:24Z</time>
      </trkpt>
      <trkpt lat="43.8336" lon="2.61783">
        <ele>620</ele>
        <time>2022-02-07T19:03:28Z</time>
      </trkpt>
      <trkpt lat="43.83351" lon="2.61759">
        <ele>623</ele>
        <time>2022-02-07T19:03:31Z</time>
      </trkpt>
      <trkpt lat="43.83339" lon="2.61739">
        <ele>625</ele>
        <time>2022-02-07T19:03:35Z</time>
      </trkpt>
      <trkpt lat="43.83321" lon="2.61722">
        <ele>628</ele>
        <time>2022-02-07T19:03:39Z</time>
      </trkpt>
      <trkpt lat="43.833" lon="2.61713">
        <ele>629</ele>
        <time>2022-02-07T19:03:43Z</time>
      </trkpt>
      <trkpt lat="43.83279" lon="2.61714">
        <ele>629</ele>
        <time>2022-02-07T19:03:46Z</time>
      </trkpt>
      <trkpt lat="43.83254" lon="2.61728">
        <ele>626</ele>
        <time>2022-02-07T19:03:51Z</time>
      </trkpt>
      <trkpt lat="43.8324" lon="2.61733">
        <ele>625</ele>
        <time>2022-02-07T19:03:54Z</time>
      </trkpt>
      <trkpt lat="43.83225" lon="2.61732">
        <ele>624</ele>
        <time>2022-02-07T19:03:56Z</time>
      </trkpt>
      <trkpt lat="43.83213" lon="2.61729">
        <ele>624</ele>
        <time>2022-02-07T19:03:59Z</time>
      </trkpt>
      <trkpt lat="43.83201" lon="2.61718">
        <ele>625</ele>
        <time>2022-02-07T19:04:01Z</time>
      </trkpt>
      <trkpt lat="43.8319" lon="2.61703">
        <ele>627</ele>
        <time>2022-02-07T19:04:04Z</time>
      </trkpt>
      <trkpt lat="43.831" lon="2.61518">
        <ele>642</ele>
        <time>2022-02-07T19:04:32Z</time>
      </trkpt>
      <trkpt lat="43.83082" lon="2.61485">
        <ele>647</ele>
        <time>2022-02-07T19:04:38Z</time>
      </trkpt>
      <trkpt lat="43.83057" lon="2.61453">
        <ele>656</ele>
        <time>2022-02-07T19:04:44Z</time>
      </trkpt>
      <trkpt lat="43.83036" lon="2.61436">
        <ele>661</ele>
        <time>2022-02-07T19:04:48Z</time>
      </trkpt>
      <trkpt lat="43.83015" lon="2.6143">
        <ele>663</ele>
        <time>2022-02-07T19:04:52Z</time>
      </trkpt>
      <trkpt lat="43.82997" lon="2.61432">
        <ele>662</ele>
        <time>2022-02-07T19:04:55Z</time>
      </trkpt>
      <trkpt lat="43.82982" lon="2.61443">
        <ele>662</ele>
        <time>2022-02-07T19:04:58Z</time>
      </trkpt>
      <trkpt lat="43.82972" lon="2.61457">
        <ele>660</ele>
        <time>2022-02-07T19:05:01Z</time>
      </trkpt>
      <trkpt lat="43.82939" lon="2.61537">
        <ele>649</ele>
        <time>2022-02-07T19:05:13Z</time>
      </trkpt>
      <trkpt lat="43.8293" lon="2.6155">
        <ele>649</ele>
        <time>2022-02-07T19:05:15Z</time>
      </trkpt>
      <trkpt lat="43.82924" lon="2.61556">
        <ele>649</ele>
        <time>2022-02-07T19:05:16Z</time>
      </trkpt>
      <trkpt lat="43.82918" lon="2.6156">
        <ele>650</ele>
        <time>2022-02-07T19:05:17Z</time>
      </trkpt>
      <trkpt lat="43.82902" lon="2.61564">
        <ele>648</ele>
        <time>2022-02-07T19:05:20Z</time>
      </trkpt>
      <trkpt lat="43.82886" lon="2.61559">
        <ele>647</ele>
        <time>2022-02-07T19:05:23Z</time>
      </trkpt>
      <trkpt lat="43.82877" lon="2.61551">
        <ele>647</ele>
        <time>2022-02-07T19:05:25Z</time>
      </trkpt>
      <trkpt lat="43.82871" lon="2.61541">
        <ele>647</ele>
        <time>2022-02-07T19:05:27Z</time>
      </trkpt>
      <trkpt lat="43.82866" lon="2.61529">
        <ele>648</ele>
        <time>2022-02-07T19:05:29Z</time>
      </trkpt>
      <trkpt lat="43.82839" lon="2.61425">
        <ele>656</ele>
        <time>2022-02-07T19:05:43Z</time>
      </trkpt>
      <trkpt lat="43.82812" lon="2.6133">
        <ele>664</ele>
        <time>2022-02-07T19:05:56Z</time>
      </trkpt>
      <trkpt lat="43.82805" lon="2.61297">
        <ele>668</ele>
        <time>2022-02-07T19:06:00Z</time>
      </trkpt>
      <trkpt lat="43.82797" lon="2.61276">
        <ele>670</ele>
        <time>2022-02-07T19:06:03Z</time>
      </trkpt>
      <trkpt lat="43.82788" lon="2.61258">
        <ele>671</ele>
        <time>2022-02-07T19:06:06Z</time>
      </trkpt>
      <trkpt lat="43.82709" lon="2.61174">
        <ele>673</ele>
        <time>2022-02-07T19:06:24Z</time>
      </trkpt>
      <trkpt lat="43.82656" lon="2.61127">
        <ele>671</ele>
        <time>2022-02-07T19:06:35Z</time>
      </trkpt>
      <trkpt lat="43.82642" lon="2.61112">
        <ele>670</ele>
        <time>2022-02-07T19:06:38Z</time>
      </trkpt>
      <trkpt lat="43.82635" lon="2.61098">
        <ele>672</ele>
        <time>2022-02-07T19:06:40Z</time>
      </trkpt>
      <trkpt lat="43.82612" lon="2.61012">
        <ele>682</ele>
        <time>2022-02-07T19:06:52Z</time>
      </trkpt>
      <trkpt lat="43.82594" lon="2.6097">
        <ele>685</ele>
        <time>2022-02-07T19:06:58Z</time>
      </trkpt>
      <trkpt lat="43.82577" lon="2.6094">
        <ele>687</ele>
        <time>2022-02-07T19:07:03Z</time>
      </trkpt>
      <trkpt lat="43.82544" lon="2.60904">
        <ele>683</ele>
        <time>2022-02-07T19:07:11Z</time>
      </trkpt>
      <trkpt lat="43.82524" lon="2.60887">
        <ele>680</ele>
        <time>2022-02-07T19:07:15Z</time>
      </trkpt>
      <trkpt lat="43.82502" lon="2.60852">
        <ele>681</ele>
        <time>2022-02-07T19:07:21Z</time>
      </trkpt>
      <trkpt lat="43.82439" lon="2.60677">
        <ele>688</ele>
        <time>2022-02-07T19:07:46Z</time>
      </trkpt>
      <trkpt lat="43.82416" lon="2.60633">
        <ele>689</ele>
        <time>2022-02-07T19:07:53Z</time>
      </trkpt>
      <trkpt lat="43.82298" lon="2.60382">
        <ele>698</ele>
        <time>2022-02-07T19:08:31Z</time>
      </trkpt>
      <trkpt lat="43.82281" lon="2.60356">
        <ele>698</ele>
        <time>2022-02-07T19:08:36Z</time>
      </trkpt>
      <trkpt lat="43.82263" lon="2.60339">
        <ele>699</ele>
        <time>2022-02-07T19:08:40Z</time>
      </trkpt>
      <trkpt lat="43.82245" lon="2.60326">
        <ele>699</ele>
        <time>2022-02-07T19:08:43Z</time>
      </trkpt>
      <trkpt lat="43.82222" lon="2.60318">
        <ele>700</ele>
        <time>2022-02-07T19:08:48Z</time>
      </trkpt>
      <trkpt lat="43.82199" lon="2.60319">
        <ele>700</ele>
        <time>2022-02-07T19:08:52Z</time>
      </trkpt>
      <trkpt lat="43.82171" lon="2.60324">
        <ele>700</ele>
        <time>2022-02-07T19:08:57Z</time>
      </trkpt>
      <trkpt lat="43.82149" lon="2.60322">
        <ele>700</ele>
        <time>2022-02-07T19:09:01Z</time>
      </trkpt>
      <trkpt lat="43.82132" lon="2.60315">
        <ele>701</ele>
        <time>2022-02-07T19:09:04Z</time>
      </trkpt>
      <trkpt lat="43.82085" lon="2.60272">
        <ele>708</ele>
        <time>2022-02-07T19:09:14Z</time>
      </trkpt>
      <trkpt lat="43.82066" lon="2.60262">
        <ele>711</ele>
        <time>2022-02-07T19:09:17Z</time>
      </trkpt>
      <trkpt lat="43.82047" lon="2.60257">
        <ele>713</ele>
        <time>2022-02-07T19:09:21Z</time>
      </trkpt>
      <trkpt lat="43.82022" lon="2.60255">
        <ele>716</ele>
        <time>2022-02-07T19:09:25Z</time>
      </trkpt>
      <trkpt lat="43.82" lon="2.60262">
        <ele>716</ele>
        <time>2022-02-07T19:09:29Z</time>
      </trkpt>
      <trkpt lat="43.81977" lon="2.60276">
        <ele>718</ele>
        <time>2022-02-07T19:09:34Z</time>
      </trkpt>
      <trkpt lat="43.81889" lon="2.60361">
        <ele>724</ele>
        <time>2022-02-07T19:09:53Z</time>
      </trkpt>
      <trkpt lat="43.81874" lon="2.60379">
        <ele>725</ele>
        <time>2022-02-07T19:09:56Z</time>
      </trkpt>
      <trkpt lat="43.81862" lon="2.604">
        <ele>726</ele>
        <time>2022-02-07T19:10:00Z</time>
      </trkpt>
      <trkpt lat="43.81847" lon="2.6044">
        <ele>725</ele>
        <time>2022-02-07T19:10:06Z</time>
      </trkpt>
      <trkpt lat="43.81831" lon="2.6049">
        <ele>724</ele>
        <time>2022-02-07T19:10:13Z</time>
      </trkpt>
      <trkpt lat="43.81805" lon="2.60552">
        <ele>722</ele>
        <time>2022-02-07T19:10:22Z</time>
      </trkpt>
      <trkpt lat="43.81793" lon="2.60574">
        <ele>721</ele>
        <time>2022-02-07T19:10:25Z</time>
      </trkpt>
      <trkpt lat="43.8178" lon="2.60593">
        <ele>720</ele>
        <time>2022-02-07T19:10:29Z</time>
      </trkpt>
      <trkpt lat="43.81766" lon="2.60603">
        <ele>721</ele>
        <time>2022-02-07T19:10:32Z</time>
      </trkpt>
      <trkpt lat="43.81756" lon="2.60607">
        <ele>722</ele>
        <time>2022-02-07T19:10:33Z</time>
      </trkpt>
      <trkpt lat="43.81744" lon="2.60607">
        <ele>722</ele>
        <time>2022-02-07T19:10:36Z</time>
      </trkpt>
      <trkpt lat="43.81734" lon="2.60604">
        <ele>722</ele>
        <time>2022-02-07T19:10:37Z</time>
      </trkpt>
      <trkpt lat="43.81727" lon="2.60598">
        <ele>723</ele>
        <time>2022-02-07T19:10:39Z</time>
      </trkpt>
      <trkpt lat="43.81601" lon="2.60483">
        <ele>741</ele>
        <time>2022-02-07T19:11:06Z</time>
      </trkpt>
      <trkpt lat="43.81582" lon="2.60473">
        <ele>740</ele>
        <time>2022-02-07T19:11:09Z</time>
      </trkpt>
      <trkpt lat="43.81559" lon="2.6047">
        <ele>742</ele>
        <time>2022-02-07T19:11:13Z</time>
      </trkpt>
      <trkpt lat="43.81418" lon="2.60478">
        <ele>743</ele>
        <time>2022-02-07T19:11:39Z</time>
      </trkpt>
      <trkpt lat="43.81371" lon="2.60476">
        <ele>747</ele>
        <time>2022-02-07T19:11:47Z</time>
      </trkpt>
      <trkpt lat="43.81312" lon="2.60484">
        <ele>753</ele>
        <time>2022-02-07T19:11:57Z</time>
      </trkpt>
      <trkpt lat="43.81296" lon="2.60493">
        <ele>754</ele>
        <time>2022-02-07T19:12:01Z</time>
      </trkpt>
      <trkpt lat="43.81286" lon="2.60505">
        <ele>754</ele>
        <time>2022-02-07T19:12:03Z</time>
      </trkpt>
      <trkpt lat="43.81275" lon="2.60531">
        <ele>753</ele>
        <time>2022-02-07T19:12:07Z</time>
      </trkpt>
      <trkpt lat="43.81271" lon="2.60565">
        <ele>750</ele>
        <time>2022-02-07T19:12:11Z</time>
      </trkpt>
      <trkpt lat="43.81264" lon="2.60594">
        <ele>748</ele>
        <time>2022-02-07T19:12:15Z</time>
      </trkpt>
      <trkpt lat="43.81252" lon="2.60624">
        <ele>747</ele>
        <time>2022-02-07T19:12:20Z</time>
      </trkpt>
      <trkpt lat="43.81222" lon="2.60666">
        <ele>751</ele>
        <time>2022-02-07T19:12:27Z</time>
      </trkpt>
      <trkpt lat="43.81182" lon="2.60694">
        <ele>760</ele>
        <time>2022-02-07T19:12:35Z</time>
      </trkpt>
      <trkpt lat="43.81169" lon="2.60706">
        <ele>762</ele>
        <time>2022-02-07T19:12:38Z</time>
      </trkpt>
      <trkpt lat="43.81161" lon="2.60722">
        <ele>761</ele>
        <time>2022-02-07T19:12:40Z</time>
      </trkpt>
      <trkpt lat="43.81143" lon="2.60785">
        <ele>756</ele>
        <time>2022-02-07T19:12:49Z</time>
      </trkpt>
      <trkpt lat="43.81061" lon="2.60979">
        <ele>764</ele>
        <time>2022-02-07T19:13:18Z</time>
      </trkpt>
      <trkpt lat="43.81052" lon="2.61008">
        <ele>764</ele>
        <time>2022-02-07T19:13:22Z</time>
      </trkpt>
      <trkpt lat="43.81035" lon="2.611">
        <ele>759</ele>
        <time>2022-02-07T19:13:34Z</time>
      </trkpt>
      <trkpt lat="43.8103" lon="2.61116">
        <ele>759</ele>
        <time>2022-02-07T19:13:36Z</time>
      </trkpt>
      <trkpt lat="43.81024" lon="2.61134">
        <ele>758</ele>
        <time>2022-02-07T19:13:39Z</time>
      </trkpt>
      <trkpt lat="43.81015" lon="2.6115">
        <ele>759</ele>
        <time>2022-02-07T19:13:42Z</time>
      </trkpt>
      <trkpt lat="43.81006" lon="2.61159">
        <ele>760</ele>
        <time>2022-02-07T19:13:44Z</time>
      </trkpt>
      <trkpt lat="43.80995" lon="2.61163">
        <ele>759</ele>
        <time>2022-02-07T19:13:46Z</time>
      </trkpt>
      <trkpt lat="43.80984" lon="2.61161">
        <ele>758</ele>
        <time>2022-02-07T19:13:48Z</time>
      </trkpt>
      <trkpt lat="43.80973" lon="2.61152">
        <ele>757</ele>
        <time>2022-02-07T19:13:50Z</time>
      </trkpt>
      <trkpt lat="43.80958" lon="2.61133">
        <ele>758</ele>
        <time>2022-02-07T19:13:53Z</time>
      </trkpt>
      <trkpt lat="43.80941" lon="2.61108">
        <ele>762</ele>
        <time>2022-02-07T19:13:58Z</time>
      </trkpt>
      <trkpt lat="43.80919" lon="2.61082">
        <ele>767</ele>
        <time>2022-02-07T19:14:03Z</time>
      </trkpt>
      <trkpt lat="43.80884" lon="2.61054">
        <ele>766</ele>
        <time>2022-02-07T19:14:10Z</time>
      </trkpt>
      <trkpt lat="43.80856" lon="2.61029">
        <ele>766</ele>
        <time>2022-02-07T19:14:16Z</time>
      </trkpt>
      <trkpt lat="43.80855" lon="2.61027">
        <ele>770.3</ele>
        <extensions>
          <visugpx:TrkExtension xmlns:visugpx="https://www.visugpx.com/editgpx/">
            <visugpx:node>22</visugpx:node>
            </visugpx:TrkExtension>
        </extensions>
      </trkpt>
      <trkpt lat="43.80855" lon="2.61027">
        <ele>770.2</ele>
      </trkpt>
      <trkpt lat="43.80834" lon="2.61">
        <ele>771.1</ele>
      </trkpt>
      <trkpt lat="43.80812" lon="2.60964">
        <ele>771.2</ele>
      </trkpt>
      <trkpt lat="43.80804" lon="2.60944">
        <ele>771.8</ele>
      </trkpt>
      <trkpt lat="43.808" lon="2.60918">
        <ele>772</ele>
      </trkpt>
      <trkpt lat="43.808" lon="2.60917">
        <ele>772</ele>
        <extensions>
          <visugpx:TrkExtension xmlns:visugpx="https://www.visugpx.com/editgpx/">
            <visugpx:node>26</visugpx:node>
            </visugpx:TrkExtension>
        </extensions>
      </trkpt>
      <trkpt lat="43.80796" lon="2.60875">
        <ele>770.8</ele>
      </trkpt>
      <trkpt lat="43.80748" lon="2.6088">
        <ele>772.1</ele>
      </trkpt>
      <trkpt lat="43.80718" lon="2.60885">
        <ele>773.5</ele>
      </trkpt>
      <trkpt lat="43.80698" lon="2.60894">
        <ele>775</ele>
      </trkpt>
      <trkpt lat="43.80682" lon="2.60906">
        <ele>775.8</ele>
      </trkpt>
      <trkpt lat="43.80676" lon="2.60912">
        <ele>776</ele>
      </trkpt>
      <trkpt lat="43.80676" lon="2.60912">
        <ele>776.1</ele>
        <extensions>
          <visugpx:TrkExtension xmlns:visugpx="https://www.visugpx.com/editgpx/">
            <visugpx:node>23</visugpx:node>
            </visugpx:TrkExtension>
        </extensions>
      </trkpt>
      <trkpt lat="43.80648" lon="2.6094">
        <ele>783</ele>
        <time>2022-02-07T19:15:24Z</time>
      </trkpt>
      <trkpt lat="43.80631" lon="2.6095">
        <ele>784</ele>
        <time>2022-02-07T19:15:28Z</time>
      </trkpt>
      <trkpt lat="43.80614" lon="2.60956">
        <ele>785</ele>
        <time>2022-02-07T19:15:31Z</time>
      </trkpt>
      <trkpt lat="43.80592" lon="2.60957">
        <ele>787</ele>
        <time>2022-02-07T19:15:35Z</time>
      </trkpt>
      <trkpt lat="43.80565" lon="2.60954">
        <ele>791</ele>
        <time>2022-02-07T19:15:39Z</time>
      </trkpt>
      <trkpt lat="43.80551" lon="2.60957">
        <ele>792</ele>
        <time>2022-02-07T19:15:42Z</time>
      </trkpt>
      <trkpt lat="43.80537" lon="2.60962">
        <ele>793</ele>
        <time>2022-02-07T19:15:45Z</time>
      </trkpt>
      <trkpt lat="43.80526" lon="2.60973">
        <ele>792</ele>
        <time>2022-02-07T19:15:47Z</time>
      </trkpt>
      <trkpt lat="43.80459" lon="2.61055">
        <ele>787</ele>
        <time>2022-02-07T19:16:03Z</time>
      </trkpt>
      <trkpt lat="43.80436" lon="2.61074">
        <ele>789</ele>
        <time>2022-02-07T19:16:08Z</time>
      </trkpt>
      <trkpt lat="43.80414" lon="2.61086">
        <ele>792</ele>
        <time>2022-02-07T19:16:12Z</time>
      </trkpt>
      <trkpt lat="43.80387" lon="2.61093">
        <ele>791</ele>
        <time>2022-02-07T19:16:17Z</time>
      </trkpt>
      <trkpt lat="43.80369" lon="2.61102">
        <ele>791</ele>
        <time>2022-02-07T19:16:20Z</time>
      </trkpt>
      <trkpt lat="43.80348" lon="2.61122">
        <ele>792</ele>
        <time>2022-02-07T19:16:25Z</time>
      </trkpt>
      <trkpt lat="43.80292" lon="2.61192">
        <ele>795</ele>
        <time>2022-02-07T19:16:38Z</time>
      </trkpt>
      <trkpt lat="43.80271" lon="2.61211">
        <ele>795</ele>
        <time>2022-02-07T19:16:43Z</time>
      </trkpt>
      <trkpt lat="43.80248" lon="2.61223">
        <ele>796</ele>
        <time>2022-02-07T19:16:47Z</time>
      </trkpt>
      <trkpt lat="43.80229" lon="2.61228">
        <ele>799</ele>
        <time>2022-02-07T19:16:50Z</time>
      </trkpt>
      <trkpt lat="43.80209" lon="2.61228">
        <ele>802</ele>
        <time>2022-02-07T19:16:54Z</time>
      </trkpt>
      <trkpt lat="43.80191" lon="2.61224">
        <ele>803</ele>
        <time>2022-02-07T19:16:57Z</time>
      </trkpt>
      <trkpt lat="43.80174" lon="2.61216">
        <ele>804</ele>
        <time>2022-02-07T19:17:00Z</time>
      </trkpt>
      <trkpt lat="43.80113" lon="2.61162">
        <ele>808</ele>
        <time>2022-02-07T19:17:13Z</time>
      </trkpt>
      <trkpt lat="43.80084" lon="2.61134">
        <ele>810</ele>
        <time>2022-02-07T19:17:20Z</time>
      </trkpt>
      <trkpt lat="43.80059" lon="2.61096">
        <ele>810</ele>
        <time>2022-02-07T19:17:26Z</time>
      </trkpt>
      <trkpt lat="43.80019" lon="2.61022">
        <ele>810</ele>
        <time>2022-02-07T19:17:38Z</time>
      </trkpt>
      <trkpt lat="43.79995" lon="2.60985">
        <ele>810</ele>
        <time>2022-02-07T19:17:44Z</time>
      </trkpt>
      <trkpt lat="43.79969" lon="2.60967">
        <ele>810</ele>
        <time>2022-02-07T19:17:50Z</time>
      </trkpt>
      <trkpt lat="43.79942" lon="2.6096">
        <ele>811</ele>
        <time>2022-02-07T19:17:54Z</time>
      </trkpt>
      <trkpt lat="43.79913" lon="2.60961">
        <ele>813</ele>
        <time>2022-02-07T19:18:00Z</time>
      </trkpt>
      <trkpt lat="43.79888" lon="2.6097">
        <ele>812</ele>
        <time>2022-02-07T19:18:04Z</time>
      </trkpt>
      <trkpt lat="43.79865" lon="2.60991">
        <ele>813</ele>
        <time>2022-02-07T19:18:09Z</time>
      </trkpt>
      <trkpt lat="43.79848" lon="2.61021">
        <ele>815</ele>
        <time>2022-02-07T19:18:14Z</time>
      </trkpt>
      <trkpt lat="43.79832" lon="2.61074">
        <ele>819</ele>
        <time>2022-02-07T19:18:21Z</time>
      </trkpt>
      <trkpt lat="43.79817" lon="2.61133">
        <ele>818</ele>
        <time>2022-02-07T19:18:29Z</time>
      </trkpt>
      <trkpt lat="43.79809" lon="2.61232">
        <ele>822</ele>
        <time>2022-02-07T19:18:42Z</time>
      </trkpt>
      <trkpt lat="43.79799" lon="2.6132">
        <ele>826</ele>
        <time>2022-02-07T19:18:54Z</time>
      </trkpt>
      <trkpt lat="43.79797" lon="2.61377">
        <ele>830</ele>
        <time>2022-02-07T19:19:01Z</time>
      </trkpt>
      <trkpt lat="43.79794" lon="2.6142">
        <ele>832</ele>
        <time>2022-02-07T19:19:07Z</time>
      </trkpt>
      <trkpt lat="43.79788" lon="2.61452">
        <ele>833</ele>
        <time>2022-02-07T19:19:11Z</time>
      </trkpt>
      <trkpt lat="43.79773" lon="2.61494">
        <ele>833</ele>
        <time>2022-02-07T19:19:17Z</time>
      </trkpt>
      <trkpt lat="43.79752" lon="2.61537">
        <ele>834</ele>
        <time>2022-02-07T19:19:23Z</time>
      </trkpt>
      <trkpt lat="43.79708" lon="2.61617">
        <ele>836</ele>
        <time>2022-02-07T19:19:36Z</time>
      </trkpt>
      <trkpt lat="43.79661" lon="2.61695">
        <ele>840</ele>
        <time>2022-02-07T19:19:49Z</time>
      </trkpt>
      <trkpt lat="43.79554" lon="2.61834">
        <ele>844</ele>
        <time>2022-02-07T19:20:16Z</time>
      </trkpt>
      <trkpt lat="43.79411" lon="2.61994">
        <ele>852</ele>
        <time>2022-02-07T19:20:48Z</time>
      </trkpt>
      <trkpt lat="43.79362" lon="2.62044">
        <ele>853</ele>
        <time>2022-02-07T19:20:59Z</time>
      </trkpt>
      <trkpt lat="43.79311" lon="2.6211">
        <ele>856</ele>
        <time>2022-02-07T19:21:12Z</time>
      </trkpt>
      <trkpt lat="43.79253" lon="2.62189">
        <ele>858</ele>
        <time>2022-02-07T19:21:26Z</time>
      </trkpt>
      <trkpt lat="43.79211" lon="2.62257">
        <ele>860</ele>
        <time>2022-02-07T19:21:37Z</time>
      </trkpt>
      <trkpt lat="43.79194" lon="2.6229">
        <ele>862</ele>
        <time>2022-02-07T19:21:43Z</time>
      </trkpt>
      <trkpt lat="43.79164" lon="2.62336">
        <ele>863</ele>
        <time>2022-02-07T19:21:51Z</time>
      </trkpt>
      <trkpt lat="43.79137" lon="2.62373">
        <ele>865</ele>
        <time>2022-02-07T19:21:57Z</time>
      </trkpt>
      <trkpt lat="43.79112" lon="2.62402">
        <ele>866</ele>
        <time>2022-02-07T19:22:03Z</time>
      </trkpt>
      <trkpt lat="43.78928" lon="2.62578">
        <ele>876</ele>
        <time>2022-02-07T19:22:43Z</time>
      </trkpt>
      <trkpt lat="43.78892" lon="2.62624">
        <ele>878</ele>
        <time>2022-02-07T19:22:52Z</time>
      </trkpt>
      <trkpt lat="43.78857" lon="2.62661">
        <ele>878</ele>
        <time>2022-02-07T19:23:00Z</time>
      </trkpt>
      <trkpt lat="43.78823" lon="2.62689">
        <ele>879</ele>
        <time>2022-02-07T19:23:07Z</time>
      </trkpt>
      <trkpt lat="43.78798" lon="2.62706">
        <ele>880</ele>
        <time>2022-02-07T19:23:12Z</time>
      </trkpt>
      <trkpt lat="43.78777" lon="2.62716">
        <ele>880</ele>
        <time>2022-02-07T19:23:15Z</time>
      </trkpt>
      <trkpt lat="43.78773" lon="2.62706">
        <ele>880</ele>
        <time>2022-02-07T19:23:17Z</time>
      </trkpt>
      <trkpt lat="43.78777" lon="2.62716">
        <ele>880</ele>
        <time>2022-02-07T19:23:18Z</time>
      </trkpt>
      <trkpt lat="43.78777" lon="2.62638">
        <ele>879</ele>
        <time>2022-02-07T19:23:28Z</time>
      </trkpt>
      <trkpt lat="43.78787" lon="2.62419">
        <ele>878</ele>
        <time>2022-02-07T19:23:57Z</time>
      </trkpt>
      <trkpt lat="43.78789" lon="2.6231">
        <ele>877</ele>
        <time>2022-02-07T19:24:11Z</time>
      </trkpt>
      <trkpt lat="43.78788" lon="2.62164">
        <ele>875</ele>
        <time>2022-02-07T19:24:29Z</time>
      </trkpt>
      <trkpt lat="43.7879" lon="2.62055">
        <ele>872</ele>
        <time>2022-02-07T19:24:43Z</time>
      </trkpt>
      <trkpt lat="43.78788" lon="2.62018">
        <ele>871</ele>
        <time>2022-02-07T19:24:48Z</time>
      </trkpt>
      <trkpt lat="43.78782" lon="2.61988">
        <ele>871</ele>
        <time>2022-02-07T19:24:52Z</time>
      </trkpt>
      <trkpt lat="43.78768" lon="2.61963">
        <ele>872</ele>
        <time>2022-02-07T19:24:56Z</time>
      </trkpt>
      <trkpt lat="43.7875" lon="2.61946">
        <ele>872</ele>
        <time>2022-02-07T19:25:00Z</time>
      </trkpt>
      <trkpt lat="43.78727" lon="2.61939">
        <ele>871</ele>
        <time>2022-02-07T19:25:04Z</time>
      </trkpt>
      <trkpt lat="43.78702" lon="2.61942">
        <ele>871</ele>
        <time>2022-02-07T19:25:09Z</time>
      </trkpt>
      <trkpt lat="43.78574" lon="2.61992">
        <ele>875</ele>
        <time>2022-02-07T19:25:32Z</time>
      </trkpt>
      <trkpt lat="43.78522" lon="2.62001">
        <ele>876</ele>
        <time>2022-02-07T19:25:42Z</time>
      </trkpt>
      <trkpt lat="43.78477" lon="2.61994">
        <ele>876</ele>
        <time>2022-02-07T19:25:50Z</time>
      </trkpt>
      <trkpt lat="43.78443" lon="2.6198">
        <ele>876</ele>
        <time>2022-02-07T19:25:56Z</time>
      </trkpt>
      <trkpt lat="43.78416" lon="2.61936">
        <ele>877</ele>
        <time>2022-02-07T19:26:04Z</time>
      </trkpt>
      <trkpt lat="43.78404" lon="2.61883">
        <ele>879</ele>
        <time>2022-02-07T19:26:11Z</time>
      </trkpt>
      <trkpt lat="43.78406" lon="2.61832">
        <ele>878</ele>
        <time>2022-02-07T19:26:17Z</time>
      </trkpt>
      <trkpt lat="43.78441" lon="2.61669">
        <ele>873</ele>
        <time>2022-02-07T19:26:39Z</time>
      </trkpt>
      <trkpt lat="43.78459" lon="2.61598">
        <ele>871</ele>
        <time>2022-02-07T19:26:49Z</time>
      </trkpt>
      <trkpt lat="43.78459" lon="2.6157">
        <ele>871</ele>
        <time>2022-02-07T19:26:52Z</time>
      </trkpt>
      <trkpt lat="43.78454" lon="2.61544">
        <ele>870</ele>
        <time>2022-02-07T19:26:56Z</time>
      </trkpt>
      <trkpt lat="43.78441" lon="2.61513">
        <ele>869</ele>
        <time>2022-02-07T19:27:00Z</time>
      </trkpt>
      <trkpt lat="43.78416" lon="2.61465">
        <ele>868</ele>
        <time>2022-02-07T19:27:08Z</time>
      </trkpt>
      <trkpt lat="43.78385" lon="2.61412">
        <ele>867</ele>
        <time>2022-02-07T19:27:17Z</time>
      </trkpt>
      <trkpt lat="43.78288" lon="2.61311">
        <ele>869</ele>
        <time>2022-02-07T19:27:38Z</time>
      </trkpt>
      <trkpt lat="43.78264" lon="2.61272">
        <ele>871</ele>
        <time>2022-02-07T19:27:45Z</time>
      </trkpt>
      <trkpt lat="43.78258" lon="2.61255">
        <ele>871</ele>
        <time>2022-02-07T19:27:47Z</time>
      </trkpt>
      <trkpt lat="43.78253" lon="2.61237">
        <ele>872</ele>
        <time>2022-02-07T19:27:50Z</time>
      </trkpt>
      <trkpt lat="43.78251" lon="2.61216">
        <ele>872</ele>
        <time>2022-02-07T19:27:53Z</time>
      </trkpt>
      <trkpt lat="43.78252" lon="2.61154">
        <ele>871</ele>
        <time>2022-02-07T19:28:01Z</time>
      </trkpt>
      <trkpt lat="43.7825" lon="2.61133">
        <ele>869</ele>
        <time>2022-02-07T19:28:03Z</time>
      </trkpt>
      <trkpt lat="43.78247" lon="2.61122">
        <ele>868</ele>
        <time>2022-02-07T19:28:05Z</time>
      </trkpt>
      <trkpt lat="43.7824" lon="2.61112">
        <ele>868</ele>
        <time>2022-02-07T19:28:07Z</time>
      </trkpt>
      <trkpt lat="43.78222" lon="2.61105">
        <ele>867</ele>
        <time>2022-02-07T19:28:10Z</time>
      </trkpt>
      <trkpt lat="43.78034" lon="2.61084">
        <ele>867</ele>
        <time>2022-02-07T19:28:43Z</time>
      </trkpt>
      <trkpt lat="43.78013" lon="2.61079">
        <ele>868</ele>
        <time>2022-02-07T19:28:47Z</time>
      </trkpt>
      <trkpt lat="43.77995" lon="2.61059">
        <ele>869</ele>
        <time>2022-02-07T19:28:51Z</time>
      </trkpt>
      <trkpt lat="43.77988" lon="2.61037">
        <ele>869</ele>
        <time>2022-02-07T19:28:54Z</time>
      </trkpt>
      <trkpt lat="43.7798" lon="2.60989">
        <ele>868</ele>
        <time>2022-02-07T19:29:01Z</time>
      </trkpt>
      <trkpt lat="43.77963" lon="2.60945">
        <ele>868</ele>
        <time>2022-02-07T19:29:07Z</time>
      </trkpt>
      <trkpt lat="43.77954" lon="2.60909">
        <ele>867</ele>
        <time>2022-02-07T19:29:12Z</time>
      </trkpt>
      <trkpt lat="43.77944" lon="2.60839">
        <ele>865</ele>
        <time>2022-02-07T19:29:21Z</time>
      </trkpt>
      <trkpt lat="43.7794" lon="2.60778">
        <ele>864</ele>
        <time>2022-02-07T19:29:29Z</time>
      </trkpt>
      <trkpt lat="43.77947" lon="2.60632">
        <ele>859</ele>
        <time>2022-02-07T19:29:48Z</time>
      </trkpt>
      <trkpt lat="43.77947" lon="2.60572">
        <ele>857</ele>
        <time>2022-02-07T19:29:56Z</time>
      </trkpt>
      <trkpt lat="43.77944" lon="2.60545">
        <ele>857</ele>
        <time>2022-02-07T19:29:59Z</time>
      </trkpt>
      <trkpt lat="43.77932" lon="2.6049">
        <ele>855</ele>
        <time>2022-02-07T19:30:06Z</time>
      </trkpt>
      <trkpt lat="43.77879" lon="2.60269">
        <ele>843</ele>
        <time>2022-02-07T19:30:36Z</time>
      </trkpt>
      <trkpt lat="43.7787" lon="2.60222">
        <ele>843</ele>
        <time>2022-02-07T19:30:43Z</time>
      </trkpt>
      <trkpt lat="43.77867" lon="2.60185">
        <ele>842</ele>
        <time>2022-02-07T19:30:47Z</time>
      </trkpt>
      <trkpt lat="43.77868" lon="2.60126">
        <ele>840</ele>
        <time>2022-02-07T19:30:55Z</time>
      </trkpt>
      <trkpt lat="43.77877" lon="2.60065">
        <ele>839</ele>
        <time>2022-02-07T19:31:03Z</time>
      </trkpt>
      <trkpt lat="43.77895" lon="2.60009">
        <ele>839</ele>
        <time>2022-02-07T19:31:11Z</time>
      </trkpt>
      <trkpt lat="43.77914" lon="2.59972">
        <ele>839</ele>
        <time>2022-02-07T19:31:17Z</time>
      </trkpt>
      <trkpt lat="43.77933" lon="2.59941">
        <ele>837</ele>
        <time>2022-02-07T19:31:22Z</time>
      </trkpt>
      <trkpt lat="43.78135" lon="2.59679">
        <ele>836</ele>
        <time>2022-02-07T19:32:11Z</time>
      </trkpt>
      <trkpt lat="43.78179" lon="2.59626">
        <ele>833</ele>
        <time>2022-02-07T19:32:22Z</time>
      </trkpt>
      <trkpt lat="43.78235" lon="2.59592">
        <ele>831</ele>
        <time>2022-02-07T19:32:32Z</time>
      </trkpt>
      <trkpt lat="43.78261" lon="2.59565">
        <ele>830</ele>
        <time>2022-02-07T19:32:38Z</time>
      </trkpt>
      <trkpt lat="43.78293" lon="2.59498">
        <ele>827</ele>
        <time>2022-02-07T19:32:49Z</time>
      </trkpt>
      <trkpt lat="43.78316" lon="2.59454">
        <ele>825</ele>
        <time>2022-02-07T19:32:56Z</time>
      </trkpt>
      <trkpt lat="43.78341" lon="2.59425">
        <ele>826</ele>
        <time>2022-02-07T19:33:01Z</time>
      </trkpt>
      <trkpt lat="43.78373" lon="2.59403">
        <ele>830</ele>
        <time>2022-02-07T19:33:08Z</time>
      </trkpt>
      <trkpt lat="43.78388" lon="2.59386">
        <ele>831</ele>
        <time>2022-02-07T19:33:11Z</time>
      </trkpt>
      <trkpt lat="43.78394" lon="2.59371">
        <ele>830</ele>
        <time>2022-02-07T19:33:13Z</time>
      </trkpt>
      <trkpt lat="43.78397" lon="2.59347">
        <ele>828</ele>
        <time>2022-02-07T19:33:16Z</time>
      </trkpt>
      <trkpt lat="43.78392" lon="2.59312">
        <ele>824</ele>
        <time>2022-02-07T19:33:21Z</time>
      </trkpt>
      <trkpt lat="43.7837" lon="2.59253">
        <ele>815</ele>
        <time>2022-02-07T19:33:30Z</time>
      </trkpt>
      <trkpt lat="43.78369" lon="2.59221">
        <ele>813</ele>
        <time>2022-02-07T19:33:34Z</time>
      </trkpt>
      <trkpt lat="43.78381" lon="2.59195">
        <ele>814</ele>
        <time>2022-02-07T19:33:38Z</time>
      </trkpt>
      <trkpt lat="43.78473" lon="2.59051">
        <ele>812</ele>
        <time>2022-02-07T19:34:02Z</time>
      </trkpt>
      <trkpt lat="43.78486" lon="2.5904">
        <ele>813</ele>
        <time>2022-02-07T19:34:05Z</time>
      </trkpt>
      <trkpt lat="43.78542" lon="2.59001">
        <ele>815</ele>
        <time>2022-02-07T19:34:16Z</time>
      </trkpt>
      <trkpt lat="43.78563" lon="2.58969">
        <ele>814</ele>
        <time>2022-02-07T19:34:22Z</time>
      </trkpt>
      <trkpt lat="43.78587" lon="2.5889">
        <ele>811</ele>
        <time>2022-02-07T19:34:33Z</time>
      </trkpt>
      <trkpt lat="43.78602" lon="2.58794">
        <ele>806</ele>
        <time>2022-02-07T19:34:45Z</time>
      </trkpt>
      <trkpt lat="43.78617" lon="2.5876">
        <ele>803</ele>
        <time>2022-02-07T19:34:51Z</time>
      </trkpt>
      <trkpt lat="43.78642" lon="2.58718">
        <ele>802</ele>
        <time>2022-02-07T19:34:58Z</time>
      </trkpt>
      <trkpt lat="43.78686" lon="2.58608">
        <ele>800</ele>
        <time>2022-02-07T19:35:14Z</time>
      </trkpt>
      <trkpt lat="43.7869" lon="2.58583">
        <ele>800</ele>
        <time>2022-02-07T19:35:17Z</time>
      </trkpt>
      <trkpt lat="43.78685" lon="2.58547">
        <ele>800</ele>
        <time>2022-02-07T19:35:22Z</time>
      </trkpt>
      <trkpt lat="43.78674" lon="2.58495">
        <ele>801</ele>
        <time>2022-02-07T19:35:29Z</time>
      </trkpt>
      <trkpt lat="43.78659" lon="2.58472">
        <ele>801</ele>
        <time>2022-02-07T19:35:33Z</time>
      </trkpt>
      <trkpt lat="43.78641" lon="2.58459">
        <ele>801</ele>
        <time>2022-02-07T19:35:36Z</time>
      </trkpt>
      <trkpt lat="43.78582" lon="2.58456">
        <ele>797</ele>
        <time>2022-02-07T19:35:47Z</time>
      </trkpt>
      <trkpt lat="43.78549" lon="2.58435">
        <ele>792</ele>
        <time>2022-02-07T19:35:53Z</time>
      </trkpt>
      <trkpt lat="43.78494" lon="2.5838">
        <ele>788</ele>
        <time>2022-02-07T19:36:05Z</time>
      </trkpt>
      <trkpt lat="43.78453" lon="2.58322">
        <ele>785</ele>
        <time>2022-02-07T19:36:16Z</time>
      </trkpt>
      <trkpt lat="43.7843" lon="2.58296">
        <ele>782</ele>
        <time>2022-02-07T19:36:21Z</time>
      </trkpt>
      <trkpt lat="43.78393" lon="2.58271">
        <ele>777</ele>
        <time>2022-02-07T19:36:28Z</time>
      </trkpt>
      <trkpt lat="43.78381" lon="2.58256">
        <ele>776</ele>
        <time>2022-02-07T19:36:31Z</time>
      </trkpt>
      <trkpt lat="43.78376" lon="2.58241">
        <ele>776</ele>
        <time>2022-02-07T19:36:33Z</time>
      </trkpt>
      <trkpt lat="43.78375" lon="2.58226">
        <ele>775</ele>
        <time>2022-02-07T19:36:35Z</time>
      </trkpt>
      <trkpt lat="43.78378" lon="2.58208">
        <ele>776</ele>
        <time>2022-02-07T19:36:38Z</time>
      </trkpt>
      <trkpt lat="43.78417" lon="2.58108">
        <ele>780</ele>
        <time>2022-02-07T19:36:52Z</time>
      </trkpt>
      <trkpt lat="43.78424" lon="2.58082">
        <ele>779</ele>
        <time>2022-02-07T19:36:56Z</time>
      </trkpt>
      <trkpt lat="43.78425" lon="2.58061">
        <ele>778</ele>
        <time>2022-02-07T19:36:58Z</time>
      </trkpt>
      <trkpt lat="43.78421" lon="2.58038">
        <ele>778</ele>
        <time>2022-02-07T19:37:01Z</time>
      </trkpt>
      <trkpt lat="43.78414" lon="2.5802">
        <ele>777</ele>
        <time>2022-02-07T19:37:04Z</time>
      </trkpt>
      <trkpt lat="43.78405" lon="2.58008">
        <ele>777</ele>
        <time>2022-02-07T19:37:06Z</time>
      </trkpt>
      <trkpt lat="43.78392" lon="2.57996">
        <ele>777</ele>
        <time>2022-02-07T19:37:09Z</time>
      </trkpt>
      <trkpt lat="43.78188" lon="2.57887">
        <ele>782</ele>
        <time>2022-02-07T19:37:48Z</time>
      </trkpt>
      <trkpt lat="43.78165" lon="2.57867">
        <ele>784</ele>
        <time>2022-02-07T19:37:53Z</time>
      </trkpt>
      <trkpt lat="43.78153" lon="2.57851">
        <ele>782</ele>
        <time>2022-02-07T19:37:56Z</time>
      </trkpt>
      <trkpt lat="43.7814" lon="2.5783">
        <ele>781</ele>
        <time>2022-02-07T19:37:59Z</time>
      </trkpt>
      <trkpt lat="43.78132" lon="2.57812">
        <ele>781</ele>
        <time>2022-02-07T19:38:02Z</time>
      </trkpt>
      <trkpt lat="43.78125" lon="2.5778">
        <ele>782</ele>
        <time>2022-02-07T19:38:06Z</time>
      </trkpt>
      <trkpt lat="43.78124" lon="2.57759">
        <ele>784</ele>
        <time>2022-02-07T19:38:09Z</time>
      </trkpt>
      <trkpt lat="43.7813" lon="2.57661">
        <ele>794</ele>
        <time>2022-02-07T19:38:22Z</time>
      </trkpt>
      <trkpt lat="43.78129" lon="2.57645">
        <ele>795</ele>
        <time>2022-02-07T19:38:24Z</time>
      </trkpt>
      <trkpt lat="43.78126" lon="2.57631">
        <ele>796</ele>
        <time>2022-02-07T19:38:26Z</time>
      </trkpt>
      <trkpt lat="43.78119" lon="2.57617">
        <ele>797</ele>
        <time>2022-02-07T19:38:28Z</time>
      </trkpt>
      <trkpt lat="43.78109" lon="2.57604">
        <ele>798</ele>
        <time>2022-02-07T19:38:30Z</time>
      </trkpt>
      <trkpt lat="43.78094" lon="2.57593">
        <ele>798</ele>
        <time>2022-02-07T19:38:33Z</time>
      </trkpt>
      <trkpt lat="43.78074" lon="2.57581">
        <ele>797</ele>
        <time>2022-02-07T19:38:37Z</time>
      </trkpt>
      <trkpt lat="43.78037" lon="2.57565">
        <ele>793</ele>
        <time>2022-02-07T19:38:44Z</time>
      </trkpt>
      <trkpt lat="43.7802" lon="2.57551">
        <ele>792</ele>
        <time>2022-02-07T19:38:48Z</time>
      </trkpt>
      <trkpt lat="43.78012" lon="2.57539">
        <ele>793</ele>
        <time>2022-02-07T19:38:50Z</time>
      </trkpt>
      <trkpt lat="43.77991" lon="2.57488">
        <ele>794</ele>
        <time>2022-02-07T19:38:57Z</time>
      </trkpt>
      <trkpt lat="43.77984" lon="2.57475">
        <ele>793</ele>
        <time>2022-02-07T19:38:59Z</time>
      </trkpt>
      <trkpt lat="43.77974" lon="2.57464">
        <ele>792</ele>
        <time>2022-02-07T19:39:02Z</time>
      </trkpt>
      <trkpt lat="43.77946" lon="2.5744">
        <ele>790</ele>
        <time>2022-02-07T19:39:07Z</time>
      </trkpt>
      <trkpt lat="43.77939" lon="2.5743">
        <ele>790</ele>
        <time>2022-02-07T19:39:09Z</time>
      </trkpt>
      <trkpt lat="43.77933" lon="2.57418">
        <ele>790</ele>
        <time>2022-02-07T19:39:11Z</time>
      </trkpt>
      <trkpt lat="43.77928" lon="2.57403">
        <ele>790</ele>
        <time>2022-02-07T19:39:13Z</time>
      </trkpt>
      <trkpt lat="43.77915" lon="2.57344">
        <ele>791</ele>
        <time>2022-02-07T19:39:21Z</time>
      </trkpt>
      <trkpt lat="43.77901" lon="2.57303">
        <ele>791</ele>
        <time>2022-02-07T19:39:27Z</time>
      </trkpt>
      <trkpt lat="43.77765" lon="2.57057">
        <ele>794</ele>
        <time>2022-02-07T19:40:07Z</time>
      </trkpt>
      <trkpt lat="43.77754" lon="2.57043">
        <ele>796</ele>
        <time>2022-02-07T19:40:09Z</time>
      </trkpt>
      <trkpt lat="43.77729" lon="2.57018">
        <ele>794</ele>
        <time>2022-02-07T19:40:15Z</time>
      </trkpt>
      <trkpt lat="43.77721" lon="2.57009">
        <ele>793</ele>
        <time>2022-02-07T19:40:17Z</time>
      </trkpt>
      <trkpt lat="43.77658" lon="2.569">
        <ele>796</ele>
        <time>2022-02-07T19:40:35Z</time>
      </trkpt>
      <trkpt lat="43.77641" lon="2.56866">
        <ele>798</ele>
        <time>2022-02-07T19:40:40Z</time>
      </trkpt>
      <trkpt lat="43.77636" lon="2.56848">
        <ele>798</ele>
        <time>2022-02-07T19:40:43Z</time>
      </trkpt>
      <trkpt lat="43.77633" lon="2.5683">
        <ele>799</ele>
        <time>2022-02-07T19:40:45Z</time>
      </trkpt>
      <trkpt lat="43.77632" lon="2.56808">
        <ele>798</ele>
        <time>2022-02-07T19:40:48Z</time>
      </trkpt>
      <trkpt lat="43.77635" lon="2.56782">
        <ele>799</ele>
        <time>2022-02-07T19:40:51Z</time>
      </trkpt>
      <trkpt lat="43.77656" lon="2.56665">
        <ele>797</ele>
        <time>2022-02-07T19:41:07Z</time>
      </trkpt>
      <trkpt lat="43.77667" lon="2.56631">
        <ele>795</ele>
        <time>2022-02-07T19:41:11Z</time>
      </trkpt>
      <trkpt lat="43.77681" lon="2.56603">
        <ele>794</ele>
        <time>2022-02-07T19:41:16Z</time>
      </trkpt>
      <trkpt lat="43.77706" lon="2.56569">
        <ele>794</ele>
        <time>2022-02-07T19:41:22Z</time>
      </trkpt>
      <trkpt lat="43.77724" lon="2.56553">
        <ele>794</ele>
        <time>2022-02-07T19:41:26Z</time>
      </trkpt>
      <trkpt lat="43.7777" lon="2.56519">
        <ele>797</ele>
        <time>2022-02-07T19:41:35Z</time>
      </trkpt>
      <trkpt lat="43.77786" lon="2.56499">
        <ele>796</ele>
        <time>2022-02-07T19:41:39Z</time>
      </trkpt>
      <trkpt lat="43.7779" lon="2.56492">
        <ele>797</ele>
        <time>2022-02-07T19:41:40Z</time>
      </trkpt>
      <trkpt lat="43.77794" lon="2.56477">
        <ele>799</ele>
        <time>2022-02-07T19:41:42Z</time>
      </trkpt>
      <trkpt lat="43.77795" lon="2.56462">
        <ele>800</ele>
        <time>2022-02-07T19:41:44Z</time>
      </trkpt>
      <trkpt lat="43.77792" lon="2.5645">
        <ele>801</ele>
        <time>2022-02-07T19:41:46Z</time>
      </trkpt>
      <trkpt lat="43.77784" lon="2.56437">
        <ele>801</ele>
        <time>2022-02-07T19:41:48Z</time>
      </trkpt>
      <trkpt lat="43.77775" lon="2.56431">
        <ele>801</ele>
        <time>2022-02-07T19:41:50Z</time>
      </trkpt>
      <trkpt lat="43.77735" lon="2.56426">
        <ele>798</ele>
        <time>2022-02-07T19:41:57Z</time>
      </trkpt>
      <trkpt lat="43.77709" lon="2.56414">
        <ele>797</ele>
        <time>2022-02-07T19:42:02Z</time>
      </trkpt>
      <trkpt lat="43.77677" lon="2.5641">
        <ele>794</ele>
        <time>2022-02-07T19:42:07Z</time>
      </trkpt>
      <trkpt lat="43.77662" lon="2.56405">
        <ele>792</ele>
        <time>2022-02-07T19:42:10Z</time>
      </trkpt>
      <trkpt lat="43.77626" lon="2.56382">
        <ele>787</ele>
        <time>2022-02-07T19:42:17Z</time>
      </trkpt>
      <trkpt lat="43.77614" lon="2.56368">
        <ele>786</ele>
        <time>2022-02-07T19:42:20Z</time>
      </trkpt>
      <trkpt lat="43.77608" lon="2.56354">
        <ele>786</ele>
        <time>2022-02-07T19:42:22Z</time>
      </trkpt>
      <trkpt lat="43.77606" lon="2.5634">
        <ele>787</ele>
        <time>2022-02-07T19:42:24Z</time>
      </trkpt>
      <trkpt lat="43.77606" lon="2.56319">
        <ele>788</ele>
        <time>2022-02-07T19:42:27Z</time>
      </trkpt>
      <trkpt lat="43.77613" lon="2.56276">
        <ele>788</ele>
        <time>2022-02-07T19:42:32Z</time>
      </trkpt>
      <trkpt lat="43.77626" lon="2.56236">
        <ele>789</ele>
        <time>2022-02-07T19:42:38Z</time>
      </trkpt>
      <trkpt lat="43.77678" lon="2.56092">
        <ele>790</ele>
        <time>2022-02-07T19:42:59Z</time>
      </trkpt>
      <trkpt lat="43.77683" lon="2.5607">
        <ele>790</ele>
        <time>2022-02-07T19:43:02Z</time>
      </trkpt>
      <trkpt lat="43.77682" lon="2.56025">
        <ele>788</ele>
        <time>2022-02-07T19:43:07Z</time>
      </trkpt>
      <trkpt lat="43.77677" lon="2.55999">
        <ele>787</ele>
        <time>2022-02-07T19:43:11Z</time>
      </trkpt>
      <trkpt lat="43.77669" lon="2.5597">
        <ele>786</ele>
        <time>2022-02-07T19:43:15Z</time>
      </trkpt>
      <trkpt lat="43.77646" lon="2.55934">
        <ele>784</ele>
        <time>2022-02-07T19:43:21Z</time>
      </trkpt>
      <trkpt lat="43.77633" lon="2.55919">
        <ele>784</ele>
        <time>2022-02-07T19:43:24Z</time>
      </trkpt>
      <trkpt lat="43.77603" lon="2.55889">
        <ele>783</ele>
        <time>2022-02-07T19:43:31Z</time>
      </trkpt>
      <trkpt lat="43.77534" lon="2.55833">
        <ele>784</ele>
        <time>2022-02-07T19:43:45Z</time>
      </trkpt>
      <trkpt lat="43.77492" lon="2.55812">
        <ele>783</ele>
        <time>2022-02-07T19:43:53Z</time>
      </trkpt>
      <trkpt lat="43.77387" lon="2.55768">
        <ele>781</ele>
        <time>2022-02-07T19:44:12Z</time>
      </trkpt>
      <trkpt lat="43.77311" lon="2.5575">
        <ele>780</ele>
        <time>2022-02-07T19:44:26Z</time>
      </trkpt>
      <trkpt lat="43.77235" lon="2.55735">
        <ele>778</ele>
        <time>2022-02-07T19:44:40Z</time>
      </trkpt>
      <trkpt lat="43.77222" lon="2.5573">
        <ele>777</ele>
        <time>2022-02-07T19:44:42Z</time>
      </trkpt>
      <trkpt lat="43.77192" lon="2.55712">
        <ele>777</ele>
        <time>2022-02-07T19:44:48Z</time>
      </trkpt>
      <trkpt lat="43.77163" lon="2.55681">
        <ele>779</ele>
        <time>2022-02-07T19:44:54Z</time>
      </trkpt>
      <trkpt lat="43.77149" lon="2.55654">
        <ele>779</ele>
        <time>2022-02-07T19:44:59Z</time>
      </trkpt>
      <trkpt lat="43.77128" lon="2.55601">
        <ele>781</ele>
        <time>2022-02-07T19:45:06Z</time>
      </trkpt>
      <trkpt lat="43.77091" lon="2.55536">
        <ele>784</ele>
        <time>2022-02-07T19:45:17Z</time>
      </trkpt>
      <trkpt lat="43.7707" lon="2.55493">
        <ele>784</ele>
        <time>2022-02-07T19:45:24Z</time>
      </trkpt>
      <trkpt lat="43.77059" lon="2.55448">
        <ele>786</ele>
        <time>2022-02-07T19:45:30Z</time>
      </trkpt>
      <trkpt lat="43.76973" lon="2.54733">
        <ele>787</ele>
        <time>2022-02-07T19:47:03Z</time>
      </trkpt>
      <trkpt lat="43.76974" lon="2.54702">
        <ele>788</ele>
        <time>2022-02-07T19:47:07Z</time>
      </trkpt>
      <trkpt lat="43.76979" lon="2.54679">
        <ele>788</ele>
        <time>2022-02-07T19:47:10Z</time>
      </trkpt>
      <trkpt lat="43.76987" lon="2.54658">
        <ele>788</ele>
        <time>2022-02-07T19:47:13Z</time>
      </trkpt>
      <trkpt lat="43.77042" lon="2.54558">
        <ele>784</ele>
        <time>2022-02-07T19:47:29Z</time>
      </trkpt>
      <trkpt lat="43.77058" lon="2.54512">
        <ele>784</ele>
        <time>2022-02-07T19:47:36Z</time>
      </trkpt>
      <trkpt lat="43.77086" lon="2.54342">
        <ele>783</ele>
        <time>2022-02-07T19:47:58Z</time>
      </trkpt>
      <trkpt lat="43.77128" lon="2.5415">
        <ele>779</ele>
        <time>2022-02-07T19:48:24Z</time>
      </trkpt>
      <trkpt lat="43.77128" lon="2.54123">
        <ele>779</ele>
        <time>2022-02-07T19:48:27Z</time>
      </trkpt>
      <trkpt lat="43.77124" lon="2.541">
        <ele>779</ele>
        <time>2022-02-07T19:48:30Z</time>
      </trkpt>
      <trkpt lat="43.77094" lon="2.54016">
        <ele>780</ele>
        <time>2022-02-07T19:48:42Z</time>
      </trkpt>
      <trkpt lat="43.77086" lon="2.53977">
        <ele>780</ele>
        <time>2022-02-07T19:48:48Z</time>
      </trkpt>
      <trkpt lat="43.77086" lon="2.53939">
        <ele>779</ele>
        <time>2022-02-07T19:48:53Z</time>
      </trkpt>
      <trkpt lat="43.77112" lon="2.53734">
        <ele>779</ele>
        <time>2022-02-07T19:49:19Z</time>
      </trkpt>
      <trkpt lat="43.77109" lon="2.53712">
        <ele>780</ele>
        <time>2022-02-07T19:49:22Z</time>
      </trkpt>
      <trkpt lat="43.771" lon="2.53695">
        <ele>781</ele>
        <time>2022-02-07T19:49:25Z</time>
      </trkpt>
      <trkpt lat="43.77089" lon="2.53683">
        <ele>781</ele>
        <time>2022-02-07T19:49:27Z</time>
      </trkpt>
      <trkpt lat="43.77026" lon="2.53647">
        <ele>777</ele>
        <time>2022-02-07T19:49:40Z</time>
      </trkpt>
      <trkpt lat="43.76973" lon="2.53634">
        <ele>771</ele>
        <time>2022-02-07T19:49:49Z</time>
      </trkpt>
      <trkpt lat="43.76957" lon="2.53623">
        <ele>770</ele>
        <time>2022-02-07T19:49:52Z</time>
      </trkpt>
      <trkpt lat="43.76948" lon="2.53612">
        <ele>770</ele>
        <time>2022-02-07T19:49:54Z</time>
      </trkpt>
      <trkpt lat="43.7694" lon="2.53596">
        <ele>771</ele>
        <time>2022-02-07T19:49:57Z</time>
      </trkpt>
      <trkpt lat="43.76927" lon="2.53565">
        <ele>773</ele>
        <time>2022-02-07T19:50:02Z</time>
      </trkpt>
      <trkpt lat="43.76916" lon="2.53547">
        <ele>774</ele>
        <time>2022-02-07T19:50:05Z</time>
      </trkpt>
      <trkpt lat="43.76905" lon="2.53534">
        <ele>775</ele>
        <time>2022-02-07T19:50:07Z</time>
      </trkpt>
      <trkpt lat="43.76891" lon="2.53522">
        <ele>776</ele>
        <time>2022-02-07T19:50:10Z</time>
      </trkpt>
      <trkpt lat="43.76866" lon="2.53511">
        <ele>776</ele>
        <time>2022-02-07T19:50:15Z</time>
      </trkpt>
      <trkpt lat="43.76852" lon="2.53509">
        <ele>775</ele>
        <time>2022-02-07T19:50:17Z</time>
      </trkpt>
      <trkpt lat="43.76781" lon="2.5352">
        <ele>773</ele>
        <time>2022-02-07T19:50:30Z</time>
      </trkpt>
      <trkpt lat="43.76766" lon="2.53521">
        <ele>773</ele>
        <time>2022-02-07T19:50:33Z</time>
      </trkpt>
      <trkpt lat="43.76751" lon="2.53519">
        <ele>773</ele>
        <time>2022-02-07T19:50:35Z</time>
      </trkpt>
      <trkpt lat="43.76733" lon="2.53512">
        <ele>773</ele>
        <time>2022-02-07T19:50:39Z</time>
      </trkpt>
      <trkpt lat="43.76687" lon="2.53487">
        <ele>772</ele>
        <time>2022-02-07T19:50:47Z</time>
      </trkpt>
      <trkpt lat="43.76675" lon="2.53478">
        <ele>772</ele>
        <time>2022-02-07T19:50:50Z</time>
      </trkpt>
      <trkpt lat="43.76665" lon="2.53465">
        <ele>771</ele>
        <time>2022-02-07T19:50:52Z</time>
      </trkpt>
      <trkpt lat="43.76657" lon="2.53452">
        <ele>769</ele>
        <time>2022-02-07T19:50:54Z</time>
      </trkpt>
      <trkpt lat="43.7665" lon="2.53435">
        <ele>768</ele>
        <time>2022-02-07T19:50:57Z</time>
      </trkpt>
      <trkpt lat="43.76623" lon="2.53319">
        <ele>769</ele>
        <time>2022-02-07T19:51:13Z</time>
      </trkpt>
      <trkpt lat="43.76607" lon="2.53277">
        <ele>770</ele>
        <time>2022-02-07T19:51:19Z</time>
      </trkpt>
      <trkpt lat="43.7653" lon="2.53145">
        <ele>770</ele>
        <time>2022-02-07T19:51:41Z</time>
      </trkpt>
      <trkpt lat="43.76526" lon="2.53128">
        <ele>770</ele>
        <time>2022-02-07T19:51:43Z</time>
      </trkpt>
      <trkpt lat="43.76524" lon="2.53109">
        <ele>770</ele>
        <time>2022-02-07T19:51:45Z</time>
      </trkpt>
      <trkpt lat="43.7657" lon="2.5283">
        <ele>764</ele>
        <time>2022-02-07T19:52:22Z</time>
      </trkpt>
      <trkpt lat="43.76569" lon="2.52808">
        <ele>764</ele>
        <time>2022-02-07T19:52:25Z</time>
      </trkpt>
      <trkpt lat="43.76565" lon="2.52786">
        <ele>764</ele>
        <time>2022-02-07T19:52:28Z</time>
      </trkpt>
      <trkpt lat="43.76298" lon="2.52201">
        <ele>748</ele>
        <time>2022-02-07T19:53:57Z</time>
      </trkpt>
      <trkpt lat="43.76286" lon="2.52162">
        <ele>747</ele>
        <time>2022-02-07T19:54:02Z</time>
      </trkpt>
      <trkpt lat="43.76211" lon="2.51876">
        <ele>749</ele>
        <time>2022-02-07T19:54:41Z</time>
      </trkpt>
      <trkpt lat="43.76207" lon="2.51845">
        <ele>748</ele>
        <time>2022-02-07T19:54:45Z</time>
      </trkpt>
      <trkpt lat="43.76207" lon="2.51803">
        <ele>749</ele>
        <time>2022-02-07T19:54:51Z</time>
      </trkpt>
      <trkpt lat="43.76209" lon="2.51779">
        <ele>750</ele>
        <time>2022-02-07T19:54:54Z</time>
      </trkpt>
      <trkpt lat="43.76215" lon="2.51754">
        <ele>750</ele>
        <time>2022-02-07T19:54:57Z</time>
      </trkpt>
      <trkpt lat="43.76224" lon="2.51725">
        <ele>751</ele>
        <time>2022-02-07T19:55:01Z</time>
      </trkpt>
      <trkpt lat="43.76251" lon="2.51659">
        <ele>754</ele>
        <time>2022-02-07T19:55:11Z</time>
      </trkpt>
      <trkpt lat="43.76258" lon="2.51634">
        <ele>755</ele>
        <time>2022-02-07T19:55:14Z</time>
      </trkpt>
      <trkpt lat="43.76267" lon="2.51588">
        <ele>757</ele>
        <time>2022-02-07T19:55:21Z</time>
      </trkpt>
      <trkpt lat="43.76273" lon="2.51576">
        <ele>757</ele>
        <time>2022-02-07T19:55:22Z</time>
      </trkpt>
      <trkpt lat="43.7628" lon="2.51569">
        <ele>756</ele>
        <time>2022-02-07T19:55:24Z</time>
      </trkpt>
      <trkpt lat="43.76287" lon="2.51565">
        <ele>755</ele>
        <time>2022-02-07T19:55:25Z</time>
      </trkpt>
      <trkpt lat="43.76318" lon="2.51562">
        <ele>748</ele>
        <time>2022-02-07T19:55:31Z</time>
      </trkpt>
      <trkpt lat="43.76328" lon="2.51555">
        <ele>747</ele>
        <time>2022-02-07T19:55:33Z</time>
      </trkpt>
      <trkpt lat="43.76356" lon="2.51527">
        <ele>747</ele>
        <time>2022-02-07T19:55:39Z</time>
      </trkpt>
      <trkpt lat="43.76432" lon="2.51425">
        <ele>748</ele>
        <time>2022-02-07T19:55:58Z</time>
      </trkpt>
      <trkpt lat="43.76448" lon="2.51408">
        <ele>746</ele>
        <time>2022-02-07T19:56:01Z</time>
      </trkpt>
      <trkpt lat="43.76516" lon="2.51357">
        <ele>738</ele>
        <time>2022-02-07T19:56:15Z</time>
      </trkpt>
      <trkpt lat="43.76525" lon="2.51347">
        <ele>738</ele>
        <time>2022-02-07T19:56:17Z</time>
      </trkpt>
      <trkpt lat="43.7653" lon="2.51336">
        <ele>740</ele>
        <time>2022-02-07T19:56:19Z</time>
      </trkpt>
      <trkpt lat="43.76533" lon="2.51323">
        <ele>740</ele>
        <time>2022-02-07T19:56:21Z</time>
      </trkpt>
      <trkpt lat="43.76532" lon="2.51307">
        <ele>740</ele>
        <time>2022-02-07T19:56:23Z</time>
      </trkpt>
      <trkpt lat="43.76522" lon="2.51212">
        <ele>739</ele>
        <time>2022-02-07T19:56:35Z</time>
      </trkpt>
      <trkpt lat="43.76518" lon="2.51153">
        <ele>738</ele>
        <time>2022-02-07T19:56:43Z</time>
      </trkpt>
      <trkpt lat="43.76512" lon="2.51115">
        <ele>738</ele>
        <time>2022-02-07T19:56:48Z</time>
      </trkpt>
      <trkpt lat="43.76506" lon="2.51089">
        <ele>740</ele>
        <time>2022-02-07T19:56:51Z</time>
      </trkpt>
      <trkpt lat="43.76496" lon="2.51064">
        <ele>739</ele>
        <time>2022-02-07T19:56:55Z</time>
      </trkpt>
      <trkpt lat="43.76483" lon="2.51044">
        <ele>738</ele>
        <time>2022-02-07T19:56:58Z</time>
      </trkpt>
      <trkpt lat="43.76388" lon="2.5092">
        <ele>731</ele>
        <time>2022-02-07T19:57:22Z</time>
      </trkpt>
      <trkpt lat="43.76442" lon="2.50823">
        <ele>731</ele>
        <time>2022-02-07T19:57:37Z</time>
      </trkpt>
      <trkpt lat="43.76451" lon="2.50797">
        <ele>732</ele>
        <time>2022-02-07T19:57:41Z</time>
      </trkpt>
      <trkpt lat="43.76454" lon="2.50776">
        <ele>734</ele>
        <time>2022-02-07T19:57:44Z</time>
      </trkpt>
      <trkpt lat="43.76451" lon="2.50756">
        <ele>735</ele>
        <time>2022-02-07T19:57:46Z</time>
      </trkpt>
      <trkpt lat="43.76443" lon="2.50737">
        <ele>737</ele>
        <time>2022-02-07T19:57:49Z</time>
      </trkpt>
      <trkpt lat="43.76434" lon="2.50727">
        <ele>737</ele>
        <time>2022-02-07T19:57:51Z</time>
      </trkpt>
      <trkpt lat="43.76423" lon="2.5072">
        <ele>738</ele>
        <time>2022-02-07T19:57:53Z</time>
      </trkpt>
      <trkpt lat="43.76384" lon="2.50706">
        <ele>735</ele>
        <time>2022-02-07T19:58:01Z</time>
      </trkpt>
      <trkpt lat="43.76367" lon="2.50696">
        <ele>734</ele>
        <time>2022-02-07T19:58:04Z</time>
      </trkpt>
      <trkpt lat="43.76353" lon="2.50683">
        <ele>733</ele>
        <time>2022-02-07T19:58:07Z</time>
      </trkpt>
      <trkpt lat="43.76344" lon="2.50671">
        <ele>734</ele>
        <time>2022-02-07T19:58:09Z</time>
      </trkpt>
      <trkpt lat="43.76339" lon="2.50656">
        <ele>734</ele>
        <time>2022-02-07T19:58:11Z</time>
      </trkpt>
      <trkpt lat="43.76337" lon="2.50641">
        <ele>734</ele>
        <time>2022-02-07T19:58:13Z</time>
      </trkpt>
      <trkpt lat="43.76338" lon="2.50625">
        <ele>734</ele>
        <time>2022-02-07T19:58:15Z</time>
      </trkpt>
      <trkpt lat="43.76342" lon="2.50606">
        <ele>735</ele>
        <time>2022-02-07T19:58:18Z</time>
      </trkpt>
      <trkpt lat="43.76349" lon="2.50588">
        <ele>736</ele>
        <time>2022-02-07T19:58:20Z</time>
      </trkpt>
      <trkpt lat="43.76388" lon="2.50513">
        <ele>739</ele>
        <time>2022-02-07T19:58:32Z</time>
      </trkpt>
      <trkpt lat="43.76408" lon="2.50463">
        <ele>742</ele>
        <time>2022-02-07T19:58:40Z</time>
      </trkpt>
      <trkpt lat="43.76431" lon="2.50391">
        <ele>742</ele>
        <time>2022-02-07T19:58:50Z</time>
      </trkpt>
      <trkpt lat="43.76479" lon="2.50215">
        <ele>745</ele>
        <time>2022-02-07T19:59:14Z</time>
      </trkpt>
      <trkpt lat="43.7649" lon="2.50191">
        <ele>744</ele>
        <time>2022-02-07T19:59:18Z</time>
      </trkpt>
      <trkpt lat="43.76502" lon="2.50173">
        <ele>744</ele>
        <time>2022-02-07T19:59:21Z</time>
      </trkpt>
      <trkpt lat="43.7653" lon="2.50151">
        <ele>744</ele>
        <time>2022-02-07T19:59:26Z</time>
      </trkpt>
      <trkpt lat="43.76587" lon="2.50113">
        <ele>743</ele>
        <time>2022-02-07T19:59:38Z</time>
      </trkpt>
      <trkpt lat="43.7661" lon="2.50079">
        <ele>744</ele>
        <time>2022-02-07T19:59:44Z</time>
      </trkpt>
      <trkpt lat="43.76636" lon="2.50015">
        <ele>744</ele>
        <time>2022-02-07T19:59:53Z</time>
      </trkpt>
      <trkpt lat="43.76656" lon="2.49947">
        <ele>741</ele>
        <time>2022-02-07T20:00:03Z</time>
      </trkpt>
      <trkpt lat="43.76661" lon="2.49911">
        <ele>740</ele>
        <time>2022-02-07T20:00:07Z</time>
      </trkpt>
      <trkpt lat="43.7666" lon="2.49881">
        <ele>739</ele>
        <time>2022-02-07T20:00:11Z</time>
      </trkpt>
      <trkpt lat="43.76653" lon="2.49839">
        <ele>738</ele>
        <time>2022-02-07T20:00:17Z</time>
      </trkpt>
      <trkpt lat="43.76644" lon="2.49797">
        <ele>736</ele>
        <time>2022-02-07T20:00:22Z</time>
      </trkpt>
      <trkpt lat="43.76629" lon="2.49754">
        <ele>735</ele>
        <time>2022-02-07T20:00:28Z</time>
      </trkpt>
      <trkpt lat="43.76607" lon="2.49708">
        <ele>735</ele>
        <time>2022-02-07T20:00:36Z</time>
      </trkpt>
      <trkpt lat="43.7654" lon="2.49614">
        <ele>731</ele>
        <time>2022-02-07T20:00:53Z</time>
      </trkpt>
      <trkpt lat="43.76531" lon="2.49614">
        <ele>731</ele>
        <time>2022-02-07T20:00:54Z</time>
      </trkpt>
      <trkpt lat="43.76514" lon="2.49608">
        <ele>731</ele>
        <time>2022-02-07T20:00:57Z</time>
      </trkpt>
      <trkpt lat="43.76501" lon="2.49607">
        <ele>731</ele>
        <time>2022-02-07T20:01:00Z</time>
      </trkpt>
      <trkpt lat="43.7649" lon="2.4961">
        <ele>731</ele>
        <time>2022-02-07T20:01:02Z</time>
      </trkpt>
      <trkpt lat="43.76483" lon="2.49614">
        <ele>730</ele>
        <time>2022-02-07T20:01:03Z</time>
      </trkpt>
      <trkpt lat="43.76472" lon="2.49631">
        <ele>730</ele>
        <time>2022-02-07T20:01:06Z</time>
      </trkpt>
      <trkpt lat="43.76466" lon="2.4967">
        <ele>731</ele>
        <time>2022-02-07T20:01:11Z</time>
      </trkpt>
      <trkpt lat="43.76461" lon="2.49684">
        <ele>731</ele>
        <time>2022-02-07T20:01:13Z</time>
      </trkpt>
      <trkpt lat="43.76453" lon="2.49693">
        <ele>731</ele>
        <time>2022-02-07T20:01:15Z</time>
      </trkpt>
      <trkpt lat="43.76443" lon="2.49697">
        <ele>730</ele>
        <time>2022-02-07T20:01:17Z</time>
      </trkpt>
      <trkpt lat="43.76432" lon="2.49696">
        <ele>729</ele>
        <time>2022-02-07T20:01:19Z</time>
      </trkpt>
      <trkpt lat="43.76409" lon="2.49684">
        <ele>726</ele>
        <time>2022-02-07T20:01:23Z</time>
      </trkpt>
      <trkpt lat="43.76396" lon="2.49679">
        <ele>725</ele>
        <time>2022-02-07T20:01:25Z</time>
      </trkpt>
      <trkpt lat="43.76358" lon="2.49673">
        <ele>724</ele>
        <time>2022-02-07T20:01:32Z</time>
      </trkpt>
      <trkpt lat="43.76347" lon="2.49667">
        <ele>723</ele>
        <time>2022-02-07T20:01:34Z</time>
      </trkpt>
      <trkpt lat="43.76334" lon="2.4965">
        <ele>721</ele>
        <time>2022-02-07T20:01:37Z</time>
      </trkpt>
      <trkpt lat="43.76311" lon="2.49614">
        <ele>719</ele>
        <time>2022-02-07T20:01:44Z</time>
      </trkpt>
      <trkpt lat="43.76301" lon="2.49602">
        <ele>718</ele>
        <time>2022-02-07T20:01:46Z</time>
      </trkpt>
      <trkpt lat="43.7629" lon="2.49593">
        <ele>717</ele>
        <time>2022-02-07T20:01:48Z</time>
      </trkpt>
      <trkpt lat="43.76279" lon="2.49588">
        <ele>717</ele>
        <time>2022-02-07T20:01:50Z</time>
      </trkpt>
      <trkpt lat="43.76249" lon="2.49579">
        <ele>716</ele>
        <time>2022-02-07T20:01:56Z</time>
      </trkpt>
      <trkpt lat="43.76236" lon="2.49573">
        <ele>716</ele>
        <time>2022-02-07T20:01:58Z</time>
      </trkpt>
      <trkpt lat="43.76223" lon="2.49562">
        <ele>715</ele>
        <time>2022-02-07T20:02:01Z</time>
      </trkpt>
      <trkpt lat="43.76213" lon="2.49548">
        <ele>713</ele>
        <time>2022-02-07T20:02:03Z</time>
      </trkpt>
      <trkpt lat="43.76202" lon="2.49527">
        <ele>711</ele>
        <time>2022-02-07T20:02:07Z</time>
      </trkpt>
      <trkpt lat="43.76144" lon="2.49395">
        <ele>699</ele>
        <time>2022-02-07T20:02:27Z</time>
      </trkpt>
      <trkpt lat="43.76128" lon="2.49382">
        <ele>698</ele>
        <time>2022-02-07T20:02:30Z</time>
      </trkpt>
      <trkpt lat="43.76087" lon="2.49367">
        <ele>698</ele>
        <time>2022-02-07T20:02:38Z</time>
      </trkpt>
      <trkpt lat="43.76068" lon="2.49355">
        <ele>697</ele>
        <time>2022-02-07T20:02:41Z</time>
      </trkpt>
      <trkpt lat="43.7605" lon="2.4933">
        <ele>695</ele>
        <time>2022-02-07T20:02:46Z</time>
      </trkpt>
      <trkpt lat="43.76031" lon="2.4927">
        <ele>693</ele>
        <time>2022-02-07T20:02:54Z</time>
      </trkpt>
      <trkpt lat="43.76" lon="2.49129">
        <ele>691</ele>
        <time>2022-02-07T20:03:13Z</time>
      </trkpt>
      <trkpt lat="43.75876" lon="2.48746">
        <ele>692</ele>
        <time>2022-02-07T20:04:07Z</time>
      </trkpt>
      <trkpt lat="43.75822" lon="2.48654">
        <ele>689</ele>
        <time>2022-02-07T20:04:22Z</time>
      </trkpt>
      <trkpt lat="43.75808" lon="2.48618">
        <ele>688</ele>
        <time>2022-02-07T20:04:28Z</time>
      </trkpt>
      <trkpt lat="43.7579" lon="2.4846">
        <ele>690</ele>
        <time>2022-02-07T20:04:48Z</time>
      </trkpt>
      <trkpt lat="43.75766" lon="2.48341">
        <ele>693</ele>
        <time>2022-02-07T20:05:04Z</time>
      </trkpt>
      <trkpt lat="43.75761" lon="2.48302">
        <ele>693</ele>
        <time>2022-02-07T20:05:09Z</time>
      </trkpt>
      <trkpt lat="43.7577" lon="2.48266">
        <ele>692</ele>
        <time>2022-02-07T20:05:14Z</time>
      </trkpt>
      <trkpt lat="43.75793" lon="2.48212">
        <ele>690</ele>
        <time>2022-02-07T20:05:22Z</time>
      </trkpt>
      <trkpt lat="43.75827" lon="2.481">
        <ele>688</ele>
        <time>2022-02-07T20:05:38Z</time>
      </trkpt>
      <trkpt lat="43.7585" lon="2.48016">
        <ele>679</ele>
        <time>2022-02-07T20:05:49Z</time>
      </trkpt>
      <trkpt lat="43.75853" lon="2.47978">
        <ele>676</ele>
        <time>2022-02-07T20:05:54Z</time>
      </trkpt>
      <trkpt lat="43.7585" lon="2.47959">
        <ele>676</ele>
        <time>2022-02-07T20:05:57Z</time>
      </trkpt>
      <trkpt lat="43.75841" lon="2.47938">
        <ele>677</ele>
        <time>2022-02-07T20:06:00Z</time>
      </trkpt>
      <trkpt lat="43.758" lon="2.47867">
        <ele>675</ele>
        <time>2022-02-07T20:06:11Z</time>
      </trkpt>
      <trkpt lat="43.75767" lon="2.47782">
        <ele>671</ele>
        <time>2022-02-07T20:06:24Z</time>
      </trkpt>
      <trkpt lat="43.75748" lon="2.47729">
        <ele>671</ele>
        <time>2022-02-07T20:06:31Z</time>
      </trkpt>
      <trkpt lat="43.75735" lon="2.4768">
        <ele>670</ele>
        <time>2022-02-07T20:06:38Z</time>
      </trkpt>
      <trkpt lat="43.75725" lon="2.47583">
        <ele>671</ele>
        <time>2022-02-07T20:06:51Z</time>
      </trkpt>
      <trkpt lat="43.75712" lon="2.47526">
        <ele>673</ele>
        <time>2022-02-07T20:06:58Z</time>
      </trkpt>
      <trkpt lat="43.75685" lon="2.47444">
        <ele>676</ele>
        <time>2022-02-07T20:07:10Z</time>
      </trkpt>
      <trkpt lat="43.75665" lon="2.47283">
        <ele>681</ele>
        <time>2022-02-07T20:07:31Z</time>
      </trkpt>
      <trkpt lat="43.75665" lon="2.47272">
        <ele>681</ele>
        <time>2022-02-07T20:07:32Z</time>
      </trkpt>
      <trkpt lat="43.75675" lon="2.47218">
        <ele>684</ele>
        <time>2022-02-07T20:07:40Z</time>
      </trkpt>
      <trkpt lat="43.75678" lon="2.47188">
        <ele>686</ele>
        <time>2022-02-07T20:07:43Z</time>
      </trkpt>
      <trkpt lat="43.75677" lon="2.47158">
        <ele>687</ele>
        <time>2022-02-07T20:07:47Z</time>
      </trkpt>
      <trkpt lat="43.75675" lon="2.47138">
        <ele>688</ele>
        <time>2022-02-07T20:07:50Z</time>
      </trkpt>
      <trkpt lat="43.75671" lon="2.47122">
        <ele>689</ele>
        <time>2022-02-07T20:07:52Z</time>
      </trkpt>
      <trkpt lat="43.75662" lon="2.47108">
        <ele>690</ele>
        <time>2022-02-07T20:07:54Z</time>
      </trkpt>
      <trkpt lat="43.75654" lon="2.47103">
        <ele>690</ele>
        <time>2022-02-07T20:07:56Z</time>
      </trkpt>
      <trkpt lat="43.75643" lon="2.471">
        <ele>690</ele>
        <time>2022-02-07T20:07:58Z</time>
      </trkpt>
      <trkpt lat="43.75633" lon="2.47102">
        <ele>690</ele>
        <time>2022-02-07T20:08:00Z</time>
      </trkpt>
      <trkpt lat="43.75611" lon="2.47113">
        <ele>688</ele>
        <time>2022-02-07T20:08:04Z</time>
      </trkpt>
      <trkpt lat="43.75599" lon="2.47115">
        <ele>688</ele>
        <time>2022-02-07T20:08:06Z</time>
      </trkpt>
      <trkpt lat="43.75581" lon="2.47115">
        <ele>688</ele>
        <time>2022-02-07T20:08:09Z</time>
      </trkpt>
      <trkpt lat="43.75558" lon="2.47106">
        <ele>688</ele>
        <time>2022-02-07T20:08:14Z</time>
      </trkpt>
      <trkpt lat="43.75545" lon="2.47098">
        <ele>688</ele>
        <time>2022-02-07T20:08:16Z</time>
      </trkpt>
      <trkpt lat="43.75536" lon="2.47086">
        <ele>688</ele>
        <time>2022-02-07T20:08:18Z</time>
      </trkpt>
      <trkpt lat="43.75531" lon="2.4707">
        <ele>688</ele>
        <time>2022-02-07T20:08:21Z</time>
      </trkpt>
      <trkpt lat="43.75531" lon="2.47043">
        <ele>689</ele>
        <time>2022-02-07T20:08:24Z</time>
      </trkpt>
      <trkpt lat="43.75537" lon="2.47007">
        <ele>691</ele>
        <time>2022-02-07T20:08:29Z</time>
      </trkpt>
      <trkpt lat="43.7556" lon="2.46904">
        <ele>695</ele>
        <time>2022-02-07T20:08:43Z</time>
      </trkpt>
      <trkpt lat="43.75564" lon="2.46881">
        <ele>696</ele>
        <time>2022-02-07T20:08:46Z</time>
      </trkpt>
      <trkpt lat="43.75563" lon="2.46855">
        <ele>696</ele>
        <time>2022-02-07T20:08:49Z</time>
      </trkpt>
      <trkpt lat="43.75546" lon="2.46778">
        <ele>698</ele>
        <time>2022-02-07T20:08:59Z</time>
      </trkpt>
      <trkpt lat="43.75534" lon="2.46745">
        <ele>699</ele>
        <time>2022-02-07T20:09:04Z</time>
      </trkpt>
      <trkpt lat="43.75526" lon="2.46731">
        <ele>699</ele>
        <time>2022-02-07T20:09:06Z</time>
      </trkpt>
      <trkpt lat="43.7551" lon="2.46713">
        <ele>700</ele>
        <time>2022-02-07T20:09:10Z</time>
      </trkpt>
      <trkpt lat="43.75498" lon="2.46706">
        <ele>700</ele>
        <time>2022-02-07T20:09:12Z</time>
      </trkpt>
      <trkpt lat="43.75484" lon="2.46703">
        <ele>701</ele>
        <time>2022-02-07T20:09:15Z</time>
      </trkpt>
      <trkpt lat="43.75469" lon="2.46704">
        <ele>701</ele>
        <time>2022-02-07T20:09:18Z</time>
      </trkpt>
      <trkpt lat="43.75449" lon="2.46712">
        <ele>701</ele>
        <time>2022-02-07T20:09:21Z</time>
      </trkpt>
      <trkpt lat="43.75392" lon="2.46743">
        <ele>703</ele>
        <time>2022-02-07T20:09:32Z</time>
      </trkpt>
      <trkpt lat="43.75367" lon="2.46748">
        <ele>703</ele>
        <time>2022-02-07T20:09:37Z</time>
      </trkpt>
      <trkpt lat="43.75344" lon="2.46742">
        <ele>703</ele>
        <time>2022-02-07T20:09:41Z</time>
      </trkpt>
      <trkpt lat="43.75294" lon="2.46719">
        <ele>703</ele>
        <time>2022-02-07T20:09:50Z</time>
      </trkpt>
      <trkpt lat="43.75278" lon="2.46707">
        <ele>704</ele>
        <time>2022-02-07T20:09:54Z</time>
      </trkpt>
      <trkpt lat="43.75265" lon="2.46693">
        <ele>704</ele>
        <time>2022-02-07T20:09:56Z</time>
      </trkpt>
      <trkpt lat="43.75256" lon="2.46678">
        <ele>705</ele>
        <time>2022-02-07T20:09:59Z</time>
      </trkpt>
      <trkpt lat="43.75249" lon="2.46648">
        <ele>705</ele>
        <time>2022-02-07T20:10:03Z</time>
      </trkpt>
      <trkpt lat="43.75243" lon="2.46591">
        <ele>705</ele>
        <time>2022-02-07T20:10:10Z</time>
      </trkpt>
      <trkpt lat="43.75238" lon="2.46575">
        <ele>704</ele>
        <time>2022-02-07T20:10:13Z</time>
      </trkpt>
      <trkpt lat="43.75231" lon="2.46564">
        <ele>704</ele>
        <time>2022-02-07T20:10:15Z</time>
      </trkpt>
      <trkpt lat="43.75223" lon="2.46558">
        <ele>705</ele>
        <time>2022-02-07T20:10:16Z</time>
      </trkpt>
      <trkpt lat="43.7521" lon="2.46555">
        <ele>705</ele>
        <time>2022-02-07T20:10:18Z</time>
      </trkpt>
      <trkpt lat="43.75159" lon="2.46552">
        <ele>708</ele>
        <time>2022-02-07T20:10:28Z</time>
      </trkpt>
      <trkpt lat="43.75147" lon="2.46546">
        <ele>709</ele>
        <time>2022-02-07T20:10:30Z</time>
      </trkpt>
      <trkpt lat="43.75137" lon="2.46537">
        <ele>709</ele>
        <time>2022-02-07T20:10:32Z</time>
      </trkpt>
      <trkpt lat="43.7513" lon="2.46526">
        <ele>709</ele>
        <time>2022-02-07T20:10:34Z</time>
      </trkpt>
      <trkpt lat="43.75126" lon="2.4651">
        <ele>709</ele>
        <time>2022-02-07T20:10:36Z</time>
      </trkpt>
      <trkpt lat="43.75119" lon="2.46443">
        <ele>709</ele>
        <time>2022-02-07T20:10:45Z</time>
      </trkpt>
      <trkpt lat="43.7511" lon="2.46406">
        <ele>710</ele>
        <time>2022-02-07T20:10:50Z</time>
      </trkpt>
      <trkpt lat="43.75098" lon="2.46377">
        <ele>711</ele>
        <time>2022-02-07T20:10:54Z</time>
      </trkpt>
      <trkpt lat="43.75086" lon="2.46358">
        <ele>712</ele>
        <time>2022-02-07T20:10:57Z</time>
      </trkpt>
      <trkpt lat="43.75072" lon="2.46341">
        <ele>712</ele>
        <time>2022-02-07T20:11:01Z</time>
      </trkpt>
      <trkpt lat="43.75033" lon="2.46322">
        <ele>712</ele>
        <time>2022-02-07T20:11:08Z</time>
      </trkpt>
      <trkpt lat="43.74936" lon="2.46302">
        <ele>710</ele>
        <time>2022-02-07T20:11:25Z</time>
      </trkpt>
      <trkpt lat="43.74773" lon="2.46287">
        <ele>706</ele>
        <time>2022-02-07T20:11:54Z</time>
      </trkpt>
      <trkpt lat="43.74748" lon="2.46281">
        <ele>706</ele>
        <time>2022-02-07T20:11:59Z</time>
      </trkpt>
      <trkpt lat="43.74729" lon="2.46268">
        <ele>705</ele>
        <time>2022-02-07T20:12:03Z</time>
      </trkpt>
      <trkpt lat="43.74709" lon="2.46249">
        <ele>704</ele>
        <time>2022-02-07T20:12:07Z</time>
      </trkpt>
      <trkpt lat="43.74694" lon="2.46227">
        <ele>704</ele>
        <time>2022-02-07T20:12:11Z</time>
      </trkpt>
      <trkpt lat="43.74683" lon="2.46204">
        <ele>704</ele>
        <time>2022-02-07T20:12:14Z</time>
      </trkpt>
      <trkpt lat="43.74675" lon="2.46183">
        <ele>705</ele>
        <time>2022-02-07T20:12:18Z</time>
      </trkpt>
      <trkpt lat="43.74669" lon="2.46159">
        <ele>706</ele>
        <time>2022-02-07T20:12:21Z</time>
      </trkpt>
      <trkpt lat="43.74666" lon="2.46137">
        <ele>706</ele>
        <time>2022-02-07T20:12:24Z</time>
      </trkpt>
      <trkpt lat="43.74666" lon="2.46114">
        <ele>706</ele>
        <time>2022-02-07T20:12:27Z</time>
      </trkpt>
      <trkpt lat="43.74669" lon="2.46057">
        <ele>707</ele>
        <time>2022-02-07T20:12:34Z</time>
      </trkpt>
      <trkpt lat="43.74669" lon="2.4602">
        <ele>708</ele>
        <time>2022-02-07T20:12:39Z</time>
      </trkpt>
      <trkpt lat="43.74667" lon="2.45993">
        <ele>709</ele>
        <time>2022-02-07T20:12:42Z</time>
      </trkpt>
      <trkpt lat="43.74651" lon="2.45911">
        <ele>711</ele>
        <time>2022-02-07T20:12:53Z</time>
      </trkpt>
      <trkpt lat="43.74649" lon="2.45888">
        <ele>710</ele>
        <time>2022-02-07T20:12:56Z</time>
      </trkpt>
      <trkpt lat="43.74648" lon="2.45848">
        <ele>710</ele>
        <time>2022-02-07T20:13:01Z</time>
      </trkpt>
      <trkpt lat="43.74645" lon="2.45826">
        <ele>710</ele>
        <time>2022-02-07T20:13:04Z</time>
      </trkpt>
      <trkpt lat="43.74641" lon="2.45809">
        <ele>710</ele>
        <time>2022-02-07T20:13:06Z</time>
      </trkpt>
      <trkpt lat="43.74633" lon="2.45791">
        <ele>710</ele>
        <time>2022-02-07T20:13:09Z</time>
      </trkpt>
      <trkpt lat="43.74624" lon="2.45775">
        <ele>710</ele>
        <time>2022-02-07T20:13:12Z</time>
      </trkpt>
      <trkpt lat="43.74569" lon="2.45707">
        <ele>710</ele>
        <time>2022-02-07T20:13:25Z</time>
      </trkpt>
      <trkpt lat="43.74549" lon="2.45676">
        <ele>709</ele>
        <time>2022-02-07T20:13:30Z</time>
      </trkpt>
      <trkpt lat="43.74514" lon="2.45608">
        <ele>708</ele>
        <time>2022-02-07T20:13:41Z</time>
      </trkpt>
      <trkpt lat="43.74497" lon="2.4557">
        <ele>708</ele>
        <time>2022-02-07T20:13:47Z</time>
      </trkpt>
      <trkpt lat="43.74487" lon="2.45528">
        <ele>708</ele>
        <time>2022-02-07T20:13:52Z</time>
      </trkpt>
      <trkpt lat="43.74482" lon="2.45487">
        <ele>707</ele>
        <time>2022-02-07T20:13:58Z</time>
      </trkpt>
      <trkpt lat="43.74478" lon="2.45423">
        <ele>706</ele>
        <time>2022-02-07T20:14:06Z</time>
      </trkpt>
      <trkpt lat="43.74474" lon="2.45391">
        <ele>705</ele>
        <time>2022-02-07T20:14:10Z</time>
      </trkpt>
      <trkpt lat="43.7446" lon="2.45326">
        <ele>704</ele>
        <time>2022-02-07T20:14:19Z</time>
      </trkpt>
      <trkpt lat="43.74458" lon="2.45306">
        <ele>703</ele>
        <time>2022-02-07T20:14:21Z</time>
      </trkpt>
      <trkpt lat="43.74459" lon="2.45207">
        <ele>699</ele>
        <time>2022-02-07T20:14:34Z</time>
      </trkpt>
      <trkpt lat="43.74451" lon="2.45167">
        <ele>698</ele>
        <time>2022-02-07T20:14:40Z</time>
      </trkpt>
      <trkpt lat="43.7444" lon="2.45133">
        <ele>697</ele>
        <time>2022-02-07T20:14:44Z</time>
      </trkpt>
      <trkpt lat="43.74423" lon="2.45107">
        <ele>698</ele>
        <time>2022-02-07T20:14:49Z</time>
      </trkpt>
      <trkpt lat="43.74363" lon="2.45056">
        <ele>697</ele>
        <time>2022-02-07T20:15:01Z</time>
      </trkpt>
      <trkpt lat="43.7432" lon="2.4501">
        <ele>697</ele>
        <time>2022-02-07T20:15:11Z</time>
      </trkpt>
      <trkpt lat="43.74285" lon="2.44959">
        <ele>694</ele>
        <time>2022-02-07T20:15:20Z</time>
      </trkpt>
      <trkpt lat="43.74266" lon="2.44909">
        <ele>694</ele>
        <time>2022-02-07T20:15:27Z</time>
      </trkpt>
      <trkpt lat="43.74254" lon="2.44818">
        <ele>691</ele>
        <time>2022-02-07T20:15:39Z</time>
      </trkpt>
      <trkpt lat="43.74251" lon="2.44667">
        <ele>688</ele>
        <time>2022-02-07T20:15:59Z</time>
      </trkpt>
      <trkpt lat="43.74246" lon="2.44631">
        <ele>685</ele>
        <time>2022-02-07T20:16:03Z</time>
      </trkpt>
      <trkpt lat="43.74236" lon="2.44601">
        <ele>683</ele>
        <time>2022-02-07T20:16:08Z</time>
      </trkpt>
      <trkpt lat="43.74222" lon="2.44585">
        <ele>682</ele>
        <time>2022-02-07T20:16:11Z</time>
      </trkpt>
      <trkpt lat="43.74206" lon="2.44578">
        <ele>682</ele>
        <time>2022-02-07T20:16:14Z</time>
      </trkpt>
      <trkpt lat="43.74191" lon="2.44577">
        <ele>682</ele>
        <time>2022-02-07T20:16:17Z</time>
      </trkpt>
      <trkpt lat="43.74101" lon="2.44584">
        <ele>681</ele>
        <time>2022-02-07T20:16:33Z</time>
      </trkpt>
      <trkpt lat="43.74083" lon="2.44576">
        <ele>679</ele>
        <time>2022-02-07T20:16:36Z</time>
      </trkpt>
      <trkpt lat="43.74037" lon="2.44539">
        <ele>674</ele>
        <time>2022-02-07T20:16:45Z</time>
      </trkpt>
      <trkpt lat="43.73964" lon="2.44509">
        <ele>672</ele>
        <time>2022-02-07T20:16:59Z</time>
      </trkpt>
      <trkpt lat="43.73911" lon="2.44495">
        <ele>671</ele>
        <time>2022-02-07T20:17:09Z</time>
      </trkpt>
      <trkpt lat="43.73879" lon="2.44498">
        <ele>672</ele>
        <time>2022-02-07T20:17:14Z</time>
      </trkpt>
      <trkpt lat="43.73799" lon="2.44538">
        <ele>669</ele>
        <time>2022-02-07T20:17:29Z</time>
      </trkpt>
      <trkpt lat="43.7377" lon="2.44549">
        <ele>668</ele>
        <time>2022-02-07T20:17:35Z</time>
      </trkpt>
      <trkpt lat="43.73753" lon="2.44549">
        <ele>668</ele>
        <time>2022-02-07T20:17:38Z</time>
      </trkpt>
      <trkpt lat="43.73733" lon="2.44546">
        <ele>667</ele>
        <time>2022-02-07T20:17:41Z</time>
      </trkpt>
      <trkpt lat="43.73695" lon="2.44529">
        <ele>666</ele>
        <time>2022-02-07T20:17:48Z</time>
      </trkpt>
      <trkpt lat="43.73661" lon="2.44499">
        <ele>668</ele>
        <time>2022-02-07T20:17:56Z</time>
      </trkpt>
      <trkpt lat="43.73616" lon="2.44436">
        <ele>665</ele>
        <time>2022-02-07T20:18:07Z</time>
      </trkpt>
      <trkpt lat="43.73607" lon="2.44413">
        <ele>665</ele>
        <time>2022-02-07T20:18:10Z</time>
      </trkpt>
      <trkpt lat="43.73597" lon="2.44325">
        <ele>667</ele>
        <time>2022-02-07T20:18:22Z</time>
      </trkpt>
      <trkpt lat="43.73579" lon="2.44296">
        <ele>666</ele>
        <time>2022-02-07T20:18:27Z</time>
      </trkpt>
      <trkpt lat="43.73561" lon="2.44255">
        <ele>665</ele>
        <time>2022-02-07T20:18:33Z</time>
      </trkpt>
      <trkpt lat="43.73512" lon="2.44076">
        <ele>662</ele>
        <time>2022-02-07T20:18:57Z</time>
      </trkpt>
      <trkpt lat="43.73518" lon="2.43873">
        <ele>656</ele>
        <time>2022-02-07T20:19:24Z</time>
      </trkpt>
      <trkpt lat="43.7352" lon="2.4376">
        <ele>655</ele>
        <time>2022-02-07T20:19:38Z</time>
      </trkpt>
      <trkpt lat="43.73513" lon="2.43728">
        <ele>655</ele>
        <time>2022-02-07T20:19:42Z</time>
      </trkpt>
      <trkpt lat="43.73462" lon="2.43654">
        <ele>649</ele>
        <time>2022-02-07T20:19:56Z</time>
      </trkpt>
      <trkpt lat="43.73441" lon="2.436">
        <ele>647</ele>
        <time>2022-02-07T20:20:03Z</time>
      </trkpt>
      <trkpt lat="43.73437" lon="2.43562">
        <ele>647</ele>
        <time>2022-02-07T20:20:08Z</time>
      </trkpt>
      <trkpt lat="43.73461" lon="2.43407">
        <ele>643</ele>
        <time>2022-02-07T20:20:29Z</time>
      </trkpt>
      <trkpt lat="43.73462" lon="2.43193">
        <ele>640</ele>
        <time>2022-02-07T20:20:56Z</time>
      </trkpt>
      <trkpt lat="43.73452" lon="2.43097">
        <ele>642</ele>
        <time>2022-02-07T20:21:09Z</time>
      </trkpt>
      <trkpt lat="43.73446" lon="2.43061">
        <ele>644</ele>
        <time>2022-02-07T20:21:14Z</time>
      </trkpt>
      <trkpt lat="43.7344" lon="2.43044">
        <ele>645</ele>
        <time>2022-02-07T20:21:16Z</time>
      </trkpt>
      <trkpt lat="43.73409" lon="2.43004">
        <ele>644</ele>
        <time>2022-02-07T20:21:24Z</time>
      </trkpt>
      <trkpt lat="43.73399" lon="2.42981">
        <ele>643</ele>
        <time>2022-02-07T20:21:27Z</time>
      </trkpt>
      <trkpt lat="43.73379" lon="2.42922">
        <ele>644</ele>
        <time>2022-02-07T20:21:35Z</time>
      </trkpt>
      <trkpt lat="43.73364" lon="2.42893">
        <ele>643</ele>
        <time>2022-02-07T20:21:40Z</time>
      </trkpt>
      <trkpt lat="43.73349" lon="2.42875">
        <ele>643</ele>
        <time>2022-02-07T20:21:43Z</time>
      </trkpt>
      <trkpt lat="43.73308" lon="2.42836">
        <ele>643</ele>
        <time>2022-02-07T20:21:52Z</time>
      </trkpt>
      <trkpt lat="43.73259" lon="2.4278">
        <ele>642</ele>
        <time>2022-02-07T20:22:04Z</time>
      </trkpt>
      <trkpt lat="43.73247" lon="2.4277">
        <ele>642</ele>
        <time>2022-02-07T20:22:06Z</time>
      </trkpt>
      <trkpt lat="43.73228" lon="2.42762">
        <ele>642</ele>
        <time>2022-02-07T20:22:10Z</time>
      </trkpt>
      <trkpt lat="43.73212" lon="2.42764">
        <ele>641</ele>
        <time>2022-02-07T20:22:12Z</time>
      </trkpt>
      <trkpt lat="43.7316" lon="2.42784">
        <ele>638</ele>
        <time>2022-02-07T20:22:22Z</time>
      </trkpt>
      <trkpt lat="43.73145" lon="2.42785">
        <ele>636</ele>
        <time>2022-02-07T20:22:25Z</time>
      </trkpt>
      <trkpt lat="43.73119" lon="2.42778">
        <ele>634</ele>
        <time>2022-02-07T20:22:29Z</time>
      </trkpt>
      <trkpt lat="43.73091" lon="2.42765">
        <ele>634</ele>
        <time>2022-02-07T20:22:35Z</time>
      </trkpt>
      <trkpt lat="43.73076" lon="2.42753">
        <ele>634</ele>
        <time>2022-02-07T20:22:38Z</time>
      </trkpt>
      <trkpt lat="43.73069" lon="2.4274">
        <ele>633</ele>
        <time>2022-02-07T20:22:40Z</time>
      </trkpt>
      <trkpt lat="43.73067" lon="2.42726">
        <ele>632</ele>
        <time>2022-02-07T20:22:42Z</time>
      </trkpt>
      <trkpt lat="43.73067" lon="2.42711">
        <ele>631</ele>
        <time>2022-02-07T20:22:44Z</time>
      </trkpt>
      <trkpt lat="43.73071" lon="2.42691">
        <ele>631</ele>
        <time>2022-02-07T20:22:46Z</time>
      </trkpt>
      <trkpt lat="43.73078" lon="2.42671">
        <ele>630</ele>
        <time>2022-02-07T20:22:49Z</time>
      </trkpt>
      <trkpt lat="43.73087" lon="2.42653">
        <ele>629</ele>
        <time>2022-02-07T20:22:52Z</time>
      </trkpt>
      <trkpt lat="43.73125" lon="2.42598">
        <ele>626</ele>
        <time>2022-02-07T20:23:02Z</time>
      </trkpt>
      <trkpt lat="43.73171" lon="2.42542">
        <ele>623</ele>
        <time>2022-02-07T20:23:13Z</time>
      </trkpt>
      <trkpt lat="43.73205" lon="2.42507">
        <ele>621</ele>
        <time>2022-02-07T20:23:20Z</time>
      </trkpt>
      <trkpt lat="43.73289" lon="2.42433">
        <ele>617</ele>
        <time>2022-02-07T20:23:38Z</time>
      </trkpt>
      <trkpt lat="43.73298" lon="2.42417">
        <ele>616</ele>
        <time>2022-02-07T20:23:41Z</time>
      </trkpt>
      <trkpt lat="43.73308" lon="2.42393">
        <ele>615</ele>
        <time>2022-02-07T20:23:44Z</time>
      </trkpt>
      <trkpt lat="43.73313" lon="2.42367">
        <ele>614</ele>
        <time>2022-02-07T20:23:48Z</time>
      </trkpt>
      <trkpt lat="43.73316" lon="2.42338">
        <ele>612</ele>
        <time>2022-02-07T20:23:51Z</time>
      </trkpt>
      <trkpt lat="43.73313" lon="2.42308">
        <ele>609</ele>
        <time>2022-02-07T20:23:55Z</time>
      </trkpt>
      <trkpt lat="43.73307" lon="2.42282">
        <ele>607</ele>
        <time>2022-02-07T20:23:59Z</time>
      </trkpt>
      <trkpt lat="43.73297" lon="2.42258">
        <ele>604</ele>
        <time>2022-02-07T20:24:02Z</time>
      </trkpt>
      <trkpt lat="43.73278" lon="2.42235">
        <ele>603</ele>
        <time>2022-02-07T20:24:07Z</time>
      </trkpt>
      <trkpt lat="43.73198" lon="2.42183">
        <ele>602</ele>
        <time>2022-02-07T20:24:23Z</time>
      </trkpt>
      <trkpt lat="43.7317" lon="2.42154">
        <ele>605</ele>
        <time>2022-02-07T20:24:29Z</time>
      </trkpt>
      <trkpt lat="43.73101" lon="2.42032">
        <ele>611</ele>
        <time>2022-02-07T20:24:49Z</time>
      </trkpt>
      <trkpt lat="43.73001" lon="2.41749">
        <ele>606</ele>
        <time>2022-02-07T20:25:29Z</time>
      </trkpt>
      <trkpt lat="43.7289" lon="2.4141">
        <ele>601</ele>
        <time>2022-02-07T20:26:17Z</time>
      </trkpt>
      <trkpt lat="43.72875" lon="2.41374">
        <ele>601</ele>
        <time>2022-02-07T20:26:22Z</time>
      </trkpt>
      <trkpt lat="43.72861" lon="2.41354">
        <ele>601</ele>
        <time>2022-02-07T20:26:26Z</time>
      </trkpt>
      <trkpt lat="43.72799" lon="2.41292">
        <ele>600</ele>
        <time>2022-02-07T20:26:40Z</time>
      </trkpt>
      <trkpt lat="43.72779" lon="2.41265">
        <ele>601</ele>
        <time>2022-02-07T20:26:45Z</time>
      </trkpt>
      <trkpt lat="43.72761" lon="2.41228">
        <ele>603</ele>
        <time>2022-02-07T20:26:50Z</time>
      </trkpt>
      <trkpt lat="43.72749" lon="2.41177">
        <ele>606</ele>
        <time>2022-02-07T20:26:57Z</time>
      </trkpt>
      <trkpt lat="43.72744" lon="2.41108">
        <ele>609</ele>
        <time>2022-02-07T20:27:06Z</time>
      </trkpt>
      <trkpt lat="43.72743" lon="2.41071">
        <ele>611</ele>
        <time>2022-02-07T20:27:11Z</time>
      </trkpt>
      <trkpt lat="43.72736" lon="2.41045">
        <ele>611</ele>
        <time>2022-02-07T20:27:14Z</time>
      </trkpt>
      <trkpt lat="43.72723" lon="2.41022">
        <ele>613</ele>
        <time>2022-02-07T20:27:18Z</time>
      </trkpt>
      <trkpt lat="43.72648" lon="2.40962">
        <ele>618</ele>
        <time>2022-02-07T20:27:34Z</time>
      </trkpt>
      <trkpt lat="43.72603" lon="2.40883">
        <ele>619</ele>
        <time>2022-02-07T20:27:47Z</time>
      </trkpt>
      <trkpt lat="43.72556" lon="2.4078">
        <ele>618</ele>
        <time>2022-02-07T20:28:02Z</time>
      </trkpt>
      <trkpt lat="43.72548" lon="2.40742">
        <ele>616</ele>
        <time>2022-02-07T20:28:07Z</time>
      </trkpt>
      <trkpt lat="43.72555" lon="2.40705">
        <ele>617</ele>
        <time>2022-02-07T20:28:12Z</time>
      </trkpt>
      <trkpt lat="43.72612" lon="2.4056">
        <ele>625</ele>
        <time>2022-02-07T20:28:33Z</time>
      </trkpt>
      <trkpt lat="43.7262" lon="2.40497">
        <ele>633</ele>
        <time>2022-02-07T20:28:42Z</time>
      </trkpt>
      <trkpt lat="43.72617" lon="2.40442">
        <ele>636</ele>
        <time>2022-02-07T20:28:49Z</time>
      </trkpt>
      <trkpt lat="43.72544" lon="2.40101">
        <ele>629</ele>
        <time>2022-02-07T20:29:34Z</time>
      </trkpt>
      <trkpt lat="43.72525" lon="2.40045">
        <ele>627</ele>
        <time>2022-02-07T20:29:42Z</time>
      </trkpt>
      <trkpt lat="43.72488" lon="2.3997">
        <ele>624</ele>
        <time>2022-02-07T20:29:54Z</time>
      </trkpt>
      <trkpt lat="43.72472" lon="2.39913">
        <ele>619</ele>
        <time>2022-02-07T20:30:02Z</time>
      </trkpt>
      <trkpt lat="43.72459" lon="2.39731">
        <ele>614</ele>
        <time>2022-02-07T20:30:25Z</time>
      </trkpt>
      <trkpt lat="43.72446" lon="2.39465">
        <ele>608</ele>
        <time>2022-02-07T20:31:00Z</time>
      </trkpt>
      <trkpt lat="43.72441" lon="2.39441">
        <ele>608</ele>
        <time>2022-02-07T20:31:03Z</time>
      </trkpt>
      <trkpt lat="43.72434" lon="2.39422">
        <ele>608</ele>
        <time>2022-02-07T20:31:06Z</time>
      </trkpt>
      <trkpt lat="43.72423" lon="2.39404">
        <ele>608</ele>
        <time>2022-02-07T20:31:09Z</time>
      </trkpt>
      <trkpt lat="43.72409" lon="2.3939">
        <ele>608</ele>
        <time>2022-02-07T20:31:12Z</time>
      </trkpt>
      <trkpt lat="43.72189" lon="2.39222">
        <ele>598</ele>
        <time>2022-02-07T20:31:57Z</time>
      </trkpt>
      <trkpt lat="43.72167" lon="2.39201">
        <ele>598</ele>
        <time>2022-02-07T20:32:01Z</time>
      </trkpt>
      <trkpt lat="43.72154" lon="2.39181">
        <ele>597</ele>
        <time>2022-02-07T20:32:05Z</time>
      </trkpt>
      <trkpt lat="43.72142" lon="2.39153">
        <ele>596</ele>
        <time>2022-02-07T20:32:09Z</time>
      </trkpt>
      <trkpt lat="43.72133" lon="2.39123">
        <ele>595</ele>
        <time>2022-02-07T20:32:13Z</time>
      </trkpt>
      <trkpt lat="43.72128" lon="2.39095">
        <ele>594</ele>
        <time>2022-02-07T20:32:17Z</time>
      </trkpt>
      <trkpt lat="43.72123" lon="2.38897">
        <ele>599</ele>
        <time>2022-02-07T20:32:42Z</time>
      </trkpt>
      <trkpt lat="43.7212" lon="2.38861">
        <ele>597</ele>
        <time>2022-02-07T20:32:47Z</time>
      </trkpt>
      <trkpt lat="43.72092" lon="2.38659">
        <ele>586</ele>
        <time>2022-02-07T20:33:13Z</time>
      </trkpt>
      <trkpt lat="43.7206" lon="2.38471">
        <ele>588</ele>
        <time>2022-02-07T20:33:38Z</time>
      </trkpt>
      <trkpt lat="43.72053" lon="2.38398">
        <ele>588</ele>
        <time>2022-02-07T20:33:48Z</time>
      </trkpt>
      <trkpt lat="43.7205" lon="2.38347">
        <ele>589</ele>
        <time>2022-02-07T20:33:54Z</time>
      </trkpt>
      <trkpt lat="43.72045" lon="2.38235">
        <ele>591</ele>
        <time>2022-02-07T20:34:09Z</time>
      </trkpt>
      <trkpt lat="43.72041" lon="2.3821">
        <ele>593</ele>
        <time>2022-02-07T20:34:12Z</time>
      </trkpt>
      <trkpt lat="43.72031" lon="2.38171">
        <ele>595</ele>
        <time>2022-02-07T20:34:17Z</time>
      </trkpt>
      <trkpt lat="43.72019" lon="2.38139">
        <ele>595</ele>
        <time>2022-02-07T20:34:22Z</time>
      </trkpt>
      <trkpt lat="43.71999" lon="2.38102">
        <ele>596</ele>
        <time>2022-02-07T20:34:28Z</time>
      </trkpt>
      <trkpt lat="43.71977" lon="2.38073">
        <ele>596</ele>
        <time>2022-02-07T20:34:33Z</time>
      </trkpt>
      <trkpt lat="43.71958" lon="2.38055">
        <ele>596</ele>
        <time>2022-02-07T20:34:37Z</time>
      </trkpt>
      <trkpt lat="43.71939" lon="2.38041">
        <ele>595</ele>
        <time>2022-02-07T20:34:41Z</time>
      </trkpt>
      <trkpt lat="43.71925" lon="2.38035">
        <ele>595</ele>
        <time>2022-02-07T20:34:44Z</time>
      </trkpt>
      <trkpt lat="43.71905" lon="2.38029">
        <ele>595</ele>
        <time>2022-02-07T20:34:47Z</time>
      </trkpt>
      <trkpt lat="43.71817" lon="2.38036">
        <ele>598</ele>
        <time>2022-02-07T20:35:03Z</time>
      </trkpt>
      <trkpt lat="43.71798" lon="2.38035">
        <ele>599</ele>
        <time>2022-02-07T20:35:07Z</time>
      </trkpt>
      <trkpt lat="43.71743" lon="2.38024">
        <ele>601</ele>
        <time>2022-02-07T20:35:16Z</time>
      </trkpt>
      <trkpt lat="43.71709" lon="2.38012">
        <ele>603</ele>
        <time>2022-02-07T20:35:23Z</time>
      </trkpt>
      <trkpt lat="43.71698" lon="2.38006">
        <ele>603</ele>
        <time>2022-02-07T20:35:25Z</time>
      </trkpt>
      <trkpt lat="43.71687" lon="2.37996">
        <ele>604</ele>
        <time>2022-02-07T20:35:27Z</time>
      </trkpt>
      <trkpt lat="43.71673" lon="2.37978">
        <ele>604</ele>
        <time>2022-02-07T20:35:31Z</time>
      </trkpt>
      <trkpt lat="43.71659" lon="2.37957">
        <ele>604</ele>
        <time>2022-02-07T20:35:34Z</time>
      </trkpt>
      <trkpt lat="43.71642" lon="2.37919">
        <ele>603</ele>
        <time>2022-02-07T20:35:40Z</time>
      </trkpt>
      <trkpt lat="43.71615" lon="2.37806">
        <ele>607</ele>
        <time>2022-02-07T20:35:55Z</time>
      </trkpt>
      <trkpt lat="43.71613" lon="2.37784">
        <ele>609</ele>
        <time>2022-02-07T20:35:58Z</time>
      </trkpt>
      <trkpt lat="43.71613" lon="2.37748">
        <ele>612</ele>
        <time>2022-02-07T20:36:03Z</time>
      </trkpt>
      <trkpt lat="43.71611" lon="2.37731">
        <ele>615</ele>
        <time>2022-02-07T20:36:05Z</time>
      </trkpt>
      <trkpt lat="43.71606" lon="2.37713">
        <ele>619</ele>
        <time>2022-02-07T20:36:07Z</time>
      </trkpt>
      <trkpt lat="43.71598" lon="2.37696">
        <ele>622</ele>
        <time>2022-02-07T20:36:10Z</time>
      </trkpt>
      <trkpt lat="43.71588" lon="2.37682">
        <ele>624</ele>
        <time>2022-02-07T20:36:13Z</time>
      </trkpt>
      <trkpt lat="43.71577" lon="2.37672">
        <ele>626</ele>
        <time>2022-02-07T20:36:15Z</time>
      </trkpt>
      <trkpt lat="43.71511" lon="2.37647">
        <ele>627</ele>
        <time>2022-02-07T20:36:27Z</time>
      </trkpt>
      <trkpt lat="43.71465" lon="2.37614">
        <ele>632</ele>
        <time>2022-02-07T20:36:36Z</time>
      </trkpt>
      <trkpt lat="43.71434" lon="2.37609">
        <ele>632</ele>
        <time>2022-02-07T20:36:42Z</time>
      </trkpt>
      <trkpt lat="43.71376" lon="2.37632">
        <ele>626</ele>
        <time>2022-02-07T20:36:53Z</time>
      </trkpt>
      <trkpt lat="43.71338" lon="2.37656">
        <ele>625</ele>
        <time>2022-02-07T20:37:00Z</time>
      </trkpt>
      <trkpt lat="43.71323" lon="2.37659">
        <ele>625</ele>
        <time>2022-02-07T20:37:03Z</time>
      </trkpt>
      <trkpt lat="43.71304" lon="2.37656">
        <ele>625</ele>
        <time>2022-02-07T20:37:06Z</time>
      </trkpt>
      <trkpt lat="43.71155" lon="2.37578">
        <ele>617</ele>
        <time>2022-02-07T20:37:34Z</time>
      </trkpt>
      <trkpt lat="43.71114" lon="2.3756">
        <ele>615</ele>
        <time>2022-02-07T20:37:42Z</time>
      </trkpt>
      <trkpt lat="43.71083" lon="2.37527">
        <ele>612</ele>
        <time>2022-02-07T20:37:49Z</time>
      </trkpt>
      <trkpt lat="43.71061" lon="2.37481">
        <ele>610</ele>
        <time>2022-02-07T20:37:56Z</time>
      </trkpt>
      <trkpt lat="43.71034" lon="2.37362">
        <ele>605</ele>
        <time>2022-02-07T20:38:12Z</time>
      </trkpt>
      <trkpt lat="43.71019" lon="2.37325">
        <ele>603</ele>
        <time>2022-02-07T20:38:18Z</time>
      </trkpt>
      <trkpt lat="43.70988" lon="2.37263">
        <ele>596</ele>
        <time>2022-02-07T20:38:27Z</time>
      </trkpt>
      <trkpt lat="43.70958" lon="2.37194">
        <ele>591</ele>
        <time>2022-02-07T20:38:38Z</time>
      </trkpt>
      <trkpt lat="43.70924" lon="2.37134">
        <ele>587</ele>
        <time>2022-02-07T20:38:48Z</time>
      </trkpt>
      <trkpt lat="43.70913" lon="2.37107">
        <ele>585</ele>
        <time>2022-02-07T20:38:52Z</time>
      </trkpt>
      <trkpt lat="43.70905" lon="2.37066">
        <ele>583</ele>
        <time>2022-02-07T20:38:57Z</time>
      </trkpt>
      <trkpt lat="43.70903" lon="2.37037">
        <ele>583</ele>
        <time>2022-02-07T20:39:01Z</time>
      </trkpt>
      <trkpt lat="43.70905" lon="2.37008">
        <ele>583</ele>
        <time>2022-02-07T20:39:04Z</time>
      </trkpt>
      <trkpt lat="43.70922" lon="2.36882">
        <ele>584</ele>
        <time>2022-02-07T20:39:21Z</time>
      </trkpt>
      <trkpt lat="43.7094" lon="2.36807">
        <ele>583</ele>
        <time>2022-02-07T20:39:31Z</time>
      </trkpt>
      <trkpt lat="43.71047" lon="2.36503">
        <ele>592</ele>
        <time>2022-02-07T20:40:15Z</time>
      </trkpt>
      <trkpt lat="43.711" lon="2.36322">
        <ele>586</ele>
        <time>2022-02-07T20:40:40Z</time>
      </trkpt>
      <trkpt lat="43.71163" lon="2.36081">
        <ele>583</ele>
        <time>2022-02-07T20:41:13Z</time>
      </trkpt>
      <trkpt lat="43.71189" lon="2.35993">
        <ele>582</ele>
        <time>2022-02-07T20:41:25Z</time>
      </trkpt>
      <trkpt lat="43.71202" lon="2.3594">
        <ele>581</ele>
        <time>2022-02-07T20:41:32Z</time>
      </trkpt>
      <trkpt lat="43.71205" lon="2.35915">
        <ele>581</ele>
        <time>2022-02-07T20:41:35Z</time>
      </trkpt>
      <trkpt lat="43.71205" lon="2.35864">
        <ele>582</ele>
        <time>2022-02-07T20:41:42Z</time>
      </trkpt>
      <trkpt lat="43.7119" lon="2.3569">
        <ele>581</ele>
        <time>2022-02-07T20:42:04Z</time>
      </trkpt>
      <trkpt lat="43.71193" lon="2.35667">
        <ele>582</ele>
        <time>2022-02-07T20:42:07Z</time>
      </trkpt>
      <trkpt lat="43.71199" lon="2.35645">
        <ele>580</ele>
        <time>2022-02-07T20:42:10Z</time>
      </trkpt>
      <trkpt lat="43.71206" lon="2.35631">
        <ele>580</ele>
        <time>2022-02-07T20:42:13Z</time>
      </trkpt>
      <trkpt lat="43.7123" lon="2.35596">
        <ele>580</ele>
        <time>2022-02-07T20:42:19Z</time>
      </trkpt>
      <trkpt lat="43.71297" lon="2.35515">
        <ele>572</ele>
        <time>2022-02-07T20:42:35Z</time>
      </trkpt>
      <trkpt lat="43.71315" lon="2.35485">
        <ele>569</ele>
        <time>2022-02-07T20:42:40Z</time>
      </trkpt>
      <trkpt lat="43.71346" lon="2.35425">
        <ele>563</ele>
        <time>2022-02-07T20:42:49Z</time>
      </trkpt>
      <trkpt lat="43.71362" lon="2.35403">
        <ele>561</ele>
        <time>2022-02-07T20:42:53Z</time>
      </trkpt>
      <trkpt lat="43.71387" lon="2.35376">
        <ele>560</ele>
        <time>2022-02-07T20:42:59Z</time>
      </trkpt>
      <trkpt lat="43.7146" lon="2.35306">
        <ele>554</ele>
        <time>2022-02-07T20:43:15Z</time>
      </trkpt>
      <trkpt lat="43.7148" lon="2.3529">
        <ele>554</ele>
        <time>2022-02-07T20:43:19Z</time>
      </trkpt>
      <trkpt lat="43.715" lon="2.35279">
        <ele>555</ele>
        <time>2022-02-07T20:43:23Z</time>
      </trkpt>
      <trkpt lat="43.71521" lon="2.35264">
        <ele>554</ele>
        <time>2022-02-07T20:43:27Z</time>
      </trkpt>
      <trkpt lat="43.71534" lon="2.35248">
        <ele>553</ele>
        <time>2022-02-07T20:43:30Z</time>
      </trkpt>
      <trkpt lat="43.71548" lon="2.35224">
        <ele>551</ele>
        <time>2022-02-07T20:43:34Z</time>
      </trkpt>
      <trkpt lat="43.71723" lon="2.34766">
        <ele>551</ele>
        <time>2022-02-07T20:44:41Z</time>
      </trkpt>
      <trkpt lat="43.71731" lon="2.34722">
        <ele>550</ele>
        <time>2022-02-07T20:44:46Z</time>
      </trkpt>
      <trkpt lat="43.71745" lon="2.34503">
        <ele>548</ele>
        <time>2022-02-07T20:45:15Z</time>
      </trkpt>
      <trkpt lat="43.71749" lon="2.34469">
        <ele>547</ele>
        <time>2022-02-07T20:45:19Z</time>
      </trkpt>
      <trkpt lat="43.71761" lon="2.3441">
        <ele>545</ele>
        <time>2022-02-07T20:45:27Z</time>
      </trkpt>
      <trkpt lat="43.71903" lon="2.34049">
        <ele>538</ele>
        <time>2022-02-07T20:46:20Z</time>
      </trkpt>
      <trkpt lat="43.71918" lon="2.34003">
        <ele>538</ele>
        <time>2022-02-07T20:46:26Z</time>
      </trkpt>
      <trkpt lat="43.7193" lon="2.33961">
        <ele>537</ele>
        <time>2022-02-07T20:46:32Z</time>
      </trkpt>
      <trkpt lat="43.7194" lon="2.33914">
        <ele>537</ele>
        <time>2022-02-07T20:46:38Z</time>
      </trkpt>
      <trkpt lat="43.71979" lon="2.33713">
        <ele>534</ele>
        <time>2022-02-07T20:47:05Z</time>
      </trkpt>
      <trkpt lat="43.71984" lon="2.3368">
        <ele>532</ele>
        <time>2022-02-07T20:47:09Z</time>
      </trkpt>
      <trkpt lat="43.71986" lon="2.33642">
        <ele>532</ele>
        <time>2022-02-07T20:47:14Z</time>
      </trkpt>
      <trkpt lat="43.71991" lon="2.33224">
        <ele>528</ele>
        <time>2022-02-07T20:48:08Z</time>
      </trkpt>
      <trkpt lat="43.71991" lon="2.33022">
        <ele>524</ele>
        <time>2022-02-07T20:48:34Z</time>
      </trkpt>
      <trkpt lat="43.71995" lon="2.32846">
        <ele>522</ele>
        <time>2022-02-07T20:48:57Z</time>
      </trkpt>
      <trkpt lat="43.72001" lon="2.32792">
        <ele>522</ele>
        <time>2022-02-07T20:49:04Z</time>
      </trkpt>
      <trkpt lat="43.71983" lon="2.32787">
        <ele>521</ele>
        <time>2022-02-07T20:49:07Z</time>
      </trkpt>
      <trkpt lat="43.71976" lon="2.32777">
        <ele>521</ele>
        <time>2022-02-07T20:49:09Z</time>
      </trkpt>
      <trkpt lat="43.71967" lon="2.3276">
        <ele>520</ele>
        <time>2022-02-07T20:49:12Z</time>
      </trkpt>
      <trkpt lat="43.71915" lon="2.32635">
        <ele>518</ele>
        <time>2022-02-07T20:49:30Z</time>
      </trkpt>
      <trkpt lat="43.71905" lon="2.32603">
        <ele>517</ele>
        <time>2022-02-07T20:49:35Z</time>
      </trkpt>
      <trkpt lat="43.71895" lon="2.32547">
        <ele>516</ele>
        <time>2022-02-07T20:49:42Z</time>
      </trkpt>
      <trkpt lat="43.71885" lon="2.32522">
        <ele>516</ele>
        <time>2022-02-07T20:49:46Z</time>
      </trkpt>
      <trkpt lat="43.71866" lon="2.32483">
        <ele>515</ele>
        <time>2022-02-07T20:49:52Z</time>
      </trkpt>
      <trkpt lat="43.71865" lon="2.32471">
        <ele>515</ele>
        <time>2022-02-07T20:49:53Z</time>
      </trkpt>
      <trkpt lat="43.71866" lon="2.32463">
        <ele>515</ele>
        <time>2022-02-07T20:49:54Z</time>
      </trkpt>
      <trkpt lat="43.71679" lon="2.32255">
        <ele>512</ele>
        <time>2022-02-07T20:50:37Z</time>
      </trkpt>
      <trkpt lat="43.71667" lon="2.32235">
        <ele>511</ele>
        <time>2022-02-07T20:50:40Z</time>
      </trkpt>
      <trkpt lat="43.71657" lon="2.32213">
        <ele>511</ele>
        <time>2022-02-07T20:50:44Z</time>
      </trkpt>
      <trkpt lat="43.71586" lon="2.31977">
        <ele>505</ele>
        <time>2022-02-07T20:51:17Z</time>
      </trkpt>
      <trkpt lat="43.71567" lon="2.3193">
        <ele>504</ele>
        <time>2022-02-07T20:51:23Z</time>
      </trkpt>
      <trkpt lat="43.71537" lon="2.31863">
        <ele>502</ele>
        <time>2022-02-07T20:51:34Z</time>
      </trkpt>
      <trkpt lat="43.71429" lon="2.31651">
        <ele>501</ele>
        <time>2022-02-07T20:52:07Z</time>
      </trkpt>
      <trkpt lat="43.71319" lon="2.31431">
        <ele>495</ele>
        <time>2022-02-07T20:52:41Z</time>
      </trkpt>
      <trkpt lat="43.71308" lon="2.31404">
        <ele>493</ele>
        <time>2022-02-07T20:52:45Z</time>
      </trkpt>
      <trkpt lat="43.71301" lon="2.31377">
        <ele>492</ele>
        <time>2022-02-07T20:52:49Z</time>
      </trkpt>
      <trkpt lat="43.71285" lon="2.31309">
        <ele>492</ele>
        <time>2022-02-07T20:52:58Z</time>
      </trkpt>
      <trkpt lat="43.71275" lon="2.31256">
        <ele>492</ele>
        <time>2022-02-07T20:53:05Z</time>
      </trkpt>
      <trkpt lat="43.71276" lon="2.31207">
        <ele>493</ele>
        <time>2022-02-07T20:53:12Z</time>
      </trkpt>
      <trkpt lat="43.71295" lon="2.31035">
        <ele>489</ele>
        <time>2022-02-07T20:53:34Z</time>
      </trkpt>
      <trkpt lat="43.71302" lon="2.31001">
        <ele>487</ele>
        <time>2022-02-07T20:53:39Z</time>
      </trkpt>
      <trkpt lat="43.71312" lon="2.30974">
        <ele>485</ele>
        <time>2022-02-07T20:53:42Z</time>
      </trkpt>
      <trkpt lat="43.71321" lon="2.30955">
        <ele>484</ele>
        <time>2022-02-07T20:53:45Z</time>
      </trkpt>
      <trkpt lat="43.71401" lon="2.30832">
        <ele>480</ele>
        <time>2022-02-07T20:54:07Z</time>
      </trkpt>
      <trkpt lat="43.71505" lon="2.3062">
        <ele>476</ele>
        <time>2022-02-07T20:54:40Z</time>
      </trkpt>
      <trkpt lat="43.71517" lon="2.30585">
        <ele>475</ele>
        <time>2022-02-07T20:54:45Z</time>
      </trkpt>
      <trkpt lat="43.71533" lon="2.30519">
        <ele>473</ele>
        <time>2022-02-07T20:54:54Z</time>
      </trkpt>
      <trkpt lat="43.71547" lon="2.30486">
        <ele>473</ele>
        <time>2022-02-07T20:54:58Z</time>
      </trkpt>
      <trkpt lat="43.71563" lon="2.30469">
        <ele>473</ele>
        <time>2022-02-07T20:55:02Z</time>
      </trkpt>
      <trkpt lat="43.71604" lon="2.30436">
        <ele>472</ele>
        <time>2022-02-07T20:55:10Z</time>
      </trkpt>
      <trkpt lat="43.7163" lon="2.30404">
        <ele>470</ele>
        <time>2022-02-07T20:55:17Z</time>
      </trkpt>
      <trkpt lat="43.71683" lon="2.30323">
        <ele>465</ele>
        <time>2022-02-07T20:55:31Z</time>
      </trkpt>
      <trkpt lat="43.71836" lon="2.30054">
        <ele>463</ele>
        <time>2022-02-07T20:56:15Z</time>
      </trkpt>
      <trkpt lat="43.71958" lon="2.29847">
        <ele>465</ele>
        <time>2022-02-07T20:56:49Z</time>
      </trkpt>
      <trkpt lat="43.71973" lon="2.29812">
        <ele>467</ele>
        <time>2022-02-07T20:56:54Z</time>
      </trkpt>
      <trkpt lat="43.71995" lon="2.29734">
        <ele>474</ele>
        <time>2022-02-07T20:57:05Z</time>
      </trkpt>
      <trkpt lat="43.72004" lon="2.2969">
        <ele>475</ele>
        <time>2022-02-07T20:57:11Z</time>
      </trkpt>
      <trkpt lat="43.72006" lon="2.29658">
        <ele>476</ele>
        <time>2022-02-07T20:57:15Z</time>
      </trkpt>
      <trkpt lat="43.72003" lon="2.29633">
        <ele>476</ele>
        <time>2022-02-07T20:57:18Z</time>
      </trkpt>
      <trkpt lat="43.71994" lon="2.29608">
        <ele>475</ele>
        <time>2022-02-07T20:57:22Z</time>
      </trkpt>
      <trkpt lat="43.71978" lon="2.29581">
        <ele>474</ele>
        <time>2022-02-07T20:57:26Z</time>
      </trkpt>
      <trkpt lat="43.71952" lon="2.2956">
        <ele>472</ele>
        <time>2022-02-07T20:57:32Z</time>
      </trkpt>
      <trkpt lat="43.7191" lon="2.29538">
        <ele>470</ele>
        <time>2022-02-07T20:57:40Z</time>
      </trkpt>
      <trkpt lat="43.71482" lon="2.29348">
        <ele>449</ele>
        <time>2022-02-07T20:59:00Z</time>
      </trkpt>
      <trkpt lat="43.71463" lon="2.29333">
        <ele>450</ele>
        <time>2022-02-07T20:59:04Z</time>
      </trkpt>
      <trkpt lat="43.71448" lon="2.29315">
        <ele>450</ele>
        <time>2022-02-07T20:59:07Z</time>
      </trkpt>
      <trkpt lat="43.71437" lon="2.29294">
        <ele>449</ele>
        <time>2022-02-07T20:59:11Z</time>
      </trkpt>
      <trkpt lat="43.71428" lon="2.29271">
        <ele>449</ele>
        <time>2022-02-07T20:59:14Z</time>
      </trkpt>
      <trkpt lat="43.71399" lon="2.2916">
        <ele>449</ele>
        <time>2022-02-07T20:59:29Z</time>
      </trkpt>
      <trkpt lat="43.7138" lon="2.29077">
        <ele>449</ele>
        <time>2022-02-07T20:59:40Z</time>
      </trkpt>
      <trkpt lat="43.71373" lon="2.29037">
        <ele>449</ele>
        <time>2022-02-07T20:59:46Z</time>
      </trkpt>
      <trkpt lat="43.71369" lon="2.29004">
        <ele>449</ele>
        <time>2022-02-07T20:59:50Z</time>
      </trkpt>
      <trkpt lat="43.71355" lon="2.28635">
        <ele>433</ele>
        <time>2022-02-07T21:00:37Z</time>
      </trkpt>
      <trkpt lat="43.71357" lon="2.28596">
        <ele>432</ele>
        <time>2022-02-07T21:00:42Z</time>
      </trkpt>
      <trkpt lat="43.71362" lon="2.28559">
        <ele>433</ele>
        <time>2022-02-07T21:00:47Z</time>
      </trkpt>
      <trkpt lat="43.7137" lon="2.28529">
        <ele>434</ele>
        <time>2022-02-07T21:00:51Z</time>
      </trkpt>
      <trkpt lat="43.714" lon="2.28432">
        <ele>437</ele>
        <time>2022-02-07T21:01:05Z</time>
      </trkpt>
      <trkpt lat="43.71405" lon="2.28405">
        <ele>437</ele>
        <time>2022-02-07T21:01:09Z</time>
      </trkpt>
      <trkpt lat="43.71409" lon="2.2837">
        <ele>437</ele>
        <time>2022-02-07T21:01:13Z</time>
      </trkpt>
      <trkpt lat="43.71408" lon="2.28347">
        <ele>436</ele>
        <time>2022-02-07T21:01:16Z</time>
      </trkpt>
      <trkpt lat="43.71402" lon="2.28317">
        <ele>435</ele>
        <time>2022-02-07T21:01:20Z</time>
      </trkpt>
      <trkpt lat="43.71383" lon="2.28276">
        <ele>434</ele>
        <time>2022-02-07T21:01:26Z</time>
      </trkpt>
      <trkpt lat="43.71329" lon="2.28179">
        <ele>431</ele>
        <time>2022-02-07T21:01:42Z</time>
      </trkpt>
      <trkpt lat="43.71299" lon="2.2814">
        <ele>430</ele>
        <time>2022-02-07T21:01:49Z</time>
      </trkpt>
      <trkpt lat="43.71278" lon="2.28124">
        <ele>430</ele>
        <time>2022-02-07T21:01:54Z</time>
      </trkpt>
      <trkpt lat="43.71252" lon="2.28112">
        <ele>430</ele>
        <time>2022-02-07T21:01:59Z</time>
      </trkpt>
      <trkpt lat="43.7122" lon="2.28101">
        <ele>430</ele>
        <time>2022-02-07T21:02:04Z</time>
      </trkpt>
      <trkpt lat="43.71192" lon="2.28095">
        <ele>429</ele>
        <time>2022-02-07T21:02:09Z</time>
      </trkpt>
      <trkpt lat="43.7115" lon="2.2809">
        <ele>427</ele>
        <time>2022-02-07T21:02:17Z</time>
      </trkpt>
      <trkpt lat="43.71126" lon="2.2808">
        <ele>425</ele>
        <time>2022-02-07T21:02:21Z</time>
      </trkpt>
      <trkpt lat="43.71107" lon="2.28065">
        <ele>422</ele>
        <time>2022-02-07T21:02:25Z</time>
      </trkpt>
      <trkpt lat="43.7109" lon="2.28046">
        <ele>419</ele>
        <time>2022-02-07T21:02:29Z</time>
      </trkpt>
      <trkpt lat="43.71075" lon="2.28017">
        <ele>417</ele>
        <time>2022-02-07T21:02:34Z</time>
      </trkpt>
      <trkpt lat="43.71015" lon="2.27843">
        <ele>407</ele>
        <time>2022-02-07T21:02:59Z</time>
      </trkpt>
      <trkpt lat="43.71005" lon="2.27824">
        <ele>406</ele>
        <time>2022-02-07T21:03:02Z</time>
      </trkpt>
      <trkpt lat="43.7099" lon="2.27805">
        <ele>405</ele>
        <time>2022-02-07T21:03:05Z</time>
      </trkpt>
      <trkpt lat="43.70968" lon="2.27787">
        <ele>404</ele>
        <time>2022-02-07T21:03:10Z</time>
      </trkpt>
      <trkpt lat="43.70942" lon="2.27777">
        <ele>403</ele>
        <time>2022-02-07T21:03:15Z</time>
      </trkpt>
      <trkpt lat="43.70642" lon="2.27732">
        <ele>402</ele>
        <time>2022-02-07T21:04:08Z</time>
      </trkpt>
      <trkpt lat="43.70613" lon="2.27734">
        <ele>402</ele>
        <time>2022-02-07T21:04:13Z</time>
      </trkpt>
      <trkpt lat="43.70433" lon="2.27774">
        <ele>397</ele>
        <time>2022-02-07T21:04:46Z</time>
      </trkpt>
      <trkpt lat="43.70414" lon="2.27775">
        <ele>396</ele>
        <time>2022-02-07T21:04:49Z</time>
      </trkpt>
      <trkpt lat="43.704" lon="2.27772">
        <ele>397</ele>
        <time>2022-02-07T21:04:52Z</time>
      </trkpt>
      <trkpt lat="43.70387" lon="2.27762">
        <ele>398</ele>
        <time>2022-02-07T21:04:54Z</time>
      </trkpt>
      <trkpt lat="43.70376" lon="2.27747">
        <ele>399</ele>
        <time>2022-02-07T21:04:57Z</time>
      </trkpt>
      <trkpt lat="43.70368" lon="2.27727">
        <ele>399</ele>
        <time>2022-02-07T21:05:00Z</time>
      </trkpt>
      <trkpt lat="43.70346" lon="2.27646">
        <ele>400</ele>
        <time>2022-02-07T21:05:11Z</time>
      </trkpt>
      <trkpt lat="43.70257" lon="2.27353">
        <ele>391</ele>
        <time>2022-02-07T21:05:52Z</time>
      </trkpt>
      <trkpt lat="43.70244" lon="2.27315">
        <ele>391</ele>
        <time>2022-02-07T21:05:57Z</time>
      </trkpt>
      <trkpt lat="43.70224" lon="2.27267">
        <ele>390</ele>
        <time>2022-02-07T21:06:05Z</time>
      </trkpt>
      <trkpt lat="43.70175" lon="2.27161">
        <ele>391</ele>
        <time>2022-02-07T21:06:21Z</time>
      </trkpt>
      <trkpt lat="43.70161" lon="2.27123">
        <ele>390</ele>
        <time>2022-02-07T21:06:26Z</time>
      </trkpt>
      <trkpt lat="43.70107" lon="2.26928">
        <ele>396</ele>
        <time>2022-02-07T21:06:53Z</time>
      </trkpt>
      <trkpt lat="43.70098" lon="2.26857">
        <ele>399</ele>
        <time>2022-02-07T21:07:02Z</time>
      </trkpt>
      <trkpt lat="43.70096" lon="2.2682">
        <ele>399</ele>
        <time>2022-02-07T21:07:07Z</time>
      </trkpt>
      <trkpt lat="43.70085" lon="2.2677">
        <ele>400</ele>
        <time>2022-02-07T21:07:14Z</time>
      </trkpt>
      <trkpt lat="43.70061" lon="2.26687">
        <ele>397</ele>
        <time>2022-02-07T21:07:25Z</time>
      </trkpt>
      <trkpt lat="43.7006" lon="2.26659">
        <ele>396</ele>
        <time>2022-02-07T21:07:29Z</time>
      </trkpt>
      <trkpt lat="43.70065" lon="2.26534">
        <ele>397</ele>
        <time>2022-02-07T21:07:45Z</time>
      </trkpt>
      <trkpt lat="43.70064" lon="2.26473">
        <ele>398</ele>
        <time>2022-02-07T21:07:53Z</time>
      </trkpt>
      <trkpt lat="43.70054" lon="2.26313">
        <ele>396</ele>
        <time>2022-02-07T21:08:14Z</time>
      </trkpt>
      <trkpt lat="43.70052" lon="2.26249">
        <ele>396</ele>
        <time>2022-02-07T21:08:22Z</time>
      </trkpt>
      <trkpt lat="43.70054" lon="2.26199">
        <ele>395</ele>
        <time>2022-02-07T21:08:28Z</time>
      </trkpt>
      <trkpt lat="43.70061" lon="2.26157">
        <ele>394</ele>
        <time>2022-02-07T21:08:34Z</time>
      </trkpt>
      <trkpt lat="43.70072" lon="2.26114">
        <ele>394</ele>
        <time>2022-02-07T21:08:40Z</time>
      </trkpt>
      <trkpt lat="43.70093" lon="2.26065">
        <ele>394</ele>
        <time>2022-02-07T21:08:47Z</time>
      </trkpt>
      <trkpt lat="43.70116" lon="2.26015">
        <ele>392</ele>
        <time>2022-02-07T21:08:55Z</time>
      </trkpt>
      <trkpt lat="43.70169" lon="2.25934">
        <ele>392</ele>
        <time>2022-02-07T21:09:09Z</time>
      </trkpt>
      <trkpt lat="43.70167" lon="2.25924">
        <ele>392</ele>
        <time>2022-02-07T21:09:10Z</time>
      </trkpt>
      <trkpt lat="43.70169" lon="2.25905">
        <ele>391</ele>
        <time>2022-02-07T21:09:13Z</time>
      </trkpt>
      <trkpt lat="43.7018" lon="2.25839">
        <ele>387</ele>
        <time>2022-02-07T21:09:21Z</time>
      </trkpt>
      <trkpt lat="43.70181" lon="2.25808">
        <ele>386</ele>
        <time>2022-02-07T21:09:25Z</time>
      </trkpt>
      <trkpt lat="43.70179" lon="2.25783">
        <ele>386</ele>
        <time>2022-02-07T21:09:28Z</time>
      </trkpt>
      <trkpt lat="43.70166" lon="2.25748">
        <ele>385</ele>
        <time>2022-02-07T21:09:34Z</time>
      </trkpt>
      <trkpt lat="43.70085" lon="2.25656">
        <ele>377</ele>
        <time>2022-02-07T21:09:52Z</time>
      </trkpt>
      <trkpt lat="43.7007" lon="2.25632">
        <ele>374</ele>
        <time>2022-02-07T21:09:56Z</time>
      </trkpt>
      <trkpt lat="43.70059" lon="2.25595">
        <ele>371</ele>
        <time>2022-02-07T21:10:01Z</time>
      </trkpt>
      <trkpt lat="43.70057" lon="2.25541">
        <ele>369</ele>
        <time>2022-02-07T21:10:08Z</time>
      </trkpt>
      <trkpt lat="43.70058" lon="2.25519">
        <ele>368</ele>
        <time>2022-02-07T21:10:11Z</time>
      </trkpt>
      <trkpt lat="43.70062" lon="2.25497">
        <ele>368</ele>
        <time>2022-02-07T21:10:14Z</time>
      </trkpt>
      <trkpt lat="43.70077" lon="2.25452">
        <ele>367</ele>
        <time>2022-02-07T21:10:20Z</time>
      </trkpt>
      <trkpt lat="43.70105" lon="2.25401">
        <ele>365</ele>
        <time>2022-02-07T21:10:29Z</time>
      </trkpt>
      <trkpt lat="43.70116" lon="2.25368">
        <ele>364</ele>
        <time>2022-02-07T21:10:33Z</time>
      </trkpt>
      <trkpt lat="43.70136" lon="2.25195">
        <ele>361</ele>
        <time>2022-02-07T21:10:56Z</time>
      </trkpt>
      <trkpt lat="43.70137" lon="2.25169">
        <ele>362</ele>
        <time>2022-02-07T21:10:59Z</time>
      </trkpt>
      <trkpt lat="43.70134" lon="2.25146">
        <ele>361</ele>
        <time>2022-02-07T21:11:02Z</time>
      </trkpt>
      <trkpt lat="43.70078" lon="2.24941">
        <ele>357</ele>
        <time>2022-02-07T21:11:30Z</time>
      </trkpt>
      <trkpt lat="43.70069" lon="2.24929">
        <ele>356</ele>
        <time>2022-02-07T21:11:33Z</time>
      </trkpt>
      <trkpt lat="43.70061" lon="2.24924">
        <ele>355</ele>
        <time>2022-02-07T21:11:34Z</time>
      </trkpt>
      <trkpt lat="43.70051" lon="2.24923">
        <ele>355</ele>
        <time>2022-02-07T21:11:36Z</time>
      </trkpt>
      <trkpt lat="43.7" lon="2.2493">
        <ele>353</ele>
        <time>2022-02-07T21:11:45Z</time>
      </trkpt>
      <trkpt lat="43.69993" lon="2.2493">
        <ele>352</ele>
        <time>2022-02-07T21:11:46Z</time>
      </trkpt>
      <trkpt lat="43.69986" lon="2.24927">
        <ele>351</ele>
        <time>2022-02-07T21:11:48Z</time>
      </trkpt>
      <trkpt lat="43.6998" lon="2.2492">
        <ele>351</ele>
        <time>2022-02-07T21:11:49Z</time>
      </trkpt>
      <trkpt lat="43.69976" lon="2.24909">
        <ele>350</ele>
        <time>2022-02-07T21:11:51Z</time>
      </trkpt>
      <trkpt lat="43.69929" lon="2.24645">
        <ele>336</ele>
        <time>2022-02-07T21:12:26Z</time>
      </trkpt>
      <trkpt lat="43.6993" lon="2.24617">
        <ele>335</ele>
        <time>2022-02-07T21:12:29Z</time>
      </trkpt>
      <trkpt lat="43.69938" lon="2.24574">
        <ele>334</ele>
        <time>2022-02-07T21:12:35Z</time>
      </trkpt>
      <trkpt lat="43.6994" lon="2.24553">
        <ele>333</ele>
        <time>2022-02-07T21:12:38Z</time>
      </trkpt>
      <trkpt lat="43.69936" lon="2.24532">
        <ele>333</ele>
        <time>2022-02-07T21:12:41Z</time>
      </trkpt>
      <trkpt lat="43.69912" lon="2.24442">
        <ele>331</ele>
        <time>2022-02-07T21:12:53Z</time>
      </trkpt>
      <trkpt lat="43.69894" lon="2.24361">
        <ele>331</ele>
        <time>2022-02-07T21:13:04Z</time>
      </trkpt>
      <trkpt lat="43.6989" lon="2.24346">
        <ele>331</ele>
        <time>2022-02-07T21:13:06Z</time>
      </trkpt>
      <trkpt lat="43.6988" lon="2.24329">
        <ele>331</ele>
        <time>2022-02-07T21:13:09Z</time>
      </trkpt>
      <trkpt lat="43.69867" lon="2.24316">
        <ele>332</ele>
        <time>2022-02-07T21:13:11Z</time>
      </trkpt>
      <trkpt lat="43.69764" lon="2.2424">
        <ele>336</ele>
        <time>2022-02-07T21:13:32Z</time>
      </trkpt>
      <trkpt lat="43.69753" lon="2.24234">
        <ele>336</ele>
        <time>2022-02-07T21:13:34Z</time>
      </trkpt>
      <trkpt lat="43.69742" lon="2.24232">
        <ele>335</ele>
        <time>2022-02-07T21:13:36Z</time>
      </trkpt>
      <trkpt lat="43.69645" lon="2.24233">
        <ele>329</ele>
        <time>2022-02-07T21:13:54Z</time>
      </trkpt>
      <trkpt lat="43.69391" lon="2.24241">
        <ele>329</ele>
        <time>2022-02-07T21:14:39Z</time>
      </trkpt>
      <trkpt lat="43.6937" lon="2.24246">
        <ele>330</ele>
        <time>2022-02-07T21:14:43Z</time>
      </trkpt>
      <trkpt lat="43.6935" lon="2.24258">
        <ele>330</ele>
        <time>2022-02-07T21:14:46Z</time>
      </trkpt>
      <trkpt lat="43.69135" lon="2.24408">
        <ele>318</ele>
        <time>2022-02-07T21:15:29Z</time>
      </trkpt>
      <trkpt lat="43.69123" lon="2.24414">
        <ele>317</ele>
        <time>2022-02-07T21:15:32Z</time>
      </trkpt>
      <trkpt lat="43.69072" lon="2.2443">
        <ele>315</ele>
        <time>2022-02-07T21:15:41Z</time>
      </trkpt>
      <trkpt lat="43.68953" lon="2.24441">
        <ele>314</ele>
        <time>2022-02-07T21:16:02Z</time>
      </trkpt>
      <trkpt lat="43.68895" lon="2.24474">
        <ele>314</ele>
        <time>2022-02-07T21:16:13Z</time>
      </trkpt>
      <trkpt lat="43.68779" lon="2.24573">
        <ele>314</ele>
        <time>2022-02-07T21:16:38Z</time>
      </trkpt>
      <trkpt lat="43.68628" lon="2.24678">
        <ele>315</ele>
        <time>2022-02-07T21:17:08Z</time>
      </trkpt>
      <trkpt lat="43.686" lon="2.2469">
        <ele>315</ele>
        <time>2022-02-07T21:17:13Z</time>
      </trkpt>
      <trkpt lat="43.68583" lon="2.24695">
        <ele>315</ele>
        <time>2022-02-07T21:17:16Z</time>
      </trkpt>
      <trkpt lat="43.6856" lon="2.24696">
        <ele>316</ele>
        <time>2022-02-07T21:17:20Z</time>
      </trkpt>
      <trkpt lat="43.68533" lon="2.24687">
        <ele>317</ele>
        <time>2022-02-07T21:17:25Z</time>
      </trkpt>
      <trkpt lat="43.68381" lon="2.24519">
        <ele>310</ele>
        <time>2022-02-07T21:18:00Z</time>
      </trkpt>
      <trkpt lat="43.68323" lon="2.24474">
        <ele>308</ele>
        <time>2022-02-07T21:18:11Z</time>
      </trkpt>
      <trkpt lat="43.68241" lon="2.24384">
        <ele>304</ele>
        <time>2022-02-07T21:18:30Z</time>
      </trkpt>
      <trkpt lat="43.68225" lon="2.24361">
        <ele>302</ele>
        <time>2022-02-07T21:18:34Z</time>
      </trkpt>
      <trkpt lat="43.68115" lon="2.24117">
        <ele>295</ele>
        <time>2022-02-07T21:19:11Z</time>
      </trkpt>
      <trkpt lat="43.68099" lon="2.24094">
        <ele>294</ele>
        <time>2022-02-07T21:19:15Z</time>
      </trkpt>
      <trkpt lat="43.68084" lon="2.24079">
        <ele>293</ele>
        <time>2022-02-07T21:19:19Z</time>
      </trkpt>
      <trkpt lat="43.68068" lon="2.24069">
        <ele>293</ele>
        <time>2022-02-07T21:19:22Z</time>
      </trkpt>
      <trkpt lat="43.68051" lon="2.24062">
        <ele>294</ele>
        <time>2022-02-07T21:19:25Z</time>
      </trkpt>
      <trkpt lat="43.68032" lon="2.24059">
        <ele>295</ele>
        <time>2022-02-07T21:19:28Z</time>
      </trkpt>
      <trkpt lat="43.68011" lon="2.24061">
        <ele>296</ele>
        <time>2022-02-07T21:19:32Z</time>
      </trkpt>
      <trkpt lat="43.67614" lon="2.2418">
        <ele>291</ele>
        <time>2022-02-07T21:20:44Z</time>
      </trkpt>
      <trkpt lat="43.67596" lon="2.24181">
        <ele>291</ele>
        <time>2022-02-07T21:20:47Z</time>
      </trkpt>
      <trkpt lat="43.67584" lon="2.24178">
        <ele>291</ele>
        <time>2022-02-07T21:20:50Z</time>
      </trkpt>
      <trkpt lat="43.67505" lon="2.24144">
        <ele>292</ele>
        <time>2022-02-07T21:21:04Z</time>
      </trkpt>
      <trkpt lat="43.67493" lon="2.24133">
        <ele>292</ele>
        <time>2022-02-07T21:21:07Z</time>
      </trkpt>
      <trkpt lat="43.67481" lon="2.24117">
        <ele>292</ele>
        <time>2022-02-07T21:21:10Z</time>
      </trkpt>
      <trkpt lat="43.67473" lon="2.24097">
        <ele>292</ele>
        <time>2022-02-07T21:21:13Z</time>
      </trkpt>
      <trkpt lat="43.6746" lon="2.24047">
        <ele>291</ele>
        <time>2022-02-07T21:21:20Z</time>
      </trkpt>
      <trkpt lat="43.67452" lon="2.24032">
        <ele>290</ele>
        <time>2022-02-07T21:21:22Z</time>
      </trkpt>
      <trkpt lat="43.67433" lon="2.24005">
        <ele>290</ele>
        <time>2022-02-07T21:21:27Z</time>
      </trkpt>
      <trkpt lat="43.6736" lon="2.23857">
        <ele>283</ele>
        <time>2022-02-07T21:21:50Z</time>
      </trkpt>
      <trkpt lat="43.67345" lon="2.23811">
        <ele>282</ele>
        <time>2022-02-07T21:21:56Z</time>
      </trkpt>
      <trkpt lat="43.67322" lon="2.23707">
        <ele>280</ele>
        <time>2022-02-07T21:22:10Z</time>
      </trkpt>
      <trkpt lat="43.67309" lon="2.23671">
        <ele>280</ele>
        <time>2022-02-07T21:22:16Z</time>
      </trkpt>
      <trkpt lat="43.67293" lon="2.23648">
        <ele>279</ele>
        <time>2022-02-07T21:22:20Z</time>
      </trkpt>
      <trkpt lat="43.67266" lon="2.23621">
        <ele>279</ele>
        <time>2022-02-07T21:22:26Z</time>
      </trkpt>
      <trkpt lat="43.67248" lon="2.23606">
        <ele>279</ele>
        <time>2022-02-07T21:22:29Z</time>
      </trkpt>
      <trkpt lat="43.6719" lon="2.23549">
        <ele>276</ele>
        <time>2022-02-07T21:22:42Z</time>
      </trkpt>
      <trkpt lat="43.67124" lon="2.2348">
        <ele>270</ele>
        <time>2022-02-07T21:22:57Z</time>
      </trkpt>
      <trkpt lat="43.67144" lon="2.23362">
        <ele>266</ele>
        <time>2022-02-07T21:23:12Z</time>
      </trkpt>
      <trkpt lat="43.67148" lon="2.23317">
        <ele>266</ele>
        <time>2022-02-07T21:23:18Z</time>
      </trkpt>
      <trkpt lat="43.67158" lon="2.23105">
        <ele>271.2</ele>
        <extensions>
          <visugpx:TrkExtension xmlns:visugpx="https://www.visugpx.com/editgpx/">
            <visugpx:node>2</visugpx:node>
            </visugpx:TrkExtension>
        </extensions>
      </trkpt>
      <trkpt lat="43.67164" lon="2.22966">
        <ele>277.3</ele>
      </trkpt>
      <trkpt lat="43.67166" lon="2.22838">
        <ele>279</ele>
      </trkpt>
      <trkpt lat="43.67165" lon="2.22792">
        <ele>279.1</ele>
      </trkpt>
      <trkpt lat="43.67165" lon="2.22788">
        <ele>279.1</ele>
      </trkpt>
      <trkpt lat="43.67165" lon="2.22779">
        <ele>279.1</ele>
        <extensions>
          <visugpx:TrkExtension xmlns:visugpx="https://www.visugpx.com/editgpx/">
            <visugpx:node>5</visugpx:node>
            </visugpx:TrkExtension>
        </extensions>
      </trkpt>
      <trkpt lat="43.67164" lon="2.22757">
        <ele>279.9</ele>
      </trkpt>
      <trkpt lat="43.67164" lon="2.22751">
        <ele>280.1</ele>
      </trkpt>
      <trkpt lat="43.67164" lon="2.22747">
        <ele>280.1</ele>
      </trkpt>
      <trkpt lat="43.67162" lon="2.22719">
        <ele>280.2</ele>
      </trkpt>
      <trkpt lat="43.67166" lon="2.22686">
        <ele>280.4</ele>
      </trkpt>
      <trkpt lat="43.67174" lon="2.22653">
        <ele>280.6</ele>
      </trkpt>
      <trkpt lat="43.67227" lon="2.22482">
        <ele>279.1</ele>
      </trkpt>
      <trkpt lat="43.67237" lon="2.2245">
        <ele>279</ele>
        <time>2022-02-07T21:25:41Z</time>
      </trkpt>
      <trkpt lat="43.67242" lon="2.22422">
        <ele>279</ele>
        <time>2022-02-07T21:25:45Z</time>
      </trkpt>
      <trkpt lat="43.67248" lon="2.22294">
        <ele>280</ele>
        <time>2022-02-07T21:26:01Z</time>
      </trkpt>
      <trkpt lat="43.67247" lon="2.2227">
        <ele>280</ele>
        <time>2022-02-07T21:26:04Z</time>
      </trkpt>
      <trkpt lat="43.67235" lon="2.22199">
        <ele>282</ele>
        <time>2022-02-07T21:26:14Z</time>
      </trkpt>
      <trkpt lat="43.67237" lon="2.22172">
        <ele>283</ele>
        <time>2022-02-07T21:26:17Z</time>
      </trkpt>
      <trkpt lat="43.67244" lon="2.22152">
        <ele>283</ele>
        <time>2022-02-07T21:26:20Z</time>
      </trkpt>
      <trkpt lat="43.6724" lon="2.22129">
        <ele>283</ele>
        <time>2022-02-07T21:26:23Z</time>
      </trkpt>
      <trkpt lat="43.67241" lon="2.22094">
        <ele>284</ele>
        <time>2022-02-07T21:26:28Z</time>
      </trkpt>
      <trkpt lat="43.67232" lon="2.21962">
        <ele>281</ele>
        <time>2022-02-07T21:26:45Z</time>
      </trkpt>
      <trkpt lat="43.67226" lon="2.21908">
        <ele>277</ele>
        <time>2022-02-07T21:26:52Z</time>
      </trkpt>
      <trkpt lat="43.67227" lon="2.21887">
        <ele>276</ele>
        <time>2022-02-07T21:26:54Z</time>
      </trkpt>
      <trkpt lat="43.67237" lon="2.21799">
        <ele>270</ele>
        <time>2022-02-07T21:27:06Z</time>
      </trkpt>
      <trkpt lat="43.67238" lon="2.21777">
        <ele>269</ele>
        <time>2022-02-07T21:27:09Z</time>
      </trkpt>
      <trkpt lat="43.67236" lon="2.21759">
        <ele>268</ele>
        <time>2022-02-07T21:27:11Z</time>
      </trkpt>
      <trkpt lat="43.67137" lon="2.21381">
        <ele>246</ele>
        <time>2022-02-07T21:28:03Z</time>
      </trkpt>
      <trkpt lat="43.67053" lon="2.21223">
        <ele>243</ele>
        <time>2022-02-07T21:28:28Z</time>
      </trkpt>
      <trkpt lat="43.67026" lon="2.21154">
        <ele>247</ele>
        <time>2022-02-07T21:28:38Z</time>
      </trkpt>
      <trkpt lat="43.67021" lon="2.21099">
        <ele>248</ele>
        <time>2022-02-07T21:28:45Z</time>
      </trkpt>
      <trkpt lat="43.67026" lon="2.21045">
        <ele>247</ele>
        <time>2022-02-07T21:28:52Z</time>
      </trkpt>
      <trkpt lat="43.67056" lon="2.20801">
        <ele>247</ele>
        <time>2022-02-07T21:29:24Z</time>
      </trkpt>
      <trkpt lat="43.67092" lon="2.20523">
        <ele>260</ele>
        <time>2022-02-07T21:30:00Z</time>
      </trkpt>
      <trkpt lat="43.67106" lon="2.20449">
        <ele>263</ele>
        <time>2022-02-07T21:30:10Z</time>
      </trkpt>
      <trkpt lat="43.67149" lon="2.20277">
        <ele>270</ele>
        <time>2022-02-07T21:30:34Z</time>
      </trkpt>
      <trkpt lat="43.67185" lon="2.20141">
        <ele>269</ele>
        <time>2022-02-07T21:30:52Z</time>
      </trkpt>
      <trkpt lat="43.67184" lon="2.20124">
        <ele>270</ele>
        <time>2022-02-07T21:30:55Z</time>
      </trkpt>
      <trkpt lat="43.67176" lon="2.20107">
        <ele>270</ele>
        <time>2022-02-07T21:30:57Z</time>
      </trkpt>
      <trkpt lat="43.6714" lon="2.20103">
        <ele>271</ele>
        <time>2022-02-07T21:31:04Z</time>
      </trkpt>
      <trkpt lat="43.67117" lon="2.20093">
        <ele>271</ele>
        <time>2022-02-07T21:31:08Z</time>
      </trkpt>
      <trkpt lat="43.66954" lon="2.19982">
        <ele>272</ele>
        <time>2022-02-07T21:31:40Z</time>
      </trkpt>
      <trkpt lat="43.66778" lon="2.19882">
        <ele>269</ele>
        <time>2022-02-07T21:32:14Z</time>
      </trkpt>
      <trkpt lat="43.6686" lon="2.19643">
        <ele>269</ele>
        <time>2022-02-07T21:32:48Z</time>
      </trkpt>
      <trkpt lat="43.66862" lon="2.19627">
        <ele>268</ele>
        <time>2022-02-07T21:32:50Z</time>
      </trkpt>
      <trkpt lat="43.6686" lon="2.19588">
        <ele>268</ele>
        <time>2022-02-07T21:32:55Z</time>
      </trkpt>
      <trkpt lat="43.66826" lon="2.19368">
        <ele>262</ele>
        <time>2022-02-07T21:33:24Z</time>
      </trkpt>
      <trkpt lat="43.66784" lon="2.19233">
        <ele>255</ele>
        <time>2022-02-07T21:33:43Z</time>
      </trkpt>
      <trkpt lat="43.66777" lon="2.19198">
        <ele>254</ele>
        <time>2022-02-07T21:33:48Z</time>
      </trkpt>
      <trkpt lat="43.66768" lon="2.19129">
        <ele>251</ele>
        <time>2022-02-07T21:33:57Z</time>
      </trkpt>
      <trkpt lat="43.66751" lon="2.18965">
        <ele>247</ele>
        <time>2022-02-07T21:34:18Z</time>
      </trkpt>
      <trkpt lat="43.6675" lon="2.18905">
        <ele>245</ele>
        <time>2022-02-07T21:34:26Z</time>
      </trkpt>
      <trkpt lat="43.66751" lon="2.18782">
        <ele>242</ele>
        <time>2022-02-07T21:34:42Z</time>
      </trkpt>
      <trkpt lat="43.66747" lon="2.18751">
        <ele>242</ele>
        <time>2022-02-07T21:34:46Z</time>
      </trkpt>
      <trkpt lat="43.66665" lon="2.18447">
        <ele>247</ele>
        <time>2022-02-07T21:35:27Z</time>
      </trkpt>
      <trkpt lat="43.66653" lon="2.1831">
        <ele>246</ele>
        <time>2022-02-07T21:35:45Z</time>
      </trkpt>
      <trkpt lat="43.66637" lon="2.18201">
        <ele>243</ele>
        <time>2022-02-07T21:36:00Z</time>
      </trkpt>
      <trkpt lat="43.66621" lon="2.18112">
        <ele>241</ele>
        <time>2022-02-07T21:36:11Z</time>
      </trkpt>
      <trkpt lat="43.6662" lon="2.18055">
        <ele>240</ele>
        <time>2022-02-07T21:36:19Z</time>
      </trkpt>
      <trkpt lat="43.66625" lon="2.18019">
        <ele>240</ele>
        <time>2022-02-07T21:36:23Z</time>
      </trkpt>
      <trkpt lat="43.66678" lon="2.17655">
        <ele>242</ele>
        <time>2022-02-07T21:37:11Z</time>
      </trkpt>
      <trkpt lat="43.66715" lon="2.17455">
        <ele>244</ele>
        <time>2022-02-07T21:37:38Z</time>
      </trkpt>
      <trkpt lat="43.66718" lon="2.17422">
        <ele>245</ele>
        <time>2022-02-07T21:37:42Z</time>
      </trkpt>
      <trkpt lat="43.66714" lon="2.17398">
        <ele>244</ele>
        <time>2022-02-07T21:37:45Z</time>
      </trkpt>
      <trkpt lat="43.66708" lon="2.17376">
        <ele>244</ele>
        <time>2022-02-07T21:37:48Z</time>
      </trkpt>
      <trkpt lat="43.66614" lon="2.17156">
        <ele>238</ele>
        <time>2022-02-07T21:38:21Z</time>
      </trkpt>
      <trkpt lat="43.66762" lon="2.1696">
        <ele>235</ele>
        <time>2022-02-07T21:38:58Z</time>
      </trkpt>
      <trkpt lat="43.66512" lon="2.16566">
        <ele>220</ele>
        <time>2022-02-07T21:40:05Z</time>
      </trkpt>
      <trkpt lat="43.66501" lon="2.16538">
        <ele>218</ele>
        <time>2022-02-07T21:40:09Z</time>
      </trkpt>
      <trkpt lat="43.66494" lon="2.165">
        <ele>217</ele>
        <time>2022-02-07T21:40:14Z</time>
      </trkpt>
      <trkpt lat="43.66493" lon="2.16263">
        <ele>219</ele>
        <time>2022-02-07T21:40:45Z</time>
      </trkpt>
      <trkpt lat="43.66489" lon="2.16241">
        <ele>219</ele>
        <time>2022-02-07T21:40:48Z</time>
      </trkpt>
      <trkpt lat="43.6647" lon="2.16198">
        <ele>218</ele>
        <time>2022-02-07T21:40:54Z</time>
      </trkpt>
      <trkpt lat="43.6642" lon="2.16091">
        <ele>216</ele>
        <time>2022-02-07T21:41:10Z</time>
      </trkpt>
      <trkpt lat="43.66368" lon="2.1599">
        <ele>221</ele>
        <time>2022-02-07T21:41:26Z</time>
      </trkpt>
      <trkpt lat="43.66278" lon="2.15841">
        <ele>225</ele>
        <time>2022-02-07T21:41:51Z</time>
      </trkpt>
      <trkpt lat="43.66255" lon="2.15822">
        <ele>226</ele>
        <time>2022-02-07T21:41:56Z</time>
      </trkpt>
      <trkpt lat="43.66229" lon="2.15798">
        <ele>226</ele>
        <time>2022-02-07T21:42:02Z</time>
      </trkpt>
      <trkpt lat="43.6622" lon="2.15785">
        <ele>226</ele>
        <time>2022-02-07T21:42:04Z</time>
      </trkpt>
      <trkpt lat="43.66138" lon="2.15525">
        <ele>222</ele>
        <time>2022-02-07T21:42:41Z</time>
      </trkpt>
      <trkpt lat="43.66126" lon="2.15503">
        <ele>221</ele>
        <time>2022-02-07T21:42:44Z</time>
      </trkpt>
      <trkpt lat="43.66041" lon="2.15393">
        <ele>219</ele>
        <time>2022-02-07T21:43:05Z</time>
      </trkpt>
      <trkpt lat="43.65964" lon="2.15298">
        <ele>221</ele>
        <time>2022-02-07T21:43:23Z</time>
      </trkpt>
      <trkpt lat="43.65877" lon="2.15212">
        <ele>224</ele>
        <time>2022-02-07T21:43:42Z</time>
      </trkpt>
      <trkpt lat="43.65866" lon="2.15196">
        <ele>223</ele>
        <time>2022-02-07T21:43:45Z</time>
      </trkpt>
      <trkpt lat="43.65847" lon="2.15163">
        <ele>222</ele>
        <time>2022-02-07T21:43:51Z</time>
      </trkpt>
      <trkpt lat="43.65758" lon="2.15001">
        <ele>217</ele>
        <time>2022-02-07T21:44:17Z</time>
      </trkpt>
      <trkpt lat="43.65742" lon="2.14966">
        <ele>215</ele>
        <time>2022-02-07T21:44:22Z</time>
      </trkpt>
      <trkpt lat="43.65736" lon="2.14948">
        <ele>214</ele>
        <time>2022-02-07T21:44:25Z</time>
      </trkpt>
      <trkpt lat="43.6573" lon="2.14911">
        <ele>213</ele>
        <time>2022-02-07T21:44:29Z</time>
      </trkpt>
      <trkpt lat="43.65724" lon="2.14615">
        <ele>205</ele>
        <time>2022-02-07T21:45:08Z</time>
      </trkpt>
      <trkpt lat="43.6572" lon="2.14574">
        <ele>204</ele>
        <time>2022-02-07T21:45:13Z</time>
      </trkpt>
      <trkpt lat="43.65713" lon="2.14539">
        <ele>203</ele>
        <time>2022-02-07T21:45:18Z</time>
      </trkpt>
      <trkpt lat="43.65697" lon="2.14484">
        <ele>201</ele>
        <time>2022-02-07T21:45:25Z</time>
      </trkpt>
      <trkpt lat="43.65683" lon="2.1445">
        <ele>199</ele>
        <time>2022-02-07T21:45:30Z</time>
      </trkpt>
      <trkpt lat="43.65669" lon="2.14423">
        <ele>197</ele>
        <time>2022-02-07T21:45:35Z</time>
      </trkpt>
      <trkpt lat="43.6564" lon="2.14375">
        <ele>195</ele>
        <time>2022-02-07T21:45:43Z</time>
      </trkpt>
      <trkpt lat="43.65613" lon="2.14337">
        <ele>193</ele>
        <time>2022-02-07T21:45:49Z</time>
      </trkpt>
      <trkpt lat="43.65563" lon="2.14286">
        <ele>188</ele>
        <time>2022-02-07T21:46:00Z</time>
      </trkpt>
      <trkpt lat="43.65518" lon="2.14252">
        <ele>187</ele>
        <time>2022-02-07T21:46:10Z</time>
      </trkpt>
      <trkpt lat="43.65495" lon="2.1424">
        <ele>187</ele>
        <time>2022-02-07T21:46:14Z</time>
      </trkpt>
      <trkpt lat="43.65472" lon="2.14227">
        <ele>188</ele>
        <time>2022-02-07T21:46:18Z</time>
      </trkpt>
      <trkpt lat="43.65371" lon="2.14181">
        <ele>189</ele>
        <time>2022-02-07T21:46:37Z</time>
      </trkpt>
      <trkpt lat="43.64791" lon="2.13951">
        <ele>195</ele>
        <time>2022-02-07T21:48:25Z</time>
      </trkpt>
      <trkpt lat="43.64764" lon="2.13934">
        <ele>195</ele>
        <time>2022-02-07T21:48:30Z</time>
      </trkpt>
      <trkpt lat="43.64742" lon="2.13916">
        <ele>195</ele>
        <time>2022-02-07T21:48:35Z</time>
      </trkpt>
      <trkpt lat="43.647" lon="2.13871">
        <ele>198</ele>
        <time>2022-02-07T21:48:44Z</time>
      </trkpt>
      <trkpt lat="43.64684" lon="2.13849">
        <ele>199</ele>
        <time>2022-02-07T21:48:48Z</time>
      </trkpt>
      <trkpt lat="43.64683" lon="2.13844">
        <ele>199</ele>
        <time>2022-02-07T21:48:49Z</time>
      </trkpt>
      <trkpt lat="43.64757" lon="2.13697">
        <ele>195</ele>
        <time>2022-02-07T21:49:12Z</time>
      </trkpt>
      <trkpt lat="43.64774" lon="2.13658">
        <ele>195</ele>
        <time>2022-02-07T21:49:18Z</time>
      </trkpt>
      <trkpt lat="43.6482" lon="2.13535">
        <ele>194</ele>
        <time>2022-02-07T21:49:35Z</time>
      </trkpt>
      <trkpt lat="43.6483" lon="2.13504">
        <ele>194</ele>
        <time>2022-02-07T21:49:40Z</time>
      </trkpt>
      <trkpt lat="43.64837" lon="2.13467">
        <ele>194</ele>
        <time>2022-02-07T21:49:45Z</time>
      </trkpt>
      <trkpt lat="43.64848" lon="2.13354">
        <ele>195</ele>
        <time>2022-02-07T21:49:59Z</time>
      </trkpt>
      <trkpt lat="43.64859" lon="2.13319">
        <ele>195</ele>
        <time>2022-02-07T21:50:04Z</time>
      </trkpt>
      <trkpt lat="43.64939" lon="2.13138">
        <ele>192</ele>
        <time>2022-02-07T21:50:32Z</time>
      </trkpt>
      <trkpt lat="43.64952" lon="2.13106">
        <ele>191</ele>
        <time>2022-02-07T21:50:36Z</time>
      </trkpt>
      <trkpt lat="43.64959" lon="2.13076">
        <ele>191</ele>
        <time>2022-02-07T21:50:40Z</time>
      </trkpt>
      <trkpt lat="43.64962" lon="2.13043">
        <ele>191</ele>
        <time>2022-02-07T21:50:45Z</time>
      </trkpt>
      <trkpt lat="43.64958" lon="2.13003">
        <ele>190</ele>
        <time>2022-02-07T21:50:50Z</time>
      </trkpt>
      <trkpt lat="43.64951" lon="2.12976">
        <ele>189</ele>
        <time>2022-02-07T21:50:54Z</time>
      </trkpt>
      <trkpt lat="43.64934" lon="2.12937">
        <ele>188</ele>
        <time>2022-02-07T21:50:59Z</time>
      </trkpt>
      <trkpt lat="43.64897" lon="2.12886">
        <ele>187</ele>
        <time>2022-02-07T21:51:09Z</time>
      </trkpt>
      <trkpt lat="43.64887" lon="2.12866">
        <ele>187</ele>
        <time>2022-02-07T21:51:12Z</time>
      </trkpt>
      <trkpt lat="43.64883" lon="2.12847">
        <ele>186</ele>
        <time>2022-02-07T21:51:14Z</time>
      </trkpt>
      <trkpt lat="43.64882" lon="2.12816">
        <ele>185</ele>
        <time>2022-02-07T21:51:18Z</time>
      </trkpt>
      <trkpt lat="43.64893" lon="2.12726">
        <ele>183</ele>
        <time>2022-02-07T21:51:30Z</time>
      </trkpt>
      <trkpt lat="43.64895" lon="2.12701">
        <ele>183</ele>
        <time>2022-02-07T21:51:33Z</time>
      </trkpt>
      <trkpt lat="43.64893" lon="2.12681">
        <ele>182</ele>
        <time>2022-02-07T21:51:36Z</time>
      </trkpt>
      <trkpt lat="43.64888" lon="2.12671">
        <ele>182</ele>
        <time>2022-02-07T21:51:38Z</time>
      </trkpt>
      <trkpt lat="43.64918" lon="2.12638">
        <ele>183</ele>
        <time>2022-02-07T21:51:44Z</time>
      </trkpt>
      <trkpt lat="43.64914" lon="2.1262">
        <ele>183</ele>
        <time>2022-02-07T21:51:47Z</time>
      </trkpt>
      <trkpt lat="43.64915" lon="2.12595">
        <ele>184</ele>
        <time>2022-02-07T21:51:50Z</time>
      </trkpt>
      <trkpt lat="43.64919" lon="2.12566">
        <ele>185</ele>
        <time>2022-02-07T21:51:54Z</time>
      </trkpt>
      <trkpt lat="43.64936" lon="2.1251">
        <ele>186</ele>
        <time>2022-02-07T21:52:02Z</time>
      </trkpt>
      <trkpt lat="43.64939" lon="2.12486">
        <ele>186</ele>
        <time>2022-02-07T21:52:05Z</time>
      </trkpt>
      <trkpt lat="43.64939" lon="2.12427">
        <ele>185</ele>
        <time>2022-02-07T21:52:12Z</time>
      </trkpt>
      <trkpt lat="43.64947" lon="2.12392">
        <ele>184</ele>
        <time>2022-02-07T21:52:17Z</time>
      </trkpt>
      <trkpt lat="43.6497" lon="2.12119">
        <ele>177</ele>
        <time>2022-02-07T21:52:52Z</time>
      </trkpt>
      <trkpt lat="43.64975" lon="2.12093">
        <ele>176</ele>
        <time>2022-02-07T21:52:56Z</time>
      </trkpt>
      <trkpt lat="43.64989" lon="2.12036">
        <ele>176</ele>
        <time>2022-02-07T21:53:04Z</time>
      </trkpt>
      <trkpt lat="43.64915" lon="2.11969">
        <ele>174</ele>
        <time>2022-02-07T21:53:19Z</time>
      </trkpt>
      <trkpt lat="43.64899" lon="2.11948">
        <ele>174</ele>
        <time>2022-02-07T21:53:23Z</time>
      </trkpt>
      <trkpt lat="43.64889" lon="2.11925">
        <ele>175</ele>
        <time>2022-02-07T21:53:27Z</time>
      </trkpt>
      <trkpt lat="43.64858" lon="2.1181">
        <ele>175</ele>
        <time>2022-02-07T21:53:43Z</time>
      </trkpt>
      <trkpt lat="43.64849" lon="2.11763">
        <ele>175</ele>
        <time>2022-02-07T21:53:49Z</time>
      </trkpt>
      <trkpt lat="43.64837" lon="2.11667">
        <ele>176</ele>
        <time>2022-02-07T21:54:01Z</time>
      </trkpt>
      <trkpt lat="43.64825" lon="2.11618">
        <ele>179</ele>
        <time>2022-02-07T21:54:08Z</time>
      </trkpt>
      <trkpt lat="43.64788" lon="2.11517">
        <ele>185</ele>
        <time>2022-02-07T21:54:23Z</time>
      </trkpt>
      <trkpt lat="43.64772" lon="2.11455">
        <ele>187</ele>
        <time>2022-02-07T21:54:31Z</time>
      </trkpt>
      <trkpt lat="43.64769" lon="2.11402">
        <ele>188</ele>
        <time>2022-02-07T21:54:38Z</time>
      </trkpt>
      <trkpt lat="43.64774" lon="2.11338">
        <ele>186</ele>
        <time>2022-02-07T21:54:46Z</time>
      </trkpt>
      <trkpt lat="43.64776" lon="2.11231">
        <ele>182</ele>
        <time>2022-02-07T21:55:00Z</time>
      </trkpt>
      <trkpt lat="43.64772" lon="2.11024">
        <ele>174</ele>
        <time>2022-02-07T21:55:27Z</time>
      </trkpt>
      <trkpt lat="43.64774" lon="2.10937">
        <ele>171</ele>
        <time>2022-02-07T21:55:38Z</time>
      </trkpt>
      <trkpt lat="43.64769" lon="2.10881">
        <ele>170</ele>
        <time>2022-02-07T21:55:45Z</time>
      </trkpt>
      <trkpt lat="43.6472" lon="2.10645">
        <ele>168</ele>
        <time>2022-02-07T21:56:17Z</time>
      </trkpt>
      <trkpt lat="43.64692" lon="2.10468">
        <ele>166</ele>
        <time>2022-02-07T21:56:40Z</time>
      </trkpt>
      <trkpt lat="43.64674" lon="2.10372">
        <ele>165</ele>
        <time>2022-02-07T21:56:53Z</time>
      </trkpt>
      <trkpt lat="43.64736" lon="2.10279">
        <ele>162</ele>
        <time>2022-02-07T21:57:09Z</time>
      </trkpt>
      <trkpt lat="43.64747" lon="2.10261">
        <ele>162</ele>
        <time>2022-02-07T21:57:12Z</time>
      </trkpt>
      <trkpt lat="43.64757" lon="2.10246">
        <ele>162</ele>
        <time>2022-02-07T21:57:15Z</time>
      </trkpt>
      <trkpt lat="43.64826" lon="2.10187">
        <ele>163</ele>
        <time>2022-02-07T21:57:29Z</time>
      </trkpt>
      <trkpt lat="43.64836" lon="2.10192">
        <ele>163</ele>
        <time>2022-02-07T21:57:31Z</time>
      </trkpt>
      <trkpt lat="43.64844" lon="2.10168">
        <ele>164</ele>
        <time>2022-02-07T21:57:35Z</time>
      </trkpt>
      <trkpt lat="43.64859" lon="2.10133">
        <ele>167</ele>
        <time>2022-02-07T21:57:40Z</time>
      </trkpt>
      <trkpt lat="43.64753" lon="2.09995">
        <ele>166</ele>
        <time>2022-02-07T21:58:06Z</time>
      </trkpt>
      <trkpt lat="43.64683" lon="2.09887">
        <ele>166</ele>
        <time>2022-02-07T21:58:24Z</time>
      </trkpt>
      <trkpt lat="43.64596" lon="2.09789">
        <ele>164</ele>
        <time>2022-02-07T21:58:44Z</time>
      </trkpt>
      <trkpt lat="43.64582" lon="2.09782">
        <ele>163</ele>
        <time>2022-02-07T21:58:47Z</time>
      </trkpt>
      <trkpt lat="43.64578" lon="2.09766">
        <ele>164</ele>
        <time>2022-02-07T21:58:49Z</time>
      </trkpt>
      <trkpt lat="43.64524" lon="2.09662">
        <ele>163</ele>
        <time>2022-02-07T21:59:06Z</time>
      </trkpt>
      <trkpt lat="43.64488" lon="2.09613">
        <ele>161</ele>
        <time>2022-02-07T21:59:15Z</time>
      </trkpt>
      <trkpt lat="43.64395" lon="2.09518">
        <ele>161</ele>
        <time>2022-02-07T21:59:35Z</time>
      </trkpt>
      <trkpt lat="43.64382" lon="2.09495">
        <ele>161</ele>
        <time>2022-02-07T21:59:39Z</time>
      </trkpt>
      <trkpt lat="43.64374" lon="2.09466">
        <ele>161</ele>
        <time>2022-02-07T21:59:43Z</time>
      </trkpt>
      <trkpt lat="43.6437" lon="2.094">
        <ele>160</ele>
        <time>2022-02-07T21:59:51Z</time>
      </trkpt>
      <trkpt lat="43.64371" lon="2.09373">
        <ele>160</ele>
        <time>2022-02-07T21:59:55Z</time>
      </trkpt>
      <trkpt lat="43.64388" lon="2.09229">
        <ele>160</ele>
        <time>2022-02-07T22:00:14Z</time>
      </trkpt>
      <trkpt lat="43.64401" lon="2.09148">
        <ele>161</ele>
        <time>2022-02-07T22:00:24Z</time>
      </trkpt>
      <trkpt lat="43.6443" lon="2.09032">
        <ele>163</ele>
        <time>2022-02-07T22:00:40Z</time>
      </trkpt>
      <trkpt lat="43.64449" lon="2.0895">
        <ele>165</ele>
        <time>2022-02-07T22:00:51Z</time>
      </trkpt>
      <trkpt lat="43.64458" lon="2.08892">
        <ele>165</ele>
        <time>2022-02-07T22:00:59Z</time>
      </trkpt>
      <trkpt lat="43.64461" lon="2.08833">
        <ele>166</ele>
        <time>2022-02-07T22:01:07Z</time>
      </trkpt>
      <trkpt lat="43.64461" lon="2.08783">
        <ele>165</ele>
        <time>2022-02-07T22:01:13Z</time>
      </trkpt>
      <trkpt lat="43.64458" lon="2.08693">
        <ele>163</ele>
        <time>2022-02-07T22:01:25Z</time>
      </trkpt>
      <trkpt lat="43.64451" lon="2.0863">
        <ele>162</ele>
        <time>2022-02-07T22:01:33Z</time>
      </trkpt>
      <trkpt lat="43.64456" lon="2.08577">
        <ele>161</ele>
        <time>2022-02-07T22:01:40Z</time>
      </trkpt>
      <trkpt lat="43.64488" lon="2.08376">
        <ele>162</ele>
        <time>2022-02-07T22:02:06Z</time>
      </trkpt>
      <trkpt lat="43.64515" lon="2.08301">
        <ele>162</ele>
        <time>2022-02-07T22:02:17Z</time>
      </trkpt>
      <trkpt lat="43.6465" lon="2.07981">
        <ele>160</ele>
        <time>2022-02-07T22:03:05Z</time>
      </trkpt>
      <trkpt lat="43.64767" lon="2.07693">
        <ele>157</ele>
        <time>2022-02-07T22:03:47Z</time>
      </trkpt>
      <trkpt lat="43.64835" lon="2.07471">
        <ele>158</ele>
        <time>2022-02-07T22:04:18Z</time>
      </trkpt>
      <trkpt lat="43.64912" lon="2.0717">
        <ele>161</ele>
        <time>2022-02-07T22:04:59Z</time>
      </trkpt>
      <trkpt lat="43.64986" lon="2.06979">
        <ele>160</ele>
        <time>2022-02-07T22:05:27Z</time>
      </trkpt>
      <trkpt lat="43.6505" lon="2.06799">
        <ele>163</ele>
        <time>2022-02-07T22:05:53Z</time>
      </trkpt>
      <trkpt lat="43.65119" lon="2.06717">
        <ele>164</ele>
        <time>2022-02-07T22:06:09Z</time>
      </trkpt>
      <trkpt lat="43.65175" lon="2.06648">
        <ele>165</ele>
        <time>2022-02-07T22:06:23Z</time>
      </trkpt>
      <trkpt lat="43.65209" lon="2.06497">
        <ele>162</ele>
        <time>2022-02-07T22:06:43Z</time>
      </trkpt>
      <trkpt lat="43.65273" lon="2.06165">
        <ele>160</ele>
        <time>2022-02-07T22:07:27Z</time>
      </trkpt>
      <trkpt lat="43.65311" lon="2.05976">
        <ele>165</ele>
        <time>2022-02-07T22:07:52Z</time>
      </trkpt>
      <trkpt lat="43.65327" lon="2.05925">
        <ele>166</ele>
        <time>2022-02-07T22:08:00Z</time>
      </trkpt>
      <trkpt lat="43.65356" lon="2.05866">
        <ele>167</ele>
        <time>2022-02-07T22:08:09Z</time>
      </trkpt>
      <trkpt lat="43.65467" lon="2.05657">
        <ele>170</ele>
        <time>2022-02-07T22:08:42Z</time>
      </trkpt>
      <trkpt lat="43.65483" lon="2.05622">
        <ele>170</ele>
        <time>2022-02-07T22:08:47Z</time>
      </trkpt>
      <trkpt lat="43.65515" lon="2.05537">
        <ele>172</ele>
        <time>2022-02-07T22:09:00Z</time>
      </trkpt>
      <trkpt lat="43.6556" lon="2.05433">
        <ele>172</ele>
        <time>2022-02-07T22:09:15Z</time>
      </trkpt>
      <trkpt lat="43.65587" lon="2.05387">
        <ele>172</ele>
        <time>2022-02-07T22:09:23Z</time>
      </trkpt>
      <trkpt lat="43.65603" lon="2.05348">
        <ele>172</ele>
        <time>2022-02-07T22:09:29Z</time>
      </trkpt>
      <trkpt lat="43.65619" lon="2.05293">
        <ele>172</ele>
        <time>2022-02-07T22:09:36Z</time>
      </trkpt>
      <trkpt lat="43.65686" lon="2.05095">
        <ele>174</ele>
        <time>2022-02-07T22:10:05Z</time>
      </trkpt>
      <trkpt lat="43.65689" lon="2.05088">
        <ele>174</ele>
        <time>2022-02-07T22:10:06Z</time>
      </trkpt>
      <trkpt lat="43.65744" lon="2.04944">
        <ele>174</ele>
        <time>2022-02-07T22:10:27Z</time>
      </trkpt>
      <trkpt lat="43.65745" lon="2.04935">
        <ele>174</ele>
        <time>2022-02-07T22:10:28Z</time>
      </trkpt>
      <trkpt lat="43.65744" lon="2.04926">
        <ele>174</ele>
        <time>2022-02-07T22:10:29Z</time>
      </trkpt>
      <trkpt lat="43.6574" lon="2.04916">
        <ele>174</ele>
        <time>2022-02-07T22:10:30Z</time>
      </trkpt>
      <trkpt lat="43.65731" lon="2.04911">
        <ele>173</ele>
        <time>2022-02-07T22:10:32Z</time>
      </trkpt>
      <trkpt lat="43.65674" lon="2.04889">
        <ele>172</ele>
        <time>2022-02-07T22:10:43Z</time>
      </trkpt>
      <trkpt lat="43.65677" lon="2.04876">
        <ele>172</ele>
        <time>2022-02-07T22:10:44Z</time>
      </trkpt>
      <trkpt lat="43.65695" lon="2.04827">
        <ele>172</ele>
        <time>2022-02-07T22:10:51Z</time>
      </trkpt>
      <trkpt lat="43.65717" lon="2.0476">
        <ele>171</ele>
        <time>2022-02-07T22:11:01Z</time>
      </trkpt>
      <trkpt lat="43.65724" lon="2.0473">
        <ele>171</ele>
        <time>2022-02-07T22:11:05Z</time>
      </trkpt>
      <trkpt lat="43.65726" lon="2.0471">
        <ele>170</ele>
        <time>2022-02-07T22:11:08Z</time>
      </trkpt>
      <trkpt lat="43.65727" lon="2.0469">
        <ele>169</ele>
        <time>2022-02-07T22:11:10Z</time>
      </trkpt>
      <trkpt lat="43.65724" lon="2.04676">
        <ele>169</ele>
        <time>2022-02-07T22:11:12Z</time>
      </trkpt>
      <trkpt lat="43.65724" lon="2.0465">
        <ele>168</ele>
        <time>2022-02-07T22:11:15Z</time>
      </trkpt>
      <trkpt lat="43.65734" lon="2.04608">
        <ele>167</ele>
        <time>2022-02-07T22:11:21Z</time>
      </trkpt>
      <trkpt lat="43.65761" lon="2.04514">
        <ele>168</ele>
        <time>2022-02-07T22:11:34Z</time>
      </trkpt>
      <trkpt lat="43.65765" lon="2.04479">
        <ele>168</ele>
        <time>2022-02-07T22:11:39Z</time>
      </trkpt>
      <trkpt lat="43.65767" lon="2.04441">
        <ele>167</ele>
        <time>2022-02-07T22:11:44Z</time>
      </trkpt>
      <trkpt lat="43.65774" lon="2.04414">
        <ele>167</ele>
        <time>2022-02-07T22:11:47Z</time>
      </trkpt>
      <trkpt lat="43.65787" lon="2.04383">
        <ele>165</ele>
        <time>2022-02-07T22:11:52Z</time>
      </trkpt>
      <trkpt lat="43.65786" lon="2.04368">
        <ele>164</ele>
        <time>2022-02-07T22:11:54Z</time>
      </trkpt>
      <trkpt lat="43.65779" lon="2.04353">
        <ele>163</ele>
        <time>2022-02-07T22:11:56Z</time>
      </trkpt>
      <trkpt lat="43.65755" lon="2.0431">
        <ele>161</ele>
        <time>2022-02-07T22:12:03Z</time>
      </trkpt>
      <trkpt lat="43.65738" lon="2.04266">
        <ele>159</ele>
        <time>2022-02-07T22:12:10Z</time>
      </trkpt>
      <trkpt lat="43.65726" lon="2.04221">
        <ele>157</ele>
        <time>2022-02-07T22:12:16Z</time>
      </trkpt>
      <trkpt lat="43.65723" lon="2.04197">
        <ele>156</ele>
        <time>2022-02-07T22:12:19Z</time>
      </trkpt>
      <trkpt lat="43.65722" lon="2.04158">
        <ele>155</ele>
        <time>2022-02-07T22:12:24Z</time>
      </trkpt>
      <trkpt lat="43.65753" lon="2.03916">
        <ele>153</ele>
        <time>2022-02-07T22:12:56Z</time>
      </trkpt>
      <trkpt lat="43.6576" lon="2.03888">
        <ele>152</ele>
        <time>2022-02-07T22:12:59Z</time>
      </trkpt>
      <trkpt lat="43.65783" lon="2.0381">
        <ele>151</ele>
        <time>2022-02-07T22:13:10Z</time>
      </trkpt>
      <trkpt lat="43.65839" lon="2.03602">
        <ele>149</ele>
        <time>2022-02-07T22:13:39Z</time>
      </trkpt>
      <trkpt lat="43.65874" lon="2.03486">
        <ele>149</ele>
        <time>2022-02-07T22:13:55Z</time>
      </trkpt>
      <trkpt lat="43.65881" lon="2.03456">
        <ele>149</ele>
        <time>2022-02-07T22:13:59Z</time>
      </trkpt>
      <trkpt lat="43.65886" lon="2.03422">
        <ele>149</ele>
        <time>2022-02-07T22:14:03Z</time>
      </trkpt>
      <trkpt lat="43.65889" lon="2.03382">
        <ele>149</ele>
        <time>2022-02-07T22:14:09Z</time>
      </trkpt>
      <trkpt lat="43.65888" lon="2.0335">
        <ele>148</ele>
        <time>2022-02-07T22:14:13Z</time>
      </trkpt>
      <trkpt lat="43.65886" lon="2.03328">
        <ele>148</ele>
        <time>2022-02-07T22:14:16Z</time>
      </trkpt>
      <trkpt lat="43.65881" lon="2.03301">
        <ele>149</ele>
        <time>2022-02-07T22:14:19Z</time>
      </trkpt>
      <trkpt lat="43.65871" lon="2.03268">
        <ele>149</ele>
        <time>2022-02-07T22:14:24Z</time>
      </trkpt>
      <trkpt lat="43.65861" lon="2.03246">
        <ele>150</ele>
        <time>2022-02-07T22:14:27Z</time>
      </trkpt>
      <trkpt lat="43.65813" lon="2.03158">
        <ele>147</ele>
        <time>2022-02-07T22:14:41Z</time>
      </trkpt>
      <trkpt lat="43.65811" lon="2.03146">
        <ele>147</ele>
        <time>2022-02-07T22:14:43Z</time>
      </trkpt>
      <trkpt lat="43.65818" lon="2.0313">
        <ele>146</ele>
        <time>2022-02-07T22:14:45Z</time>
      </trkpt>
      <trkpt lat="43.65823" lon="2.03114">
        <ele>146</ele>
        <time>2022-02-07T22:14:48Z</time>
      </trkpt>
      <trkpt lat="43.65835" lon="2.03053">
        <ele>145</ele>
        <time>2022-02-07T22:14:56Z</time>
      </trkpt>
      <trkpt lat="43.65866" lon="2.02968">
        <ele>147</ele>
        <time>2022-02-07T22:15:08Z</time>
      </trkpt>
      <trkpt lat="43.65876" lon="2.02946">
        <ele>147</ele>
        <time>2022-02-07T22:15:11Z</time>
      </trkpt>
      <trkpt lat="43.65937" lon="2.02865">
        <ele>150</ele>
        <time>2022-02-07T22:15:26Z</time>
      </trkpt>
      <trkpt lat="43.6596" lon="2.02816">
        <ele>152</ele>
        <time>2022-02-07T22:15:34Z</time>
      </trkpt>
      <trkpt lat="43.65968" lon="2.02792">
        <ele>151</ele>
        <time>2022-02-07T22:15:37Z</time>
      </trkpt>
      <trkpt lat="43.65974" lon="2.0276">
        <ele>151</ele>
        <time>2022-02-07T22:15:42Z</time>
      </trkpt>
      <trkpt lat="43.65973" lon="2.02739">
        <ele>150</ele>
        <time>2022-02-07T22:15:44Z</time>
      </trkpt>
      <trkpt lat="43.65966" lon="2.02683">
        <ele>151</ele>
        <time>2022-02-07T22:15:52Z</time>
      </trkpt>
      <trkpt lat="43.65967" lon="2.02671">
        <ele>151</ele>
        <time>2022-02-07T22:15:53Z</time>
      </trkpt>
      <trkpt lat="43.66036" lon="2.02493">
        <ele>158</ele>
        <time>2022-02-07T22:16:19Z</time>
      </trkpt>
      <trkpt lat="43.66053" lon="2.02444">
        <ele>159</ele>
        <time>2022-02-07T22:16:26Z</time>
      </trkpt>
      <trkpt lat="43.66063" lon="2.02397">
        <ele>160</ele>
        <time>2022-02-07T22:16:32Z</time>
      </trkpt>
      <trkpt lat="43.66069" lon="2.02301">
        <ele>158</ele>
        <time>2022-02-07T22:16:45Z</time>
      </trkpt>
      <trkpt lat="43.66078" lon="2.01985">
        <ele>152</ele>
        <time>2022-02-07T22:17:26Z</time>
      </trkpt>
      <trkpt lat="43.66084" lon="2.01909">
        <ele>153</ele>
        <time>2022-02-07T22:17:35Z</time>
      </trkpt>
      <trkpt lat="43.6608" lon="2.01841">
        <ele>152</ele>
        <time>2022-02-07T22:17:44Z</time>
      </trkpt>
      <trkpt lat="43.66061" lon="2.01747">
        <ele>152</ele>
        <time>2022-02-07T22:17:57Z</time>
      </trkpt>
      <trkpt lat="43.66043" lon="2.01648">
        <ele>154</ele>
        <time>2022-02-07T22:18:10Z</time>
      </trkpt>
      <trkpt lat="43.6603" lon="2.01391">
        <ele>153</ele>
        <time>2022-02-07T22:18:43Z</time>
      </trkpt>
      <trkpt lat="43.66038" lon="2.01327">
        <ele>153</ele>
        <time>2022-02-07T22:18:51Z</time>
      </trkpt>
      <trkpt lat="43.66051" lon="2.01257">
        <ele>153</ele>
        <time>2022-02-07T22:19:01Z</time>
      </trkpt>
      <trkpt lat="43.66081" lon="2.01166">
        <ele>152</ele>
        <time>2022-02-07T22:19:14Z</time>
      </trkpt>
      <trkpt lat="43.66124" lon="2.01062">
        <ele>154</ele>
        <time>2022-02-07T22:19:29Z</time>
      </trkpt>
      <trkpt lat="43.66172" lon="2.00911">
        <ele>154</ele>
        <time>2022-02-07T22:19:50Z</time>
      </trkpt>
      <trkpt lat="43.66199" lon="2.00852">
        <ele>154</ele>
        <time>2022-02-07T22:19:59Z</time>
      </trkpt>
      <trkpt lat="43.66248" lon="2.00762">
        <ele>155</ele>
        <time>2022-02-07T22:20:14Z</time>
      </trkpt>
      <trkpt lat="43.66257" lon="2.00732">
        <ele>156</ele>
        <time>2022-02-07T22:20:18Z</time>
      </trkpt>
      <trkpt lat="43.66266" lon="2.0068">
        <ele>157</ele>
        <time>2022-02-07T22:20:25Z</time>
      </trkpt>
      <trkpt lat="43.66276" lon="2.00597">
        <ele>155</ele>
        <time>2022-02-07T22:20:36Z</time>
      </trkpt>
      <trkpt lat="43.66288" lon="2.00336">
        <ele>150</ele>
        <time>2022-02-07T22:21:09Z</time>
      </trkpt>
      <trkpt lat="43.66286" lon="2.00233">
        <ele>150</ele>
        <time>2022-02-07T22:21:22Z</time>
      </trkpt>
      <trkpt lat="43.66276" lon="2.00107">
        <ele>150</ele>
        <time>2022-02-07T22:21:39Z</time>
      </trkpt>
      <trkpt lat="43.66262" lon="1.99993">
        <ele>150</ele>
        <time>2022-02-07T22:21:54Z</time>
      </trkpt>
      <trkpt lat="43.66213" lon="1.99703">
        <ele>153</ele>
        <time>2022-02-07T22:22:32Z</time>
      </trkpt>
      <trkpt lat="43.66201" lon="1.99625">
        <ele>154</ele>
        <time>2022-02-07T22:22:42Z</time>
      </trkpt>
      <trkpt lat="43.66196" lon="1.99575">
        <ele>155</ele>
        <time>2022-02-07T22:22:49Z</time>
      </trkpt>
      <trkpt lat="43.66195" lon="1.99126">
        <ele>153</ele>
        <time>2022-02-07T22:23:47Z</time>
      </trkpt>
      <trkpt lat="43.66197" lon="1.99039">
        <ele>153</ele>
        <time>2022-02-07T22:23:58Z</time>
      </trkpt>
      <trkpt lat="43.66201" lon="1.98978">
        <ele>153</ele>
        <time>2022-02-07T22:24:06Z</time>
      </trkpt>
      <trkpt lat="43.66208" lon="1.98928">
        <ele>153</ele>
        <time>2022-02-07T22:24:12Z</time>
      </trkpt>
      <trkpt lat="43.6624" lon="1.98771">
        <ele>152</ele>
        <time>2022-02-07T22:24:33Z</time>
      </trkpt>
      <trkpt lat="43.6628" lon="1.9859">
        <ele>150</ele>
        <time>2022-02-07T22:24:58Z</time>
      </trkpt>
      <trkpt lat="43.66321" lon="1.98423">
        <ele>149</ele>
        <time>2022-02-07T22:25:20Z</time>
      </trkpt>
      <trkpt lat="43.66325" lon="1.98399">
        <ele>149</ele>
        <time>2022-02-07T22:25:23Z</time>
      </trkpt>
      <trkpt lat="43.66402" lon="1.97855">
        <ele>156</ele>
        <time>2022-02-07T22:26:35Z</time>
      </trkpt>
      <trkpt lat="43.66402" lon="1.97695">
        <ele>160</ele>
        <time>2022-02-07T22:26:55Z</time>
      </trkpt>
      <trkpt lat="43.66413" lon="1.97587">
        <ele>157</ele>
        <time>2022-02-07T22:27:09Z</time>
      </trkpt>
      <trkpt lat="43.66417" lon="1.97519">
        <ele>154</ele>
        <time>2022-02-07T22:27:18Z</time>
      </trkpt>
      <trkpt lat="43.66419" lon="1.97391">
        <ele>152</ele>
        <time>2022-02-07T22:27:35Z</time>
      </trkpt>
      <trkpt lat="43.66415" lon="1.9737">
        <ele>151</ele>
        <time>2022-02-07T22:27:37Z</time>
      </trkpt>
      <trkpt lat="43.66375" lon="1.97284">
        <ele>150</ele>
        <time>2022-02-07T22:27:51Z</time>
      </trkpt>
      <trkpt lat="43.6637" lon="1.97269">
        <ele>150</ele>
        <time>2022-02-07T22:27:53Z</time>
      </trkpt>
      <trkpt lat="43.66365" lon="1.97251">
        <ele>149</ele>
        <time>2022-02-07T22:27:55Z</time>
      </trkpt>
      <trkpt lat="43.66351" lon="1.97177">
        <ele>149</ele>
        <time>2022-02-07T22:28:05Z</time>
      </trkpt>
      <trkpt lat="43.66331" lon="1.9711">
        <ele>147</ele>
        <time>2022-02-07T22:28:14Z</time>
      </trkpt>
      <trkpt lat="43.6629" lon="1.97008">
        <ele>148</ele>
        <time>2022-02-07T22:28:29Z</time>
      </trkpt>
      <trkpt lat="43.66282" lon="1.96977">
        <ele>148</ele>
        <time>2022-02-07T22:28:34Z</time>
      </trkpt>
      <trkpt lat="43.66268" lon="1.9688">
        <ele>150</ele>
        <time>2022-02-07T22:28:46Z</time>
      </trkpt>
      <trkpt lat="43.66261" lon="1.96855">
        <ele>149</ele>
        <time>2022-02-07T22:28:50Z</time>
      </trkpt>
      <trkpt lat="43.66222" lon="1.96744">
        <ele>146</ele>
        <time>2022-02-07T22:29:06Z</time>
      </trkpt>
      <trkpt lat="43.66183" lon="1.96651">
        <ele>145</ele>
        <time>2022-02-07T22:29:20Z</time>
      </trkpt>
      <trkpt lat="43.66155" lon="1.96562">
        <ele>144</ele>
        <time>2022-02-07T22:29:32Z</time>
      </trkpt>
      <trkpt lat="43.66139" lon="1.96495">
        <ele>143</ele>
        <time>2022-02-07T22:29:41Z</time>
      </trkpt>
      <trkpt lat="43.66134" lon="1.96465">
        <ele>143</ele>
        <time>2022-02-07T22:29:45Z</time>
      </trkpt>
      <trkpt lat="43.66132" lon="1.96436">
        <ele>143</ele>
        <time>2022-02-07T22:29:49Z</time>
      </trkpt>
      <trkpt lat="43.6613" lon="1.96342">
        <ele>143</ele>
        <time>2022-02-07T22:30:01Z</time>
      </trkpt>
      <trkpt lat="43.66123" lon="1.96314">
        <ele>143</ele>
        <time>2022-02-07T22:30:05Z</time>
      </trkpt>
      <trkpt lat="43.6612" lon="1.96292">
        <ele>143</ele>
        <time>2022-02-07T22:30:08Z</time>
      </trkpt>
      <trkpt lat="43.66077" lon="1.95924">
        <ele>141</ele>
        <time>2022-02-07T22:30:56Z</time>
      </trkpt>
      <trkpt lat="43.66167" lon="1.95818">
        <ele>143</ele>
        <time>2022-02-07T22:31:17Z</time>
      </trkpt>
      <trkpt lat="43.66261" lon="1.95663">
        <ele>142</ele>
        <time>2022-02-07T22:31:43Z</time>
      </trkpt>
      <trkpt lat="43.66285" lon="1.95628">
        <ele>142</ele>
        <time>2022-02-07T22:31:49Z</time>
      </trkpt>
      <trkpt lat="43.66342" lon="1.95415">
        <ele>141</ele>
        <time>2022-02-07T22:32:18Z</time>
      </trkpt>
      <trkpt lat="43.66357" lon="1.95377">
        <ele>142</ele>
        <time>2022-02-07T22:32:24Z</time>
      </trkpt>
      <trkpt lat="43.6643" lon="1.95231">
        <ele>144</ele>
        <time>2022-02-07T22:32:47Z</time>
      </trkpt>
      <trkpt lat="43.66464" lon="1.95147">
        <ele>144</ele>
        <time>2022-02-07T22:32:59Z</time>
      </trkpt>
      <trkpt lat="43.66494" lon="1.95064">
        <ele>143</ele>
        <time>2022-02-07T22:33:11Z</time>
      </trkpt>
      <trkpt lat="43.66519" lon="1.95014">
        <ele>143</ele>
        <time>2022-02-07T22:33:19Z</time>
      </trkpt>
      <trkpt lat="43.66551" lon="1.94966">
        <ele>144</ele>
        <time>2022-02-07T22:33:27Z</time>
      </trkpt>
      <trkpt lat="43.66584" lon="1.94927">
        <ele>144</ele>
        <time>2022-02-07T22:33:35Z</time>
      </trkpt>
      <trkpt lat="43.66667" lon="1.94851">
        <ele>143</ele>
        <time>2022-02-07T22:33:53Z</time>
      </trkpt>
      <trkpt lat="43.66674" lon="1.94844">
        <ele>143</ele>
        <time>2022-02-07T22:33:54Z</time>
      </trkpt>
      <trkpt lat="43.66714" lon="1.94812">
        <ele>144</ele>
        <time>2022-02-07T22:34:02Z</time>
      </trkpt>
      <trkpt lat="43.67166" lon="1.94421">
        <ele>145</ele>
        <time>2022-02-07T22:35:37Z</time>
      </trkpt>
      <trkpt lat="43.67631" lon="1.94117">
        <ele>152</ele>
        <time>2022-02-07T22:37:09Z</time>
      </trkpt>
      <trkpt lat="43.67874" lon="1.93814">
        <ele>154</ele>
        <time>2022-02-07T22:38:07Z</time>
      </trkpt>
      <trkpt lat="43.67914" lon="1.93748">
        <ele>154</ele>
        <time>2022-02-07T22:38:18Z</time>
      </trkpt>
      <trkpt lat="43.68002" lon="1.93626">
        <ele>155</ele>
        <time>2022-02-07T22:38:40Z</time>
      </trkpt>
      <trkpt lat="43.6801" lon="1.93614">
        <ele>155</ele>
        <time>2022-02-07T22:38:42Z</time>
      </trkpt>
      <trkpt lat="43.68034" lon="1.93583">
        <ele>154</ele>
        <time>2022-02-07T22:38:48Z</time>
      </trkpt>
      <trkpt lat="43.68046" lon="1.93576">
        <ele>154</ele>
        <time>2022-02-07T22:38:50Z</time>
      </trkpt>
      <trkpt lat="43.68062" lon="1.93575">
        <ele>155</ele>
        <time>2022-02-07T22:38:53Z</time>
      </trkpt>
      <trkpt lat="43.68078" lon="1.93571">
        <ele>155</ele>
        <time>2022-02-07T22:38:56Z</time>
      </trkpt>
      <trkpt lat="43.68089" lon="1.93559">
        <ele>155</ele>
        <time>2022-02-07T22:38:59Z</time>
      </trkpt>
      <trkpt lat="43.68139" lon="1.93482">
        <ele>156</ele>
        <time>2022-02-07T22:39:12Z</time>
      </trkpt>
      <trkpt lat="43.68236" lon="1.93268">
        <ele>153</ele>
        <time>2022-02-07T22:39:45Z</time>
      </trkpt>
      <trkpt lat="43.68308" lon="1.93129">
        <ele>152</ele>
        <time>2022-02-07T22:40:07Z</time>
      </trkpt>
      <trkpt lat="43.68432" lon="1.92928">
        <ele>151</ele>
        <time>2022-02-07T22:40:41Z</time>
      </trkpt>
      <trkpt lat="43.68484" lon="1.9285">
        <ele>152</ele>
        <time>2022-02-07T22:40:54Z</time>
      </trkpt>
      <trkpt lat="43.68517" lon="1.92811">
        <ele>151</ele>
        <time>2022-02-07T22:41:02Z</time>
      </trkpt>
      <trkpt lat="43.68833" lon="1.92577">
        <ele>151</ele>
        <time>2022-02-07T22:42:06Z</time>
      </trkpt>
      <trkpt lat="43.68894" lon="1.92539">
        <ele>154</ele>
        <time>2022-02-07T22:42:18Z</time>
      </trkpt>
      <trkpt lat="43.68904" lon="1.9253">
        <ele>155</ele>
        <time>2022-02-07T22:42:20Z</time>
      </trkpt>
      <trkpt lat="43.68941" lon="1.92484">
        <ele>157</ele>
        <time>2022-02-07T22:42:29Z</time>
      </trkpt>
      <trkpt lat="43.68983" lon="1.92426">
        <ele>155</ele>
        <time>2022-02-07T22:42:39Z</time>
      </trkpt>
      <trkpt lat="43.6903" lon="1.92348">
        <ele>151</ele>
        <time>2022-02-07T22:42:52Z</time>
      </trkpt>
      <trkpt lat="43.69059" lon="1.9228">
        <ele>149</ele>
        <time>2022-02-07T22:43:02Z</time>
      </trkpt>
      <trkpt lat="43.69096" lon="1.92177">
        <ele>148</ele>
        <time>2022-02-07T22:43:17Z</time>
      </trkpt>
      <trkpt lat="43.69149" lon="1.91974">
        <ele>147</ele>
        <time>2022-02-07T22:43:45Z</time>
      </trkpt>
      <trkpt lat="43.69164" lon="1.91925">
        <ele>148</ele>
        <time>2022-02-07T22:43:52Z</time>
      </trkpt>
      <trkpt lat="43.6917" lon="1.91917">
        <ele>148</ele>
        <time>2022-02-07T22:43:53Z</time>
      </trkpt>
      <trkpt lat="43.6918" lon="1.91912">
        <ele>149</ele>
        <time>2022-02-07T22:43:55Z</time>
      </trkpt>
      <trkpt lat="43.6922" lon="1.91905">
        <ele>150</ele>
        <time>2022-02-07T22:44:02Z</time>
      </trkpt>
      <trkpt lat="43.69226" lon="1.91895">
        <ele>151</ele>
        <time>2022-02-07T22:44:04Z</time>
      </trkpt>
      <trkpt lat="43.69229" lon="1.91883">
        <ele>151</ele>
        <time>2022-02-07T22:44:06Z</time>
      </trkpt>
      <trkpt lat="43.69234" lon="1.91833">
        <ele>151</ele>
        <time>2022-02-07T22:44:12Z</time>
      </trkpt>
      <trkpt lat="43.6925" lon="1.91637">
        <ele>150</ele>
        <time>2022-02-07T22:44:37Z</time>
      </trkpt>
      <trkpt lat="43.69277" lon="1.9153">
        <ele>148</ele>
        <time>2022-02-07T22:44:52Z</time>
      </trkpt>
      <trkpt lat="43.69279" lon="1.91475">
        <ele>148</ele>
        <time>2022-02-07T22:44:59Z</time>
      </trkpt>
      <trkpt lat="43.69256" lon="1.9141">
        <ele>148</ele>
        <time>2022-02-07T22:45:08Z</time>
      </trkpt>
      <trkpt lat="43.69246" lon="1.91369">
        <ele>148</ele>
        <time>2022-02-07T22:45:14Z</time>
      </trkpt>
      <trkpt lat="43.69239" lon="1.91331">
        <ele>148</ele>
        <time>2022-02-07T22:45:19Z</time>
      </trkpt>
      <trkpt lat="43.69232" lon="1.91272">
        <ele>148</ele>
        <time>2022-02-07T22:45:27Z</time>
      </trkpt>
      <trkpt lat="43.69219" lon="1.91093">
        <ele>149</ele>
        <time>2022-02-07T22:45:50Z</time>
      </trkpt>
      <trkpt lat="43.69222" lon="1.91037">
        <ele>151</ele>
        <time>2022-02-07T22:45:57Z</time>
      </trkpt>
      <trkpt lat="43.69235" lon="1.90858">
        <ele>152</ele>
        <time>2022-02-07T22:46:20Z</time>
      </trkpt>
      <trkpt lat="43.69244" lon="1.90816">
        <ele>153</ele>
        <time>2022-02-07T22:46:26Z</time>
      </trkpt>
      <trkpt lat="43.69251" lon="1.90759">
        <ele>155</ele>
        <time>2022-02-07T22:46:33Z</time>
      </trkpt>
      <trkpt lat="43.69248" lon="1.90681">
        <ele>154</ele>
        <time>2022-02-07T22:46:43Z</time>
      </trkpt>
      <trkpt lat="43.69234" lon="1.90561">
        <ele>150</ele>
        <time>2022-02-07T22:46:59Z</time>
      </trkpt>
      <trkpt lat="43.69224" lon="1.9044">
        <ele>144</ele>
        <time>2022-02-07T22:47:15Z</time>
      </trkpt>
      <trkpt lat="43.69222" lon="1.90236">
        <ele>142</ele>
        <time>2022-02-07T22:47:41Z</time>
      </trkpt>
      <trkpt lat="43.69224" lon="1.90206">
        <ele>142</ele>
        <time>2022-02-07T22:47:45Z</time>
      </trkpt>
      <trkpt lat="43.69239" lon="1.90066">
        <ele>142</ele>
        <time>2022-02-07T22:48:03Z</time>
      </trkpt>
      <trkpt lat="43.69241" lon="1.9">
        <ele>141</ele>
        <time>2022-02-07T22:48:12Z</time>
      </trkpt>
      <trkpt lat="43.69228" lon="1.899">
        <ele>139</ele>
        <time>2022-02-07T22:48:25Z</time>
      </trkpt>
      <trkpt lat="43.6922" lon="1.89866">
        <ele>140</ele>
        <time>2022-02-07T22:48:29Z</time>
      </trkpt>
      <trkpt lat="43.69231" lon="1.89674">
        <ele>139</ele>
        <time>2022-02-07T22:48:54Z</time>
      </trkpt>
      <trkpt lat="43.69239" lon="1.89592">
        <ele>139</ele>
        <time>2022-02-07T22:49:05Z</time>
      </trkpt>
      <trkpt lat="43.69246" lon="1.89581">
        <ele>139</ele>
        <time>2022-02-07T22:49:06Z</time>
      </trkpt>
      <trkpt lat="43.69249" lon="1.89563">
        <ele>139</ele>
        <time>2022-02-07T22:49:09Z</time>
      </trkpt>
      <trkpt lat="43.69242" lon="1.89481">
        <ele>139</ele>
        <time>2022-02-07T22:49:19Z</time>
      </trkpt>
      <trkpt lat="43.69255" lon="1.89358">
        <ele>137</ele>
        <time>2022-02-07T22:49:35Z</time>
      </trkpt>
      <trkpt lat="43.69264" lon="1.89293">
        <ele>137</ele>
        <time>2022-02-07T22:49:44Z</time>
      </trkpt>
      <trkpt lat="43.69348" lon="1.8899">
        <ele>138</ele>
        <time>2022-02-07T22:50:26Z</time>
      </trkpt>
      <trkpt lat="43.69381" lon="1.88856">
        <ele>138</ele>
        <time>2022-02-07T22:50:44Z</time>
      </trkpt>
      <trkpt lat="43.6942" lon="1.8866">
        <ele>137</ele>
        <time>2022-02-07T22:51:10Z</time>
      </trkpt>
      <trkpt lat="43.69427" lon="1.88608">
        <ele>137</ele>
        <time>2022-02-07T22:51:17Z</time>
      </trkpt>
      <trkpt lat="43.69453" lon="1.88323">
        <ele>136</ele>
        <time>2022-02-07T22:51:54Z</time>
      </trkpt>
      <trkpt lat="43.69463" lon="1.88256">
        <ele>136</ele>
        <time>2022-02-07T22:52:03Z</time>
      </trkpt>
      <trkpt lat="43.69529" lon="1.88046">
        <ele>137</ele>
        <time>2022-02-07T22:52:32Z</time>
      </trkpt>
      <trkpt lat="43.69558" lon="1.87963">
        <ele>139</ele>
        <time>2022-02-07T22:52:44Z</time>
      </trkpt>
      <trkpt lat="43.69572" lon="1.87932">
        <ele>140</ele>
        <time>2022-02-07T22:52:49Z</time>
      </trkpt>
      <trkpt lat="43.69594" lon="1.87894">
        <ele>140</ele>
        <time>2022-02-07T22:52:55Z</time>
      </trkpt>
      <trkpt lat="43.69735" lon="1.87698">
        <ele>142</ele>
        <time>2022-02-07T22:53:31Z</time>
      </trkpt>
      <trkpt lat="43.69779" lon="1.87646">
        <ele>142</ele>
        <time>2022-02-07T22:53:41Z</time>
      </trkpt>
      <trkpt lat="43.69812" lon="1.8761">
        <ele>141</ele>
        <time>2022-02-07T22:53:48Z</time>
      </trkpt>
      <trkpt lat="43.69825" lon="1.87587">
        <ele>140</ele>
        <time>2022-02-07T22:53:52Z</time>
      </trkpt>
      <trkpt lat="43.69837" lon="1.87537">
        <ele>139</ele>
        <time>2022-02-07T22:53:59Z</time>
      </trkpt>
      <trkpt lat="43.69839" lon="1.87499">
        <ele>138</ele>
        <time>2022-02-07T22:54:04Z</time>
      </trkpt>
      <trkpt lat="43.6983" lon="1.87402">
        <ele>137</ele>
        <time>2022-02-07T22:54:16Z</time>
      </trkpt>
      <trkpt lat="43.69832" lon="1.8737">
        <ele>136</ele>
        <time>2022-02-07T22:54:20Z</time>
      </trkpt>
      <trkpt lat="43.69837" lon="1.87347">
        <ele>136</ele>
        <time>2022-02-07T22:54:24Z</time>
      </trkpt>
      <trkpt lat="43.69855" lon="1.87315">
        <ele>135</ele>
        <time>2022-02-07T22:54:29Z</time>
      </trkpt>
      <trkpt lat="43.69878" lon="1.87294">
        <ele>135</ele>
        <time>2022-02-07T22:54:34Z</time>
      </trkpt>
      <trkpt lat="43.69898" lon="1.87278">
        <ele>134</ele>
        <time>2022-02-07T22:54:38Z</time>
      </trkpt>
      <trkpt lat="43.69926" lon="1.87261">
        <ele>135</ele>
        <time>2022-02-07T22:54:43Z</time>
      </trkpt>
      <trkpt lat="43.69942" lon="1.87227">
        <ele>138</ele>
        <time>2022-02-07T22:54:48Z</time>
      </trkpt>
      <trkpt lat="43.69953" lon="1.8719">
        <ele>140</ele>
        <time>2022-02-07T22:54:54Z</time>
      </trkpt>
      <trkpt lat="43.69961" lon="1.87139">
        <ele>142</ele>
        <time>2022-02-07T22:55:00Z</time>
      </trkpt>
      <trkpt lat="43.69967" lon="1.87051">
        <ele>144</ele>
        <time>2022-02-07T22:55:12Z</time>
      </trkpt>
      <trkpt lat="43.69965" lon="1.87003">
        <ele>143</ele>
        <time>2022-02-07T22:55:18Z</time>
      </trkpt>
      <trkpt lat="43.69977" lon="1.86892">
        <ele>145</ele>
        <time>2022-02-07T22:55:32Z</time>
      </trkpt>
      <trkpt lat="43.6999" lon="1.86837">
        <ele>147</ele>
        <time>2022-02-07T22:55:40Z</time>
      </trkpt>
      <trkpt lat="43.70003" lon="1.86748">
        <ele>148</ele>
        <time>2022-02-07T22:55:51Z</time>
      </trkpt>
      <trkpt lat="43.70006" lon="1.86709">
        <ele>148</ele>
        <time>2022-02-07T22:55:56Z</time>
      </trkpt>
      <trkpt lat="43.70002" lon="1.86663">
        <ele>147</ele>
        <time>2022-02-07T22:56:02Z</time>
      </trkpt>
      <trkpt lat="43.69994" lon="1.86608">
        <ele>147</ele>
        <time>2022-02-07T22:56:10Z</time>
      </trkpt>
      <trkpt lat="43.69997" lon="1.86591">
        <ele>148</ele>
        <time>2022-02-07T22:56:12Z</time>
      </trkpt>
      <trkpt lat="43.69961" lon="1.86393">
        <ele>147</ele>
        <time>2022-02-07T22:56:38Z</time>
      </trkpt>
      <trkpt lat="43.69908" lon="1.86079">
        <ele>147</ele>
        <time>2022-02-07T22:57:20Z</time>
      </trkpt>
      <trkpt lat="43.69898" lon="1.86008">
        <ele>147</ele>
        <time>2022-02-07T22:57:29Z</time>
      </trkpt>
      <trkpt lat="43.69898" lon="1.85665">
        <ele>145</ele>
        <time>2022-02-07T22:58:13Z</time>
      </trkpt>
      <trkpt lat="43.69896" lon="1.85233">
        <ele>144</ele>
        <time>2022-02-07T22:59:09Z</time>
      </trkpt>
      <trkpt lat="43.69899" lon="1.85069">
        <ele>146</ele>
        <time>2022-02-07T22:59:30Z</time>
      </trkpt>
      <trkpt lat="43.69907" lon="1.84902">
        <ele>145</ele>
        <time>2022-02-07T22:59:51Z</time>
      </trkpt>
      <trkpt lat="43.69939" lon="1.84546">
        <ele>145</ele>
        <time>2022-02-07T23:00:37Z</time>
      </trkpt>
      <trkpt lat="43.69966" lon="1.84279">
        <ele>144</ele>
        <time>2022-02-07T23:01:12Z</time>
      </trkpt>
      <trkpt lat="43.70006" lon="1.83827">
        <ele>135</ele>
        <time>2022-02-07T23:02:11Z</time>
      </trkpt>
      <trkpt lat="43.70047" lon="1.83392">
        <ele>133</ele>
        <time>2022-02-07T23:03:07Z</time>
      </trkpt>
      <trkpt lat="43.70074" lon="1.83082">
        <ele>132</ele>
        <time>2022-02-07T23:03:47Z</time>
      </trkpt>
      <trkpt lat="43.70082" lon="1.8301">
        <ele>134</ele>
        <time>2022-02-07T23:03:57Z</time>
      </trkpt>
      <trkpt lat="43.70095" lon="1.82849">
        <ele>134</ele>
        <time>2022-02-07T23:04:17Z</time>
      </trkpt>
      <trkpt lat="43.70136" lon="1.82404">
        <ele>127</ele>
        <time>2022-02-07T23:05:15Z</time>
      </trkpt>
      <trkpt lat="43.70146" lon="1.8229">
        <ele>132</ele>
        <time>2022-02-07T23:05:30Z</time>
      </trkpt>
      <trkpt lat="43.70167" lon="1.82061">
        <ele>145</ele>
        <time>2022-02-07T23:06:00Z</time>
      </trkpt>
      <trkpt lat="43.70172" lon="1.82057">
        <ele>145</ele>
        <time>2022-02-07T23:06:01Z</time>
      </trkpt>
      <trkpt lat="43.70173" lon="1.82053">
        <ele>145</ele>
        <time>2022-02-07T23:06:01Z</time>
      </trkpt>
      <trkpt lat="43.70371" lon="1.8207">
        <ele>144</ele>
        <time>2022-02-07T23:06:36Z</time>
      </trkpt>
      <trkpt lat="43.70405" lon="1.82072">
        <ele>143</ele>
        <time>2022-02-07T23:06:43Z</time>
      </trkpt>
      <trkpt lat="43.70428" lon="1.82075">
        <ele>143</ele>
        <time>2022-02-07T23:06:47Z</time>
      </trkpt>
      <trkpt lat="43.70544" lon="1.82086">
        <ele>144</ele>
        <time>2022-02-07T23:07:07Z</time>
      </trkpt>
      <trkpt lat="43.70843" lon="1.82111">
        <ele>143</ele>
        <time>2022-02-07T23:08:01Z</time>
      </trkpt>
      <trkpt lat="43.71206" lon="1.82143">
        <ele>142</ele>
        <time>2022-02-07T23:09:05Z</time>
      </trkpt>
      <trkpt lat="43.71224" lon="1.82142">
        <ele>142</ele>
        <time>2022-02-07T23:09:09Z</time>
      </trkpt>
      <trkpt lat="43.71226" lon="1.82147">
        <ele>142</ele>
        <time>2022-02-07T23:09:09Z</time>
      </trkpt>
      <trkpt lat="43.7123" lon="1.82148">
        <ele>142</ele>
        <time>2022-02-07T23:09:10Z</time>
      </trkpt>
      <trkpt lat="43.71232" lon="1.82146">
        <ele>142</ele>
        <time>2022-02-07T23:09:10Z</time>
      </trkpt>
      <trkpt lat="43.71233" lon="1.82142">
        <ele>142</ele>
        <time>2022-02-07T23:09:11Z</time>
      </trkpt>
      <trkpt lat="43.71251" lon="1.82144">
        <ele>142</ele>
        <time>2022-02-07T23:09:14Z</time>
      </trkpt>
      <trkpt lat="43.71392" lon="1.82126">
        <ele>137</ele>
        <time>2022-02-07T23:09:39Z</time>
      </trkpt>
      <trkpt lat="43.71521" lon="1.82108">
        <ele>134</ele>
        <time>2022-02-07T23:10:02Z</time>
      </trkpt>
      <trkpt lat="43.71573" lon="1.82103">
        <ele>135</ele>
        <time>2022-02-07T23:10:12Z</time>
      </trkpt>
      <trkpt lat="43.7161" lon="1.82103">
        <ele>135</ele>
        <time>2022-02-07T23:10:18Z</time>
      </trkpt>
      <trkpt lat="43.72276" lon="1.82156">
        <ele>128</ele>
        <time>2022-02-07T23:12:17Z</time>
      </trkpt>
      <trkpt lat="43.72309" lon="1.82166">
        <ele>129</ele>
        <time>2022-02-07T23:12:23Z</time>
      </trkpt>
      <trkpt lat="43.72339" lon="1.82182">
        <ele>128</ele>
        <time>2022-02-07T23:12:29Z</time>
      </trkpt>
      <trkpt lat="43.7238" lon="1.82213">
        <ele>124</ele>
        <time>2022-02-07T23:12:37Z</time>
      </trkpt>
      <trkpt lat="43.72428" lon="1.82252">
        <ele>118</ele>
        <time>2022-02-07T23:12:47Z</time>
      </trkpt>
      <trkpt lat="43.72455" lon="1.82281">
        <ele>120</ele>
        <time>2022-02-07T23:12:53Z</time>
      </trkpt>
      <trkpt lat="43.72484" lon="1.82307">
        <ele>123</ele>
        <time>2022-02-07T23:12:59Z</time>
      </trkpt>
      <trkpt lat="43.72506" lon="1.8232">
        <ele>125</ele>
        <time>2022-02-07T23:13:03Z</time>
      </trkpt>
      <trkpt lat="43.72541" lon="1.82329">
        <ele>125</ele>
        <time>2022-02-07T23:13:10Z</time>
      </trkpt>
      <trkpt lat="43.72835" lon="1.82333">
        <ele>133</ele>
        <time>2022-02-07T23:14:02Z</time>
      </trkpt>
      <trkpt lat="43.7303" lon="1.82333">
        <ele>132</ele>
        <time>2022-02-07T23:14:37Z</time>
      </trkpt>
      <trkpt lat="43.73376" lon="1.82341">
        <ele>138</ele>
        <time>2022-02-07T23:15:38Z</time>
      </trkpt>
      <trkpt lat="43.73453" lon="1.82349">
        <ele>141</ele>
        <time>2022-02-07T23:15:52Z</time>
      </trkpt>
      <trkpt lat="43.73529" lon="1.82354">
        <ele>145</ele>
        <time>2022-02-07T23:16:06Z</time>
      </trkpt>
      <trkpt lat="43.73573" lon="1.82351">
        <ele>147</ele>
        <time>2022-02-07T23:16:14Z</time>
      </trkpt>
      <trkpt lat="43.73643" lon="1.82333">
        <ele>147</ele>
        <time>2022-02-07T23:16:26Z</time>
      </trkpt>
      <trkpt lat="43.74118" lon="1.82152">
        <ele>129</ele>
        <time>2022-02-07T23:17:54Z</time>
      </trkpt>
      <trkpt lat="43.74273" lon="1.82097">
        <ele>128</ele>
        <time>2022-02-07T23:18:22Z</time>
      </trkpt>
      <trkpt lat="43.74609" lon="1.81971">
        <ele>122</ele>
        <time>2022-02-07T23:19:24Z</time>
      </trkpt>
      <trkpt lat="43.74676" lon="1.81945">
        <ele>120</ele>
        <time>2022-02-07T23:19:37Z</time>
      </trkpt>
      <trkpt lat="43.74879" lon="1.81872">
        <ele>130</ele>
        <time>2022-02-07T23:20:14Z</time>
      </trkpt>
      <trkpt lat="43.74886" lon="1.81873">
        <ele>131</ele>
        <time>2022-02-07T23:20:15Z</time>
      </trkpt>
      <trkpt lat="43.7492" lon="1.8187">
        <ele>133</ele>
        <time>2022-02-07T23:20:21Z</time>
      </trkpt>
      <trkpt lat="43.74925" lon="1.81876">
        <ele>133</ele>
        <time>2022-02-07T23:20:22Z</time>
      </trkpt>
      <trkpt lat="43.74934" lon="1.8188">
        <ele>134</ele>
        <time>2022-02-07T23:20:24Z</time>
      </trkpt>
      <trkpt lat="43.74944" lon="1.81878">
        <ele>135</ele>
        <time>2022-02-07T23:20:26Z</time>
      </trkpt>
      <trkpt lat="43.7495" lon="1.81874">
        <ele>136</ele>
        <time>2022-02-07T23:20:27Z</time>
      </trkpt>
      <trkpt lat="43.74954" lon="1.81867">
        <ele>136</ele>
        <time>2022-02-07T23:20:28Z</time>
      </trkpt>
      <trkpt lat="43.74958" lon="1.81859">
        <ele>137</ele>
        <time>2022-02-07T23:20:29Z</time>
      </trkpt>
      <trkpt lat="43.74965" lon="1.81846">
        <ele>138</ele>
        <time>2022-02-07T23:20:32Z</time>
      </trkpt>
      <trkpt lat="43.74978" lon="1.81835">
        <ele>139</ele>
        <time>2022-02-07T23:20:34Z</time>
      </trkpt>
      <trkpt lat="43.75147" lon="1.81774">
        <ele>146</ele>
        <time>2022-02-07T23:21:05Z</time>
      </trkpt>
      <trkpt lat="43.75168" lon="1.81769">
        <ele>146</ele>
        <time>2022-02-07T23:21:09Z</time>
      </trkpt>
      <trkpt lat="43.75179" lon="1.81769">
        <ele>147</ele>
        <time>2022-02-07T23:21:11Z</time>
      </trkpt>
      <trkpt lat="43.75207" lon="1.8177">
        <ele>147</ele>
        <time>2022-02-07T23:21:16Z</time>
      </trkpt>
      <trkpt lat="43.76179" lon="1.81994">
        <ele>169</ele>
        <time>2022-02-07T23:24:11Z</time>
      </trkpt>
      <trkpt lat="43.76351" lon="1.8203">
        <ele>177</ele>
        <time>2022-02-07T23:24:42Z</time>
      </trkpt>
      <trkpt lat="43.76399" lon="1.82055">
        <ele>179</ele>
        <time>2022-02-07T23:24:52Z</time>
      </trkpt>
      <trkpt lat="43.76494" lon="1.82108">
        <ele>184</ele>
        <time>2022-02-07T23:25:10Z</time>
      </trkpt>
      <trkpt lat="43.76531" lon="1.82145">
        <ele>187</ele>
        <time>2022-02-07T23:25:18Z</time>
      </trkpt>
      <trkpt lat="43.76551" lon="1.82174">
        <ele>188</ele>
        <time>2022-02-07T23:25:23Z</time>
      </trkpt>
      <trkpt lat="43.76568" lon="1.82205">
        <ele>189</ele>
        <time>2022-02-07T23:25:28Z</time>
      </trkpt>
      <trkpt lat="43.76673" lon="1.82448">
        <ele>198</ele>
        <time>2022-02-07T23:26:04Z</time>
      </trkpt>
      <trkpt lat="43.76684" lon="1.8246">
        <ele>199</ele>
        <time>2022-02-07T23:26:07Z</time>
      </trkpt>
      <trkpt lat="43.76695" lon="1.82468">
        <ele>199</ele>
        <time>2022-02-07T23:26:09Z</time>
      </trkpt>
      <trkpt lat="43.76706" lon="1.82469">
        <ele>200</ele>
        <time>2022-02-07T23:26:11Z</time>
      </trkpt>
      <trkpt lat="43.76735" lon="1.82462">
        <ele>201</ele>
        <time>2022-02-07T23:26:16Z</time>
      </trkpt>
      <trkpt lat="43.76799" lon="1.82442">
        <ele>204</ele>
        <time>2022-02-07T23:26:28Z</time>
      </trkpt>
      <trkpt lat="43.76836" lon="1.82441">
        <ele>205</ele>
        <time>2022-02-07T23:26:35Z</time>
      </trkpt>
      <trkpt lat="43.76859" lon="1.82453">
        <ele>207</ele>
        <time>2022-02-07T23:26:39Z</time>
      </trkpt>
      <trkpt lat="43.76888" lon="1.82484">
        <ele>208</ele>
        <time>2022-02-07T23:26:45Z</time>
      </trkpt>
      <trkpt lat="43.76906" lon="1.82515">
        <ele>209</ele>
        <time>2022-02-07T23:26:51Z</time>
      </trkpt>
      <trkpt lat="43.76915" lon="1.82544">
        <ele>208</ele>
        <time>2022-02-07T23:26:55Z</time>
      </trkpt>
      <trkpt lat="43.7692" lon="1.82577">
        <ele>207</ele>
        <time>2022-02-07T23:26:59Z</time>
      </trkpt>
      <trkpt lat="43.76919" lon="1.82608">
        <ele>208</ele>
        <time>2022-02-07T23:27:03Z</time>
      </trkpt>
      <trkpt lat="43.76913" lon="1.82647">
        <ele>210</ele>
        <time>2022-02-07T23:27:08Z</time>
      </trkpt>
      <trkpt lat="43.76901" lon="1.82708">
        <ele>212</ele>
        <time>2022-02-07T23:27:16Z</time>
      </trkpt>
      <trkpt lat="43.76898" lon="1.8274">
        <ele>214</ele>
        <time>2022-02-07T23:27:20Z</time>
      </trkpt>
      <trkpt lat="43.76902" lon="1.82776">
        <ele>214</ele>
        <time>2022-02-07T23:27:25Z</time>
      </trkpt>
      <trkpt lat="43.76909" lon="1.82806">
        <ele>215</ele>
        <time>2022-02-07T23:27:29Z</time>
      </trkpt>
      <trkpt lat="43.76924" lon="1.8283">
        <ele>217</ele>
        <time>2022-02-07T23:27:33Z</time>
      </trkpt>
      <trkpt lat="43.76942" lon="1.82848">
        <ele>218</ele>
        <time>2022-02-07T23:27:37Z</time>
      </trkpt>
      <trkpt lat="43.7696" lon="1.82858">
        <ele>219</ele>
        <time>2022-02-07T23:27:41Z</time>
      </trkpt>
      <trkpt lat="43.7698" lon="1.82864">
        <ele>220</ele>
        <time>2022-02-07T23:27:44Z</time>
      </trkpt>
      <trkpt lat="43.7701" lon="1.82863">
        <ele>222</ele>
        <time>2022-02-07T23:27:50Z</time>
      </trkpt>
      <trkpt lat="43.77102" lon="1.82841">
        <ele>225</ele>
        <time>2022-02-07T23:28:06Z</time>
      </trkpt>
      <trkpt lat="43.77282" lon="1.82804">
        <ele>231</ele>
        <time>2022-02-07T23:28:38Z</time>
      </trkpt>
      <trkpt lat="43.77637" lon="1.8274">
        <ele>232</ele>
        <time>2022-02-07T23:29:42Z</time>
      </trkpt>
      <trkpt lat="43.77668" lon="1.8273">
        <ele>232</ele>
        <time>2022-02-07T23:29:48Z</time>
      </trkpt>
      <trkpt lat="43.777" lon="1.82708">
        <ele>231</ele>
        <time>2022-02-07T23:29:54Z</time>
      </trkpt>
      <trkpt lat="43.78072" lon="1.82408">
        <ele>217</ele>
        <time>2022-02-07T23:31:11Z</time>
      </trkpt>
      <trkpt lat="43.7824" lon="1.82275">
        <ele>212</ele>
        <time>2022-02-07T23:31:45Z</time>
      </trkpt>
      <trkpt lat="43.78296" lon="1.82233">
        <ele>209</ele>
        <time>2022-02-07T23:31:57Z</time>
      </trkpt>
      <trkpt lat="43.78326" lon="1.82217">
        <ele>208</ele>
        <time>2022-02-07T23:32:02Z</time>
      </trkpt>
      <trkpt lat="43.78456" lon="1.82179">
        <ele>207</ele>
        <time>2022-02-07T23:32:26Z</time>
      </trkpt>
      <trkpt lat="43.7858" lon="1.82138">
        <ele>205</ele>
        <time>2022-02-07T23:32:49Z</time>
      </trkpt>
      <trkpt lat="43.78664" lon="1.82092">
        <ele>204</ele>
        <time>2022-02-07T23:33:05Z</time>
      </trkpt>
      <trkpt lat="43.78843" lon="1.81921">
        <ele>191</ele>
        <time>2022-02-07T23:33:43Z</time>
      </trkpt>
      <trkpt lat="43.78883" lon="1.81887">
        <ele>190</ele>
        <time>2022-02-07T23:33:52Z</time>
      </trkpt>
      <trkpt lat="43.78917" lon="1.81866">
        <ele>190</ele>
        <time>2022-02-07T23:33:58Z</time>
      </trkpt>
      <trkpt lat="43.78934" lon="1.81863">
        <ele>190</ele>
        <time>2022-02-07T23:34:01Z</time>
      </trkpt>
      <trkpt lat="43.78972" lon="1.81861">
        <ele>190</ele>
        <time>2022-02-07T23:34:08Z</time>
      </trkpt>
      <trkpt lat="43.79062" lon="1.81874">
        <ele>192</ele>
        <time>2022-02-07T23:34:24Z</time>
      </trkpt>
      <trkpt lat="43.79086" lon="1.81886">
        <ele>194</ele>
        <time>2022-02-07T23:34:29Z</time>
      </trkpt>
      <trkpt lat="43.79102" lon="1.819">
        <ele>194</ele>
        <time>2022-02-07T23:34:32Z</time>
      </trkpt>
      <trkpt lat="43.79246" lon="1.8209">
        <ele>199</ele>
        <time>2022-02-07T23:35:08Z</time>
      </trkpt>
      <trkpt lat="43.79463" lon="1.82373">
        <ele>201</ele>
        <time>2022-02-07T23:36:01Z</time>
      </trkpt>
      <trkpt lat="43.79595" lon="1.82541">
        <ele>203</ele>
        <time>2022-02-07T23:36:32Z</time>
      </trkpt>
      <trkpt lat="43.79659" lon="1.82634">
        <ele>203</ele>
        <time>2022-02-07T23:36:49Z</time>
      </trkpt>
      <trkpt lat="43.79678" lon="1.82671">
        <ele>204</ele>
        <time>2022-02-07T23:36:55Z</time>
      </trkpt>
      <trkpt lat="43.79718" lon="1.82774">
        <ele>204</ele>
        <time>2022-02-07T23:37:10Z</time>
      </trkpt>
      <trkpt lat="43.7981" lon="1.83023">
        <ele>195</ele>
        <time>2022-02-07T23:37:46Z</time>
      </trkpt>
      <trkpt lat="43.7993" lon="1.83338">
        <ele>199</ele>
        <time>2022-02-07T23:38:31Z</time>
      </trkpt>
      <trkpt lat="43.79972" lon="1.83455">
        <ele>203</ele>
        <time>2022-02-07T23:38:48Z</time>
      </trkpt>
      <trkpt lat="43.79999" lon="1.8352">
        <ele>205</ele>
        <time>2022-02-07T23:38:58Z</time>
      </trkpt>
      <trkpt lat="43.80056" lon="1.83693">
        <ele>205</ele>
        <time>2022-02-07T23:39:22Z</time>
      </trkpt>
      <trkpt lat="43.80079" lon="1.83749">
        <ele>205</ele>
        <time>2022-02-07T23:39:31Z</time>
      </trkpt>
      <trkpt lat="43.80113" lon="1.83803">
        <ele>206</ele>
        <time>2022-02-07T23:39:40Z</time>
      </trkpt>
      <trkpt lat="43.80191" lon="1.83876">
        <ele>205</ele>
        <time>2022-02-07T23:39:57Z</time>
      </trkpt>
      <trkpt lat="43.80389" lon="1.84046">
        <ele>200</ele>
        <time>2022-02-07T23:40:38Z</time>
      </trkpt>
      <trkpt lat="43.80631" lon="1.84267">
        <ele>203</ele>
        <time>2022-02-07T23:41:30Z</time>
      </trkpt>
      <trkpt lat="43.80802" lon="1.84441">
        <ele>196</ele>
        <time>2022-02-07T23:42:07Z</time>
      </trkpt>
      <trkpt lat="43.81231" lon="1.84866">
        <ele>196</ele>
        <time>2022-02-07T23:43:41Z</time>
      </trkpt>
      <trkpt lat="43.81452" lon="1.85147">
        <ele>195</ele>
        <time>2022-02-07T23:44:35Z</time>
      </trkpt>
      <trkpt lat="43.815" lon="1.85202">
        <ele>188</ele>
        <time>2022-02-07T23:44:46Z</time>
      </trkpt>
      <trkpt lat="43.81557" lon="1.85261">
        <ele>184</ele>
        <time>2022-02-07T23:44:58Z</time>
      </trkpt>
      <trkpt lat="43.81634" lon="1.85346">
        <ele>188</ele>
        <time>2022-02-07T23:45:16Z</time>
      </trkpt>
      <trkpt lat="43.81682" lon="1.85394">
        <ele>191</ele>
        <time>2022-02-07T23:45:26Z</time>
      </trkpt>
      <trkpt lat="43.81728" lon="1.85431">
        <ele>192</ele>
        <time>2022-02-07T23:45:36Z</time>
      </trkpt>
      <trkpt lat="43.81773" lon="1.85461">
        <ele>192</ele>
        <time>2022-02-07T23:45:45Z</time>
      </trkpt>
      <trkpt lat="43.81826" lon="1.85491">
        <ele>192</ele>
        <time>2022-02-07T23:45:55Z</time>
      </trkpt>
      <trkpt lat="43.81862" lon="1.85509">
        <ele>192</ele>
        <time>2022-02-07T23:46:02Z</time>
      </trkpt>
      <trkpt lat="43.81961" lon="1.85553">
        <ele>193</ele>
        <time>2022-02-07T23:46:20Z</time>
      </trkpt>
      <trkpt lat="43.82022" lon="1.85591">
        <ele>194</ele>
        <time>2022-02-07T23:46:32Z</time>
      </trkpt>
      <trkpt lat="43.82046" lon="1.85609">
        <ele>194</ele>
        <time>2022-02-07T23:46:37Z</time>
      </trkpt>
      <trkpt lat="43.82523" lon="1.86032">
        <ele>194</ele>
        <time>2022-02-07T23:48:18Z</time>
      </trkpt>
      <trkpt lat="43.82603" lon="1.86105">
        <ele>194</ele>
        <time>2022-02-07T23:48:35Z</time>
      </trkpt>
      <trkpt lat="43.82624" lon="1.86128">
        <ele>192</ele>
        <time>2022-02-07T23:48:39Z</time>
      </trkpt>
      <trkpt lat="43.82646" lon="1.86158">
        <ele>190</ele>
        <time>2022-02-07T23:48:45Z</time>
      </trkpt>
      <trkpt lat="43.82788" lon="1.86432">
        <ele>181</ele>
        <time>2022-02-07T23:49:28Z</time>
      </trkpt>
      <trkpt lat="43.82792" lon="1.8644">
        <ele>182</ele>
        <time>2022-02-07T23:49:30Z</time>
      </trkpt>
      <trkpt lat="43.82845" lon="1.86543">
        <ele>188</ele>
        <time>2022-02-07T23:49:46Z</time>
      </trkpt>
      <trkpt lat="43.82868" lon="1.86583">
        <ele>189</ele>
        <time>2022-02-07T23:49:52Z</time>
      </trkpt>
      <trkpt lat="43.82888" lon="1.86605">
        <ele>190</ele>
        <time>2022-02-07T23:49:57Z</time>
      </trkpt>
      <trkpt lat="43.8291" lon="1.86623">
        <ele>190</ele>
        <time>2022-02-07T23:50:01Z</time>
      </trkpt>
      <trkpt lat="43.82933" lon="1.86634">
        <ele>191</ele>
        <time>2022-02-07T23:50:06Z</time>
      </trkpt>
      <trkpt lat="43.82964" lon="1.8664">
        <ele>192</ele>
        <time>2022-02-07T23:50:11Z</time>
      </trkpt>
      <trkpt lat="43.83001" lon="1.86638">
        <ele>193</ele>
        <time>2022-02-07T23:50:18Z</time>
      </trkpt>
      <trkpt lat="43.83163" lon="1.8662">
        <ele>194</ele>
        <time>2022-02-07T23:50:47Z</time>
      </trkpt>
      <trkpt lat="43.83329" lon="1.86604">
        <ele>194</ele>
        <time>2022-02-07T23:51:16Z</time>
      </trkpt>
      <trkpt lat="43.83423" lon="1.8659">
        <ele>193</ele>
        <time>2022-02-07T23:51:33Z</time>
      </trkpt>
      <trkpt lat="43.83455" lon="1.86588">
        <ele>193</ele>
        <time>2022-02-07T23:51:39Z</time>
      </trkpt>
      <trkpt lat="43.83477" lon="1.8659">
        <ele>194</ele>
        <time>2022-02-07T23:51:43Z</time>
      </trkpt>
      <trkpt lat="43.83579" lon="1.86414">
        <ele>192</ele>
        <time>2022-02-07T23:52:12Z</time>
      </trkpt>
      <trkpt lat="43.83613" lon="1.86348">
        <ele>192</ele>
        <time>2022-02-07T23:52:22Z</time>
      </trkpt>
      <trkpt lat="43.83663" lon="1.86172">
        <ele>188</ele>
        <time>2022-02-07T23:52:47Z</time>
      </trkpt>
      <trkpt lat="43.83841" lon="1.85506">
        <ele>171</ele>
        <time>2022-02-07T23:54:18Z</time>
      </trkpt>
      <trkpt lat="43.83861" lon="1.85444">
        <ele>168</ele>
        <time>2022-02-07T23:54:26Z</time>
      </trkpt>
      <trkpt lat="43.83881" lon="1.85397">
        <ele>165</ele>
        <time>2022-02-07T23:54:33Z</time>
      </trkpt>
      <trkpt lat="43.83945" lon="1.85271">
        <ele>160</ele>
        <time>2022-02-07T23:54:53Z</time>
      </trkpt>
      <trkpt lat="43.83971" lon="1.85204">
        <ele>160</ele>
        <time>2022-02-07T23:55:03Z</time>
      </trkpt>
      <trkpt lat="43.83981" lon="1.85155">
        <ele>160</ele>
        <time>2022-02-07T23:55:09Z</time>
      </trkpt>
      <trkpt lat="43.83973" lon="1.85083">
        <ele>160</ele>
        <time>2022-02-07T23:55:19Z</time>
      </trkpt>
      <trkpt lat="43.83943" lon="1.84981">
        <ele>165</ele>
        <time>2022-02-07T23:55:33Z</time>
      </trkpt>
      <trkpt lat="43.83926" lon="1.849">
        <ele>169</ele>
        <time>2022-02-07T23:55:44Z</time>
      </trkpt>
      <trkpt lat="43.83927" lon="1.84845">
        <ele>171</ele>
        <time>2022-02-07T23:55:51Z</time>
      </trkpt>
      <trkpt lat="43.83935" lon="1.84787">
        <ele>170</ele>
        <time>2022-02-07T23:55:58Z</time>
      </trkpt>
      <trkpt lat="43.83958" lon="1.84731">
        <ele>167</ele>
        <time>2022-02-07T23:56:07Z</time>
      </trkpt>
      <trkpt lat="43.8399" lon="1.84681">
        <ele>162</ele>
        <time>2022-02-07T23:56:15Z</time>
      </trkpt>
      <trkpt lat="43.84035" lon="1.84631">
        <ele>160</ele>
        <time>2022-02-07T23:56:26Z</time>
      </trkpt>
      <trkpt lat="43.84084" lon="1.84583">
        <ele>159</ele>
        <time>2022-02-07T23:56:36Z</time>
      </trkpt>
      <trkpt lat="43.84123" lon="1.84543">
        <ele>159</ele>
        <time>2022-02-07T23:56:45Z</time>
      </trkpt>
      <trkpt lat="43.84549" lon="1.84118">
        <ele>152</ele>
        <time>2022-02-07T23:58:18Z</time>
      </trkpt>
      <trkpt lat="43.84623" lon="1.84024">
        <ele>152</ele>
        <time>2022-02-07T23:58:36Z</time>
      </trkpt>
      <trkpt lat="43.84665" lon="1.83952">
        <ele>151</ele>
        <time>2022-02-07T23:58:48Z</time>
      </trkpt>
      <trkpt lat="43.84741" lon="1.83782">
        <ele>150</ele>
        <time>2022-02-07T23:59:14Z</time>
      </trkpt>
      <trkpt lat="43.8478" lon="1.83687">
        <ele>150</ele>
        <time>2022-02-07T23:59:28Z</time>
      </trkpt>
      <trkpt lat="43.84905" lon="1.83461">
        <ele>147</ele>
        <time>2022-02-08T00:00:04Z</time>
      </trkpt>
      <trkpt lat="43.84976" lon="1.83366">
        <ele>147</ele>
        <time>2022-02-08T00:00:22Z</time>
      </trkpt>
      <trkpt lat="43.85065" lon="1.83235">
        <ele>138</ele>
        <time>2022-02-08T00:00:45Z</time>
      </trkpt>
      <trkpt lat="43.85087" lon="1.83183">
        <ele>134</ele>
        <time>2022-02-08T00:00:53Z</time>
      </trkpt>
      <trkpt lat="43.85133" lon="1.83053">
        <ele>129</ele>
        <time>2022-02-08T00:01:11Z</time>
      </trkpt>
      <trkpt lat="43.85152" lon="1.82992">
        <ele>127</ele>
        <time>2022-02-08T00:01:20Z</time>
      </trkpt>
      <trkpt lat="43.8517" lon="1.82908">
        <ele>126</ele>
        <time>2022-02-08T00:01:31Z</time>
      </trkpt>
      <trkpt lat="43.85183" lon="1.82817">
        <ele>128</ele>
        <time>2022-02-08T00:01:43Z</time>
      </trkpt>
      <trkpt lat="43.85205" lon="1.82635">
        <ele>126</ele>
        <time>2022-02-08T00:02:07Z</time>
      </trkpt>
      <trkpt lat="43.85205" lon="1.82589">
        <ele>127</ele>
        <time>2022-02-08T00:02:12Z</time>
      </trkpt>
      <trkpt lat="43.85201" lon="1.82544">
        <ele>126</ele>
        <time>2022-02-08T00:02:18Z</time>
      </trkpt>
      <trkpt lat="43.85174" lon="1.82412">
        <ele>127</ele>
        <time>2022-02-08T00:02:36Z</time>
      </trkpt>
      <trkpt lat="43.8517" lon="1.82378">
        <ele>126</ele>
        <time>2022-02-08T00:02:40Z</time>
      </trkpt>
      <trkpt lat="43.85174" lon="1.82364">
        <ele>126</ele>
        <time>2022-02-08T00:02:42Z</time>
      </trkpt>
      <trkpt lat="43.85179" lon="1.82354">
        <ele>126</ele>
        <time>2022-02-08T00:02:44Z</time>
      </trkpt>
      <trkpt lat="43.85178" lon="1.82343">
        <ele>126</ele>
        <time>2022-02-08T00:02:45Z</time>
      </trkpt>
      <trkpt lat="43.85169" lon="1.8233">
        <ele>126</ele>
        <time>2022-02-08T00:02:47Z</time>
      </trkpt>
      <trkpt lat="43.85168" lon="1.82321">
        <ele>126</ele>
        <time>2022-02-08T00:02:49Z</time>
      </trkpt>
      <trkpt lat="43.85169" lon="1.82285">
        <ele>127</ele>
        <time>2022-02-08T00:02:53Z</time>
      </trkpt>
      <trkpt lat="43.85107" lon="1.81358">
        <ele>118</ele>
        <time>2022-02-08T00:04:53Z</time>
      </trkpt>
      <trkpt lat="43.85097" lon="1.81193">
        <ele>122</ele>
        <time>2022-02-08T00:05:14Z</time>
      </trkpt>
      <trkpt lat="43.85095" lon="1.8115">
        <ele>124</ele>
        <time>2022-02-08T00:05:20Z</time>
      </trkpt>
      <trkpt lat="43.85137" lon="1.81152">
        <ele>125</ele>
        <time>2022-02-08T00:05:27Z</time>
        <extensions>
          <visugpx:TrkExtension xmlns:visugpx="https://www.visugpx.com/editgpx/">
            <visugpx:node>1</visugpx:node>
            </visugpx:TrkExtension>
        </extensions>
      </trkpt>
    </trkseg>
  </trk>
  <trk>
    <name><![CDATA[BRM200-TARN AGOUT_2]]></name>
    <trkseg>
      <trkpt lat="43.91938" lon="2.036">
        <ele>146.4</ele>
      </trkpt>
    </trkseg>
  </trk>
</gpx>